<?xml version="1.0" encoding="UTF-8" standalone="no" ?>
<gpx xmlns="http://www.topografix.com/GPX/1/1" xmlns:xsi="http://www.w3.org/2001/XMLSchema-instance" xsi:schemaLocation="http://www.topografix.com/GPX/1/1 http://www.topografix.com/GPX/1/1/gpx.xsd" version="1.1" creator="VisuGPX - https://www.visugpx.com">
  <metadata>
    <name>Clisson 1ère partie avec modif</name>
    <desc><![CDATA[Clisson 1ère partie avec modif]]></desc>
  </metadata>
  <trk>
    <name><![CDATA[Clisson 1ère partie avec modif_1]]></name>
    <trkseg>
      <trkpt lat="47.45159" lon="-0.55763">
        <ele>62.4</ele>
        <time>2020-07-27T05:37:20Z</time>
      </trkpt>
      <trkpt lat="47.45143" lon="-0.55736">
        <ele>62.2</ele>
        <time>2020-07-27T05:37:27Z</time>
      </trkpt>
      <trkpt lat="47.4513" lon="-0.55722">
        <ele>62.4</ele>
        <time>2020-07-27T05:37:32Z</time>
      </trkpt>
      <trkpt lat="47.4512" lon="-0.55713">
        <ele>62.4</ele>
        <time>2020-07-27T05:37:35Z</time>
      </trkpt>
      <trkpt lat="47.45118" lon="-0.55707">
        <ele>62.4</ele>
        <time>2020-07-27T05:37:36Z</time>
      </trkpt>
      <trkpt lat="47.45113" lon="-0.55682">
        <ele>62.4</ele>
        <time>2020-07-27T05:37:40Z</time>
      </trkpt>
      <trkpt lat="47.45101" lon="-0.5566">
        <ele>62.4</ele>
        <time>2020-07-27T05:37:44Z</time>
      </trkpt>
      <trkpt lat="47.45098" lon="-0.55654">
        <ele>62.2</ele>
        <time>2020-07-27T05:37:45Z</time>
      </trkpt>
      <trkpt lat="47.45091" lon="-0.55619">
        <ele>61.4</ele>
        <time>2020-07-27T05:37:50Z</time>
      </trkpt>
      <trkpt lat="47.45092" lon="-0.55612">
        <ele>61</ele>
        <time>2020-07-27T05:37:51Z</time>
      </trkpt>
      <trkpt lat="47.45093" lon="-0.55605">
        <ele>60.6</ele>
        <time>2020-07-27T05:37:52Z</time>
      </trkpt>
      <trkpt lat="47.45095" lon="-0.55584">
        <ele>60.2</ele>
        <time>2020-07-27T05:37:55Z</time>
      </trkpt>
      <trkpt lat="47.45096" lon="-0.55577">
        <ele>60</ele>
        <time>2020-07-27T05:37:56Z</time>
      </trkpt>
      <trkpt lat="47.45097" lon="-0.55539">
        <ele>56.2</ele>
        <time>2020-07-27T05:38:02Z</time>
      </trkpt>
      <trkpt lat="47.45097" lon="-0.55533">
        <ele>55</ele>
        <time>2020-07-27T05:38:03Z</time>
      </trkpt>
      <trkpt lat="47.45098" lon="-0.55527">
        <ele>54.2</ele>
        <time>2020-07-27T05:38:04Z</time>
      </trkpt>
      <trkpt lat="47.45099" lon="-0.55521">
        <ele>53.4</ele>
        <time>2020-07-27T05:38:05Z</time>
      </trkpt>
      <trkpt lat="47.45103" lon="-0.55502">
        <ele>52.4</ele>
        <time>2020-07-27T05:38:08Z</time>
      </trkpt>
      <trkpt lat="47.45109" lon="-0.55472">
        <ele>51.2</ele>
        <time>2020-07-27T05:38:13Z</time>
      </trkpt>
      <trkpt lat="47.45119" lon="-0.55412">
        <ele>50.4</ele>
        <time>2020-07-27T05:38:22Z</time>
      </trkpt>
      <trkpt lat="47.45122" lon="-0.55399">
        <ele>50.2</ele>
        <time>2020-07-27T05:38:24Z</time>
      </trkpt>
      <trkpt lat="47.45127" lon="-0.55365">
        <ele>49.2</ele>
        <time>2020-07-27T05:38:29Z</time>
      </trkpt>
      <trkpt lat="47.45128" lon="-0.55358">
        <ele>49</ele>
        <time>2020-07-27T05:38:30Z</time>
      </trkpt>
      <trkpt lat="47.45132" lon="-0.55319">
        <ele>48.2</ele>
        <time>2020-07-27T05:38:36Z</time>
      </trkpt>
      <trkpt lat="47.45133" lon="-0.55313">
        <ele>48</ele>
        <time>2020-07-27T05:38:37Z</time>
      </trkpt>
      <trkpt lat="47.45132" lon="-0.55293">
        <ele>47.4</ele>
        <time>2020-07-27T05:38:42Z</time>
      </trkpt>
      <trkpt lat="47.4513" lon="-0.55289">
        <ele>47.4</ele>
        <time>2020-07-27T05:38:44Z</time>
      </trkpt>
      <trkpt lat="47.45123" lon="-0.55289">
        <ele>47</ele>
        <time>2020-07-27T05:38:46Z</time>
      </trkpt>
      <trkpt lat="47.4509" lon="-0.55285">
        <ele>46.6</ele>
        <time>2020-07-27T05:38:55Z</time>
      </trkpt>
      <trkpt lat="47.45081" lon="-0.55283">
        <ele>46</ele>
        <time>2020-07-27T05:38:58Z</time>
      </trkpt>
      <trkpt lat="47.45075" lon="-0.55281">
        <ele>45.6</ele>
        <time>2020-07-27T05:39:01Z</time>
      </trkpt>
      <trkpt lat="47.4507" lon="-0.5528">
        <ele>45.6</ele>
        <time>2020-07-27T05:39:25Z</time>
      </trkpt>
      <trkpt lat="47.45054" lon="-0.55279">
        <ele>45.6</ele>
        <time>2020-07-27T05:39:30Z</time>
      </trkpt>
      <trkpt lat="47.45027" lon="-0.55273">
        <ele>45</ele>
        <time>2020-07-27T05:39:35Z</time>
      </trkpt>
      <trkpt lat="47.45021" lon="-0.55272">
        <ele>44.8</ele>
        <time>2020-07-27T05:39:36Z</time>
      </trkpt>
      <trkpt lat="47.44996" lon="-0.55265">
        <ele>44.6</ele>
        <time>2020-07-27T05:39:41Z</time>
      </trkpt>
      <trkpt lat="47.44948" lon="-0.55256">
        <ele>44.4</ele>
        <time>2020-07-27T05:39:50Z</time>
      </trkpt>
      <trkpt lat="47.44899" lon="-0.55247">
        <ele>44.6</ele>
        <time>2020-07-27T05:39:59Z</time>
      </trkpt>
      <trkpt lat="47.44883" lon="-0.55244">
        <ele>43.4</ele>
        <time>2020-07-27T05:40:02Z</time>
      </trkpt>
      <trkpt lat="47.44873" lon="-0.55243">
        <ele>41.8</ele>
        <time>2020-07-27T05:40:04Z</time>
      </trkpt>
      <trkpt lat="47.44857" lon="-0.5524">
        <ele>41</ele>
        <time>2020-07-27T05:40:07Z</time>
      </trkpt>
      <trkpt lat="47.44845" lon="-0.55238">
        <ele>40.6</ele>
        <time>2020-07-27T05:40:09Z</time>
      </trkpt>
      <trkpt lat="47.4483" lon="-0.55235">
        <ele>39.4</ele>
        <time>2020-07-27T05:40:12Z</time>
      </trkpt>
      <trkpt lat="47.4482" lon="-0.55233">
        <ele>38.4</ele>
        <time>2020-07-27T05:40:14Z</time>
      </trkpt>
      <trkpt lat="47.44809" lon="-0.55232">
        <ele>37.2</ele>
        <time>2020-07-27T05:40:16Z</time>
      </trkpt>
      <trkpt lat="47.44804" lon="-0.55231">
        <ele>37</ele>
        <time>2020-07-27T05:40:17Z</time>
      </trkpt>
      <trkpt lat="47.44758" lon="-0.55222">
        <ele>36.6</ele>
        <time>2020-07-27T05:40:26Z</time>
      </trkpt>
      <trkpt lat="47.44728" lon="-0.55216">
        <ele>36.2</ele>
        <time>2020-07-27T05:40:32Z</time>
      </trkpt>
      <trkpt lat="47.44713" lon="-0.55213">
        <ele>35.4</ele>
        <time>2020-07-27T05:40:35Z</time>
      </trkpt>
      <trkpt lat="47.44703" lon="-0.55212">
        <ele>35.2</ele>
        <time>2020-07-27T05:40:37Z</time>
      </trkpt>
      <trkpt lat="47.44653" lon="-0.55204">
        <ele>34.4</ele>
        <time>2020-07-27T05:40:47Z</time>
      </trkpt>
      <trkpt lat="47.44643" lon="-0.55202">
        <ele>34.2</ele>
        <time>2020-07-27T05:40:49Z</time>
      </trkpt>
      <trkpt lat="47.44596" lon="-0.55192">
        <ele>33.6</ele>
        <time>2020-07-27T05:40:58Z</time>
      </trkpt>
      <trkpt lat="47.44569" lon="-0.5519">
        <ele>33</ele>
        <time>2020-07-27T05:41:03Z</time>
      </trkpt>
      <trkpt lat="47.44552" lon="-0.55188">
        <ele>32.6</ele>
        <time>2020-07-27T05:41:06Z</time>
      </trkpt>
      <trkpt lat="47.44529" lon="-0.55186">
        <ele>31.8</ele>
        <time>2020-07-27T05:41:10Z</time>
      </trkpt>
      <trkpt lat="47.44507" lon="-0.55182">
        <ele>30.8</ele>
        <time>2020-07-27T05:41:14Z</time>
      </trkpt>
      <trkpt lat="47.44501" lon="-0.55181">
        <ele>30.6</ele>
        <time>2020-07-27T05:41:15Z</time>
      </trkpt>
      <trkpt lat="47.44476" lon="-0.55178">
        <ele>29.6</ele>
        <time>2020-07-27T05:41:20Z</time>
      </trkpt>
      <trkpt lat="47.44472" lon="-0.55177">
        <ele>29.4</ele>
        <time>2020-07-27T05:41:21Z</time>
      </trkpt>
      <trkpt lat="47.44439" lon="-0.55173">
        <ele>28.4</ele>
        <time>2020-07-27T05:41:27Z</time>
      </trkpt>
      <trkpt lat="47.44387" lon="-0.55171">
        <ele>27.2</ele>
        <time>2020-07-27T05:41:36Z</time>
      </trkpt>
      <trkpt lat="47.44343" lon="-0.55181">
        <ele>26.6</ele>
        <time>2020-07-27T05:41:44Z</time>
      </trkpt>
      <trkpt lat="47.44327" lon="-0.55186">
        <ele>26.2</ele>
        <time>2020-07-27T05:41:47Z</time>
      </trkpt>
      <trkpt lat="47.44299" lon="-0.55193">
        <ele>26</ele>
        <time>2020-07-27T05:41:52Z</time>
      </trkpt>
      <trkpt lat="47.44258" lon="-0.55202">
        <ele>25.4</ele>
        <time>2020-07-27T05:41:59Z</time>
      </trkpt>
      <trkpt lat="47.44236" lon="-0.55207">
        <ele>25.2</ele>
        <time>2020-07-27T05:42:03Z</time>
      </trkpt>
      <trkpt lat="47.44219" lon="-0.5521">
        <ele>25.2</ele>
        <time>2020-07-27T05:42:06Z</time>
      </trkpt>
      <trkpt lat="47.4418" lon="-0.55218">
        <ele>25.4</ele>
        <time>2020-07-27T05:42:13Z</time>
      </trkpt>
      <trkpt lat="47.44129" lon="-0.55233">
        <ele>26</ele>
        <time>2020-07-27T05:42:22Z</time>
      </trkpt>
      <trkpt lat="47.44084" lon="-0.55255">
        <ele>25.8</ele>
        <time>2020-07-27T05:42:30Z</time>
      </trkpt>
      <trkpt lat="47.44041" lon="-0.55273">
        <ele>25.6</ele>
        <time>2020-07-27T05:42:38Z</time>
      </trkpt>
      <trkpt lat="47.43995" lon="-0.55285">
        <ele>24.8</ele>
        <time>2020-07-27T05:42:46Z</time>
      </trkpt>
      <trkpt lat="47.43961" lon="-0.55295">
        <ele>24</ele>
        <time>2020-07-27T05:42:52Z</time>
      </trkpt>
      <trkpt lat="47.43944" lon="-0.553">
        <ele>23.6</ele>
        <time>2020-07-27T05:42:55Z</time>
      </trkpt>
      <trkpt lat="47.43907" lon="-0.55312">
        <ele>23</ele>
        <time>2020-07-27T05:43:01Z</time>
      </trkpt>
      <trkpt lat="47.43882" lon="-0.5532">
        <ele>22.2</ele>
        <time>2020-07-27T05:43:05Z</time>
      </trkpt>
      <trkpt lat="47.43857" lon="-0.55327">
        <ele>22</ele>
        <time>2020-07-27T05:43:09Z</time>
      </trkpt>
      <trkpt lat="47.43834" lon="-0.55334">
        <ele>21.8</ele>
        <time>2020-07-27T05:43:13Z</time>
      </trkpt>
      <trkpt lat="47.43777" lon="-0.55352">
        <ele>21.6</ele>
        <time>2020-07-27T05:43:23Z</time>
      </trkpt>
      <trkpt lat="47.43726" lon="-0.55365">
        <ele>22</ele>
        <time>2020-07-27T05:43:32Z</time>
      </trkpt>
      <trkpt lat="47.43671" lon="-0.55379">
        <ele>22</ele>
        <time>2020-07-27T05:43:42Z</time>
      </trkpt>
      <trkpt lat="47.43624" lon="-0.55388">
        <ele>22.4</ele>
        <time>2020-07-27T05:43:51Z</time>
      </trkpt>
      <trkpt lat="47.43595" lon="-0.55393">
        <ele>23</ele>
        <time>2020-07-27T05:43:57Z</time>
      </trkpt>
      <trkpt lat="47.43582" lon="-0.55396">
        <ele>23.6</ele>
        <time>2020-07-27T05:44:00Z</time>
      </trkpt>
      <trkpt lat="47.43573" lon="-0.55399">
        <ele>24.2</ele>
        <time>2020-07-27T05:44:02Z</time>
      </trkpt>
      <trkpt lat="47.43555" lon="-0.55403">
        <ele>25.2</ele>
        <time>2020-07-27T05:44:06Z</time>
      </trkpt>
      <trkpt lat="47.43538" lon="-0.55407">
        <ele>26.4</ele>
        <time>2020-07-27T05:44:10Z</time>
      </trkpt>
      <trkpt lat="47.43516" lon="-0.55413">
        <ele>27.4</ele>
        <time>2020-07-27T05:44:15Z</time>
      </trkpt>
      <trkpt lat="47.43504" lon="-0.55415">
        <ele>27.6</ele>
        <time>2020-07-27T05:44:18Z</time>
      </trkpt>
      <trkpt lat="47.43474" lon="-0.55422">
        <ele>28.6</ele>
        <time>2020-07-27T05:44:25Z</time>
      </trkpt>
      <trkpt lat="47.43466" lon="-0.55423">
        <ele>29</ele>
        <time>2020-07-27T05:44:27Z</time>
      </trkpt>
      <trkpt lat="47.43443" lon="-0.55428">
        <ele>29.6</ele>
        <time>2020-07-27T05:44:33Z</time>
      </trkpt>
      <trkpt lat="47.43432" lon="-0.55432">
        <ele>30</ele>
        <time>2020-07-27T05:44:36Z</time>
      </trkpt>
      <trkpt lat="47.43421" lon="-0.55435">
        <ele>30.8</ele>
        <time>2020-07-27T05:44:39Z</time>
      </trkpt>
      <trkpt lat="47.43406" lon="-0.55439">
        <ele>31.8</ele>
        <time>2020-07-27T05:44:43Z</time>
      </trkpt>
      <trkpt lat="47.43402" lon="-0.55439">
        <ele>32</ele>
        <time>2020-07-27T05:44:44Z</time>
      </trkpt>
      <trkpt lat="47.4339" lon="-0.55441">
        <ele>33</ele>
        <time>2020-07-27T05:44:47Z</time>
      </trkpt>
      <trkpt lat="47.43379" lon="-0.55445">
        <ele>34</ele>
        <time>2020-07-27T05:44:50Z</time>
      </trkpt>
      <trkpt lat="47.43369" lon="-0.55449">
        <ele>35</ele>
        <time>2020-07-27T05:44:53Z</time>
      </trkpt>
      <trkpt lat="47.43354" lon="-0.55455">
        <ele>36.4</ele>
        <time>2020-07-27T05:44:57Z</time>
      </trkpt>
      <trkpt lat="47.4334" lon="-0.55462">
        <ele>37</ele>
        <time>2020-07-27T05:45:01Z</time>
      </trkpt>
      <trkpt lat="47.43332" lon="-0.55467">
        <ele>37.4</ele>
        <time>2020-07-27T05:45:04Z</time>
      </trkpt>
      <trkpt lat="47.43331" lon="-0.55472">
        <ele>37.4</ele>
        <time>2020-07-27T05:45:05Z</time>
      </trkpt>
      <trkpt lat="47.43331" lon="-0.55475">
        <ele>37.6</ele>
        <time>2020-07-27T05:45:06Z</time>
      </trkpt>
      <trkpt lat="47.43334" lon="-0.55479">
        <ele>38</ele>
        <time>2020-07-27T05:46:10Z</time>
      </trkpt>
      <trkpt lat="47.4333" lon="-0.55472">
        <ele>37</ele>
        <time>2020-07-27T05:46:12Z</time>
      </trkpt>
      <trkpt lat="47.4332" lon="-0.5547">
        <ele>36</ele>
        <time>2020-07-27T05:46:14Z</time>
      </trkpt>
      <trkpt lat="47.43316" lon="-0.5547">
        <ele>35.8</ele>
        <time>2020-07-27T05:46:15Z</time>
      </trkpt>
      <trkpt lat="47.43311" lon="-0.55471">
        <ele>36</ele>
        <time>2020-07-27T05:46:16Z</time>
      </trkpt>
      <trkpt lat="47.43293" lon="-0.55474">
        <ele>37.4</ele>
        <time>2020-07-27T05:46:20Z</time>
      </trkpt>
      <trkpt lat="47.43283" lon="-0.55478">
        <ele>38.6</ele>
        <time>2020-07-27T05:46:22Z</time>
      </trkpt>
      <trkpt lat="47.43274" lon="-0.55482">
        <ele>39.6</ele>
        <time>2020-07-27T05:46:24Z</time>
      </trkpt>
      <trkpt lat="47.43265" lon="-0.55485">
        <ele>40.8</ele>
        <time>2020-07-27T05:46:26Z</time>
      </trkpt>
      <trkpt lat="47.43251" lon="-0.55492">
        <ele>42</ele>
        <time>2020-07-27T05:46:29Z</time>
      </trkpt>
      <trkpt lat="47.43241" lon="-0.55496">
        <ele>42.8</ele>
        <time>2020-07-27T05:46:31Z</time>
      </trkpt>
      <trkpt lat="47.43236" lon="-0.55498">
        <ele>43</ele>
        <time>2020-07-27T05:46:32Z</time>
      </trkpt>
      <trkpt lat="47.43211" lon="-0.55514">
        <ele>43.8</ele>
        <time>2020-07-27T05:46:38Z</time>
      </trkpt>
      <trkpt lat="47.4321" lon="-0.55519">
        <ele>43.8</ele>
        <time>2020-07-27T05:46:39Z</time>
      </trkpt>
      <trkpt lat="47.4321" lon="-0.55526">
        <ele>43.4</ele>
        <time>2020-07-27T05:46:41Z</time>
      </trkpt>
      <trkpt lat="47.43211" lon="-0.55529">
        <ele>42.4</ele>
        <time>2020-07-27T05:46:47Z</time>
      </trkpt>
      <trkpt lat="47.4321" lon="-0.55531">
        <ele>42.4</ele>
        <time>2020-07-27T05:46:48Z</time>
      </trkpt>
      <trkpt lat="47.43209" lon="-0.55532">
        <ele>42.2</ele>
        <time>2020-07-27T05:46:49Z</time>
      </trkpt>
      <trkpt lat="47.43205" lon="-0.55533">
        <ele>41.8</ele>
        <time>2020-07-27T05:46:52Z</time>
      </trkpt>
      <trkpt lat="47.43204" lon="-0.55533">
        <ele>41.8</ele>
        <time>2020-07-27T05:46:53Z</time>
      </trkpt>
      <trkpt lat="47.43204" lon="-0.5553">
        <ele>38.4</ele>
        <time>2020-07-27T05:52:45Z</time>
      </trkpt>
      <trkpt lat="47.43206" lon="-0.55527">
        <ele>37.6</ele>
        <time>2020-07-27T05:52:47Z</time>
      </trkpt>
      <trkpt lat="47.43208" lon="-0.55525">
        <ele>37.2</ele>
        <time>2020-07-27T05:52:49Z</time>
      </trkpt>
      <trkpt lat="47.43213" lon="-0.5552">
        <ele>36.4</ele>
        <time>2020-07-27T05:52:54Z</time>
      </trkpt>
      <trkpt lat="47.43217" lon="-0.55518">
        <ele>36</ele>
        <time>2020-07-27T05:52:56Z</time>
      </trkpt>
      <trkpt lat="47.43218" lon="-0.55515">
        <ele>35.8</ele>
        <time>2020-07-27T05:52:57Z</time>
      </trkpt>
      <trkpt lat="47.43224" lon="-0.55509">
        <ele>35.4</ele>
        <time>2020-07-27T05:53:00Z</time>
      </trkpt>
      <trkpt lat="47.43244" lon="-0.55499">
        <ele>35</ele>
        <time>2020-07-27T05:53:07Z</time>
      </trkpt>
      <trkpt lat="47.4325" lon="-0.55496">
        <ele>34.8</ele>
        <time>2020-07-27T05:53:09Z</time>
      </trkpt>
      <trkpt lat="47.43275" lon="-0.55486">
        <ele>34.8</ele>
        <time>2020-07-27T05:53:17Z</time>
      </trkpt>
      <trkpt lat="47.43304" lon="-0.55474">
        <ele>34.8</ele>
        <time>2020-07-27T05:53:26Z</time>
      </trkpt>
      <trkpt lat="47.43322" lon="-0.55469">
        <ele>34</ele>
        <time>2020-07-27T05:53:33Z</time>
      </trkpt>
      <trkpt lat="47.43317" lon="-0.55473">
        <ele>34</ele>
        <time>2020-07-27T05:55:06Z</time>
      </trkpt>
      <trkpt lat="47.43305" lon="-0.55476">
        <ele>33.6</ele>
        <time>2020-07-27T05:58:01Z</time>
      </trkpt>
      <trkpt lat="47.4329" lon="-0.55483">
        <ele>33.8</ele>
        <time>2020-07-27T05:58:07Z</time>
      </trkpt>
      <trkpt lat="47.43265" lon="-0.55491">
        <ele>32.6</ele>
        <time>2020-07-27T05:58:15Z</time>
      </trkpt>
      <trkpt lat="47.43249" lon="-0.55497">
        <ele>31.4</ele>
        <time>2020-07-27T05:58:20Z</time>
      </trkpt>
      <trkpt lat="47.43241" lon="-0.55501">
        <ele>30.8</ele>
        <time>2020-07-27T05:58:23Z</time>
      </trkpt>
      <trkpt lat="47.43229" lon="-0.55506">
        <ele>31</ele>
        <time>2020-07-27T05:58:29Z</time>
      </trkpt>
      <trkpt lat="47.43226" lon="-0.55508">
        <ele>30.8</ele>
        <time>2020-07-27T05:58:37Z</time>
      </trkpt>
      <trkpt lat="47.43222" lon="-0.5551">
        <ele>30.4</ele>
        <time>2020-07-27T05:58:39Z</time>
      </trkpt>
      <trkpt lat="47.43219" lon="-0.55511">
        <ele>30.2</ele>
        <time>2020-07-27T05:58:40Z</time>
      </trkpt>
      <trkpt lat="47.43206" lon="-0.55515">
        <ele>29.4</ele>
        <time>2020-07-27T05:58:44Z</time>
      </trkpt>
      <trkpt lat="47.43177" lon="-0.55523">
        <ele>29.2</ele>
        <time>2020-07-27T05:58:50Z</time>
      </trkpt>
      <trkpt lat="47.43166" lon="-0.55527">
        <ele>29</ele>
        <time>2020-07-27T05:58:52Z</time>
      </trkpt>
      <trkpt lat="47.43135" lon="-0.55538">
        <ele>28.4</ele>
        <time>2020-07-27T05:58:57Z</time>
      </trkpt>
      <trkpt lat="47.43122" lon="-0.55541">
        <ele>28</ele>
        <time>2020-07-27T05:58:59Z</time>
      </trkpt>
      <trkpt lat="47.43081" lon="-0.55554">
        <ele>27</ele>
        <time>2020-07-27T05:59:05Z</time>
      </trkpt>
      <trkpt lat="47.43067" lon="-0.55559">
        <ele>26.6</ele>
        <time>2020-07-27T05:59:07Z</time>
      </trkpt>
      <trkpt lat="47.43019" lon="-0.55579">
        <ele>25.8</ele>
        <time>2020-07-27T05:59:14Z</time>
      </trkpt>
      <trkpt lat="47.43012" lon="-0.55581">
        <ele>25.6</ele>
        <time>2020-07-27T05:59:15Z</time>
      </trkpt>
      <trkpt lat="47.42958" lon="-0.55601">
        <ele>25</ele>
        <time>2020-07-27T05:59:23Z</time>
      </trkpt>
      <trkpt lat="47.42952" lon="-0.55603">
        <ele>24.8</ele>
        <time>2020-07-27T05:59:24Z</time>
      </trkpt>
      <trkpt lat="47.42945" lon="-0.55606">
        <ele>24.8</ele>
        <time>2020-07-27T05:59:25Z</time>
      </trkpt>
      <trkpt lat="47.42896" lon="-0.55622">
        <ele>24.4</ele>
        <time>2020-07-27T05:59:33Z</time>
      </trkpt>
      <trkpt lat="47.42864" lon="-0.55632">
        <ele>23.8</ele>
        <time>2020-07-27T05:59:39Z</time>
      </trkpt>
      <trkpt lat="47.42848" lon="-0.55635">
        <ele>23.6</ele>
        <time>2020-07-27T05:59:42Z</time>
      </trkpt>
      <trkpt lat="47.42819" lon="-0.55648">
        <ele>23.2</ele>
        <time>2020-07-27T05:59:49Z</time>
      </trkpt>
      <trkpt lat="47.42807" lon="-0.55653">
        <ele>23.4</ele>
        <time>2020-07-27T05:59:54Z</time>
      </trkpt>
      <trkpt lat="47.42806" lon="-0.55654">
        <ele>23.4</ele>
        <time>2020-07-27T05:59:55Z</time>
      </trkpt>
      <trkpt lat="47.42801" lon="-0.55658">
        <ele>23</ele>
        <time>2020-07-27T06:00:39Z</time>
      </trkpt>
      <trkpt lat="47.428" lon="-0.55659">
        <ele>22.8</ele>
        <time>2020-07-27T06:00:40Z</time>
      </trkpt>
      <trkpt lat="47.42791" lon="-0.55677">
        <ele>23</ele>
        <time>2020-07-27T06:00:45Z</time>
      </trkpt>
      <trkpt lat="47.42789" lon="-0.557">
        <ele>22.6</ele>
        <time>2020-07-27T06:00:49Z</time>
      </trkpt>
      <trkpt lat="47.42789" lon="-0.55707">
        <ele>22.4</ele>
        <time>2020-07-27T06:00:50Z</time>
      </trkpt>
      <trkpt lat="47.42784" lon="-0.55766">
        <ele>22.2</ele>
        <time>2020-07-27T06:00:58Z</time>
      </trkpt>
      <trkpt lat="47.42773" lon="-0.55835">
        <ele>23.4</ele>
        <time>2020-07-27T06:01:07Z</time>
      </trkpt>
      <trkpt lat="47.42771" lon="-0.55851">
        <ele>23.8</ele>
        <time>2020-07-27T06:01:09Z</time>
      </trkpt>
      <trkpt lat="47.42763" lon="-0.55897">
        <ele>24.2</ele>
        <time>2020-07-27T06:01:15Z</time>
      </trkpt>
      <trkpt lat="47.42757" lon="-0.5592">
        <ele>25</ele>
        <time>2020-07-27T06:01:18Z</time>
      </trkpt>
      <trkpt lat="47.42749" lon="-0.55952">
        <ele>25.8</ele>
        <time>2020-07-27T06:01:22Z</time>
      </trkpt>
      <trkpt lat="47.42743" lon="-0.55976">
        <ele>26</ele>
        <time>2020-07-27T06:01:25Z</time>
      </trkpt>
      <trkpt lat="47.42727" lon="-0.56028">
        <ele>27</ele>
        <time>2020-07-27T06:01:32Z</time>
      </trkpt>
      <trkpt lat="47.42725" lon="-0.56036">
        <ele>27.2</ele>
        <time>2020-07-27T06:01:33Z</time>
      </trkpt>
      <trkpt lat="47.42703" lon="-0.56101">
        <ele>28.2</ele>
        <time>2020-07-27T06:01:42Z</time>
      </trkpt>
      <trkpt lat="47.42683" lon="-0.5616">
        <ele>29</ele>
        <time>2020-07-27T06:01:50Z</time>
      </trkpt>
      <trkpt lat="47.42676" lon="-0.56183">
        <ele>29.2</ele>
        <time>2020-07-27T06:01:53Z</time>
      </trkpt>
      <trkpt lat="47.42662" lon="-0.56228">
        <ele>30</ele>
        <time>2020-07-27T06:01:59Z</time>
      </trkpt>
      <trkpt lat="47.42654" lon="-0.56251">
        <ele>30.4</ele>
        <time>2020-07-27T06:02:02Z</time>
      </trkpt>
      <trkpt lat="47.42633" lon="-0.56314">
        <ele>31</ele>
        <time>2020-07-27T06:02:10Z</time>
      </trkpt>
      <trkpt lat="47.42609" lon="-0.56383">
        <ele>31</ele>
        <time>2020-07-27T06:02:19Z</time>
      </trkpt>
      <trkpt lat="47.42594" lon="-0.56433">
        <ele>31</ele>
        <time>2020-07-27T06:02:26Z</time>
      </trkpt>
      <trkpt lat="47.42594" lon="-0.56441">
        <ele>31</ele>
        <time>2020-07-27T06:02:27Z</time>
      </trkpt>
      <trkpt lat="47.426" lon="-0.56464">
        <ele>30.6</ele>
        <time>2020-07-27T06:02:30Z</time>
      </trkpt>
      <trkpt lat="47.42597" lon="-0.56489">
        <ele>30.6</ele>
        <time>2020-07-27T06:02:33Z</time>
      </trkpt>
      <trkpt lat="47.42583" lon="-0.56501">
        <ele>30.2</ele>
        <time>2020-07-27T06:02:36Z</time>
      </trkpt>
      <trkpt lat="47.42564" lon="-0.5652">
        <ele>30.4</ele>
        <time>2020-07-27T06:02:40Z</time>
      </trkpt>
      <trkpt lat="47.42558" lon="-0.56535">
        <ele>30.8</ele>
        <time>2020-07-27T06:02:42Z</time>
      </trkpt>
      <trkpt lat="47.42548" lon="-0.56567">
        <ele>31</ele>
        <time>2020-07-27T06:02:46Z</time>
      </trkpt>
      <trkpt lat="47.42519" lon="-0.56639">
        <ele>31</ele>
        <time>2020-07-27T06:02:55Z</time>
      </trkpt>
      <trkpt lat="47.42516" lon="-0.56647">
        <ele>31</ele>
        <time>2020-07-27T06:02:56Z</time>
      </trkpt>
      <trkpt lat="47.42484" lon="-0.56719">
        <ele>30.6</ele>
        <time>2020-07-27T06:03:05Z</time>
      </trkpt>
      <trkpt lat="47.42451" lon="-0.56791">
        <ele>30.6</ele>
        <time>2020-07-27T06:03:14Z</time>
      </trkpt>
      <trkpt lat="47.42447" lon="-0.56799">
        <ele>30.6</ele>
        <time>2020-07-27T06:03:15Z</time>
      </trkpt>
      <trkpt lat="47.42415" lon="-0.56871">
        <ele>30.6</ele>
        <time>2020-07-27T06:03:24Z</time>
      </trkpt>
      <trkpt lat="47.42401" lon="-0.56902">
        <ele>30.6</ele>
        <time>2020-07-27T06:03:28Z</time>
      </trkpt>
      <trkpt lat="47.42369" lon="-0.56972">
        <ele>30.8</ele>
        <time>2020-07-27T06:03:37Z</time>
      </trkpt>
      <trkpt lat="47.42358" lon="-0.56995">
        <ele>30.8</ele>
        <time>2020-07-27T06:03:40Z</time>
      </trkpt>
      <trkpt lat="47.42327" lon="-0.57063">
        <ele>31.2</ele>
        <time>2020-07-27T06:03:49Z</time>
      </trkpt>
      <trkpt lat="47.4232" lon="-0.57078">
        <ele>31.2</ele>
        <time>2020-07-27T06:03:51Z</time>
      </trkpt>
      <trkpt lat="47.42299" lon="-0.57123">
        <ele>31.4</ele>
        <time>2020-07-27T06:03:57Z</time>
      </trkpt>
      <trkpt lat="47.42282" lon="-0.57161">
        <ele>31.6</ele>
        <time>2020-07-27T06:04:02Z</time>
      </trkpt>
      <trkpt lat="47.42249" lon="-0.57234">
        <ele>32</ele>
        <time>2020-07-27T06:04:12Z</time>
      </trkpt>
      <trkpt lat="47.42225" lon="-0.57294">
        <ele>32</ele>
        <time>2020-07-27T06:04:20Z</time>
      </trkpt>
      <trkpt lat="47.42197" lon="-0.57371">
        <ele>32</ele>
        <time>2020-07-27T06:04:30Z</time>
      </trkpt>
      <trkpt lat="47.42194" lon="-0.57379">
        <ele>32.2</ele>
        <time>2020-07-27T06:04:31Z</time>
      </trkpt>
      <trkpt lat="47.42172" lon="-0.57452">
        <ele>32</ele>
        <time>2020-07-27T06:04:40Z</time>
      </trkpt>
      <trkpt lat="47.42151" lon="-0.57528">
        <ele>32</ele>
        <time>2020-07-27T06:04:49Z</time>
      </trkpt>
      <trkpt lat="47.42133" lon="-0.57608">
        <ele>31.8</ele>
        <time>2020-07-27T06:04:58Z</time>
      </trkpt>
      <trkpt lat="47.42117" lon="-0.5769">
        <ele>31.2</ele>
        <time>2020-07-27T06:05:07Z</time>
      </trkpt>
      <trkpt lat="47.42105" lon="-0.57776">
        <ele>30.6</ele>
        <time>2020-07-27T06:05:16Z</time>
      </trkpt>
      <trkpt lat="47.42104" lon="-0.57786">
        <ele>30.6</ele>
        <time>2020-07-27T06:05:17Z</time>
      </trkpt>
      <trkpt lat="47.42095" lon="-0.57872">
        <ele>30.4</ele>
        <time>2020-07-27T06:05:26Z</time>
      </trkpt>
      <trkpt lat="47.42093" lon="-0.57892">
        <ele>30.2</ele>
        <time>2020-07-27T06:05:28Z</time>
      </trkpt>
      <trkpt lat="47.42086" lon="-0.57972">
        <ele>29.8</ele>
        <time>2020-07-27T06:05:36Z</time>
      </trkpt>
      <trkpt lat="47.42084" lon="-0.57992">
        <ele>29.8</ele>
        <time>2020-07-27T06:05:38Z</time>
      </trkpt>
      <trkpt lat="47.42077" lon="-0.58053">
        <ele>29.2</ele>
        <time>2020-07-27T06:05:44Z</time>
      </trkpt>
      <trkpt lat="47.4207" lon="-0.58105">
        <ele>28.6</ele>
        <time>2020-07-27T06:05:49Z</time>
      </trkpt>
      <trkpt lat="47.42067" lon="-0.58125">
        <ele>28.2</ele>
        <time>2020-07-27T06:05:51Z</time>
      </trkpt>
      <trkpt lat="47.42058" lon="-0.58187">
        <ele>27.2</ele>
        <time>2020-07-27T06:05:57Z</time>
      </trkpt>
      <trkpt lat="47.42059" lon="-0.58197">
        <ele>27</ele>
        <time>2020-07-27T06:05:58Z</time>
      </trkpt>
      <trkpt lat="47.42055" lon="-0.58237">
        <ele>26.8</ele>
        <time>2020-07-27T06:06:02Z</time>
      </trkpt>
      <trkpt lat="47.42044" lon="-0.58252">
        <ele>26.6</ele>
        <time>2020-07-27T06:06:04Z</time>
      </trkpt>
      <trkpt lat="47.4204" lon="-0.58261">
        <ele>26.4</ele>
        <time>2020-07-27T06:06:05Z</time>
      </trkpt>
      <trkpt lat="47.42033" lon="-0.58292">
        <ele>26</ele>
        <time>2020-07-27T06:06:08Z</time>
      </trkpt>
      <trkpt lat="47.42019" lon="-0.58368">
        <ele>25.6</ele>
        <time>2020-07-27T06:06:15Z</time>
      </trkpt>
      <trkpt lat="47.42007" lon="-0.5844">
        <ele>25</ele>
        <time>2020-07-27T06:06:22Z</time>
      </trkpt>
      <trkpt lat="47.41992" lon="-0.58519">
        <ele>24.6</ele>
        <time>2020-07-27T06:06:30Z</time>
      </trkpt>
      <trkpt lat="47.4199" lon="-0.58529">
        <ele>24.6</ele>
        <time>2020-07-27T06:06:31Z</time>
      </trkpt>
      <trkpt lat="47.41975" lon="-0.58609">
        <ele>24.2</ele>
        <time>2020-07-27T06:06:39Z</time>
      </trkpt>
      <trkpt lat="47.41967" lon="-0.58648">
        <ele>24</ele>
        <time>2020-07-27T06:06:43Z</time>
      </trkpt>
      <trkpt lat="47.41953" lon="-0.58727">
        <ele>23.8</ele>
        <time>2020-07-27T06:06:51Z</time>
      </trkpt>
      <trkpt lat="47.41949" lon="-0.58747">
        <ele>23.6</ele>
        <time>2020-07-27T06:06:53Z</time>
      </trkpt>
      <trkpt lat="47.41935" lon="-0.58817">
        <ele>22.8</ele>
        <time>2020-07-27T06:07:00Z</time>
      </trkpt>
      <trkpt lat="47.41928" lon="-0.58857">
        <ele>22.4</ele>
        <time>2020-07-27T06:07:04Z</time>
      </trkpt>
      <trkpt lat="47.41922" lon="-0.58887">
        <ele>21.8</ele>
        <time>2020-07-27T06:07:07Z</time>
      </trkpt>
      <trkpt lat="47.41909" lon="-0.58959">
        <ele>20.8</ele>
        <time>2020-07-27T06:07:14Z</time>
      </trkpt>
      <trkpt lat="47.41908" lon="-0.58969">
        <ele>20.8</ele>
        <time>2020-07-27T06:07:15Z</time>
      </trkpt>
      <trkpt lat="47.41895" lon="-0.5905">
        <ele>19.8</ele>
        <time>2020-07-27T06:07:23Z</time>
      </trkpt>
      <trkpt lat="47.41892" lon="-0.59069">
        <ele>19.8</ele>
        <time>2020-07-27T06:07:25Z</time>
      </trkpt>
      <trkpt lat="47.41884" lon="-0.59138">
        <ele>19.6</ele>
        <time>2020-07-27T06:07:32Z</time>
      </trkpt>
      <trkpt lat="47.41877" lon="-0.59226">
        <ele>19.6</ele>
        <time>2020-07-27T06:07:41Z</time>
      </trkpt>
      <trkpt lat="47.41876" lon="-0.59246">
        <ele>19.4</ele>
        <time>2020-07-27T06:07:43Z</time>
      </trkpt>
      <trkpt lat="47.41872" lon="-0.5933">
        <ele>19.4</ele>
        <time>2020-07-27T06:07:52Z</time>
      </trkpt>
      <trkpt lat="47.41872" lon="-0.5934">
        <ele>19.2</ele>
        <time>2020-07-27T06:07:53Z</time>
      </trkpt>
      <trkpt lat="47.41872" lon="-0.5942">
        <ele>19.4</ele>
        <time>2020-07-27T06:08:01Z</time>
      </trkpt>
      <trkpt lat="47.41872" lon="-0.59429">
        <ele>19.4</ele>
        <time>2020-07-27T06:08:02Z</time>
      </trkpt>
      <trkpt lat="47.41873" lon="-0.59513">
        <ele>20</ele>
        <time>2020-07-27T06:08:11Z</time>
      </trkpt>
      <trkpt lat="47.41873" lon="-0.59523">
        <ele>20</ele>
        <time>2020-07-27T06:08:12Z</time>
      </trkpt>
      <trkpt lat="47.41877" lon="-0.59578">
        <ele>20.6</ele>
        <time>2020-07-27T06:08:18Z</time>
      </trkpt>
      <trkpt lat="47.41881" lon="-0.59585">
        <ele>20.6</ele>
        <time>2020-07-27T06:08:19Z</time>
      </trkpt>
      <trkpt lat="47.4189" lon="-0.59597">
        <ele>20.8</ele>
        <time>2020-07-27T06:08:21Z</time>
      </trkpt>
      <trkpt lat="47.41895" lon="-0.59604">
        <ele>20.8</ele>
        <time>2020-07-27T06:08:22Z</time>
      </trkpt>
      <trkpt lat="47.41897" lon="-0.59612">
        <ele>21</ele>
        <time>2020-07-27T06:08:23Z</time>
      </trkpt>
      <trkpt lat="47.41891" lon="-0.59638">
        <ele>21.2</ele>
        <time>2020-07-27T06:08:26Z</time>
      </trkpt>
      <trkpt lat="47.41879" lon="-0.59673">
        <ele>21</ele>
        <time>2020-07-27T06:08:30Z</time>
      </trkpt>
      <trkpt lat="47.41878" lon="-0.59692">
        <ele>20.8</ele>
        <time>2020-07-27T06:08:32Z</time>
      </trkpt>
      <trkpt lat="47.41878" lon="-0.59722">
        <ele>20.4</ele>
        <time>2020-07-27T06:08:35Z</time>
      </trkpt>
      <trkpt lat="47.41881" lon="-0.59792">
        <ele>20</ele>
        <time>2020-07-27T06:08:42Z</time>
      </trkpt>
      <trkpt lat="47.41882" lon="-0.59811">
        <ele>19.8</ele>
        <time>2020-07-27T06:08:44Z</time>
      </trkpt>
      <trkpt lat="47.41882" lon="-0.59869">
        <ele>19.4</ele>
        <time>2020-07-27T06:08:50Z</time>
      </trkpt>
      <trkpt lat="47.41882" lon="-0.59949">
        <ele>19.2</ele>
        <time>2020-07-27T06:08:58Z</time>
      </trkpt>
      <trkpt lat="47.41884" lon="-0.60029">
        <ele>19.2</ele>
        <time>2020-07-27T06:09:06Z</time>
      </trkpt>
      <trkpt lat="47.41884" lon="-0.6004">
        <ele>19.2</ele>
        <time>2020-07-27T06:09:07Z</time>
      </trkpt>
      <trkpt lat="47.41886" lon="-0.6012">
        <ele>19.2</ele>
        <time>2020-07-27T06:09:15Z</time>
      </trkpt>
      <trkpt lat="47.41887" lon="-0.6015">
        <ele>19.2</ele>
        <time>2020-07-27T06:09:18Z</time>
      </trkpt>
      <trkpt lat="47.41891" lon="-0.60238">
        <ele>19.2</ele>
        <time>2020-07-27T06:09:27Z</time>
      </trkpt>
      <trkpt lat="47.41892" lon="-0.60248">
        <ele>19</ele>
        <time>2020-07-27T06:09:28Z</time>
      </trkpt>
      <trkpt lat="47.41899" lon="-0.60327">
        <ele>19</ele>
        <time>2020-07-27T06:09:36Z</time>
      </trkpt>
      <trkpt lat="47.41902" lon="-0.60347">
        <ele>19</ele>
        <time>2020-07-27T06:09:38Z</time>
      </trkpt>
      <trkpt lat="47.41914" lon="-0.60431">
        <ele>19.8</ele>
        <time>2020-07-27T06:09:47Z</time>
      </trkpt>
      <trkpt lat="47.41917" lon="-0.6045">
        <ele>19.8</ele>
        <time>2020-07-27T06:09:49Z</time>
      </trkpt>
      <trkpt lat="47.41933" lon="-0.60529">
        <ele>19.6</ele>
        <time>2020-07-27T06:09:58Z</time>
      </trkpt>
      <trkpt lat="47.41935" lon="-0.60538">
        <ele>19.6</ele>
        <time>2020-07-27T06:09:59Z</time>
      </trkpt>
      <trkpt lat="47.41953" lon="-0.60607">
        <ele>19.4</ele>
        <time>2020-07-27T06:10:07Z</time>
      </trkpt>
      <trkpt lat="47.41964" lon="-0.60641">
        <ele>19.4</ele>
        <time>2020-07-27T06:10:11Z</time>
      </trkpt>
      <trkpt lat="47.41969" lon="-0.60659">
        <ele>19.6</ele>
        <time>2020-07-27T06:10:13Z</time>
      </trkpt>
      <trkpt lat="47.41989" lon="-0.60724">
        <ele>19.8</ele>
        <time>2020-07-27T06:10:21Z</time>
      </trkpt>
      <trkpt lat="47.42008" lon="-0.60774">
        <ele>20.6</ele>
        <time>2020-07-27T06:10:28Z</time>
      </trkpt>
      <trkpt lat="47.42015" lon="-0.60794">
        <ele>20.8</ele>
        <time>2020-07-27T06:10:31Z</time>
      </trkpt>
      <trkpt lat="47.42026" lon="-0.60825">
        <ele>21.8</ele>
        <time>2020-07-27T06:10:36Z</time>
      </trkpt>
      <trkpt lat="47.42043" lon="-0.6087">
        <ele>22.6</ele>
        <time>2020-07-27T06:10:43Z</time>
      </trkpt>
      <trkpt lat="47.42048" lon="-0.60884">
        <ele>23</ele>
        <time>2020-07-27T06:10:45Z</time>
      </trkpt>
      <trkpt lat="47.42065" lon="-0.60931">
        <ele>23.2</ele>
        <time>2020-07-27T06:10:51Z</time>
      </trkpt>
      <trkpt lat="47.42082" lon="-0.60974">
        <ele>22</ele>
        <time>2020-07-27T06:10:57Z</time>
      </trkpt>
      <trkpt lat="47.42084" lon="-0.60978">
        <ele>21.8</ele>
        <time>2020-07-27T06:10:58Z</time>
      </trkpt>
      <trkpt lat="47.42091" lon="-0.60984">
        <ele>21.4</ele>
        <time>2020-07-27T06:11:01Z</time>
      </trkpt>
      <trkpt lat="47.42102" lon="-0.60988">
        <ele>21</ele>
        <time>2020-07-27T06:11:04Z</time>
      </trkpt>
      <trkpt lat="47.42106" lon="-0.60992">
        <ele>20.8</ele>
        <time>2020-07-27T06:11:05Z</time>
      </trkpt>
      <trkpt lat="47.42114" lon="-0.6101">
        <ele>20.6</ele>
        <time>2020-07-27T06:11:08Z</time>
      </trkpt>
      <trkpt lat="47.42109" lon="-0.61032">
        <ele>20.6</ele>
        <time>2020-07-27T06:11:11Z</time>
      </trkpt>
      <trkpt lat="47.42095" lon="-0.61041">
        <ele>20.4</ele>
        <time>2020-07-27T06:11:14Z</time>
      </trkpt>
      <trkpt lat="47.42084" lon="-0.61043">
        <ele>20.4</ele>
        <time>2020-07-27T06:11:16Z</time>
      </trkpt>
      <trkpt lat="47.42066" lon="-0.61049">
        <ele>20.2</ele>
        <time>2020-07-27T06:11:19Z</time>
      </trkpt>
      <trkpt lat="47.42043" lon="-0.61064">
        <ele>19.8</ele>
        <time>2020-07-27T06:11:23Z</time>
      </trkpt>
      <trkpt lat="47.42027" lon="-0.61076">
        <ele>20</ele>
        <time>2020-07-27T06:11:26Z</time>
      </trkpt>
      <trkpt lat="47.41982" lon="-0.61114">
        <ele>20</ele>
        <time>2020-07-27T06:11:35Z</time>
      </trkpt>
      <trkpt lat="47.41937" lon="-0.61152">
        <ele>19.6</ele>
        <time>2020-07-27T06:11:44Z</time>
      </trkpt>
      <trkpt lat="47.41886" lon="-0.61196">
        <ele>18.8</ele>
        <time>2020-07-27T06:11:54Z</time>
      </trkpt>
      <trkpt lat="47.41842" lon="-0.61234">
        <ele>19</ele>
        <time>2020-07-27T06:12:02Z</time>
      </trkpt>
      <trkpt lat="47.41796" lon="-0.61277">
        <ele>19.2</ele>
        <time>2020-07-27T06:12:11Z</time>
      </trkpt>
      <trkpt lat="47.4176" lon="-0.61325">
        <ele>19.6</ele>
        <time>2020-07-27T06:12:19Z</time>
      </trkpt>
      <trkpt lat="47.41734" lon="-0.61375">
        <ele>19.4</ele>
        <time>2020-07-27T06:12:26Z</time>
      </trkpt>
      <trkpt lat="47.41704" lon="-0.61442">
        <ele>19.4</ele>
        <time>2020-07-27T06:12:35Z</time>
      </trkpt>
      <trkpt lat="47.41691" lon="-0.61461">
        <ele>19.4</ele>
        <time>2020-07-27T06:12:38Z</time>
      </trkpt>
      <trkpt lat="47.41681" lon="-0.61472">
        <ele>19.2</ele>
        <time>2020-07-27T06:12:40Z</time>
      </trkpt>
      <trkpt lat="47.41644" lon="-0.61503">
        <ele>19.2</ele>
        <time>2020-07-27T06:12:47Z</time>
      </trkpt>
      <trkpt lat="47.41594" lon="-0.61533">
        <ele>19.2</ele>
        <time>2020-07-27T06:12:56Z</time>
      </trkpt>
      <trkpt lat="47.41564" lon="-0.61563">
        <ele>18.6</ele>
        <time>2020-07-27T06:13:02Z</time>
      </trkpt>
      <trkpt lat="47.41521" lon="-0.61618">
        <ele>18</ele>
        <time>2020-07-27T06:13:12Z</time>
      </trkpt>
      <trkpt lat="47.41496" lon="-0.61637">
        <ele>18.2</ele>
        <time>2020-07-27T06:13:18Z</time>
      </trkpt>
      <trkpt lat="47.41454" lon="-0.61648">
        <ele>18</ele>
        <time>2020-07-27T06:13:26Z</time>
      </trkpt>
      <trkpt lat="47.41437" lon="-0.61652">
        <ele>17.6</ele>
        <time>2020-07-27T06:13:29Z</time>
      </trkpt>
      <trkpt lat="47.41413" lon="-0.61658">
        <ele>17.2</ele>
        <time>2020-07-27T06:13:33Z</time>
      </trkpt>
      <trkpt lat="47.41367" lon="-0.61676">
        <ele>16.8</ele>
        <time>2020-07-27T06:13:40Z</time>
      </trkpt>
      <trkpt lat="47.41344" lon="-0.61694">
        <ele>16.6</ele>
        <time>2020-07-27T06:13:44Z</time>
      </trkpt>
      <trkpt lat="47.4132" lon="-0.61715">
        <ele>16.2</ele>
        <time>2020-07-27T06:13:48Z</time>
      </trkpt>
      <trkpt lat="47.41292" lon="-0.61747">
        <ele>15.6</ele>
        <time>2020-07-27T06:13:53Z</time>
      </trkpt>
      <trkpt lat="47.41283" lon="-0.6176">
        <ele>15.4</ele>
        <time>2020-07-27T06:13:55Z</time>
      </trkpt>
      <trkpt lat="47.41243" lon="-0.61818">
        <ele>15.6</ele>
        <time>2020-07-27T06:14:04Z</time>
      </trkpt>
      <trkpt lat="47.41239" lon="-0.61824">
        <ele>15.6</ele>
        <time>2020-07-27T06:14:05Z</time>
      </trkpt>
      <trkpt lat="47.41225" lon="-0.6184">
        <ele>15.6</ele>
        <time>2020-07-27T06:14:08Z</time>
      </trkpt>
      <trkpt lat="47.41207" lon="-0.61856">
        <ele>15.8</ele>
        <time>2020-07-27T06:14:12Z</time>
      </trkpt>
      <trkpt lat="47.41188" lon="-0.61867">
        <ele>16.6</ele>
        <time>2020-07-27T06:14:17Z</time>
      </trkpt>
      <trkpt lat="47.41185" lon="-0.61868">
        <ele>16.8</ele>
        <time>2020-07-27T06:14:18Z</time>
      </trkpt>
      <trkpt lat="47.41169" lon="-0.61877">
        <ele>18</ele>
        <time>2020-07-27T06:14:23Z</time>
      </trkpt>
      <trkpt lat="47.41162" lon="-0.6188">
        <ele>18.6</ele>
        <time>2020-07-27T06:14:25Z</time>
      </trkpt>
      <trkpt lat="47.41155" lon="-0.61883">
        <ele>19.2</ele>
        <time>2020-07-27T06:14:27Z</time>
      </trkpt>
      <trkpt lat="47.41141" lon="-0.61891">
        <ele>20.4</ele>
        <time>2020-07-27T06:14:31Z</time>
      </trkpt>
      <trkpt lat="47.41132" lon="-0.61898">
        <ele>21.6</ele>
        <time>2020-07-27T06:14:34Z</time>
      </trkpt>
      <trkpt lat="47.41121" lon="-0.61909">
        <ele>23</ele>
        <time>2020-07-27T06:14:38Z</time>
      </trkpt>
      <trkpt lat="47.41113" lon="-0.61918">
        <ele>24.2</ele>
        <time>2020-07-27T06:14:41Z</time>
      </trkpt>
      <trkpt lat="47.41108" lon="-0.61924">
        <ele>25</ele>
        <time>2020-07-27T06:14:43Z</time>
      </trkpt>
      <trkpt lat="47.41105" lon="-0.61928">
        <ele>25.2</ele>
        <time>2020-07-27T06:14:44Z</time>
      </trkpt>
      <trkpt lat="47.41097" lon="-0.61937">
        <ele>26.4</ele>
        <time>2020-07-27T06:14:47Z</time>
      </trkpt>
      <trkpt lat="47.41087" lon="-0.61948">
        <ele>27.6</ele>
        <time>2020-07-27T06:14:51Z</time>
      </trkpt>
      <trkpt lat="47.41074" lon="-0.61962">
        <ele>28.8</ele>
        <time>2020-07-27T06:14:56Z</time>
      </trkpt>
      <trkpt lat="47.41062" lon="-0.61972">
        <ele>29.8</ele>
        <time>2020-07-27T06:15:00Z</time>
      </trkpt>
      <trkpt lat="47.41059" lon="-0.61975">
        <ele>30</ele>
        <time>2020-07-27T06:15:01Z</time>
      </trkpt>
      <trkpt lat="47.41039" lon="-0.61988">
        <ele>31</ele>
        <time>2020-07-27T06:15:07Z</time>
      </trkpt>
      <trkpt lat="47.41032" lon="-0.61992">
        <ele>31.2</ele>
        <time>2020-07-27T06:15:09Z</time>
      </trkpt>
      <trkpt lat="47.41018" lon="-0.62">
        <ele>32.6</ele>
        <time>2020-07-27T06:15:13Z</time>
      </trkpt>
      <trkpt lat="47.41004" lon="-0.62001">
        <ele>32.8</ele>
        <time>2020-07-27T06:15:17Z</time>
      </trkpt>
      <trkpt lat="47.40988" lon="-0.61992">
        <ele>32.6</ele>
        <time>2020-07-27T06:15:21Z</time>
      </trkpt>
      <trkpt lat="47.40965" lon="-0.61993">
        <ele>32.2</ele>
        <time>2020-07-27T06:15:25Z</time>
      </trkpt>
      <trkpt lat="47.40926" lon="-0.61995">
        <ele>31.6</ele>
        <time>2020-07-27T06:15:31Z</time>
      </trkpt>
      <trkpt lat="47.40911" lon="-0.61981">
        <ele>31.6</ele>
        <time>2020-07-27T06:15:34Z</time>
      </trkpt>
      <trkpt lat="47.40901" lon="-0.61971">
        <ele>31.6</ele>
        <time>2020-07-27T06:15:36Z</time>
      </trkpt>
      <trkpt lat="47.40888" lon="-0.61967">
        <ele>31</ele>
        <time>2020-07-27T06:15:38Z</time>
      </trkpt>
      <trkpt lat="47.40874" lon="-0.61966">
        <ele>30.8</ele>
        <time>2020-07-27T06:15:40Z</time>
      </trkpt>
      <trkpt lat="47.40854" lon="-0.61968">
        <ele>30.4</ele>
        <time>2020-07-27T06:15:43Z</time>
      </trkpt>
      <trkpt lat="47.40817" lon="-0.61983">
        <ele>30.2</ele>
        <time>2020-07-27T06:15:49Z</time>
      </trkpt>
      <trkpt lat="47.40768" lon="-0.62015">
        <ele>29.4</ele>
        <time>2020-07-27T06:15:57Z</time>
      </trkpt>
      <trkpt lat="47.40736" lon="-0.6204">
        <ele>28.4</ele>
        <time>2020-07-27T06:16:03Z</time>
      </trkpt>
      <trkpt lat="47.40725" lon="-0.62049">
        <ele>28</ele>
        <time>2020-07-27T06:16:05Z</time>
      </trkpt>
      <trkpt lat="47.40715" lon="-0.62056">
        <ele>27.4</ele>
        <time>2020-07-27T06:16:07Z</time>
      </trkpt>
      <trkpt lat="47.4071" lon="-0.62058">
        <ele>27.2</ele>
        <time>2020-07-27T06:16:08Z</time>
      </trkpt>
      <trkpt lat="47.40694" lon="-0.62065">
        <ele>26.4</ele>
        <time>2020-07-27T06:16:11Z</time>
      </trkpt>
      <trkpt lat="47.40683" lon="-0.6207">
        <ele>26</ele>
        <time>2020-07-27T06:16:13Z</time>
      </trkpt>
      <trkpt lat="47.40663" lon="-0.62086">
        <ele>24.6</ele>
        <time>2020-07-27T06:16:17Z</time>
      </trkpt>
      <trkpt lat="47.40647" lon="-0.62102">
        <ele>23.6</ele>
        <time>2020-07-27T06:16:20Z</time>
      </trkpt>
      <trkpt lat="47.40639" lon="-0.62118">
        <ele>22.8</ele>
        <time>2020-07-27T06:16:22Z</time>
      </trkpt>
      <trkpt lat="47.40635" lon="-0.62126">
        <ele>22.6</ele>
        <time>2020-07-27T06:16:23Z</time>
      </trkpt>
      <trkpt lat="47.40631" lon="-0.62135">
        <ele>22.2</ele>
        <time>2020-07-27T06:16:24Z</time>
      </trkpt>
      <trkpt lat="47.40626" lon="-0.62152">
        <ele>22</ele>
        <time>2020-07-27T06:16:26Z</time>
      </trkpt>
      <trkpt lat="47.40624" lon="-0.62162">
        <ele>21.8</ele>
        <time>2020-07-27T06:16:27Z</time>
      </trkpt>
      <trkpt lat="47.40622" lon="-0.6219">
        <ele>21.4</ele>
        <time>2020-07-27T06:16:30Z</time>
      </trkpt>
      <trkpt lat="47.4062" lon="-0.62218">
        <ele>21.4</ele>
        <time>2020-07-27T06:16:33Z</time>
      </trkpt>
      <trkpt lat="47.40616" lon="-0.62285">
        <ele>21</ele>
        <time>2020-07-27T06:16:41Z</time>
      </trkpt>
      <trkpt lat="47.4061" lon="-0.6232">
        <ele>21</ele>
        <time>2020-07-27T06:16:46Z</time>
      </trkpt>
      <trkpt lat="47.40608" lon="-0.62326">
        <ele>21</ele>
        <time>2020-07-27T06:16:47Z</time>
      </trkpt>
      <trkpt lat="47.40603" lon="-0.62338">
        <ele>20.4</ele>
        <time>2020-07-27T06:16:49Z</time>
      </trkpt>
      <trkpt lat="47.406" lon="-0.62353">
        <ele>19.6</ele>
        <time>2020-07-27T06:16:52Z</time>
      </trkpt>
      <trkpt lat="47.40598" lon="-0.6236">
        <ele>19.4</ele>
        <time>2020-07-27T06:16:54Z</time>
      </trkpt>
      <trkpt lat="47.40596" lon="-0.62361">
        <ele>19.4</ele>
        <time>2020-07-27T06:16:55Z</time>
      </trkpt>
      <trkpt lat="47.40593" lon="-0.62361">
        <ele>19.4</ele>
        <time>2020-07-27T06:16:56Z</time>
      </trkpt>
      <trkpt lat="47.40578" lon="-0.6237">
        <ele>19.4</ele>
        <time>2020-07-27T06:17:00Z</time>
      </trkpt>
      <trkpt lat="47.40572" lon="-0.62376">
        <ele>19.6</ele>
        <time>2020-07-27T06:17:01Z</time>
      </trkpt>
      <trkpt lat="47.40552" lon="-0.62403">
        <ele>20</ele>
        <time>2020-07-27T06:17:05Z</time>
      </trkpt>
      <trkpt lat="47.40548" lon="-0.6241">
        <ele>20</ele>
        <time>2020-07-27T06:17:06Z</time>
      </trkpt>
      <trkpt lat="47.40523" lon="-0.62465">
        <ele>20.2</ele>
        <time>2020-07-27T06:17:13Z</time>
      </trkpt>
      <trkpt lat="47.40506" lon="-0.62518">
        <ele>20.4</ele>
        <time>2020-07-27T06:17:20Z</time>
      </trkpt>
      <trkpt lat="47.40504" lon="-0.62525">
        <ele>20.4</ele>
        <time>2020-07-27T06:17:21Z</time>
      </trkpt>
      <trkpt lat="47.40487" lon="-0.62593">
        <ele>21.4</ele>
        <time>2020-07-27T06:17:30Z</time>
      </trkpt>
      <trkpt lat="47.40486" lon="-0.626">
        <ele>21.4</ele>
        <time>2020-07-27T06:17:31Z</time>
      </trkpt>
      <trkpt lat="47.40484" lon="-0.62646">
        <ele>22.4</ele>
        <time>2020-07-27T06:17:37Z</time>
      </trkpt>
      <trkpt lat="47.40484" lon="-0.62653">
        <ele>22.6</ele>
        <time>2020-07-27T06:17:38Z</time>
      </trkpt>
      <trkpt lat="47.40483" lon="-0.62697">
        <ele>23.6</ele>
        <time>2020-07-27T06:17:44Z</time>
      </trkpt>
      <trkpt lat="47.40481" lon="-0.62718">
        <ele>24.2</ele>
        <time>2020-07-27T06:17:47Z</time>
      </trkpt>
      <trkpt lat="47.40478" lon="-0.62738">
        <ele>24.6</ele>
        <time>2020-07-27T06:17:50Z</time>
      </trkpt>
      <trkpt lat="47.4047" lon="-0.6277">
        <ele>25</ele>
        <time>2020-07-27T06:17:55Z</time>
      </trkpt>
      <trkpt lat="47.40459" lon="-0.62799">
        <ele>25.8</ele>
        <time>2020-07-27T06:18:00Z</time>
      </trkpt>
      <trkpt lat="47.40448" lon="-0.62819">
        <ele>26.4</ele>
        <time>2020-07-27T06:18:04Z</time>
      </trkpt>
      <trkpt lat="47.40432" lon="-0.62843">
        <ele>27</ele>
        <time>2020-07-27T06:18:09Z</time>
      </trkpt>
      <trkpt lat="47.40419" lon="-0.62863">
        <ele>28</ele>
        <time>2020-07-27T06:18:13Z</time>
      </trkpt>
      <trkpt lat="47.40415" lon="-0.62868">
        <ele>28.2</ele>
        <time>2020-07-27T06:18:14Z</time>
      </trkpt>
      <trkpt lat="47.40398" lon="-0.62892">
        <ele>29.2</ele>
        <time>2020-07-27T06:18:19Z</time>
      </trkpt>
      <trkpt lat="47.40386" lon="-0.62912">
        <ele>30.2</ele>
        <time>2020-07-27T06:18:23Z</time>
      </trkpt>
      <trkpt lat="47.40383" lon="-0.62917">
        <ele>30.4</ele>
        <time>2020-07-27T06:18:24Z</time>
      </trkpt>
      <trkpt lat="47.40371" lon="-0.62943">
        <ele>31.4</ele>
        <time>2020-07-27T06:18:29Z</time>
      </trkpt>
      <trkpt lat="47.40361" lon="-0.62964">
        <ele>32.2</ele>
        <time>2020-07-27T06:18:33Z</time>
      </trkpt>
      <trkpt lat="47.40356" lon="-0.62975">
        <ele>32.6</ele>
        <time>2020-07-27T06:18:35Z</time>
      </trkpt>
      <trkpt lat="47.40342" lon="-0.63005">
        <ele>33.8</ele>
        <time>2020-07-27T06:18:41Z</time>
      </trkpt>
      <trkpt lat="47.40337" lon="-0.63016">
        <ele>34.4</ele>
        <time>2020-07-27T06:18:43Z</time>
      </trkpt>
      <trkpt lat="47.40335" lon="-0.6302">
        <ele>34.8</ele>
        <time>2020-07-27T06:18:44Z</time>
      </trkpt>
      <trkpt lat="47.40324" lon="-0.63046">
        <ele>36</ele>
        <time>2020-07-27T06:18:49Z</time>
      </trkpt>
      <trkpt lat="47.40316" lon="-0.63061">
        <ele>36.2</ele>
        <time>2020-07-27T06:18:52Z</time>
      </trkpt>
      <trkpt lat="47.4029" lon="-0.63112">
        <ele>36.8</ele>
        <time>2020-07-27T06:19:02Z</time>
      </trkpt>
      <trkpt lat="47.40285" lon="-0.63123">
        <ele>37</ele>
        <time>2020-07-27T06:19:04Z</time>
      </trkpt>
      <trkpt lat="47.40272" lon="-0.63164">
        <ele>37.6</ele>
        <time>2020-07-27T06:19:11Z</time>
      </trkpt>
      <trkpt lat="47.4027" lon="-0.6317">
        <ele>38</ele>
        <time>2020-07-27T06:19:12Z</time>
      </trkpt>
      <trkpt lat="47.40265" lon="-0.63194">
        <ele>39</ele>
        <time>2020-07-27T06:19:16Z</time>
      </trkpt>
      <trkpt lat="47.40262" lon="-0.63206">
        <ele>39.4</ele>
        <time>2020-07-27T06:19:18Z</time>
      </trkpt>
      <trkpt lat="47.40256" lon="-0.63225">
        <ele>40.2</ele>
        <time>2020-07-27T06:19:21Z</time>
      </trkpt>
      <trkpt lat="47.40245" lon="-0.63261">
        <ele>40.8</ele>
        <time>2020-07-27T06:19:27Z</time>
      </trkpt>
      <trkpt lat="47.40227" lon="-0.63316">
        <ele>40.4</ele>
        <time>2020-07-27T06:19:36Z</time>
      </trkpt>
      <trkpt lat="47.4021" lon="-0.63376">
        <ele>40.6</ele>
        <time>2020-07-27T06:19:46Z</time>
      </trkpt>
      <trkpt lat="47.40194" lon="-0.63428">
        <ele>41</ele>
        <time>2020-07-27T06:19:55Z</time>
      </trkpt>
      <trkpt lat="47.4019" lon="-0.63439">
        <ele>41.4</ele>
        <time>2020-07-27T06:19:57Z</time>
      </trkpt>
      <trkpt lat="47.4018" lon="-0.63462">
        <ele>42.4</ele>
        <time>2020-07-27T06:20:02Z</time>
      </trkpt>
      <trkpt lat="47.40176" lon="-0.63471">
        <ele>42.6</ele>
        <time>2020-07-27T06:20:04Z</time>
      </trkpt>
      <trkpt lat="47.40166" lon="-0.63486">
        <ele>43.6</ele>
        <time>2020-07-27T06:20:08Z</time>
      </trkpt>
      <trkpt lat="47.40153" lon="-0.63502">
        <ele>44.6</ele>
        <time>2020-07-27T06:20:13Z</time>
      </trkpt>
      <trkpt lat="47.4014" lon="-0.63516">
        <ele>45.8</ele>
        <time>2020-07-27T06:20:18Z</time>
      </trkpt>
      <trkpt lat="47.40126" lon="-0.6353">
        <ele>47</ele>
        <time>2020-07-27T06:20:23Z</time>
      </trkpt>
      <trkpt lat="47.40108" lon="-0.63547">
        <ele>48.2</ele>
        <time>2020-07-27T06:20:29Z</time>
      </trkpt>
      <trkpt lat="47.40096" lon="-0.63558">
        <ele>48.8</ele>
        <time>2020-07-27T06:20:33Z</time>
      </trkpt>
      <trkpt lat="47.4009" lon="-0.63564">
        <ele>49.4</ele>
        <time>2020-07-27T06:20:35Z</time>
      </trkpt>
      <trkpt lat="47.40078" lon="-0.63575">
        <ele>50.6</ele>
        <time>2020-07-27T06:20:39Z</time>
      </trkpt>
      <trkpt lat="47.40073" lon="-0.6358">
        <ele>51.2</ele>
        <time>2020-07-27T06:20:41Z</time>
      </trkpt>
      <trkpt lat="47.40067" lon="-0.63586">
        <ele>51.6</ele>
        <time>2020-07-27T06:20:43Z</time>
      </trkpt>
      <trkpt lat="47.40056" lon="-0.63596">
        <ele>52.8</ele>
        <time>2020-07-27T06:20:47Z</time>
      </trkpt>
      <trkpt lat="47.40042" lon="-0.6361">
        <ele>54</ele>
        <time>2020-07-27T06:20:52Z</time>
      </trkpt>
      <trkpt lat="47.40014" lon="-0.63626">
        <ele>54.8</ele>
        <time>2020-07-27T06:21:00Z</time>
      </trkpt>
      <trkpt lat="47.4001" lon="-0.63626">
        <ele>55</ele>
        <time>2020-07-27T06:21:01Z</time>
      </trkpt>
      <trkpt lat="47.39998" lon="-0.63624">
        <ele>55.2</ele>
        <time>2020-07-27T06:21:04Z</time>
      </trkpt>
      <trkpt lat="47.3999" lon="-0.63621">
        <ele>55.4</ele>
        <time>2020-07-27T06:21:06Z</time>
      </trkpt>
      <trkpt lat="47.39972" lon="-0.63603">
        <ele>55.8</ele>
        <time>2020-07-27T06:21:11Z</time>
      </trkpt>
      <trkpt lat="47.39968" lon="-0.63599">
        <ele>56</ele>
        <time>2020-07-27T06:21:12Z</time>
      </trkpt>
      <trkpt lat="47.39965" lon="-0.63594">
        <ele>56</ele>
        <time>2020-07-27T06:21:13Z</time>
      </trkpt>
      <trkpt lat="47.39932" lon="-0.63554">
        <ele>56.2</ele>
        <time>2020-07-27T06:21:23Z</time>
      </trkpt>
      <trkpt lat="47.39903" lon="-0.63519">
        <ele>57.2</ele>
        <time>2020-07-27T06:21:32Z</time>
      </trkpt>
      <trkpt lat="47.399" lon="-0.63515">
        <ele>57.4</ele>
        <time>2020-07-27T06:21:33Z</time>
      </trkpt>
      <trkpt lat="47.39877" lon="-0.63485">
        <ele>58.2</ele>
        <time>2020-07-27T06:21:40Z</time>
      </trkpt>
      <trkpt lat="47.39867" lon="-0.63472">
        <ele>58.2</ele>
        <time>2020-07-27T06:21:43Z</time>
      </trkpt>
      <trkpt lat="47.39839" lon="-0.63446">
        <ele>58</ele>
        <time>2020-07-27T06:21:50Z</time>
      </trkpt>
      <trkpt lat="47.39808" lon="-0.63433">
        <ele>58.6</ele>
        <time>2020-07-27T06:21:57Z</time>
      </trkpt>
      <trkpt lat="47.39796" lon="-0.63428">
        <ele>59.2</ele>
        <time>2020-07-27T06:22:00Z</time>
      </trkpt>
      <trkpt lat="47.39776" lon="-0.63424">
        <ele>59.4</ele>
        <time>2020-07-27T06:22:04Z</time>
      </trkpt>
      <trkpt lat="47.39764" lon="-0.63437">
        <ele>58.4</ele>
        <time>2020-07-27T06:22:06Z</time>
      </trkpt>
      <trkpt lat="47.3976" lon="-0.63444">
        <ele>58</ele>
        <time>2020-07-27T06:22:07Z</time>
      </trkpt>
      <trkpt lat="47.39752" lon="-0.63459">
        <ele>58</ele>
        <time>2020-07-27T06:22:09Z</time>
      </trkpt>
      <trkpt lat="47.39748" lon="-0.63466">
        <ele>57.8</ele>
        <time>2020-07-27T06:22:10Z</time>
      </trkpt>
      <trkpt lat="47.39728" lon="-0.63501">
        <ele>58</ele>
        <time>2020-07-27T06:22:16Z</time>
      </trkpt>
      <trkpt lat="47.39711" lon="-0.63544">
        <ele>57.8</ele>
        <time>2020-07-27T06:22:23Z</time>
      </trkpt>
      <trkpt lat="47.39697" lon="-0.63585">
        <ele>58</ele>
        <time>2020-07-27T06:22:30Z</time>
      </trkpt>
      <trkpt lat="47.39675" lon="-0.6364">
        <ele>57.8</ele>
        <time>2020-07-27T06:22:39Z</time>
      </trkpt>
      <trkpt lat="47.39651" lon="-0.63705">
        <ele>58.2</ele>
        <time>2020-07-27T06:22:49Z</time>
      </trkpt>
      <trkpt lat="47.39635" lon="-0.6376">
        <ele>58.8</ele>
        <time>2020-07-27T06:22:58Z</time>
      </trkpt>
      <trkpt lat="47.39629" lon="-0.63772">
        <ele>59.2</ele>
        <time>2020-07-27T06:23:00Z</time>
      </trkpt>
      <trkpt lat="47.39613" lon="-0.63805">
        <ele>59.6</ele>
        <time>2020-07-27T06:23:06Z</time>
      </trkpt>
      <trkpt lat="47.39594" lon="-0.63845">
        <ele>60.2</ele>
        <time>2020-07-27T06:23:13Z</time>
      </trkpt>
      <trkpt lat="47.39589" lon="-0.63857">
        <ele>60.2</ele>
        <time>2020-07-27T06:23:15Z</time>
      </trkpt>
      <trkpt lat="47.39576" lon="-0.63902">
        <ele>60.6</ele>
        <time>2020-07-27T06:23:22Z</time>
      </trkpt>
      <trkpt lat="47.39575" lon="-0.63917">
        <ele>60.8</ele>
        <time>2020-07-27T06:23:24Z</time>
      </trkpt>
      <trkpt lat="47.39577" lon="-0.6394">
        <ele>61.2</ele>
        <time>2020-07-27T06:23:27Z</time>
      </trkpt>
      <trkpt lat="47.39584" lon="-0.63964">
        <ele>61.2</ele>
        <time>2020-07-27T06:23:30Z</time>
      </trkpt>
      <trkpt lat="47.39587" lon="-0.63971">
        <ele>61.2</ele>
        <time>2020-07-27T06:23:31Z</time>
      </trkpt>
      <trkpt lat="47.39589" lon="-0.63979">
        <ele>61.2</ele>
        <time>2020-07-27T06:23:32Z</time>
      </trkpt>
      <trkpt lat="47.39607" lon="-0.64038">
        <ele>62.2</ele>
        <time>2020-07-27T06:23:39Z</time>
      </trkpt>
      <trkpt lat="47.3961" lon="-0.64048">
        <ele>62.2</ele>
        <time>2020-07-27T06:23:40Z</time>
      </trkpt>
      <trkpt lat="47.39617" lon="-0.64093">
        <ele>62.2</ele>
        <time>2020-07-27T06:23:45Z</time>
      </trkpt>
      <trkpt lat="47.39617" lon="-0.64111">
        <ele>62.2</ele>
        <time>2020-07-27T06:23:47Z</time>
      </trkpt>
      <trkpt lat="47.39612" lon="-0.64136">
        <ele>62.2</ele>
        <time>2020-07-27T06:23:50Z</time>
      </trkpt>
      <trkpt lat="47.39596" lon="-0.64215">
        <ele>61.8</ele>
        <time>2020-07-27T06:23:59Z</time>
      </trkpt>
      <trkpt lat="47.39598" lon="-0.64264">
        <ele>61.8</ele>
        <time>2020-07-27T06:24:04Z</time>
      </trkpt>
      <trkpt lat="47.39606" lon="-0.64317">
        <ele>61.2</ele>
        <time>2020-07-27T06:24:09Z</time>
      </trkpt>
      <trkpt lat="47.39607" lon="-0.64339">
        <ele>61</ele>
        <time>2020-07-27T06:24:11Z</time>
      </trkpt>
      <trkpt lat="47.39604" lon="-0.64385">
        <ele>60.8</ele>
        <time>2020-07-27T06:24:15Z</time>
      </trkpt>
      <trkpt lat="47.39592" lon="-0.64416">
        <ele>60.2</ele>
        <time>2020-07-27T06:24:18Z</time>
      </trkpt>
      <trkpt lat="47.39587" lon="-0.64425">
        <ele>59.8</ele>
        <time>2020-07-27T06:24:19Z</time>
      </trkpt>
      <trkpt lat="47.39571" lon="-0.64438">
        <ele>59</ele>
        <time>2020-07-27T06:24:21Z</time>
      </trkpt>
      <trkpt lat="47.39563" lon="-0.64443">
        <ele>58.6</ele>
        <time>2020-07-27T06:24:22Z</time>
      </trkpt>
      <trkpt lat="47.39545" lon="-0.6445">
        <ele>57.8</ele>
        <time>2020-07-27T06:24:24Z</time>
      </trkpt>
      <trkpt lat="47.39535" lon="-0.64453">
        <ele>57.4</ele>
        <time>2020-07-27T06:24:25Z</time>
      </trkpt>
      <trkpt lat="47.39525" lon="-0.64456">
        <ele>57</ele>
        <time>2020-07-27T06:24:26Z</time>
      </trkpt>
      <trkpt lat="47.39507" lon="-0.64462">
        <ele>56.4</ele>
        <time>2020-07-27T06:24:28Z</time>
      </trkpt>
      <trkpt lat="47.39482" lon="-0.64475">
        <ele>55.4</ele>
        <time>2020-07-27T06:24:31Z</time>
      </trkpt>
      <trkpt lat="47.39476" lon="-0.64481">
        <ele>55.2</ele>
        <time>2020-07-27T06:24:32Z</time>
      </trkpt>
      <trkpt lat="47.39449" lon="-0.64506">
        <ele>55.6</ele>
        <time>2020-07-27T06:24:37Z</time>
      </trkpt>
      <trkpt lat="47.39432" lon="-0.64522">
        <ele>56.4</ele>
        <time>2020-07-27T06:24:41Z</time>
      </trkpt>
      <trkpt lat="47.39421" lon="-0.64533">
        <ele>56.8</ele>
        <time>2020-07-27T06:24:44Z</time>
      </trkpt>
      <trkpt lat="47.39412" lon="-0.64545">
        <ele>57.2</ele>
        <time>2020-07-27T06:24:47Z</time>
      </trkpt>
      <trkpt lat="47.39409" lon="-0.64549">
        <ele>57.4</ele>
        <time>2020-07-27T06:24:48Z</time>
      </trkpt>
      <trkpt lat="47.39404" lon="-0.64558">
        <ele>58</ele>
        <time>2020-07-27T06:24:50Z</time>
      </trkpt>
      <trkpt lat="47.39396" lon="-0.64572">
        <ele>58.6</ele>
        <time>2020-07-27T06:24:53Z</time>
      </trkpt>
      <trkpt lat="47.39381" lon="-0.64596">
        <ele>59.6</ele>
        <time>2020-07-27T06:24:58Z</time>
      </trkpt>
      <trkpt lat="47.39376" lon="-0.64606">
        <ele>60.2</ele>
        <time>2020-07-27T06:25:00Z</time>
      </trkpt>
      <trkpt lat="47.39369" lon="-0.64617">
        <ele>60.8</ele>
        <time>2020-07-27T06:25:02Z</time>
      </trkpt>
      <trkpt lat="47.39353" lon="-0.64645">
        <ele>61.8</ele>
        <time>2020-07-27T06:25:07Z</time>
      </trkpt>
      <trkpt lat="47.39349" lon="-0.64651">
        <ele>62</ele>
        <time>2020-07-27T06:25:08Z</time>
      </trkpt>
      <trkpt lat="47.39321" lon="-0.64698">
        <ele>61</ele>
        <time>2020-07-27T06:25:15Z</time>
      </trkpt>
      <trkpt lat="47.39316" lon="-0.64706">
        <ele>60.8</ele>
        <time>2020-07-27T06:25:16Z</time>
      </trkpt>
      <trkpt lat="47.39293" lon="-0.64734">
        <ele>59.4</ele>
        <time>2020-07-27T06:25:20Z</time>
      </trkpt>
      <trkpt lat="47.39267" lon="-0.64743">
        <ele>58.6</ele>
        <time>2020-07-27T06:25:23Z</time>
      </trkpt>
      <trkpt lat="47.39258" lon="-0.64744">
        <ele>58.2</ele>
        <time>2020-07-27T06:25:24Z</time>
      </trkpt>
      <trkpt lat="47.39229" lon="-0.64751">
        <ele>56.8</ele>
        <time>2020-07-27T06:25:27Z</time>
      </trkpt>
      <trkpt lat="47.39219" lon="-0.64754">
        <ele>56.4</ele>
        <time>2020-07-27T06:25:28Z</time>
      </trkpt>
      <trkpt lat="47.392" lon="-0.64762">
        <ele>55.4</ele>
        <time>2020-07-27T06:25:30Z</time>
      </trkpt>
      <trkpt lat="47.3917" lon="-0.64771">
        <ele>54</ele>
        <time>2020-07-27T06:25:33Z</time>
      </trkpt>
      <trkpt lat="47.39138" lon="-0.64774">
        <ele>52.6</ele>
        <time>2020-07-27T06:25:36Z</time>
      </trkpt>
      <trkpt lat="47.39117" lon="-0.64782">
        <ele>51.4</ele>
        <time>2020-07-27T06:25:38Z</time>
      </trkpt>
      <trkpt lat="47.391" lon="-0.64795">
        <ele>50.4</ele>
        <time>2020-07-27T06:25:40Z</time>
      </trkpt>
      <trkpt lat="47.39093" lon="-0.64799">
        <ele>50</ele>
        <time>2020-07-27T06:25:41Z</time>
      </trkpt>
      <trkpt lat="47.39083" lon="-0.64798">
        <ele>49.4</ele>
        <time>2020-07-27T06:25:42Z</time>
      </trkpt>
      <trkpt lat="47.39074" lon="-0.64793">
        <ele>49</ele>
        <time>2020-07-27T06:25:43Z</time>
      </trkpt>
      <trkpt lat="47.39058" lon="-0.64777">
        <ele>48.2</ele>
        <time>2020-07-27T06:25:45Z</time>
      </trkpt>
      <trkpt lat="47.3905" lon="-0.64769">
        <ele>47.8</ele>
        <time>2020-07-27T06:25:46Z</time>
      </trkpt>
      <trkpt lat="47.39034" lon="-0.64752">
        <ele>47</ele>
        <time>2020-07-27T06:25:48Z</time>
      </trkpt>
      <trkpt lat="47.39008" lon="-0.64727">
        <ele>45.8</ele>
        <time>2020-07-27T06:25:51Z</time>
      </trkpt>
      <trkpt lat="47.38998" lon="-0.64721">
        <ele>45.4</ele>
        <time>2020-07-27T06:25:52Z</time>
      </trkpt>
      <trkpt lat="47.38987" lon="-0.64717">
        <ele>44.8</ele>
        <time>2020-07-27T06:25:53Z</time>
      </trkpt>
      <trkpt lat="47.38965" lon="-0.64715">
        <ele>43.6</ele>
        <time>2020-07-27T06:25:55Z</time>
      </trkpt>
      <trkpt lat="47.38943" lon="-0.64717">
        <ele>42.2</ele>
        <time>2020-07-27T06:25:57Z</time>
      </trkpt>
      <trkpt lat="47.38932" lon="-0.64716">
        <ele>41.6</ele>
        <time>2020-07-27T06:25:58Z</time>
      </trkpt>
      <trkpt lat="47.38921" lon="-0.64714">
        <ele>41</ele>
        <time>2020-07-27T06:25:59Z</time>
      </trkpt>
      <trkpt lat="47.38899" lon="-0.64706">
        <ele>39.8</ele>
        <time>2020-07-27T06:26:01Z</time>
      </trkpt>
      <trkpt lat="47.38879" lon="-0.64694">
        <ele>38.4</ele>
        <time>2020-07-27T06:26:03Z</time>
      </trkpt>
      <trkpt lat="47.38859" lon="-0.64681">
        <ele>37.2</ele>
        <time>2020-07-27T06:26:05Z</time>
      </trkpt>
      <trkpt lat="47.38829" lon="-0.6466">
        <ele>35.8</ele>
        <time>2020-07-27T06:26:08Z</time>
      </trkpt>
      <trkpt lat="47.38809" lon="-0.64645">
        <ele>35</ele>
        <time>2020-07-27T06:26:10Z</time>
      </trkpt>
      <trkpt lat="47.38799" lon="-0.64639">
        <ele>34.4</ele>
        <time>2020-07-27T06:26:11Z</time>
      </trkpt>
      <trkpt lat="47.38768" lon="-0.64618">
        <ele>32.8</ele>
        <time>2020-07-27T06:26:14Z</time>
      </trkpt>
      <trkpt lat="47.38748" lon="-0.64604">
        <ele>31.4</ele>
        <time>2020-07-27T06:26:16Z</time>
      </trkpt>
      <trkpt lat="47.38728" lon="-0.6459">
        <ele>30</ele>
        <time>2020-07-27T06:26:18Z</time>
      </trkpt>
      <trkpt lat="47.38709" lon="-0.64576">
        <ele>29</ele>
        <time>2020-07-27T06:26:20Z</time>
      </trkpt>
      <trkpt lat="47.38679" lon="-0.64556">
        <ele>27.6</ele>
        <time>2020-07-27T06:26:23Z</time>
      </trkpt>
      <trkpt lat="47.38658" lon="-0.64541">
        <ele>26.4</ele>
        <time>2020-07-27T06:26:25Z</time>
      </trkpt>
      <trkpt lat="47.38639" lon="-0.64526">
        <ele>25.2</ele>
        <time>2020-07-27T06:26:27Z</time>
      </trkpt>
      <trkpt lat="47.38612" lon="-0.64503">
        <ele>24</ele>
        <time>2020-07-27T06:26:30Z</time>
      </trkpt>
      <trkpt lat="47.38591" lon="-0.64483">
        <ele>23</ele>
        <time>2020-07-27T06:26:33Z</time>
      </trkpt>
      <trkpt lat="47.38584" lon="-0.64477">
        <ele>22.6</ele>
        <time>2020-07-27T06:26:34Z</time>
      </trkpt>
      <trkpt lat="47.38579" lon="-0.64473">
        <ele>22.4</ele>
        <time>2020-07-27T06:26:35Z</time>
      </trkpt>
      <trkpt lat="47.38568" lon="-0.64473">
        <ele>21.6</ele>
        <time>2020-07-27T06:26:37Z</time>
      </trkpt>
      <trkpt lat="47.38559" lon="-0.64488">
        <ele>20.8</ele>
        <time>2020-07-27T06:26:39Z</time>
      </trkpt>
      <trkpt lat="47.38554" lon="-0.64497">
        <ele>20.4</ele>
        <time>2020-07-27T06:26:40Z</time>
      </trkpt>
      <trkpt lat="47.3855" lon="-0.64508">
        <ele>20.2</ele>
        <time>2020-07-27T06:26:41Z</time>
      </trkpt>
      <trkpt lat="47.38542" lon="-0.64532">
        <ele>20.8</ele>
        <time>2020-07-27T06:26:43Z</time>
      </trkpt>
      <trkpt lat="47.38514" lon="-0.64612">
        <ele>21.2</ele>
        <time>2020-07-27T06:26:51Z</time>
      </trkpt>
      <trkpt lat="47.38511" lon="-0.64621">
        <ele>21</ele>
        <time>2020-07-27T06:26:52Z</time>
      </trkpt>
      <trkpt lat="47.38481" lon="-0.64698">
        <ele>19.6</ele>
        <time>2020-07-27T06:27:01Z</time>
      </trkpt>
      <trkpt lat="47.38478" lon="-0.64707">
        <ele>19.4</ele>
        <time>2020-07-27T06:27:02Z</time>
      </trkpt>
      <trkpt lat="47.38448" lon="-0.64782">
        <ele>18.4</ele>
        <time>2020-07-27T06:27:11Z</time>
      </trkpt>
      <trkpt lat="47.38441" lon="-0.64799">
        <ele>18</ele>
        <time>2020-07-27T06:27:13Z</time>
      </trkpt>
      <trkpt lat="47.38421" lon="-0.64849">
        <ele>17.2</ele>
        <time>2020-07-27T06:27:19Z</time>
      </trkpt>
      <trkpt lat="47.38407" lon="-0.64882">
        <ele>17</ele>
        <time>2020-07-27T06:27:23Z</time>
      </trkpt>
      <trkpt lat="47.38376" lon="-0.64956">
        <ele>16.2</ele>
        <time>2020-07-27T06:27:32Z</time>
      </trkpt>
      <trkpt lat="47.38373" lon="-0.64964">
        <ele>16.2</ele>
        <time>2020-07-27T06:27:33Z</time>
      </trkpt>
      <trkpt lat="47.38342" lon="-0.65038">
        <ele>15.6</ele>
        <time>2020-07-27T06:27:42Z</time>
      </trkpt>
      <trkpt lat="47.38339" lon="-0.65046">
        <ele>15.4</ele>
        <time>2020-07-27T06:27:43Z</time>
      </trkpt>
      <trkpt lat="47.38328" lon="-0.65071">
        <ele>15.2</ele>
        <time>2020-07-27T06:27:46Z</time>
      </trkpt>
      <trkpt lat="47.38312" lon="-0.65113">
        <ele>14.2</ele>
        <time>2020-07-27T06:27:51Z</time>
      </trkpt>
      <trkpt lat="47.38308" lon="-0.65122">
        <ele>14</ele>
        <time>2020-07-27T06:27:52Z</time>
      </trkpt>
      <trkpt lat="47.3829" lon="-0.65168">
        <ele>13</ele>
        <time>2020-07-27T06:27:57Z</time>
      </trkpt>
      <trkpt lat="47.38276" lon="-0.65203">
        <ele>12</ele>
        <time>2020-07-27T06:28:01Z</time>
      </trkpt>
      <trkpt lat="47.38262" lon="-0.65237">
        <ele>10.8</ele>
        <time>2020-07-27T06:28:05Z</time>
      </trkpt>
      <trkpt lat="47.38249" lon="-0.65271">
        <ele>9.8</ele>
        <time>2020-07-27T06:28:09Z</time>
      </trkpt>
      <trkpt lat="47.38246" lon="-0.6528">
        <ele>9.6</ele>
        <time>2020-07-27T06:28:10Z</time>
      </trkpt>
      <trkpt lat="47.38236" lon="-0.65305">
        <ele>8.8</ele>
        <time>2020-07-27T06:28:13Z</time>
      </trkpt>
      <trkpt lat="47.38223" lon="-0.65342">
        <ele>7.6</ele>
        <time>2020-07-27T06:28:17Z</time>
      </trkpt>
      <trkpt lat="47.38216" lon="-0.65361">
        <ele>6.8</ele>
        <time>2020-07-27T06:28:19Z</time>
      </trkpt>
      <trkpt lat="47.38213" lon="-0.6537">
        <ele>6.4</ele>
        <time>2020-07-27T06:28:20Z</time>
      </trkpt>
      <trkpt lat="47.38199" lon="-0.65406">
        <ele>5.2</ele>
        <time>2020-07-27T06:28:24Z</time>
      </trkpt>
      <trkpt lat="47.38189" lon="-0.65433">
        <ele>4</ele>
        <time>2020-07-27T06:28:27Z</time>
      </trkpt>
      <trkpt lat="47.38186" lon="-0.65441">
        <ele>3.6</ele>
        <time>2020-07-27T06:28:28Z</time>
      </trkpt>
      <trkpt lat="47.3818" lon="-0.65458">
        <ele>3</ele>
        <time>2020-07-27T06:28:30Z</time>
      </trkpt>
      <trkpt lat="47.38166" lon="-0.65488">
        <ele>1.8</ele>
        <time>2020-07-27T06:28:34Z</time>
      </trkpt>
      <trkpt lat="47.38157" lon="-0.65508">
        <ele>1.4</ele>
        <time>2020-07-27T06:28:37Z</time>
      </trkpt>
      <trkpt lat="47.38132" lon="-0.65553">
        <ele>2.2</ele>
        <time>2020-07-27T06:28:45Z</time>
      </trkpt>
      <trkpt lat="47.38129" lon="-0.65562">
        <ele>2.6</ele>
        <time>2020-07-27T06:28:46Z</time>
      </trkpt>
      <trkpt lat="47.38128" lon="-0.6558">
        <ele>3</ele>
        <time>2020-07-27T06:28:48Z</time>
      </trkpt>
      <trkpt lat="47.38135" lon="-0.65604">
        <ele>4.2</ele>
        <time>2020-07-27T06:28:51Z</time>
      </trkpt>
      <trkpt lat="47.38138" lon="-0.65609">
        <ele>4.6</ele>
        <time>2020-07-27T06:28:52Z</time>
      </trkpt>
      <trkpt lat="47.38159" lon="-0.65622">
        <ele>4.6</ele>
        <time>2020-07-27T06:28:56Z</time>
      </trkpt>
      <trkpt lat="47.38176" lon="-0.65615">
        <ele>4.4</ele>
        <time>2020-07-27T06:28:59Z</time>
      </trkpt>
      <trkpt lat="47.38182" lon="-0.65597">
        <ele>3.8</ele>
        <time>2020-07-27T06:29:02Z</time>
      </trkpt>
      <trkpt lat="47.38175" lon="-0.65576">
        <ele>2.6</ele>
        <time>2020-07-27T06:29:05Z</time>
      </trkpt>
      <trkpt lat="47.38159" lon="-0.65565">
        <ele>1.8</ele>
        <time>2020-07-27T06:29:07Z</time>
      </trkpt>
      <trkpt lat="47.38153" lon="-0.65559">
        <ele>1</ele>
        <time>2020-07-27T06:29:08Z</time>
      </trkpt>
      <trkpt lat="47.3814" lon="-0.65547">
        <ele>-0.39999999999998</ele>
        <time>2020-07-27T06:29:10Z</time>
      </trkpt>
      <trkpt lat="47.38128" lon="-0.65533">
        <ele>-1.8</ele>
        <time>2020-07-27T06:29:12Z</time>
      </trkpt>
      <trkpt lat="47.38115" lon="-0.65519">
        <ele>-3.2</ele>
        <time>2020-07-27T06:29:14Z</time>
      </trkpt>
      <trkpt lat="47.38102" lon="-0.65504">
        <ele>-4.4</ele>
        <time>2020-07-27T06:29:16Z</time>
      </trkpt>
      <trkpt lat="47.38089" lon="-0.65491">
        <ele>-5.8</ele>
        <time>2020-07-27T06:29:18Z</time>
      </trkpt>
      <trkpt lat="47.38078" lon="-0.65478">
        <ele>-7.2</ele>
        <time>2020-07-27T06:29:20Z</time>
      </trkpt>
      <trkpt lat="47.38067" lon="-0.65466">
        <ele>-8.6</ele>
        <time>2020-07-27T06:29:22Z</time>
      </trkpt>
      <trkpt lat="47.38057" lon="-0.65456">
        <ele>-9.8</ele>
        <time>2020-07-27T06:29:24Z</time>
      </trkpt>
      <trkpt lat="47.38043" lon="-0.65445">
        <ele>-11.2</ele>
        <time>2020-07-27T06:29:27Z</time>
      </trkpt>
      <trkpt lat="47.38039" lon="-0.65442">
        <ele>-11.4</ele>
        <time>2020-07-27T06:29:28Z</time>
      </trkpt>
      <trkpt lat="47.38008" lon="-0.65414">
        <ele>-12.2</ele>
        <time>2020-07-27T06:29:35Z</time>
      </trkpt>
      <trkpt lat="47.37999" lon="-0.65406">
        <ele>-12.4</ele>
        <time>2020-07-27T06:29:37Z</time>
      </trkpt>
      <trkpt lat="47.37978" lon="-0.65389">
        <ele>-11.2</ele>
        <time>2020-07-27T06:29:41Z</time>
      </trkpt>
      <trkpt lat="47.3796" lon="-0.65379">
        <ele>-8.6</ele>
        <time>2020-07-27T06:29:44Z</time>
      </trkpt>
      <trkpt lat="47.37953" lon="-0.65375">
        <ele>-7.6</ele>
        <time>2020-07-27T06:29:45Z</time>
      </trkpt>
      <trkpt lat="47.3794" lon="-0.65368">
        <ele>-5.8</ele>
        <time>2020-07-27T06:29:47Z</time>
      </trkpt>
      <trkpt lat="47.37927" lon="-0.6536">
        <ele>-3.8</ele>
        <time>2020-07-27T06:29:49Z</time>
      </trkpt>
      <trkpt lat="47.3791" lon="-0.65348">
        <ele>-2.8</ele>
        <time>2020-07-27T06:29:52Z</time>
      </trkpt>
      <trkpt lat="47.37904" lon="-0.65343">
        <ele>-2.4</ele>
        <time>2020-07-27T06:29:53Z</time>
      </trkpt>
      <trkpt lat="47.37888" lon="-0.6533">
        <ele>-1.4</ele>
        <time>2020-07-27T06:29:56Z</time>
      </trkpt>
      <trkpt lat="47.37862" lon="-0.65308">
        <ele>-0.60000000000002</ele>
        <time>2020-07-27T06:30:01Z</time>
      </trkpt>
      <trkpt lat="47.37857" lon="-0.65303">
        <ele>-0.39999999999998</ele>
        <time>2020-07-27T06:30:02Z</time>
      </trkpt>
      <trkpt lat="47.37825" lon="-0.65276">
        <ele>0.80000000000001</ele>
        <time>2020-07-27T06:30:08Z</time>
      </trkpt>
      <trkpt lat="47.3782" lon="-0.65272">
        <ele>1</ele>
        <time>2020-07-27T06:30:09Z</time>
      </trkpt>
      <trkpt lat="47.37793" lon="-0.6525">
        <ele>1.8</ele>
        <time>2020-07-27T06:30:14Z</time>
      </trkpt>
      <trkpt lat="47.37778" lon="-0.65238">
        <ele>3</ele>
        <time>2020-07-27T06:30:17Z</time>
      </trkpt>
      <trkpt lat="47.37768" lon="-0.6523">
        <ele>3.6</ele>
        <time>2020-07-27T06:30:19Z</time>
      </trkpt>
      <trkpt lat="47.37764" lon="-0.65227">
        <ele>4</ele>
        <time>2020-07-27T06:30:20Z</time>
      </trkpt>
      <trkpt lat="47.37754" lon="-0.65219">
        <ele>5.2</ele>
        <time>2020-07-27T06:30:22Z</time>
      </trkpt>
      <trkpt lat="47.37744" lon="-0.65213">
        <ele>6.6</ele>
        <time>2020-07-27T06:30:24Z</time>
      </trkpt>
      <trkpt lat="47.37729" lon="-0.65203">
        <ele>7.6</ele>
        <time>2020-07-27T06:30:27Z</time>
      </trkpt>
      <trkpt lat="47.37717" lon="-0.65194">
        <ele>8.8</ele>
        <time>2020-07-27T06:30:30Z</time>
      </trkpt>
      <trkpt lat="47.37701" lon="-0.65182">
        <ele>10</ele>
        <time>2020-07-27T06:30:34Z</time>
      </trkpt>
      <trkpt lat="47.37697" lon="-0.65179">
        <ele>10.4</ele>
        <time>2020-07-27T06:30:35Z</time>
      </trkpt>
      <trkpt lat="47.3769" lon="-0.65174">
        <ele>11.4</ele>
        <time>2020-07-27T06:30:37Z</time>
      </trkpt>
      <trkpt lat="47.37679" lon="-0.65165">
        <ele>13</ele>
        <time>2020-07-27T06:30:40Z</time>
      </trkpt>
      <trkpt lat="47.3767" lon="-0.65159">
        <ele>14</ele>
        <time>2020-07-27T06:30:42Z</time>
      </trkpt>
      <trkpt lat="47.37656" lon="-0.65148">
        <ele>15.4</ele>
        <time>2020-07-27T06:30:45Z</time>
      </trkpt>
      <trkpt lat="47.3764" lon="-0.65136">
        <ele>16.6</ele>
        <time>2020-07-27T06:30:48Z</time>
      </trkpt>
      <trkpt lat="47.37617" lon="-0.65118">
        <ele>18</ele>
        <time>2020-07-27T06:30:52Z</time>
      </trkpt>
      <trkpt lat="47.37594" lon="-0.651">
        <ele>18.6</ele>
        <time>2020-07-27T06:30:56Z</time>
      </trkpt>
      <trkpt lat="47.37583" lon="-0.6509">
        <ele>19</ele>
        <time>2020-07-27T06:30:58Z</time>
      </trkpt>
      <trkpt lat="47.37556" lon="-0.65066">
        <ele>19.6</ele>
        <time>2020-07-27T06:31:03Z</time>
      </trkpt>
      <trkpt lat="47.37516" lon="-0.65033">
        <ele>19.6</ele>
        <time>2020-07-27T06:31:10Z</time>
      </trkpt>
      <trkpt lat="47.3748" lon="-0.65002">
        <ele>19.8</ele>
        <time>2020-07-27T06:31:17Z</time>
      </trkpt>
      <trkpt lat="47.37465" lon="-0.6499">
        <ele>20</ele>
        <time>2020-07-27T06:31:20Z</time>
      </trkpt>
      <trkpt lat="47.37441" lon="-0.64972">
        <ele>19.6</ele>
        <time>2020-07-27T06:31:25Z</time>
      </trkpt>
      <trkpt lat="47.37421" lon="-0.64956">
        <ele>19</ele>
        <time>2020-07-27T06:31:29Z</time>
      </trkpt>
      <trkpt lat="47.374" lon="-0.64939">
        <ele>18.6</ele>
        <time>2020-07-27T06:31:33Z</time>
      </trkpt>
      <trkpt lat="47.3736" lon="-0.64908">
        <ele>18.4</ele>
        <time>2020-07-27T06:31:41Z</time>
      </trkpt>
      <trkpt lat="47.37312" lon="-0.64869">
        <ele>18</ele>
        <time>2020-07-27T06:31:50Z</time>
      </trkpt>
      <trkpt lat="47.37269" lon="-0.64831">
        <ele>17.2</ele>
        <time>2020-07-27T06:31:58Z</time>
      </trkpt>
      <trkpt lat="47.37224" lon="-0.648">
        <ele>17</ele>
        <time>2020-07-27T06:32:05Z</time>
      </trkpt>
      <trkpt lat="47.37217" lon="-0.64797">
        <ele>16.8</ele>
        <time>2020-07-27T06:32:06Z</time>
      </trkpt>
      <trkpt lat="47.37187" lon="-0.64795">
        <ele>16.2</ele>
        <time>2020-07-27T06:32:10Z</time>
      </trkpt>
      <trkpt lat="47.37173" lon="-0.648">
        <ele>16.2</ele>
        <time>2020-07-27T06:32:12Z</time>
      </trkpt>
      <trkpt lat="47.3716" lon="-0.64812">
        <ele>16</ele>
        <time>2020-07-27T06:32:14Z</time>
      </trkpt>
      <trkpt lat="47.37142" lon="-0.64839">
        <ele>16.4</ele>
        <time>2020-07-27T06:32:17Z</time>
      </trkpt>
      <trkpt lat="47.37137" lon="-0.64848">
        <ele>16.2</ele>
        <time>2020-07-27T06:32:18Z</time>
      </trkpt>
      <trkpt lat="47.37132" lon="-0.64858">
        <ele>16.4</ele>
        <time>2020-07-27T06:32:19Z</time>
      </trkpt>
      <trkpt lat="47.37095" lon="-0.6493">
        <ele>16.2</ele>
        <time>2020-07-27T06:32:27Z</time>
      </trkpt>
      <trkpt lat="47.37091" lon="-0.64939">
        <ele>16.2</ele>
        <time>2020-07-27T06:32:28Z</time>
      </trkpt>
      <trkpt lat="47.37054" lon="-0.65008">
        <ele>16</ele>
        <time>2020-07-27T06:32:36Z</time>
      </trkpt>
      <trkpt lat="47.3705" lon="-0.65016">
        <ele>16</ele>
        <time>2020-07-27T06:32:37Z</time>
      </trkpt>
      <trkpt lat="47.37015" lon="-0.65082">
        <ele>16.4</ele>
        <time>2020-07-27T06:32:45Z</time>
      </trkpt>
      <trkpt lat="47.37006" lon="-0.65098">
        <ele>16.4</ele>
        <time>2020-07-27T06:32:47Z</time>
      </trkpt>
      <trkpt lat="47.3697" lon="-0.65163">
        <ele>16.8</ele>
        <time>2020-07-27T06:32:55Z</time>
      </trkpt>
      <trkpt lat="47.36966" lon="-0.6517">
        <ele>16.8</ele>
        <time>2020-07-27T06:32:56Z</time>
      </trkpt>
      <trkpt lat="47.36927" lon="-0.65227">
        <ele>16.8</ele>
        <time>2020-07-27T06:33:04Z</time>
      </trkpt>
      <trkpt lat="47.36921" lon="-0.65233">
        <ele>16.8</ele>
        <time>2020-07-27T06:33:05Z</time>
      </trkpt>
      <trkpt lat="47.36886" lon="-0.65261">
        <ele>16</ele>
        <time>2020-07-27T06:33:11Z</time>
      </trkpt>
      <trkpt lat="47.3684" lon="-0.65278">
        <ele>16.2</ele>
        <time>2020-07-27T06:33:18Z</time>
      </trkpt>
      <trkpt lat="47.36792" lon="-0.65281">
        <ele>16.2</ele>
        <time>2020-07-27T06:33:25Z</time>
      </trkpt>
      <trkpt lat="47.36737" lon="-0.65283">
        <ele>16</ele>
        <time>2020-07-27T06:33:33Z</time>
      </trkpt>
      <trkpt lat="47.3673" lon="-0.65283">
        <ele>16</ele>
        <time>2020-07-27T06:33:34Z</time>
      </trkpt>
      <trkpt lat="47.36676" lon="-0.65294">
        <ele>15.8</ele>
        <time>2020-07-27T06:33:42Z</time>
      </trkpt>
      <trkpt lat="47.3667" lon="-0.65297">
        <ele>15.8</ele>
        <time>2020-07-27T06:33:43Z</time>
      </trkpt>
      <trkpt lat="47.36616" lon="-0.65318">
        <ele>16.2</ele>
        <time>2020-07-27T06:33:51Z</time>
      </trkpt>
      <trkpt lat="47.36596" lon="-0.65326">
        <ele>16.2</ele>
        <time>2020-07-27T06:33:54Z</time>
      </trkpt>
      <trkpt lat="47.36539" lon="-0.6535">
        <ele>16.6</ele>
        <time>2020-07-27T06:34:03Z</time>
      </trkpt>
      <trkpt lat="47.36513" lon="-0.65361">
        <ele>16.6</ele>
        <time>2020-07-27T06:34:07Z</time>
      </trkpt>
      <trkpt lat="47.36487" lon="-0.65371">
        <ele>16.8</ele>
        <time>2020-07-27T06:34:11Z</time>
      </trkpt>
      <trkpt lat="47.36442" lon="-0.6539">
        <ele>16.6</ele>
        <time>2020-07-27T06:34:18Z</time>
      </trkpt>
      <trkpt lat="47.36384" lon="-0.65415">
        <ele>16.6</ele>
        <time>2020-07-27T06:34:27Z</time>
      </trkpt>
      <trkpt lat="47.36377" lon="-0.65417">
        <ele>16.4</ele>
        <time>2020-07-27T06:34:28Z</time>
      </trkpt>
      <trkpt lat="47.36319" lon="-0.65441">
        <ele>16.6</ele>
        <time>2020-07-27T06:34:37Z</time>
      </trkpt>
      <trkpt lat="47.36313" lon="-0.65443">
        <ele>16.6</ele>
        <time>2020-07-27T06:34:38Z</time>
      </trkpt>
      <trkpt lat="47.36255" lon="-0.65467">
        <ele>16.4</ele>
        <time>2020-07-27T06:34:47Z</time>
      </trkpt>
      <trkpt lat="47.36242" lon="-0.65472">
        <ele>16.4</ele>
        <time>2020-07-27T06:34:49Z</time>
      </trkpt>
      <trkpt lat="47.36187" lon="-0.65494">
        <ele>16.8</ele>
        <time>2020-07-27T06:34:58Z</time>
      </trkpt>
      <trkpt lat="47.3613" lon="-0.65517">
        <ele>16.8</ele>
        <time>2020-07-27T06:35:07Z</time>
      </trkpt>
      <trkpt lat="47.36076" lon="-0.6554">
        <ele>16.6</ele>
        <time>2020-07-27T06:35:16Z</time>
      </trkpt>
      <trkpt lat="47.36063" lon="-0.65545">
        <ele>16.4</ele>
        <time>2020-07-27T06:35:18Z</time>
      </trkpt>
      <trkpt lat="47.36021" lon="-0.65557">
        <ele>16.4</ele>
        <time>2020-07-27T06:35:25Z</time>
      </trkpt>
      <trkpt lat="47.36015" lon="-0.65557">
        <ele>16.4</ele>
        <time>2020-07-27T06:35:26Z</time>
      </trkpt>
      <trkpt lat="47.35993" lon="-0.65549">
        <ele>16.4</ele>
        <time>2020-07-27T06:35:30Z</time>
      </trkpt>
      <trkpt lat="47.35961" lon="-0.65534">
        <ele>16.8</ele>
        <time>2020-07-27T06:35:37Z</time>
      </trkpt>
      <trkpt lat="47.35926" lon="-0.6552">
        <ele>17.2</ele>
        <time>2020-07-27T06:35:45Z</time>
      </trkpt>
      <trkpt lat="47.35891" lon="-0.65507">
        <ele>16.8</ele>
        <time>2020-07-27T06:35:52Z</time>
      </trkpt>
      <trkpt lat="47.35885" lon="-0.65508">
        <ele>16.6</ele>
        <time>2020-07-27T06:35:53Z</time>
      </trkpt>
      <trkpt lat="47.35874" lon="-0.65517">
        <ele>16.2</ele>
        <time>2020-07-27T06:35:55Z</time>
      </trkpt>
      <trkpt lat="47.35863" lon="-0.65528">
        <ele>15.8</ele>
        <time>2020-07-27T06:35:57Z</time>
      </trkpt>
      <trkpt lat="47.35847" lon="-0.65539">
        <ele>14.8</ele>
        <time>2020-07-27T06:36:00Z</time>
      </trkpt>
      <trkpt lat="47.35841" lon="-0.65542">
        <ele>14.6</ele>
        <time>2020-07-27T06:36:01Z</time>
      </trkpt>
      <trkpt lat="47.35828" lon="-0.65553">
        <ele>13.6</ele>
        <time>2020-07-27T06:36:05Z</time>
      </trkpt>
      <trkpt lat="47.35825" lon="-0.65555">
        <ele>13.4</ele>
        <time>2020-07-27T06:36:06Z</time>
      </trkpt>
      <trkpt lat="47.3581" lon="-0.65577">
        <ele>12.8</ele>
        <time>2020-07-27T06:36:11Z</time>
      </trkpt>
      <trkpt lat="47.35793" lon="-0.65598">
        <ele>12.8</ele>
        <time>2020-07-27T06:36:16Z</time>
      </trkpt>
      <trkpt lat="47.35784" lon="-0.65601">
        <ele>12.8</ele>
        <time>2020-07-27T06:36:18Z</time>
      </trkpt>
      <trkpt lat="47.35765" lon="-0.65599">
        <ele>12.8</ele>
        <time>2020-07-27T06:36:22Z</time>
      </trkpt>
      <trkpt lat="47.35761" lon="-0.65597">
        <ele>12.8</ele>
        <time>2020-07-27T06:36:23Z</time>
      </trkpt>
      <trkpt lat="47.35744" lon="-0.65593">
        <ele>12.4</ele>
        <time>2020-07-27T06:36:28Z</time>
      </trkpt>
      <trkpt lat="47.35734" lon="-0.65588">
        <ele>11.8</ele>
        <time>2020-07-27T06:36:31Z</time>
      </trkpt>
      <trkpt lat="47.35732" lon="-0.65593">
        <ele>11.8</ele>
        <time>2020-07-27T06:36:32Z</time>
      </trkpt>
      <trkpt lat="47.3573" lon="-0.65598">
        <ele>11.6</ele>
        <time>2020-07-27T06:36:33Z</time>
      </trkpt>
      <trkpt lat="47.35718" lon="-0.6564">
        <ele>11.8</ele>
        <time>2020-07-27T06:36:40Z</time>
      </trkpt>
      <trkpt lat="47.35709" lon="-0.65685">
        <ele>12.8</ele>
        <time>2020-07-27T06:36:46Z</time>
      </trkpt>
      <trkpt lat="47.35695" lon="-0.65739">
        <ele>13</ele>
        <time>2020-07-27T06:36:53Z</time>
      </trkpt>
      <trkpt lat="47.35681" lon="-0.65795">
        <ele>13.6</ele>
        <time>2020-07-27T06:37:00Z</time>
      </trkpt>
      <trkpt lat="47.35679" lon="-0.65803">
        <ele>13.8</ele>
        <time>2020-07-27T06:37:01Z</time>
      </trkpt>
      <trkpt lat="47.3566" lon="-0.65874">
        <ele>14.6</ele>
        <time>2020-07-27T06:37:09Z</time>
      </trkpt>
      <trkpt lat="47.35644" lon="-0.6594">
        <ele>15.2</ele>
        <time>2020-07-27T06:37:16Z</time>
      </trkpt>
      <trkpt lat="47.35626" lon="-0.66017">
        <ele>15.4</ele>
        <time>2020-07-27T06:37:24Z</time>
      </trkpt>
      <trkpt lat="47.3562" lon="-0.66034">
        <ele>15.6</ele>
        <time>2020-07-27T06:37:26Z</time>
      </trkpt>
      <trkpt lat="47.35605" lon="-0.66098">
        <ele>16</ele>
        <time>2020-07-27T06:37:33Z</time>
      </trkpt>
      <trkpt lat="47.3559" lon="-0.66158">
        <ele>16.2</ele>
        <time>2020-07-27T06:37:40Z</time>
      </trkpt>
      <trkpt lat="47.35587" lon="-0.66165">
        <ele>16.2</ele>
        <time>2020-07-27T06:37:41Z</time>
      </trkpt>
      <trkpt lat="47.35579" lon="-0.66188">
        <ele>16.8</ele>
        <time>2020-07-27T06:37:44Z</time>
      </trkpt>
      <trkpt lat="47.35563" lon="-0.66216">
        <ele>17.4</ele>
        <time>2020-07-27T06:37:48Z</time>
      </trkpt>
      <trkpt lat="47.35545" lon="-0.66251">
        <ele>17.8</ele>
        <time>2020-07-27T06:37:53Z</time>
      </trkpt>
      <trkpt lat="47.35537" lon="-0.66265">
        <ele>17.8</ele>
        <time>2020-07-27T06:37:55Z</time>
      </trkpt>
      <trkpt lat="47.35502" lon="-0.66314">
        <ele>18.8</ele>
        <time>2020-07-27T06:38:03Z</time>
      </trkpt>
      <trkpt lat="47.35497" lon="-0.6632">
        <ele>18.8</ele>
        <time>2020-07-27T06:38:04Z</time>
      </trkpt>
      <trkpt lat="47.35466" lon="-0.66349">
        <ele>19.2</ele>
        <time>2020-07-27T06:38:10Z</time>
      </trkpt>
      <trkpt lat="47.35434" lon="-0.66376">
        <ele>20</ele>
        <time>2020-07-27T06:38:16Z</time>
      </trkpt>
      <trkpt lat="47.35429" lon="-0.66379">
        <ele>20.2</ele>
        <time>2020-07-27T06:38:17Z</time>
      </trkpt>
      <trkpt lat="47.35378" lon="-0.66411">
        <ele>20.6</ele>
        <time>2020-07-27T06:38:26Z</time>
      </trkpt>
      <trkpt lat="47.35372" lon="-0.66415">
        <ele>20.6</ele>
        <time>2020-07-27T06:38:27Z</time>
      </trkpt>
      <trkpt lat="47.35344" lon="-0.66433">
        <ele>21</ele>
        <time>2020-07-27T06:38:32Z</time>
      </trkpt>
      <trkpt lat="47.35333" lon="-0.66442">
        <ele>21.2</ele>
        <time>2020-07-27T06:38:34Z</time>
      </trkpt>
      <trkpt lat="47.35302" lon="-0.66475">
        <ele>22.2</ele>
        <time>2020-07-27T06:38:40Z</time>
      </trkpt>
      <trkpt lat="47.35266" lon="-0.66532">
        <ele>22.6</ele>
        <time>2020-07-27T06:38:48Z</time>
      </trkpt>
      <trkpt lat="47.35235" lon="-0.66582">
        <ele>23.2</ele>
        <time>2020-07-27T06:38:55Z</time>
      </trkpt>
      <trkpt lat="47.35223" lon="-0.66603">
        <ele>23.4</ele>
        <time>2020-07-27T06:38:58Z</time>
      </trkpt>
      <trkpt lat="47.35188" lon="-0.66664">
        <ele>23.2</ele>
        <time>2020-07-27T06:39:07Z</time>
      </trkpt>
      <trkpt lat="47.35156" lon="-0.66718">
        <ele>22.4</ele>
        <time>2020-07-27T06:39:15Z</time>
      </trkpt>
      <trkpt lat="47.35153" lon="-0.66725">
        <ele>22</ele>
        <time>2020-07-27T06:39:16Z</time>
      </trkpt>
      <trkpt lat="47.35118" lon="-0.66786">
        <ele>21.6</ele>
        <time>2020-07-27T06:39:25Z</time>
      </trkpt>
      <trkpt lat="47.35093" lon="-0.66827">
        <ele>21</ele>
        <time>2020-07-27T06:39:31Z</time>
      </trkpt>
      <trkpt lat="47.35085" lon="-0.66841">
        <ele>21</ele>
        <time>2020-07-27T06:39:33Z</time>
      </trkpt>
      <trkpt lat="47.35047" lon="-0.66907">
        <ele>20.4</ele>
        <time>2020-07-27T06:39:43Z</time>
      </trkpt>
      <trkpt lat="47.35012" lon="-0.66967">
        <ele>20.8</ele>
        <time>2020-07-27T06:39:52Z</time>
      </trkpt>
      <trkpt lat="47.34974" lon="-0.67031">
        <ele>21</ele>
        <time>2020-07-27T06:40:01Z</time>
      </trkpt>
      <trkpt lat="47.34966" lon="-0.67045">
        <ele>21</ele>
        <time>2020-07-27T06:40:03Z</time>
      </trkpt>
      <trkpt lat="47.34926" lon="-0.67111">
        <ele>21</ele>
        <time>2020-07-27T06:40:12Z</time>
      </trkpt>
      <trkpt lat="47.34922" lon="-0.67118">
        <ele>21</ele>
        <time>2020-07-27T06:40:13Z</time>
      </trkpt>
      <trkpt lat="47.34882" lon="-0.67184">
        <ele>20.4</ele>
        <time>2020-07-27T06:40:22Z</time>
      </trkpt>
      <trkpt lat="47.34878" lon="-0.67191">
        <ele>20.4</ele>
        <time>2020-07-27T06:40:23Z</time>
      </trkpt>
      <trkpt lat="47.34854" lon="-0.67226">
        <ele>20</ele>
        <time>2020-07-27T06:40:28Z</time>
      </trkpt>
      <trkpt lat="47.34826" lon="-0.67268">
        <ele>19.4</ele>
        <time>2020-07-27T06:40:34Z</time>
      </trkpt>
      <trkpt lat="47.34798" lon="-0.67311">
        <ele>19</ele>
        <time>2020-07-27T06:40:40Z</time>
      </trkpt>
      <trkpt lat="47.34782" lon="-0.67342">
        <ele>18.4</ele>
        <time>2020-07-27T06:40:44Z</time>
      </trkpt>
      <trkpt lat="47.34768" lon="-0.67388">
        <ele>18.2</ele>
        <time>2020-07-27T06:40:49Z</time>
      </trkpt>
      <trkpt lat="47.34765" lon="-0.67416">
        <ele>17.8</ele>
        <time>2020-07-27T06:40:52Z</time>
      </trkpt>
      <trkpt lat="47.34763" lon="-0.67434">
        <ele>17.6</ele>
        <time>2020-07-27T06:40:54Z</time>
      </trkpt>
      <trkpt lat="47.34764" lon="-0.67485">
        <ele>17.4</ele>
        <time>2020-07-27T06:41:00Z</time>
      </trkpt>
      <trkpt lat="47.34765" lon="-0.67492">
        <ele>17.4</ele>
        <time>2020-07-27T06:41:01Z</time>
      </trkpt>
      <trkpt lat="47.34772" lon="-0.67548">
        <ele>17.6</ele>
        <time>2020-07-27T06:41:09Z</time>
      </trkpt>
      <trkpt lat="47.34769" lon="-0.67597">
        <ele>18</ele>
        <time>2020-07-27T06:41:16Z</time>
      </trkpt>
      <trkpt lat="47.34756" lon="-0.67649">
        <ele>18.8</ele>
        <time>2020-07-27T06:41:24Z</time>
      </trkpt>
      <trkpt lat="47.34753" lon="-0.67655">
        <ele>19</ele>
        <time>2020-07-27T06:41:25Z</time>
      </trkpt>
      <trkpt lat="47.34738" lon="-0.67705">
        <ele>19.8</ele>
        <time>2020-07-27T06:41:33Z</time>
      </trkpt>
      <trkpt lat="47.34733" lon="-0.67716">
        <ele>20</ele>
        <time>2020-07-27T06:41:35Z</time>
      </trkpt>
      <trkpt lat="47.34718" lon="-0.67742">
        <ele>20.6</ele>
        <time>2020-07-27T06:41:40Z</time>
      </trkpt>
      <trkpt lat="47.34708" lon="-0.67755">
        <ele>21.2</ele>
        <time>2020-07-27T06:41:43Z</time>
      </trkpt>
      <trkpt lat="47.34692" lon="-0.67779">
        <ele>22.4</ele>
        <time>2020-07-27T06:41:48Z</time>
      </trkpt>
      <trkpt lat="47.34677" lon="-0.67813">
        <ele>23</ele>
        <time>2020-07-27T06:41:54Z</time>
      </trkpt>
      <trkpt lat="47.34675" lon="-0.67819">
        <ele>23</ele>
        <time>2020-07-27T06:41:55Z</time>
      </trkpt>
      <trkpt lat="47.34669" lon="-0.67844">
        <ele>23.4</ele>
        <time>2020-07-27T06:41:59Z</time>
      </trkpt>
      <trkpt lat="47.34661" lon="-0.67883">
        <ele>23.8</ele>
        <time>2020-07-27T06:42:05Z</time>
      </trkpt>
      <trkpt lat="47.3466" lon="-0.6789">
        <ele>23.8</ele>
        <time>2020-07-27T06:42:06Z</time>
      </trkpt>
      <trkpt lat="47.34661" lon="-0.67922">
        <ele>23.6</ele>
        <time>2020-07-27T06:42:11Z</time>
      </trkpt>
      <trkpt lat="47.3466" lon="-0.67972">
        <ele>24</ele>
        <time>2020-07-27T06:42:19Z</time>
      </trkpt>
      <trkpt lat="47.34658" lon="-0.67985">
        <ele>24.4</ele>
        <time>2020-07-27T06:42:21Z</time>
      </trkpt>
      <trkpt lat="47.34652" lon="-0.68015">
        <ele>25.2</ele>
        <time>2020-07-27T06:42:26Z</time>
      </trkpt>
      <trkpt lat="47.3465" lon="-0.68021">
        <ele>25.4</ele>
        <time>2020-07-27T06:42:27Z</time>
      </trkpt>
      <trkpt lat="47.34647" lon="-0.68038">
        <ele>26.6</ele>
        <time>2020-07-27T06:42:30Z</time>
      </trkpt>
      <trkpt lat="47.34641" lon="-0.68062">
        <ele>28</ele>
        <time>2020-07-27T06:42:34Z</time>
      </trkpt>
      <trkpt lat="47.34639" lon="-0.68068">
        <ele>28.4</ele>
        <time>2020-07-27T06:42:35Z</time>
      </trkpt>
      <trkpt lat="47.34628" lon="-0.6811">
        <ele>29.4</ele>
        <time>2020-07-27T06:42:42Z</time>
      </trkpt>
      <trkpt lat="47.34624" lon="-0.68129">
        <ele>30.2</ele>
        <time>2020-07-27T06:42:45Z</time>
      </trkpt>
      <trkpt lat="47.34622" lon="-0.68135">
        <ele>30.4</ele>
        <time>2020-07-27T06:42:46Z</time>
      </trkpt>
      <trkpt lat="47.34613" lon="-0.68176">
        <ele>31.4</ele>
        <time>2020-07-27T06:42:53Z</time>
      </trkpt>
      <trkpt lat="47.3461" lon="-0.68187">
        <ele>31.8</ele>
        <time>2020-07-27T06:42:55Z</time>
      </trkpt>
      <trkpt lat="47.34601" lon="-0.68208">
        <ele>32.6</ele>
        <time>2020-07-27T06:42:59Z</time>
      </trkpt>
      <trkpt lat="47.34597" lon="-0.68218">
        <ele>33</ele>
        <time>2020-07-27T06:43:01Z</time>
      </trkpt>
      <trkpt lat="47.34589" lon="-0.68233">
        <ele>33.6</ele>
        <time>2020-07-27T06:43:04Z</time>
      </trkpt>
      <trkpt lat="47.34578" lon="-0.68256">
        <ele>34.4</ele>
        <time>2020-07-27T06:43:08Z</time>
      </trkpt>
      <trkpt lat="47.34574" lon="-0.68269">
        <ele>34.8</ele>
        <time>2020-07-27T06:43:10Z</time>
      </trkpt>
      <trkpt lat="47.34572" lon="-0.68275">
        <ele>35</ele>
        <time>2020-07-27T06:43:11Z</time>
      </trkpt>
      <trkpt lat="47.34569" lon="-0.68293">
        <ele>35.4</ele>
        <time>2020-07-27T06:43:14Z</time>
      </trkpt>
      <trkpt lat="47.34568" lon="-0.68305">
        <ele>35.8</ele>
        <time>2020-07-27T06:43:16Z</time>
      </trkpt>
      <trkpt lat="47.34565" lon="-0.68335">
        <ele>37</ele>
        <time>2020-07-27T06:43:21Z</time>
      </trkpt>
      <trkpt lat="47.34563" lon="-0.68353">
        <ele>37.6</ele>
        <time>2020-07-27T06:43:24Z</time>
      </trkpt>
      <trkpt lat="47.34559" lon="-0.68369">
        <ele>38</ele>
        <time>2020-07-27T06:43:27Z</time>
      </trkpt>
      <trkpt lat="47.34554" lon="-0.68379">
        <ele>38.4</ele>
        <time>2020-07-27T06:43:29Z</time>
      </trkpt>
      <trkpt lat="47.34538" lon="-0.68391">
        <ele>38.8</ele>
        <time>2020-07-27T06:43:33Z</time>
      </trkpt>
      <trkpt lat="47.3453" lon="-0.68394">
        <ele>39.2</ele>
        <time>2020-07-27T06:43:35Z</time>
      </trkpt>
      <trkpt lat="47.34517" lon="-0.68394">
        <ele>39.4</ele>
        <time>2020-07-27T06:43:38Z</time>
      </trkpt>
      <trkpt lat="47.34513" lon="-0.68394">
        <ele>39.6</ele>
        <time>2020-07-27T06:43:39Z</time>
      </trkpt>
      <trkpt lat="47.345" lon="-0.68391">
        <ele>40.2</ele>
        <time>2020-07-27T06:43:42Z</time>
      </trkpt>
      <trkpt lat="47.3448" lon="-0.68387">
        <ele>41</ele>
        <time>2020-07-27T06:43:47Z</time>
      </trkpt>
      <trkpt lat="47.34476" lon="-0.68388">
        <ele>41.2</ele>
        <time>2020-07-27T06:43:48Z</time>
      </trkpt>
      <trkpt lat="47.34468" lon="-0.68392">
        <ele>41.4</ele>
        <time>2020-07-27T06:43:50Z</time>
      </trkpt>
      <trkpt lat="47.34464" lon="-0.68395">
        <ele>41.6</ele>
        <time>2020-07-27T06:43:51Z</time>
      </trkpt>
      <trkpt lat="47.34454" lon="-0.68418">
        <ele>42.8</ele>
        <time>2020-07-27T06:43:55Z</time>
      </trkpt>
      <trkpt lat="47.34451" lon="-0.68444">
        <ele>43.8</ele>
        <time>2020-07-27T06:43:59Z</time>
      </trkpt>
      <trkpt lat="47.34453" lon="-0.68449">
        <ele>44.2</ele>
        <time>2020-07-27T06:44:00Z</time>
      </trkpt>
      <trkpt lat="47.34458" lon="-0.68466">
        <ele>44.8</ele>
        <time>2020-07-27T06:44:03Z</time>
      </trkpt>
      <trkpt lat="47.34462" lon="-0.68475">
        <ele>45.2</ele>
        <time>2020-07-27T06:44:05Z</time>
      </trkpt>
      <trkpt lat="47.34468" lon="-0.68491">
        <ele>46</ele>
        <time>2020-07-27T06:44:08Z</time>
      </trkpt>
      <trkpt lat="47.34474" lon="-0.68512">
        <ele>47</ele>
        <time>2020-07-27T06:44:12Z</time>
      </trkpt>
      <trkpt lat="47.34477" lon="-0.68529">
        <ele>48</ele>
        <time>2020-07-27T06:44:15Z</time>
      </trkpt>
      <trkpt lat="47.34478" lon="-0.68535">
        <ele>48.2</ele>
        <time>2020-07-27T06:44:16Z</time>
      </trkpt>
      <trkpt lat="47.34479" lon="-0.68558">
        <ele>49.4</ele>
        <time>2020-07-27T06:44:20Z</time>
      </trkpt>
      <trkpt lat="47.34478" lon="-0.68569">
        <ele>50</ele>
        <time>2020-07-27T06:44:22Z</time>
      </trkpt>
      <trkpt lat="47.34476" lon="-0.68581">
        <ele>50.6</ele>
        <time>2020-07-27T06:44:24Z</time>
      </trkpt>
      <trkpt lat="47.34472" lon="-0.68604">
        <ele>51.8</ele>
        <time>2020-07-27T06:44:28Z</time>
      </trkpt>
      <trkpt lat="47.34468" lon="-0.68626">
        <ele>52.8</ele>
        <time>2020-07-27T06:44:32Z</time>
      </trkpt>
      <trkpt lat="47.34456" lon="-0.68688">
        <ele>53.8</ele>
        <time>2020-07-27T06:44:43Z</time>
      </trkpt>
      <trkpt lat="47.34455" lon="-0.68694">
        <ele>53.8</ele>
        <time>2020-07-27T06:44:44Z</time>
      </trkpt>
      <trkpt lat="47.34452" lon="-0.68735">
        <ele>55</ele>
        <time>2020-07-27T06:44:51Z</time>
      </trkpt>
      <trkpt lat="47.34451" lon="-0.68777">
        <ele>56</ele>
        <time>2020-07-27T06:44:58Z</time>
      </trkpt>
      <trkpt lat="47.34452" lon="-0.68796">
        <ele>56.2</ele>
        <time>2020-07-27T06:45:01Z</time>
      </trkpt>
      <trkpt lat="47.34462" lon="-0.68852">
        <ele>56.6</ele>
        <time>2020-07-27T06:45:10Z</time>
      </trkpt>
      <trkpt lat="47.34472" lon="-0.68894">
        <ele>57</ele>
        <time>2020-07-27T06:45:17Z</time>
      </trkpt>
      <trkpt lat="47.34474" lon="-0.68906">
        <ele>57.2</ele>
        <time>2020-07-27T06:45:19Z</time>
      </trkpt>
      <trkpt lat="47.34474" lon="-0.68945">
        <ele>57.8</ele>
        <time>2020-07-27T06:45:25Z</time>
      </trkpt>
      <trkpt lat="47.34472" lon="-0.68951">
        <ele>57.8</ele>
        <time>2020-07-27T06:45:26Z</time>
      </trkpt>
      <trkpt lat="47.34468" lon="-0.6897">
        <ele>58.2</ele>
        <time>2020-07-27T06:45:29Z</time>
      </trkpt>
      <trkpt lat="47.34457" lon="-0.69004">
        <ele>57.4</ele>
        <time>2020-07-27T06:45:34Z</time>
      </trkpt>
      <trkpt lat="47.34433" lon="-0.69071">
        <ele>57.2</ele>
        <time>2020-07-27T06:45:44Z</time>
      </trkpt>
      <trkpt lat="47.34412" lon="-0.69133">
        <ele>56.8</ele>
        <time>2020-07-27T06:45:53Z</time>
      </trkpt>
      <trkpt lat="47.34403" lon="-0.6915">
        <ele>56.8</ele>
        <time>2020-07-27T06:45:56Z</time>
      </trkpt>
      <trkpt lat="47.34395" lon="-0.69159">
        <ele>56.6</ele>
        <time>2020-07-27T06:45:58Z</time>
      </trkpt>
      <trkpt lat="47.3437" lon="-0.69168">
        <ele>56.8</ele>
        <time>2020-07-27T06:46:03Z</time>
      </trkpt>
      <trkpt lat="47.3436" lon="-0.69166">
        <ele>56.6</ele>
        <time>2020-07-27T06:46:05Z</time>
      </trkpt>
      <trkpt lat="47.3434" lon="-0.69161">
        <ele>57</ele>
        <time>2020-07-27T06:46:09Z</time>
      </trkpt>
      <trkpt lat="47.34335" lon="-0.69161">
        <ele>57</ele>
        <time>2020-07-27T06:46:10Z</time>
      </trkpt>
      <trkpt lat="47.3432" lon="-0.69166">
        <ele>57.2</ele>
        <time>2020-07-27T06:46:13Z</time>
      </trkpt>
      <trkpt lat="47.34303" lon="-0.69181">
        <ele>57.4</ele>
        <time>2020-07-27T06:46:17Z</time>
      </trkpt>
      <trkpt lat="47.34299" lon="-0.69186">
        <ele>57.6</ele>
        <time>2020-07-27T06:46:18Z</time>
      </trkpt>
      <trkpt lat="47.34261" lon="-0.69228">
        <ele>58</ele>
        <time>2020-07-27T06:46:27Z</time>
      </trkpt>
      <trkpt lat="47.34257" lon="-0.69233">
        <ele>58.2</ele>
        <time>2020-07-27T06:46:28Z</time>
      </trkpt>
      <trkpt lat="47.3422" lon="-0.69274">
        <ele>57.8</ele>
        <time>2020-07-27T06:46:37Z</time>
      </trkpt>
      <trkpt lat="47.34181" lon="-0.69315">
        <ele>58.2</ele>
        <time>2020-07-27T06:46:47Z</time>
      </trkpt>
      <trkpt lat="47.34155" lon="-0.6935">
        <ele>59</ele>
        <time>2020-07-27T06:46:55Z</time>
      </trkpt>
      <trkpt lat="47.34153" lon="-0.69355">
        <ele>59.2</ele>
        <time>2020-07-27T06:46:56Z</time>
      </trkpt>
      <trkpt lat="47.34141" lon="-0.69388">
        <ele>60.2</ele>
        <time>2020-07-27T06:47:02Z</time>
      </trkpt>
      <trkpt lat="47.3414" lon="-0.69395">
        <ele>60.4</ele>
        <time>2020-07-27T06:47:03Z</time>
      </trkpt>
      <trkpt lat="47.34135" lon="-0.69431">
        <ele>61.2</ele>
        <time>2020-07-27T06:47:09Z</time>
      </trkpt>
      <trkpt lat="47.34135" lon="-0.69438">
        <ele>61.4</ele>
        <time>2020-07-27T06:47:10Z</time>
      </trkpt>
      <trkpt lat="47.34134" lon="-0.69496">
        <ele>62.4</ele>
        <time>2020-07-27T06:47:19Z</time>
      </trkpt>
      <trkpt lat="47.34133" lon="-0.69541">
        <ele>63.4</ele>
        <time>2020-07-27T06:47:26Z</time>
      </trkpt>
      <trkpt lat="47.34132" lon="-0.69561">
        <ele>63.8</ele>
        <time>2020-07-27T06:47:29Z</time>
      </trkpt>
      <trkpt lat="47.34128" lon="-0.69629">
        <ele>64.2</ele>
        <time>2020-07-27T06:47:39Z</time>
      </trkpt>
      <trkpt lat="47.34128" lon="-0.69665">
        <ele>64.6</ele>
        <time>2020-07-27T06:47:44Z</time>
      </trkpt>
      <trkpt lat="47.34126" lon="-0.69702">
        <ele>65</ele>
        <time>2020-07-27T06:47:49Z</time>
      </trkpt>
      <trkpt lat="47.34122" lon="-0.69779">
        <ele>65.2</ele>
        <time>2020-07-27T06:47:59Z</time>
      </trkpt>
      <trkpt lat="47.34119" lon="-0.69848">
        <ele>64.4</ele>
        <time>2020-07-27T06:48:07Z</time>
      </trkpt>
      <trkpt lat="47.34115" lon="-0.69895">
        <ele>63.4</ele>
        <time>2020-07-27T06:48:12Z</time>
      </trkpt>
      <trkpt lat="47.34113" lon="-0.69926">
        <ele>63</ele>
        <time>2020-07-27T06:48:15Z</time>
      </trkpt>
      <trkpt lat="47.34111" lon="-0.69959">
        <ele>62.4</ele>
        <time>2020-07-27T06:48:18Z</time>
      </trkpt>
      <trkpt lat="47.34108" lon="-0.70014">
        <ele>61.2</ele>
        <time>2020-07-27T06:48:23Z</time>
      </trkpt>
      <trkpt lat="47.34107" lon="-0.70035">
        <ele>60.8</ele>
        <time>2020-07-27T06:48:25Z</time>
      </trkpt>
      <trkpt lat="47.34111" lon="-0.70099">
        <ele>60</ele>
        <time>2020-07-27T06:48:31Z</time>
      </trkpt>
      <trkpt lat="47.34122" lon="-0.70168">
        <ele>60</ele>
        <time>2020-07-27T06:48:38Z</time>
      </trkpt>
      <trkpt lat="47.34125" lon="-0.70231">
        <ele>60.4</ele>
        <time>2020-07-27T06:48:45Z</time>
      </trkpt>
      <trkpt lat="47.34117" lon="-0.7029">
        <ele>61.2</ele>
        <time>2020-07-27T06:48:52Z</time>
      </trkpt>
      <trkpt lat="47.34107" lon="-0.70346">
        <ele>61.8</ele>
        <time>2020-07-27T06:48:59Z</time>
      </trkpt>
      <trkpt lat="47.34105" lon="-0.70362">
        <ele>62.2</ele>
        <time>2020-07-27T06:49:01Z</time>
      </trkpt>
      <trkpt lat="47.34098" lon="-0.70402">
        <ele>63.4</ele>
        <time>2020-07-27T06:49:06Z</time>
      </trkpt>
      <trkpt lat="47.34095" lon="-0.70425">
        <ele>64</ele>
        <time>2020-07-27T06:49:09Z</time>
      </trkpt>
      <trkpt lat="47.34094" lon="-0.70433">
        <ele>64.4</ele>
        <time>2020-07-27T06:49:10Z</time>
      </trkpt>
      <trkpt lat="47.34086" lon="-0.70488">
        <ele>65.2</ele>
        <time>2020-07-27T06:49:17Z</time>
      </trkpt>
      <trkpt lat="47.34074" lon="-0.70558">
        <ele>65.2</ele>
        <time>2020-07-27T06:49:25Z</time>
      </trkpt>
      <trkpt lat="47.34061" lon="-0.70642">
        <ele>64</ele>
        <time>2020-07-27T06:49:33Z</time>
      </trkpt>
      <trkpt lat="47.34058" lon="-0.70666">
        <ele>63.2</ele>
        <time>2020-07-27T06:49:35Z</time>
      </trkpt>
      <trkpt lat="47.3405" lon="-0.70715">
        <ele>62.2</ele>
        <time>2020-07-27T06:49:39Z</time>
      </trkpt>
      <trkpt lat="47.34048" lon="-0.70727">
        <ele>62</ele>
        <time>2020-07-27T06:49:40Z</time>
      </trkpt>
      <trkpt lat="47.34041" lon="-0.7079">
        <ele>61</ele>
        <time>2020-07-27T06:49:45Z</time>
      </trkpt>
      <trkpt lat="47.34036" lon="-0.70839">
        <ele>59.8</ele>
        <time>2020-07-27T06:49:49Z</time>
      </trkpt>
      <trkpt lat="47.34029" lon="-0.70898">
        <ele>58.8</ele>
        <time>2020-07-27T06:49:54Z</time>
      </trkpt>
      <trkpt lat="47.34025" lon="-0.7092">
        <ele>58.4</ele>
        <time>2020-07-27T06:49:56Z</time>
      </trkpt>
      <trkpt lat="47.34008" lon="-0.70982">
        <ele>57.6</ele>
        <time>2020-07-27T06:50:02Z</time>
      </trkpt>
      <trkpt lat="47.33994" lon="-0.71042">
        <ele>57.6</ele>
        <time>2020-07-27T06:50:08Z</time>
      </trkpt>
      <trkpt lat="47.33995" lon="-0.71053">
        <ele>57.6</ele>
        <time>2020-07-27T06:50:09Z</time>
      </trkpt>
      <trkpt lat="47.34007" lon="-0.71094">
        <ele>57.4</ele>
        <time>2020-07-27T06:50:13Z</time>
      </trkpt>
      <trkpt lat="47.34021" lon="-0.71138">
        <ele>56.6</ele>
        <time>2020-07-27T06:50:17Z</time>
      </trkpt>
      <trkpt lat="47.34037" lon="-0.71183">
        <ele>55.6</ele>
        <time>2020-07-27T06:50:21Z</time>
      </trkpt>
      <trkpt lat="47.34042" lon="-0.71194">
        <ele>55.2</ele>
        <time>2020-07-27T06:50:22Z</time>
      </trkpt>
      <trkpt lat="47.34055" lon="-0.71212">
        <ele>54.4</ele>
        <time>2020-07-27T06:50:24Z</time>
      </trkpt>
      <trkpt lat="47.34062" lon="-0.71218">
        <ele>53.8</ele>
        <time>2020-07-27T06:50:25Z</time>
      </trkpt>
      <trkpt lat="47.34076" lon="-0.71226">
        <ele>52.8</ele>
        <time>2020-07-27T06:50:27Z</time>
      </trkpt>
      <trkpt lat="47.34089" lon="-0.71226">
        <ele>51.4</ele>
        <time>2020-07-27T06:50:29Z</time>
      </trkpt>
      <trkpt lat="47.34103" lon="-0.71221">
        <ele>50</ele>
        <time>2020-07-27T06:50:31Z</time>
      </trkpt>
      <trkpt lat="47.34117" lon="-0.71206">
        <ele>50.8</ele>
        <time>2020-07-27T06:50:32Z</time>
      </trkpt>
      <trkpt lat="47.34128" lon="-0.71199">
        <ele>50.8</ele>
        <time>2020-07-27T06:50:33Z</time>
      </trkpt>
      <trkpt lat="47.34139" lon="-0.71198">
        <ele>50.6</ele>
        <time>2020-07-27T06:50:34Z</time>
      </trkpt>
      <trkpt lat="47.34168" lon="-0.71205">
        <ele>49.4</ele>
        <time>2020-07-27T06:50:37Z</time>
      </trkpt>
      <trkpt lat="47.34178" lon="-0.71207">
        <ele>49</ele>
        <time>2020-07-27T06:50:38Z</time>
      </trkpt>
      <trkpt lat="47.34188" lon="-0.7121">
        <ele>48.6</ele>
        <time>2020-07-27T06:50:39Z</time>
      </trkpt>
      <trkpt lat="47.34216" lon="-0.71214">
        <ele>47.2</ele>
        <time>2020-07-27T06:50:42Z</time>
      </trkpt>
      <trkpt lat="47.34225" lon="-0.71213">
        <ele>47</ele>
        <time>2020-07-27T06:50:43Z</time>
      </trkpt>
      <trkpt lat="47.34246" lon="-0.71196">
        <ele>45.6</ele>
        <time>2020-07-27T06:50:45Z</time>
      </trkpt>
      <trkpt lat="47.34252" lon="-0.71179">
        <ele>45.2</ele>
        <time>2020-07-27T06:50:46Z</time>
      </trkpt>
      <trkpt lat="47.34261" lon="-0.71135">
        <ele>43.2</ele>
        <time>2020-07-27T06:50:48Z</time>
      </trkpt>
      <trkpt lat="47.34266" lon="-0.71117">
        <ele>42.2</ele>
        <time>2020-07-27T06:50:49Z</time>
      </trkpt>
      <trkpt lat="47.34271" lon="-0.71101">
        <ele>41.4</ele>
        <time>2020-07-27T06:50:50Z</time>
      </trkpt>
      <trkpt lat="47.34276" lon="-0.71088">
        <ele>41</ele>
        <time>2020-07-27T06:50:51Z</time>
      </trkpt>
      <trkpt lat="47.34297" lon="-0.71058">
        <ele>40.2</ele>
        <time>2020-07-27T06:50:54Z</time>
      </trkpt>
      <trkpt lat="47.34313" lon="-0.71043">
        <ele>39.8</ele>
        <time>2020-07-27T06:50:56Z</time>
      </trkpt>
      <trkpt lat="47.3433" lon="-0.71033">
        <ele>39</ele>
        <time>2020-07-27T06:50:58Z</time>
      </trkpt>
      <trkpt lat="47.34338" lon="-0.71031">
        <ele>38.4</ele>
        <time>2020-07-27T06:50:59Z</time>
      </trkpt>
      <trkpt lat="47.34357" lon="-0.71034">
        <ele>37.8</ele>
        <time>2020-07-27T06:51:01Z</time>
      </trkpt>
      <trkpt lat="47.34372" lon="-0.7105">
        <ele>37.2</ele>
        <time>2020-07-27T06:51:03Z</time>
      </trkpt>
      <trkpt lat="47.34384" lon="-0.7109">
        <ele>36.2</ele>
        <time>2020-07-27T06:51:06Z</time>
      </trkpt>
      <trkpt lat="47.34386" lon="-0.71106">
        <ele>36</ele>
        <time>2020-07-27T06:51:07Z</time>
      </trkpt>
      <trkpt lat="47.34388" lon="-0.71122">
        <ele>35.6</ele>
        <time>2020-07-27T06:51:08Z</time>
      </trkpt>
      <trkpt lat="47.34394" lon="-0.71171">
        <ele>34.8</ele>
        <time>2020-07-27T06:51:11Z</time>
      </trkpt>
      <trkpt lat="47.34412" lon="-0.71247">
        <ele>34</ele>
        <time>2020-07-27T06:51:16Z</time>
      </trkpt>
      <trkpt lat="47.34421" lon="-0.71275">
        <ele>33.8</ele>
        <time>2020-07-27T06:51:18Z</time>
      </trkpt>
      <trkpt lat="47.34444" lon="-0.71348">
        <ele>32.8</ele>
        <time>2020-07-27T06:51:23Z</time>
      </trkpt>
      <trkpt lat="47.34448" lon="-0.71363">
        <ele>32.6</ele>
        <time>2020-07-27T06:51:24Z</time>
      </trkpt>
      <trkpt lat="47.34471" lon="-0.71435">
        <ele>31.4</ele>
        <time>2020-07-27T06:51:29Z</time>
      </trkpt>
      <trkpt lat="47.34492" lon="-0.71492">
        <ele>30</ele>
        <time>2020-07-27T06:51:33Z</time>
      </trkpt>
      <trkpt lat="47.34511" lon="-0.71552">
        <ele>29</ele>
        <time>2020-07-27T06:51:37Z</time>
      </trkpt>
      <trkpt lat="47.34527" lon="-0.71614">
        <ele>27.8</ele>
        <time>2020-07-27T06:51:41Z</time>
      </trkpt>
      <trkpt lat="47.34541" lon="-0.71656">
        <ele>26.8</ele>
        <time>2020-07-27T06:51:44Z</time>
      </trkpt>
      <trkpt lat="47.34548" lon="-0.71669">
        <ele>26.6</ele>
        <time>2020-07-27T06:51:45Z</time>
      </trkpt>
      <trkpt lat="47.34573" lon="-0.71705">
        <ele>25.6</ele>
        <time>2020-07-27T06:51:48Z</time>
      </trkpt>
      <trkpt lat="47.34582" lon="-0.71715">
        <ele>25.2</ele>
        <time>2020-07-27T06:51:49Z</time>
      </trkpt>
      <trkpt lat="47.34619" lon="-0.71753">
        <ele>24.2</ele>
        <time>2020-07-27T06:51:53Z</time>
      </trkpt>
      <trkpt lat="47.34627" lon="-0.71765">
        <ele>23.8</ele>
        <time>2020-07-27T06:51:54Z</time>
      </trkpt>
      <trkpt lat="47.34644" lon="-0.71804">
        <ele>23</ele>
        <time>2020-07-27T06:51:57Z</time>
      </trkpt>
      <trkpt lat="47.34663" lon="-0.71855">
        <ele>21.8</ele>
        <time>2020-07-27T06:52:01Z</time>
      </trkpt>
      <trkpt lat="47.34674" lon="-0.71891">
        <ele>21</ele>
        <time>2020-07-27T06:52:04Z</time>
      </trkpt>
      <trkpt lat="47.34677" lon="-0.71904">
        <ele>20.8</ele>
        <time>2020-07-27T06:52:05Z</time>
      </trkpt>
      <trkpt lat="47.34684" lon="-0.71953">
        <ele>20.2</ele>
        <time>2020-07-27T06:52:09Z</time>
      </trkpt>
      <trkpt lat="47.34687" lon="-0.7204">
        <ele>20.2</ele>
        <time>2020-07-27T06:52:16Z</time>
      </trkpt>
      <trkpt lat="47.34694" lon="-0.72112">
        <ele>19.6</ele>
        <time>2020-07-27T06:52:22Z</time>
      </trkpt>
      <trkpt lat="47.34696" lon="-0.72124">
        <ele>19.6</ele>
        <time>2020-07-27T06:52:23Z</time>
      </trkpt>
      <trkpt lat="47.34714" lon="-0.722">
        <ele>18.8</ele>
        <time>2020-07-27T06:52:30Z</time>
      </trkpt>
      <trkpt lat="47.34717" lon="-0.7221">
        <ele>18.8</ele>
        <time>2020-07-27T06:52:31Z</time>
      </trkpt>
      <trkpt lat="47.34723" lon="-0.72231">
        <ele>18.6</ele>
        <time>2020-07-27T06:52:33Z</time>
      </trkpt>
      <trkpt lat="47.34738" lon="-0.72267">
        <ele>18.6</ele>
        <time>2020-07-27T06:52:37Z</time>
      </trkpt>
      <trkpt lat="47.34751" lon="-0.72313">
        <ele>19.2</ele>
        <time>2020-07-27T06:52:42Z</time>
      </trkpt>
      <trkpt lat="47.34752" lon="-0.72323">
        <ele>19.2</ele>
        <time>2020-07-27T06:52:43Z</time>
      </trkpt>
      <trkpt lat="47.34753" lon="-0.72374">
        <ele>19.4</ele>
        <time>2020-07-27T06:52:48Z</time>
      </trkpt>
      <trkpt lat="47.34753" lon="-0.72395">
        <ele>19.6</ele>
        <time>2020-07-27T06:52:50Z</time>
      </trkpt>
      <trkpt lat="47.34753" lon="-0.72466">
        <ele>19.8</ele>
        <time>2020-07-27T06:52:57Z</time>
      </trkpt>
      <trkpt lat="47.34759" lon="-0.72552">
        <ele>19.8</ele>
        <time>2020-07-27T06:53:06Z</time>
      </trkpt>
      <trkpt lat="47.34772" lon="-0.72601">
        <ele>19.6</ele>
        <time>2020-07-27T06:53:11Z</time>
      </trkpt>
      <trkpt lat="47.34789" lon="-0.72671">
        <ele>20</ele>
        <time>2020-07-27T06:53:18Z</time>
      </trkpt>
      <trkpt lat="47.34799" lon="-0.72746">
        <ele>20</ele>
        <time>2020-07-27T06:53:25Z</time>
      </trkpt>
      <trkpt lat="47.34818" lon="-0.72827">
        <ele>19.8</ele>
        <time>2020-07-27T06:53:33Z</time>
      </trkpt>
      <trkpt lat="47.34841" lon="-0.72881">
        <ele>19.4</ele>
        <time>2020-07-27T06:53:39Z</time>
      </trkpt>
      <trkpt lat="47.34868" lon="-0.7294">
        <ele>20</ele>
        <time>2020-07-27T06:53:46Z</time>
      </trkpt>
      <trkpt lat="47.3487" lon="-0.72949">
        <ele>20</ele>
        <time>2020-07-27T06:53:47Z</time>
      </trkpt>
      <trkpt lat="47.34873" lon="-0.72977">
        <ele>19.6</ele>
        <time>2020-07-27T06:53:50Z</time>
      </trkpt>
      <trkpt lat="47.3487" lon="-0.73024">
        <ele>19.8</ele>
        <time>2020-07-27T06:53:55Z</time>
      </trkpt>
      <trkpt lat="47.34861" lon="-0.73099">
        <ele>20</ele>
        <time>2020-07-27T06:54:03Z</time>
      </trkpt>
      <trkpt lat="47.34866" lon="-0.73168">
        <ele>20</ele>
        <time>2020-07-27T06:54:10Z</time>
      </trkpt>
      <trkpt lat="47.34881" lon="-0.73248">
        <ele>19.4</ele>
        <time>2020-07-27T06:54:18Z</time>
      </trkpt>
      <trkpt lat="47.34883" lon="-0.73259">
        <ele>19.4</ele>
        <time>2020-07-27T06:54:19Z</time>
      </trkpt>
      <trkpt lat="47.34896" lon="-0.7334">
        <ele>18.6</ele>
        <time>2020-07-27T06:54:27Z</time>
      </trkpt>
      <trkpt lat="47.34897" lon="-0.73349">
        <ele>18.4</ele>
        <time>2020-07-27T06:54:28Z</time>
      </trkpt>
      <trkpt lat="47.34903" lon="-0.73435">
        <ele>18</ele>
        <time>2020-07-27T06:54:37Z</time>
      </trkpt>
      <trkpt lat="47.34903" lon="-0.7347">
        <ele>17.4</ele>
        <time>2020-07-27T06:54:41Z</time>
      </trkpt>
      <trkpt lat="47.34901" lon="-0.73496">
        <ele>17.2</ele>
        <time>2020-07-27T06:54:44Z</time>
      </trkpt>
      <trkpt lat="47.349" lon="-0.73523">
        <ele>17</ele>
        <time>2020-07-27T06:54:47Z</time>
      </trkpt>
      <trkpt lat="47.34903" lon="-0.73539">
        <ele>16.8</ele>
        <time>2020-07-27T06:54:49Z</time>
      </trkpt>
      <trkpt lat="47.34916" lon="-0.7356">
        <ele>16.6</ele>
        <time>2020-07-27T06:54:52Z</time>
      </trkpt>
      <trkpt lat="47.34927" lon="-0.7357">
        <ele>16.6</ele>
        <time>2020-07-27T06:54:54Z</time>
      </trkpt>
      <trkpt lat="47.34938" lon="-0.7358">
        <ele>16.6</ele>
        <time>2020-07-27T06:54:56Z</time>
      </trkpt>
      <trkpt lat="47.34943" lon="-0.73587">
        <ele>16.6</ele>
        <time>2020-07-27T06:54:57Z</time>
      </trkpt>
      <trkpt lat="47.34954" lon="-0.73616">
        <ele>16.6</ele>
        <time>2020-07-27T06:55:00Z</time>
      </trkpt>
      <trkpt lat="47.34955" lon="-0.73637">
        <ele>16.2</ele>
        <time>2020-07-27T06:55:02Z</time>
      </trkpt>
      <trkpt lat="47.34954" lon="-0.73647">
        <ele>16.2</ele>
        <time>2020-07-27T06:55:03Z</time>
      </trkpt>
      <trkpt lat="47.34949" lon="-0.73667">
        <ele>15.8</ele>
        <time>2020-07-27T06:55:05Z</time>
      </trkpt>
      <trkpt lat="47.34942" lon="-0.73699">
        <ele>15.6</ele>
        <time>2020-07-27T06:55:08Z</time>
      </trkpt>
      <trkpt lat="47.34939" lon="-0.73734">
        <ele>15.4</ele>
        <time>2020-07-27T06:55:11Z</time>
      </trkpt>
      <trkpt lat="47.3494" lon="-0.73745">
        <ele>15.4</ele>
        <time>2020-07-27T06:55:12Z</time>
      </trkpt>
      <trkpt lat="47.34948" lon="-0.73777">
        <ele>15.2</ele>
        <time>2020-07-27T06:55:15Z</time>
      </trkpt>
      <trkpt lat="47.34951" lon="-0.73787">
        <ele>15</ele>
        <time>2020-07-27T06:55:16Z</time>
      </trkpt>
      <trkpt lat="47.34955" lon="-0.73796">
        <ele>15</ele>
        <time>2020-07-27T06:55:17Z</time>
      </trkpt>
      <trkpt lat="47.34973" lon="-0.73841">
        <ele>14.6</ele>
        <time>2020-07-27T06:55:22Z</time>
      </trkpt>
      <trkpt lat="47.34996" lon="-0.73917">
        <ele>14.8</ele>
        <time>2020-07-27T06:55:30Z</time>
      </trkpt>
      <trkpt lat="47.34999" lon="-0.73927">
        <ele>14.8</ele>
        <time>2020-07-27T06:55:31Z</time>
      </trkpt>
      <trkpt lat="47.35021" lon="-0.74001">
        <ele>15.4</ele>
        <time>2020-07-27T06:55:39Z</time>
      </trkpt>
      <trkpt lat="47.35026" lon="-0.74021">
        <ele>15.4</ele>
        <time>2020-07-27T06:55:41Z</time>
      </trkpt>
      <trkpt lat="47.3504" lon="-0.74099">
        <ele>16</ele>
        <time>2020-07-27T06:55:49Z</time>
      </trkpt>
      <trkpt lat="47.35041" lon="-0.74109">
        <ele>16</ele>
        <time>2020-07-27T06:55:50Z</time>
      </trkpt>
      <trkpt lat="47.35047" lon="-0.74169">
        <ele>16.2</ele>
        <time>2020-07-27T06:55:56Z</time>
      </trkpt>
      <trkpt lat="47.35049" lon="-0.742">
        <ele>16.6</ele>
        <time>2020-07-27T06:55:59Z</time>
      </trkpt>
      <trkpt lat="47.35056" lon="-0.74281">
        <ele>16.8</ele>
        <time>2020-07-27T06:56:07Z</time>
      </trkpt>
      <trkpt lat="47.35058" lon="-0.74291">
        <ele>17</ele>
        <time>2020-07-27T06:56:08Z</time>
      </trkpt>
      <trkpt lat="47.35069" lon="-0.74369">
        <ele>17.2</ele>
        <time>2020-07-27T06:56:16Z</time>
      </trkpt>
      <trkpt lat="47.35071" lon="-0.74379">
        <ele>17.2</ele>
        <time>2020-07-27T06:56:17Z</time>
      </trkpt>
      <trkpt lat="47.35078" lon="-0.74437">
        <ele>17.6</ele>
        <time>2020-07-27T06:56:23Z</time>
      </trkpt>
      <trkpt lat="47.35073" lon="-0.74509">
        <ele>17.8</ele>
        <time>2020-07-27T06:56:30Z</time>
      </trkpt>
      <trkpt lat="47.35067" lon="-0.74589">
        <ele>17.6</ele>
        <time>2020-07-27T06:56:38Z</time>
      </trkpt>
      <trkpt lat="47.35066" lon="-0.7461">
        <ele>17.6</ele>
        <time>2020-07-27T06:56:40Z</time>
      </trkpt>
      <trkpt lat="47.35059" lon="-0.7467">
        <ele>18.2</ele>
        <time>2020-07-27T06:56:46Z</time>
      </trkpt>
      <trkpt lat="47.35059" lon="-0.7468">
        <ele>18.2</ele>
        <time>2020-07-27T06:56:47Z</time>
      </trkpt>
      <trkpt lat="47.35051" lon="-0.74761">
        <ele>19.2</ele>
        <time>2020-07-27T06:56:55Z</time>
      </trkpt>
      <trkpt lat="47.3505" lon="-0.74771">
        <ele>19.2</ele>
        <time>2020-07-27T06:56:56Z</time>
      </trkpt>
      <trkpt lat="47.35049" lon="-0.7479">
        <ele>19.4</ele>
        <time>2020-07-27T06:56:58Z</time>
      </trkpt>
      <trkpt lat="47.35041" lon="-0.74876">
        <ele>20</ele>
        <time>2020-07-27T06:57:07Z</time>
      </trkpt>
      <trkpt lat="47.35025" lon="-0.74929">
        <ele>20</ele>
        <time>2020-07-27T06:57:13Z</time>
      </trkpt>
      <trkpt lat="47.35004" lon="-0.75004">
        <ele>19.2</ele>
        <time>2020-07-27T06:57:21Z</time>
      </trkpt>
      <trkpt lat="47.34996" lon="-0.75083">
        <ele>18.6</ele>
        <time>2020-07-27T06:57:29Z</time>
      </trkpt>
      <trkpt lat="47.34997" lon="-0.75123">
        <ele>18.2</ele>
        <time>2020-07-27T06:57:33Z</time>
      </trkpt>
      <trkpt lat="47.35" lon="-0.75143">
        <ele>17.8</ele>
        <time>2020-07-27T06:57:35Z</time>
      </trkpt>
      <trkpt lat="47.35005" lon="-0.75182">
        <ele>17.2</ele>
        <time>2020-07-27T06:57:39Z</time>
      </trkpt>
      <trkpt lat="47.35013" lon="-0.75241">
        <ele>17</ele>
        <time>2020-07-27T06:57:45Z</time>
      </trkpt>
      <trkpt lat="47.35022" lon="-0.75322">
        <ele>17.2</ele>
        <time>2020-07-27T06:57:53Z</time>
      </trkpt>
      <trkpt lat="47.35024" lon="-0.75342">
        <ele>17.4</ele>
        <time>2020-07-27T06:57:55Z</time>
      </trkpt>
      <trkpt lat="47.35034" lon="-0.75426">
        <ele>17.8</ele>
        <time>2020-07-27T06:58:04Z</time>
      </trkpt>
      <trkpt lat="47.35036" lon="-0.75444">
        <ele>18.2</ele>
        <time>2020-07-27T06:58:06Z</time>
      </trkpt>
      <trkpt lat="47.35045" lon="-0.75519">
        <ele>18.8</ele>
        <time>2020-07-27T06:58:14Z</time>
      </trkpt>
      <trkpt lat="47.35055" lon="-0.75602">
        <ele>18.2</ele>
        <time>2020-07-27T06:58:22Z</time>
      </trkpt>
      <trkpt lat="47.35056" lon="-0.75612">
        <ele>18</ele>
        <time>2020-07-27T06:58:23Z</time>
      </trkpt>
      <trkpt lat="47.35061" lon="-0.75661">
        <ele>17.2</ele>
        <time>2020-07-27T06:58:28Z</time>
      </trkpt>
      <trkpt lat="47.35062" lon="-0.75671">
        <ele>17</ele>
        <time>2020-07-27T06:58:29Z</time>
      </trkpt>
      <trkpt lat="47.35069" lon="-0.75751">
        <ele>16.4</ele>
        <time>2020-07-27T06:58:37Z</time>
      </trkpt>
      <trkpt lat="47.35068" lon="-0.7576">
        <ele>16.4</ele>
        <time>2020-07-27T06:58:38Z</time>
      </trkpt>
      <trkpt lat="47.35065" lon="-0.75778">
        <ele>16.2</ele>
        <time>2020-07-27T06:58:40Z</time>
      </trkpt>
      <trkpt lat="47.35062" lon="-0.75796">
        <ele>16</ele>
        <time>2020-07-27T06:58:42Z</time>
      </trkpt>
      <trkpt lat="47.35067" lon="-0.75823">
        <ele>16</ele>
        <time>2020-07-27T06:58:45Z</time>
      </trkpt>
      <trkpt lat="47.35077" lon="-0.75837">
        <ele>15.8</ele>
        <time>2020-07-27T06:58:47Z</time>
      </trkpt>
      <trkpt lat="47.3509" lon="-0.75857">
        <ele>15.8</ele>
        <time>2020-07-27T06:58:50Z</time>
      </trkpt>
      <trkpt lat="47.35103" lon="-0.75878">
        <ele>15.8</ele>
        <time>2020-07-27T06:58:53Z</time>
      </trkpt>
      <trkpt lat="47.35118" lon="-0.75909">
        <ele>15.8</ele>
        <time>2020-07-27T06:58:57Z</time>
      </trkpt>
      <trkpt lat="47.3514" lon="-0.75962">
        <ele>15.6</ele>
        <time>2020-07-27T06:59:04Z</time>
      </trkpt>
      <trkpt lat="47.35173" lon="-0.76034">
        <ele>15.2</ele>
        <time>2020-07-27T06:59:14Z</time>
      </trkpt>
      <trkpt lat="47.35176" lon="-0.7604">
        <ele>15.4</ele>
        <time>2020-07-27T06:59:15Z</time>
      </trkpt>
      <trkpt lat="47.35196" lon="-0.76078">
        <ele>15.6</ele>
        <time>2020-07-27T06:59:21Z</time>
      </trkpt>
      <trkpt lat="47.35217" lon="-0.76128">
        <ele>16.8</ele>
        <time>2020-07-27T06:59:28Z</time>
      </trkpt>
      <trkpt lat="47.35236" lon="-0.76171">
        <ele>17.4</ele>
        <time>2020-07-27T06:59:34Z</time>
      </trkpt>
      <trkpt lat="47.35241" lon="-0.76185">
        <ele>18.2</ele>
        <time>2020-07-27T06:59:36Z</time>
      </trkpt>
      <trkpt lat="47.35243" lon="-0.76193">
        <ele>18.6</ele>
        <time>2020-07-27T06:59:37Z</time>
      </trkpt>
      <trkpt lat="47.35248" lon="-0.76224">
        <ele>19.6</ele>
        <time>2020-07-27T06:59:41Z</time>
      </trkpt>
      <trkpt lat="47.35251" lon="-0.7626">
        <ele>20.8</ele>
        <time>2020-07-27T06:59:47Z</time>
      </trkpt>
      <trkpt lat="47.35251" lon="-0.76267">
        <ele>21.2</ele>
        <time>2020-07-27T07:00:40Z</time>
      </trkpt>
      <trkpt lat="47.35256" lon="-0.76282">
        <ele>20.2</ele>
        <time>2020-07-27T07:00:46Z</time>
      </trkpt>
      <trkpt lat="47.35253" lon="-0.76285">
        <ele>20.2</ele>
        <time>2020-07-27T07:00:47Z</time>
      </trkpt>
      <trkpt lat="47.35234" lon="-0.76296">
        <ele>20.6</ele>
        <time>2020-07-27T07:00:53Z</time>
      </trkpt>
      <trkpt lat="47.35213" lon="-0.76307">
        <ele>20.4</ele>
        <time>2020-07-27T07:00:59Z</time>
      </trkpt>
      <trkpt lat="47.35196" lon="-0.76325">
        <ele>20.2</ele>
        <time>2020-07-27T07:01:04Z</time>
      </trkpt>
      <trkpt lat="47.35183" lon="-0.76341">
        <ele>20.4</ele>
        <time>2020-07-27T07:01:08Z</time>
      </trkpt>
      <trkpt lat="47.35178" lon="-0.76351">
        <ele>20.4</ele>
        <time>2020-07-27T07:01:10Z</time>
      </trkpt>
      <trkpt lat="47.35165" lon="-0.76382">
        <ele>21.2</ele>
        <time>2020-07-27T07:01:16Z</time>
      </trkpt>
      <trkpt lat="47.35163" lon="-0.76387">
        <ele>21.4</ele>
        <time>2020-07-27T07:01:17Z</time>
      </trkpt>
      <trkpt lat="47.3516" lon="-0.76399">
        <ele>22</ele>
        <time>2020-07-27T07:01:19Z</time>
      </trkpt>
      <trkpt lat="47.35157" lon="-0.7641">
        <ele>22.2</ele>
        <time>2020-07-27T07:01:21Z</time>
      </trkpt>
      <trkpt lat="47.35155" lon="-0.76422">
        <ele>22.6</ele>
        <time>2020-07-27T07:01:23Z</time>
      </trkpt>
      <trkpt lat="47.35153" lon="-0.76446">
        <ele>23</ele>
        <time>2020-07-27T07:01:27Z</time>
      </trkpt>
      <trkpt lat="47.35151" lon="-0.76491">
        <ele>24</ele>
        <time>2020-07-27T07:01:35Z</time>
      </trkpt>
      <trkpt lat="47.35151" lon="-0.76497">
        <ele>24</ele>
        <time>2020-07-27T07:01:36Z</time>
      </trkpt>
      <trkpt lat="47.35153" lon="-0.76525">
        <ele>25.2</ele>
        <time>2020-07-27T07:01:41Z</time>
      </trkpt>
      <trkpt lat="47.35155" lon="-0.76546">
        <ele>26.4</ele>
        <time>2020-07-27T07:01:45Z</time>
      </trkpt>
      <trkpt lat="47.35157" lon="-0.76585">
        <ele>27.4</ele>
        <time>2020-07-27T07:01:52Z</time>
      </trkpt>
      <trkpt lat="47.35157" lon="-0.76591">
        <ele>27.6</ele>
        <time>2020-07-27T07:01:53Z</time>
      </trkpt>
      <trkpt lat="47.35159" lon="-0.76613">
        <ele>29</ele>
        <time>2020-07-27T07:01:57Z</time>
      </trkpt>
      <trkpt lat="47.3516" lon="-0.76634">
        <ele>30.2</ele>
        <time>2020-07-27T07:02:01Z</time>
      </trkpt>
      <trkpt lat="47.3516" lon="-0.7665">
        <ele>31.2</ele>
        <time>2020-07-27T07:02:04Z</time>
      </trkpt>
      <trkpt lat="47.3516" lon="-0.76672">
        <ele>32.4</ele>
        <time>2020-07-27T07:02:08Z</time>
      </trkpt>
      <trkpt lat="47.35161" lon="-0.76693">
        <ele>33.4</ele>
        <time>2020-07-27T07:02:12Z</time>
      </trkpt>
      <trkpt lat="47.35162" lon="-0.76704">
        <ele>33.8</ele>
        <time>2020-07-27T07:02:14Z</time>
      </trkpt>
      <trkpt lat="47.35164" lon="-0.7672">
        <ele>34.6</ele>
        <time>2020-07-27T07:02:17Z</time>
      </trkpt>
      <trkpt lat="47.35165" lon="-0.76742">
        <ele>35.8</ele>
        <time>2020-07-27T07:02:21Z</time>
      </trkpt>
      <trkpt lat="47.35165" lon="-0.76754">
        <ele>36.2</ele>
        <time>2020-07-27T07:02:23Z</time>
      </trkpt>
      <trkpt lat="47.35165" lon="-0.76783">
        <ele>36.8</ele>
        <time>2020-07-27T07:02:28Z</time>
      </trkpt>
      <trkpt lat="47.35166" lon="-0.76817">
        <ele>37.4</ele>
        <time>2020-07-27T07:02:34Z</time>
      </trkpt>
      <trkpt lat="47.35167" lon="-0.76855">
        <ele>37.8</ele>
        <time>2020-07-27T07:02:41Z</time>
      </trkpt>
      <trkpt lat="47.35168" lon="-0.7687">
        <ele>39</ele>
        <time>2020-07-27T07:02:44Z</time>
      </trkpt>
      <trkpt lat="47.35168" lon="-0.76881">
        <ele>39.8</ele>
        <time>2020-07-27T07:02:46Z</time>
      </trkpt>
      <trkpt lat="47.35169" lon="-0.76886">
        <ele>40</ele>
        <time>2020-07-27T07:02:47Z</time>
      </trkpt>
      <trkpt lat="47.35169" lon="-0.76905">
        <ele>41.2</ele>
        <time>2020-07-27T07:02:51Z</time>
      </trkpt>
      <trkpt lat="47.3517" lon="-0.7692">
        <ele>42.4</ele>
        <time>2020-07-27T07:02:54Z</time>
      </trkpt>
      <trkpt lat="47.3517" lon="-0.76925">
        <ele>42.6</ele>
        <time>2020-07-27T07:02:55Z</time>
      </trkpt>
      <trkpt lat="47.3517" lon="-0.76946">
        <ele>43.6</ele>
        <time>2020-07-27T07:02:59Z</time>
      </trkpt>
      <trkpt lat="47.35169" lon="-0.7697">
        <ele>44.2</ele>
        <time>2020-07-27T07:03:04Z</time>
      </trkpt>
      <trkpt lat="47.35168" lon="-0.7698">
        <ele>44.6</ele>
        <time>2020-07-27T07:03:06Z</time>
      </trkpt>
      <trkpt lat="47.35164" lon="-0.77004">
        <ele>45.8</ele>
        <time>2020-07-27T07:03:11Z</time>
      </trkpt>
      <trkpt lat="47.35163" lon="-0.77008">
        <ele>46</ele>
        <time>2020-07-27T07:03:12Z</time>
      </trkpt>
      <trkpt lat="47.35159" lon="-0.77021">
        <ele>46.8</ele>
        <time>2020-07-27T07:03:15Z</time>
      </trkpt>
      <trkpt lat="47.35149" lon="-0.77047">
        <ele>48</ele>
        <time>2020-07-27T07:03:21Z</time>
      </trkpt>
      <trkpt lat="47.35137" lon="-0.77066">
        <ele>49</ele>
        <time>2020-07-27T07:03:26Z</time>
      </trkpt>
      <trkpt lat="47.3513" lon="-0.77078">
        <ele>49.6</ele>
        <time>2020-07-27T07:03:29Z</time>
      </trkpt>
      <trkpt lat="47.35125" lon="-0.77086">
        <ele>50.2</ele>
        <time>2020-07-27T07:03:31Z</time>
      </trkpt>
      <trkpt lat="47.3511" lon="-0.77104">
        <ele>51</ele>
        <time>2020-07-27T07:03:36Z</time>
      </trkpt>
      <trkpt lat="47.35104" lon="-0.7711">
        <ele>51.2</ele>
        <time>2020-07-27T07:03:38Z</time>
      </trkpt>
      <trkpt lat="47.35093" lon="-0.77123">
        <ele>52.4</ele>
        <time>2020-07-27T07:03:42Z</time>
      </trkpt>
      <trkpt lat="47.35082" lon="-0.77136">
        <ele>53</ele>
        <time>2020-07-27T07:03:46Z</time>
      </trkpt>
      <trkpt lat="47.35059" lon="-0.7717">
        <ele>51.8</ele>
        <time>2020-07-27T07:03:55Z</time>
      </trkpt>
      <trkpt lat="47.35037" lon="-0.77211">
        <ele>53.2</ele>
        <time>2020-07-27T07:04:05Z</time>
      </trkpt>
      <trkpt lat="47.35033" lon="-0.77219">
        <ele>53.6</ele>
        <time>2020-07-27T07:04:07Z</time>
      </trkpt>
      <trkpt lat="47.35026" lon="-0.77242">
        <ele>54.6</ele>
        <time>2020-07-27T07:04:12Z</time>
      </trkpt>
      <trkpt lat="47.35024" lon="-0.77247">
        <ele>55</ele>
        <time>2020-07-27T07:04:13Z</time>
      </trkpt>
      <trkpt lat="47.35026" lon="-0.77274">
        <ele>55.8</ele>
        <time>2020-07-27T07:04:18Z</time>
      </trkpt>
      <trkpt lat="47.35021" lon="-0.77294">
        <ele>56.4</ele>
        <time>2020-07-27T07:04:22Z</time>
      </trkpt>
      <trkpt lat="47.35009" lon="-0.77306">
        <ele>56.8</ele>
        <time>2020-07-27T07:04:26Z</time>
      </trkpt>
      <trkpt lat="47.34992" lon="-0.77327">
        <ele>56.6</ele>
        <time>2020-07-27T07:04:32Z</time>
      </trkpt>
      <trkpt lat="47.34974" lon="-0.77366">
        <ele>56.6</ele>
        <time>2020-07-27T07:04:41Z</time>
      </trkpt>
      <trkpt lat="47.34967" lon="-0.77386">
        <ele>56.8</ele>
        <time>2020-07-27T07:04:45Z</time>
      </trkpt>
      <trkpt lat="47.34964" lon="-0.77401">
        <ele>57.4</ele>
        <time>2020-07-27T07:04:48Z</time>
      </trkpt>
      <trkpt lat="47.3496" lon="-0.77421">
        <ele>58</ele>
        <time>2020-07-27T07:04:52Z</time>
      </trkpt>
      <trkpt lat="47.34954" lon="-0.77457">
        <ele>59</ele>
        <time>2020-07-27T07:04:59Z</time>
      </trkpt>
      <trkpt lat="47.34953" lon="-0.77462">
        <ele>59.2</ele>
        <time>2020-07-27T07:05:00Z</time>
      </trkpt>
      <trkpt lat="47.34949" lon="-0.77487">
        <ele>60.2</ele>
        <time>2020-07-27T07:05:05Z</time>
      </trkpt>
      <trkpt lat="47.34944" lon="-0.77507">
        <ele>60.8</ele>
        <time>2020-07-27T07:05:09Z</time>
      </trkpt>
      <trkpt lat="47.34941" lon="-0.77522">
        <ele>61.6</ele>
        <time>2020-07-27T07:05:12Z</time>
      </trkpt>
      <trkpt lat="47.34934" lon="-0.77547">
        <ele>62.6</ele>
        <time>2020-07-27T07:05:17Z</time>
      </trkpt>
      <trkpt lat="47.34931" lon="-0.77557">
        <ele>62.8</ele>
        <time>2020-07-27T07:05:19Z</time>
      </trkpt>
      <trkpt lat="47.34923" lon="-0.77586">
        <ele>63.8</ele>
        <time>2020-07-27T07:05:25Z</time>
      </trkpt>
      <trkpt lat="47.34919" lon="-0.776">
        <ele>64.2</ele>
        <time>2020-07-27T07:05:28Z</time>
      </trkpt>
      <trkpt lat="47.34914" lon="-0.77614">
        <ele>64.8</ele>
        <time>2020-07-27T07:05:31Z</time>
      </trkpt>
      <trkpt lat="47.34905" lon="-0.77636">
        <ele>65.6</ele>
        <time>2020-07-27T07:05:36Z</time>
      </trkpt>
      <trkpt lat="47.34902" lon="-0.77644">
        <ele>66</ele>
        <time>2020-07-27T07:05:38Z</time>
      </trkpt>
      <trkpt lat="47.34891" lon="-0.77664">
        <ele>67</ele>
        <time>2020-07-27T07:05:43Z</time>
      </trkpt>
      <trkpt lat="47.34883" lon="-0.77675">
        <ele>67.6</ele>
        <time>2020-07-27T07:05:46Z</time>
      </trkpt>
      <trkpt lat="47.34878" lon="-0.77682">
        <ele>68.2</ele>
        <time>2020-07-27T07:05:48Z</time>
      </trkpt>
      <trkpt lat="47.34865" lon="-0.77698">
        <ele>69.2</ele>
        <time>2020-07-27T07:05:53Z</time>
      </trkpt>
      <trkpt lat="47.3486" lon="-0.77704">
        <ele>69.6</ele>
        <time>2020-07-27T07:05:55Z</time>
      </trkpt>
      <trkpt lat="47.34851" lon="-0.77712">
        <ele>70.4</ele>
        <time>2020-07-27T07:05:58Z</time>
      </trkpt>
      <trkpt lat="47.34835" lon="-0.77724">
        <ele>71.4</ele>
        <time>2020-07-27T07:06:03Z</time>
      </trkpt>
      <trkpt lat="47.34832" lon="-0.77725">
        <ele>71.6</ele>
        <time>2020-07-27T07:06:04Z</time>
      </trkpt>
      <trkpt lat="47.34813" lon="-0.77733">
        <ele>72.6</ele>
        <time>2020-07-27T07:06:10Z</time>
      </trkpt>
      <trkpt lat="47.34803" lon="-0.77735">
        <ele>73</ele>
        <time>2020-07-27T07:06:13Z</time>
      </trkpt>
      <trkpt lat="47.34793" lon="-0.77737">
        <ele>73.6</ele>
        <time>2020-07-27T07:06:16Z</time>
      </trkpt>
      <trkpt lat="47.34772" lon="-0.77741">
        <ele>74.6</ele>
        <time>2020-07-27T07:06:22Z</time>
      </trkpt>
      <trkpt lat="47.34769" lon="-0.77741">
        <ele>75</ele>
        <time>2020-07-27T07:06:23Z</time>
      </trkpt>
      <trkpt lat="47.34752" lon="-0.77744">
        <ele>75.8</ele>
        <time>2020-07-27T07:06:28Z</time>
      </trkpt>
      <trkpt lat="47.34735" lon="-0.77748">
        <ele>76.4</ele>
        <time>2020-07-27T07:06:33Z</time>
      </trkpt>
      <trkpt lat="47.34728" lon="-0.7775">
        <ele>77</ele>
        <time>2020-07-27T07:06:35Z</time>
      </trkpt>
      <trkpt lat="47.34701" lon="-0.77758">
        <ele>77.8</ele>
        <time>2020-07-27T07:06:43Z</time>
      </trkpt>
      <trkpt lat="47.34698" lon="-0.7776">
        <ele>78.2</ele>
        <time>2020-07-27T07:06:44Z</time>
      </trkpt>
      <trkpt lat="47.34678" lon="-0.77768">
        <ele>79</ele>
        <time>2020-07-27T07:06:50Z</time>
      </trkpt>
      <trkpt lat="47.34674" lon="-0.77769">
        <ele>79.2</ele>
        <time>2020-07-27T07:06:51Z</time>
      </trkpt>
      <trkpt lat="47.34655" lon="-0.7778">
        <ele>80.4</ele>
        <time>2020-07-27T07:06:57Z</time>
      </trkpt>
      <trkpt lat="47.34649" lon="-0.77783">
        <ele>80.6</ele>
        <time>2020-07-27T07:06:59Z</time>
      </trkpt>
      <trkpt lat="47.34635" lon="-0.77791">
        <ele>81.4</ele>
        <time>2020-07-27T07:07:03Z</time>
      </trkpt>
      <trkpt lat="47.34621" lon="-0.778">
        <ele>82.4</ele>
        <time>2020-07-27T07:07:07Z</time>
      </trkpt>
      <trkpt lat="47.34618" lon="-0.77803">
        <ele>82.6</ele>
        <time>2020-07-27T07:07:08Z</time>
      </trkpt>
      <trkpt lat="47.34604" lon="-0.77813">
        <ele>83.6</ele>
        <time>2020-07-27T07:07:12Z</time>
      </trkpt>
      <trkpt lat="47.34589" lon="-0.77826">
        <ele>84.8</ele>
        <time>2020-07-27T07:07:16Z</time>
      </trkpt>
      <trkpt lat="47.34574" lon="-0.7784">
        <ele>85.8</ele>
        <time>2020-07-27T07:07:20Z</time>
      </trkpt>
      <trkpt lat="47.34559" lon="-0.77856">
        <ele>86.8</ele>
        <time>2020-07-27T07:07:24Z</time>
      </trkpt>
      <trkpt lat="47.34555" lon="-0.7786">
        <ele>87.2</ele>
        <time>2020-07-27T07:07:25Z</time>
      </trkpt>
      <trkpt lat="47.34545" lon="-0.77871">
        <ele>88</ele>
        <time>2020-07-27T07:07:28Z</time>
      </trkpt>
      <trkpt lat="47.34528" lon="-0.77892">
        <ele>89.2</ele>
        <time>2020-07-27T07:07:33Z</time>
      </trkpt>
      <trkpt lat="47.34517" lon="-0.77903">
        <ele>90.4</ele>
        <time>2020-07-27T07:07:36Z</time>
      </trkpt>
      <trkpt lat="47.34507" lon="-0.77914">
        <ele>91.6</ele>
        <time>2020-07-27T07:07:39Z</time>
      </trkpt>
      <trkpt lat="47.34503" lon="-0.77918">
        <ele>91.8</ele>
        <time>2020-07-27T07:07:40Z</time>
      </trkpt>
      <trkpt lat="47.34493" lon="-0.77926">
        <ele>93</ele>
        <time>2020-07-27T07:07:42Z</time>
      </trkpt>
      <trkpt lat="47.34489" lon="-0.7793">
        <ele>93.8</ele>
        <time>2020-07-27T07:07:43Z</time>
      </trkpt>
      <trkpt lat="47.34484" lon="-0.77934">
        <ele>94.8</ele>
        <time>2020-07-27T07:07:44Z</time>
      </trkpt>
      <trkpt lat="47.3448" lon="-0.77938">
        <ele>95.6</ele>
        <time>2020-07-27T07:07:45Z</time>
      </trkpt>
      <trkpt lat="47.34477" lon="-0.77942">
        <ele>96.6</ele>
        <time>2020-07-27T07:07:46Z</time>
      </trkpt>
      <trkpt lat="47.3447" lon="-0.77951">
        <ele>98.6</ele>
        <time>2020-07-27T07:07:48Z</time>
      </trkpt>
      <trkpt lat="47.34467" lon="-0.77955">
        <ele>99.4</ele>
        <time>2020-07-27T07:07:49Z</time>
      </trkpt>
      <trkpt lat="47.34464" lon="-0.77959">
        <ele>100.4</ele>
        <time>2020-07-27T07:07:50Z</time>
      </trkpt>
      <trkpt lat="47.34457" lon="-0.77966">
        <ele>102.2</ele>
        <time>2020-07-27T07:07:52Z</time>
      </trkpt>
      <trkpt lat="47.34451" lon="-0.77975">
        <ele>103.8</ele>
        <time>2020-07-27T07:07:54Z</time>
      </trkpt>
      <trkpt lat="47.34442" lon="-0.77988">
        <ele>105.2</ele>
        <time>2020-07-27T07:07:57Z</time>
      </trkpt>
      <trkpt lat="47.34435" lon="-0.77996">
        <ele>106.8</ele>
        <time>2020-07-27T07:07:59Z</time>
      </trkpt>
      <trkpt lat="47.34427" lon="-0.78005">
        <ele>108.4</ele>
        <time>2020-07-27T07:08:01Z</time>
      </trkpt>
      <trkpt lat="47.34421" lon="-0.78014">
        <ele>109.4</ele>
        <time>2020-07-27T07:08:03Z</time>
      </trkpt>
      <trkpt lat="47.3441" lon="-0.78032">
        <ele>110.4</ele>
        <time>2020-07-27T07:08:07Z</time>
      </trkpt>
      <trkpt lat="47.34407" lon="-0.78037">
        <ele>110.6</ele>
        <time>2020-07-27T07:08:08Z</time>
      </trkpt>
      <trkpt lat="47.34374" lon="-0.78078">
        <ele>111.8</ele>
        <time>2020-07-27T07:08:17Z</time>
      </trkpt>
      <trkpt lat="47.34337" lon="-0.78122">
        <ele>112.6</ele>
        <time>2020-07-27T07:08:26Z</time>
      </trkpt>
      <trkpt lat="47.34321" lon="-0.78141">
        <ele>110.6</ele>
        <time>2020-07-27T07:08:29Z</time>
      </trkpt>
      <trkpt lat="47.34311" lon="-0.78153">
        <ele>109.6</ele>
        <time>2020-07-27T07:08:31Z</time>
      </trkpt>
      <trkpt lat="47.34306" lon="-0.7816">
        <ele>109.2</ele>
        <time>2020-07-27T07:08:32Z</time>
      </trkpt>
      <trkpt lat="47.34301" lon="-0.78166">
        <ele>108.4</ele>
        <time>2020-07-27T07:08:33Z</time>
      </trkpt>
      <trkpt lat="47.3428" lon="-0.78191">
        <ele>107.2</ele>
        <time>2020-07-27T07:08:37Z</time>
      </trkpt>
      <trkpt lat="47.34269" lon="-0.78203">
        <ele>106.2</ele>
        <time>2020-07-27T07:08:39Z</time>
      </trkpt>
      <trkpt lat="47.34254" lon="-0.78222">
        <ele>105</ele>
        <time>2020-07-27T07:08:42Z</time>
      </trkpt>
      <trkpt lat="47.34239" lon="-0.78241">
        <ele>103.8</ele>
        <time>2020-07-27T07:08:45Z</time>
      </trkpt>
      <trkpt lat="47.34217" lon="-0.78266">
        <ele>102.6</ele>
        <time>2020-07-27T07:08:49Z</time>
      </trkpt>
      <trkpt lat="47.34201" lon="-0.78286">
        <ele>101.4</ele>
        <time>2020-07-27T07:08:52Z</time>
      </trkpt>
      <trkpt lat="47.34195" lon="-0.78293">
        <ele>101</ele>
        <time>2020-07-27T07:08:53Z</time>
      </trkpt>
      <trkpt lat="47.34184" lon="-0.78305">
        <ele>100.2</ele>
        <time>2020-07-27T07:08:55Z</time>
      </trkpt>
      <trkpt lat="47.34167" lon="-0.78325">
        <ele>99</ele>
        <time>2020-07-27T07:08:58Z</time>
      </trkpt>
      <trkpt lat="47.34151" lon="-0.78344">
        <ele>97.8</ele>
        <time>2020-07-27T07:09:01Z</time>
      </trkpt>
      <trkpt lat="47.34135" lon="-0.78364">
        <ele>96.8</ele>
        <time>2020-07-27T07:09:04Z</time>
      </trkpt>
      <trkpt lat="47.34124" lon="-0.78377">
        <ele>96</ele>
        <time>2020-07-27T07:09:06Z</time>
      </trkpt>
      <trkpt lat="47.34113" lon="-0.7839">
        <ele>95.6</ele>
        <time>2020-07-27T07:09:08Z</time>
      </trkpt>
      <trkpt lat="47.34092" lon="-0.78414">
        <ele>94.2</ele>
        <time>2020-07-27T07:09:12Z</time>
      </trkpt>
      <trkpt lat="47.34076" lon="-0.78433">
        <ele>93</ele>
        <time>2020-07-27T07:09:15Z</time>
      </trkpt>
      <trkpt lat="47.34071" lon="-0.78439">
        <ele>92.8</ele>
        <time>2020-07-27T07:09:16Z</time>
      </trkpt>
      <trkpt lat="47.34055" lon="-0.78459">
        <ele>92</ele>
        <time>2020-07-27T07:09:19Z</time>
      </trkpt>
      <trkpt lat="47.34013" lon="-0.78508">
        <ele>91.2</ele>
        <time>2020-07-27T07:09:27Z</time>
      </trkpt>
      <trkpt lat="47.33992" lon="-0.78532">
        <ele>90.8</ele>
        <time>2020-07-27T07:09:31Z</time>
      </trkpt>
      <trkpt lat="47.33958" lon="-0.78573">
        <ele>90.4</ele>
        <time>2020-07-27T07:09:38Z</time>
      </trkpt>
      <trkpt lat="47.33919" lon="-0.7862">
        <ele>89.8</ele>
        <time>2020-07-27T07:09:46Z</time>
      </trkpt>
      <trkpt lat="47.33906" lon="-0.78636">
        <ele>90</ele>
        <time>2020-07-27T07:09:49Z</time>
      </trkpt>
      <trkpt lat="47.33861" lon="-0.7869">
        <ele>90</ele>
        <time>2020-07-27T07:09:59Z</time>
      </trkpt>
      <trkpt lat="47.3382" lon="-0.78737">
        <ele>90.2</ele>
        <time>2020-07-27T07:10:08Z</time>
      </trkpt>
      <trkpt lat="47.33775" lon="-0.78791">
        <ele>90.2</ele>
        <time>2020-07-27T07:10:18Z</time>
      </trkpt>
      <trkpt lat="47.33771" lon="-0.78796">
        <ele>90.2</ele>
        <time>2020-07-27T07:10:19Z</time>
      </trkpt>
      <trkpt lat="47.33724" lon="-0.78851">
        <ele>89.2</ele>
        <time>2020-07-27T07:10:29Z</time>
      </trkpt>
      <trkpt lat="47.3372" lon="-0.78856">
        <ele>89.2</ele>
        <time>2020-07-27T07:10:30Z</time>
      </trkpt>
      <trkpt lat="47.33681" lon="-0.78901">
        <ele>88.8</ele>
        <time>2020-07-27T07:10:38Z</time>
      </trkpt>
      <trkpt lat="47.33662" lon="-0.78923">
        <ele>88.8</ele>
        <time>2020-07-27T07:10:42Z</time>
      </trkpt>
      <trkpt lat="47.33619" lon="-0.78973">
        <ele>88.8</ele>
        <time>2020-07-27T07:10:51Z</time>
      </trkpt>
      <trkpt lat="47.33609" lon="-0.78984">
        <ele>88.8</ele>
        <time>2020-07-27T07:10:53Z</time>
      </trkpt>
      <trkpt lat="47.33562" lon="-0.79039">
        <ele>88.4</ele>
        <time>2020-07-27T07:11:02Z</time>
      </trkpt>
      <trkpt lat="47.33556" lon="-0.79045">
        <ele>88.2</ele>
        <time>2020-07-27T07:11:03Z</time>
      </trkpt>
      <trkpt lat="47.33539" lon="-0.79065">
        <ele>87.6</ele>
        <time>2020-07-27T07:11:06Z</time>
      </trkpt>
      <trkpt lat="47.33512" lon="-0.79097">
        <ele>86.4</ele>
        <time>2020-07-27T07:11:11Z</time>
      </trkpt>
      <trkpt lat="47.33502" lon="-0.7911">
        <ele>86</ele>
        <time>2020-07-27T07:11:13Z</time>
      </trkpt>
      <trkpt lat="47.33491" lon="-0.79122">
        <ele>85.4</ele>
        <time>2020-07-27T07:11:15Z</time>
      </trkpt>
      <trkpt lat="47.33463" lon="-0.79155">
        <ele>84.4</ele>
        <time>2020-07-27T07:11:20Z</time>
      </trkpt>
      <trkpt lat="47.33458" lon="-0.79161">
        <ele>84.2</ele>
        <time>2020-07-27T07:11:21Z</time>
      </trkpt>
      <trkpt lat="47.3344" lon="-0.79182">
        <ele>83</ele>
        <time>2020-07-27T07:11:24Z</time>
      </trkpt>
      <trkpt lat="47.33416" lon="-0.79209">
        <ele>81.8</ele>
        <time>2020-07-27T07:11:28Z</time>
      </trkpt>
      <trkpt lat="47.33404" lon="-0.79223">
        <ele>81.4</ele>
        <time>2020-07-27T07:11:30Z</time>
      </trkpt>
      <trkpt lat="47.33387" lon="-0.79244">
        <ele>80.8</ele>
        <time>2020-07-27T07:11:33Z</time>
      </trkpt>
      <trkpt lat="47.33358" lon="-0.79279">
        <ele>79.8</ele>
        <time>2020-07-27T07:11:38Z</time>
      </trkpt>
      <trkpt lat="47.33318" lon="-0.79327">
        <ele>78.8</ele>
        <time>2020-07-27T07:11:45Z</time>
      </trkpt>
      <trkpt lat="47.33295" lon="-0.79354">
        <ele>78</ele>
        <time>2020-07-27T07:11:49Z</time>
      </trkpt>
      <trkpt lat="47.33284" lon="-0.79367">
        <ele>77.6</ele>
        <time>2020-07-27T07:11:51Z</time>
      </trkpt>
      <trkpt lat="47.33251" lon="-0.79407">
        <ele>76.6</ele>
        <time>2020-07-27T07:11:57Z</time>
      </trkpt>
      <trkpt lat="47.3323" lon="-0.79433">
        <ele>75.8</ele>
        <time>2020-07-27T07:12:01Z</time>
      </trkpt>
      <trkpt lat="47.33215" lon="-0.79452">
        <ele>75.4</ele>
        <time>2020-07-27T07:12:04Z</time>
      </trkpt>
      <trkpt lat="47.33196" lon="-0.79475">
        <ele>75</ele>
        <time>2020-07-27T07:12:08Z</time>
      </trkpt>
      <trkpt lat="47.33178" lon="-0.79495">
        <ele>74.2</ele>
        <time>2020-07-27T07:12:12Z</time>
      </trkpt>
      <trkpt lat="47.33161" lon="-0.79514">
        <ele>73.4</ele>
        <time>2020-07-27T07:12:16Z</time>
      </trkpt>
      <trkpt lat="47.33154" lon="-0.79522">
        <ele>73</ele>
        <time>2020-07-27T07:12:18Z</time>
      </trkpt>
      <trkpt lat="47.33147" lon="-0.79531">
        <ele>72.6</ele>
        <time>2020-07-27T07:12:21Z</time>
      </trkpt>
      <trkpt lat="47.33132" lon="-0.79549">
        <ele>72.2</ele>
        <time>2020-07-27T07:12:28Z</time>
      </trkpt>
      <trkpt lat="47.3313" lon="-0.79551">
        <ele>72</ele>
        <time>2020-07-27T07:12:29Z</time>
      </trkpt>
      <trkpt lat="47.33117" lon="-0.79565">
        <ele>71.6</ele>
        <time>2020-07-27T07:12:33Z</time>
      </trkpt>
      <trkpt lat="47.33093" lon="-0.79595">
        <ele>71.8</ele>
        <time>2020-07-27T07:12:39Z</time>
      </trkpt>
      <trkpt lat="47.33059" lon="-0.79636">
        <ele>71.6</ele>
        <time>2020-07-27T07:12:46Z</time>
      </trkpt>
      <trkpt lat="47.33015" lon="-0.79687">
        <ele>72</ele>
        <time>2020-07-27T07:12:55Z</time>
      </trkpt>
      <trkpt lat="47.33005" lon="-0.79699">
        <ele>71.8</ele>
        <time>2020-07-27T07:12:57Z</time>
      </trkpt>
      <trkpt lat="47.3296" lon="-0.79752">
        <ele>71.8</ele>
        <time>2020-07-27T07:13:06Z</time>
      </trkpt>
      <trkpt lat="47.32949" lon="-0.79764">
        <ele>71.6</ele>
        <time>2020-07-27T07:13:08Z</time>
      </trkpt>
      <trkpt lat="47.32903" lon="-0.7982">
        <ele>71.4</ele>
        <time>2020-07-27T07:13:17Z</time>
      </trkpt>
      <trkpt lat="47.32888" lon="-0.79838">
        <ele>71.4</ele>
        <time>2020-07-27T07:13:20Z</time>
      </trkpt>
      <trkpt lat="47.32843" lon="-0.79891">
        <ele>71.2</ele>
        <time>2020-07-27T07:13:29Z</time>
      </trkpt>
      <trkpt lat="47.32829" lon="-0.79908">
        <ele>71.2</ele>
        <time>2020-07-27T07:13:32Z</time>
      </trkpt>
      <trkpt lat="47.32784" lon="-0.79962">
        <ele>72.2</ele>
        <time>2020-07-27T07:13:42Z</time>
      </trkpt>
      <trkpt lat="47.3274" lon="-0.80013">
        <ele>73.2</ele>
        <time>2020-07-27T07:13:52Z</time>
      </trkpt>
      <trkpt lat="47.32695" lon="-0.8006">
        <ele>73.8</ele>
        <time>2020-07-27T07:14:01Z</time>
      </trkpt>
      <trkpt lat="47.3269" lon="-0.80065">
        <ele>73.8</ele>
        <time>2020-07-27T07:14:02Z</time>
      </trkpt>
      <trkpt lat="47.32651" lon="-0.80104">
        <ele>74.2</ele>
        <time>2020-07-27T07:14:10Z</time>
      </trkpt>
      <trkpt lat="47.32636" lon="-0.8012">
        <ele>74.2</ele>
        <time>2020-07-27T07:14:13Z</time>
      </trkpt>
      <trkpt lat="47.32589" lon="-0.80167">
        <ele>73.4</ele>
        <time>2020-07-27T07:14:22Z</time>
      </trkpt>
      <trkpt lat="47.32554" lon="-0.80209">
        <ele>73.4</ele>
        <time>2020-07-27T07:14:30Z</time>
      </trkpt>
      <trkpt lat="47.3252" lon="-0.80257">
        <ele>73.8</ele>
        <time>2020-07-27T07:14:39Z</time>
      </trkpt>
      <trkpt lat="47.32505" lon="-0.8026">
        <ele>74.4</ele>
        <time>2020-07-27T07:14:42Z</time>
      </trkpt>
      <trkpt lat="47.3249" lon="-0.80243">
        <ele>74.8</ele>
        <time>2020-07-27T07:14:45Z</time>
      </trkpt>
      <trkpt lat="47.32486" lon="-0.80237">
        <ele>74.6</ele>
        <time>2020-07-27T07:14:46Z</time>
      </trkpt>
      <trkpt lat="47.32479" lon="-0.80233">
        <ele>74.4</ele>
        <time>2020-07-27T07:14:47Z</time>
      </trkpt>
      <trkpt lat="47.32467" lon="-0.80227">
        <ele>73.8</ele>
        <time>2020-07-27T07:14:49Z</time>
      </trkpt>
      <trkpt lat="47.32447" lon="-0.80223">
        <ele>73</ele>
        <time>2020-07-27T07:14:52Z</time>
      </trkpt>
      <trkpt lat="47.32441" lon="-0.80224">
        <ele>72.8</ele>
        <time>2020-07-27T07:14:53Z</time>
      </trkpt>
      <trkpt lat="47.32434" lon="-0.80225">
        <ele>72.8</ele>
        <time>2020-07-27T07:14:54Z</time>
      </trkpt>
      <trkpt lat="47.32398" lon="-0.80236">
        <ele>72.4</ele>
        <time>2020-07-27T07:15:00Z</time>
      </trkpt>
      <trkpt lat="47.32348" lon="-0.8025">
        <ele>72</ele>
        <time>2020-07-27T07:15:09Z</time>
      </trkpt>
      <trkpt lat="47.32338" lon="-0.80253">
        <ele>72</ele>
        <time>2020-07-27T07:15:11Z</time>
      </trkpt>
      <trkpt lat="47.32307" lon="-0.80257">
        <ele>71.6</ele>
        <time>2020-07-27T07:15:17Z</time>
      </trkpt>
      <trkpt lat="47.32253" lon="-0.8026">
        <ele>72.6</ele>
        <time>2020-07-27T07:15:27Z</time>
      </trkpt>
      <trkpt lat="47.32226" lon="-0.80261">
        <ele>73</ele>
        <time>2020-07-27T07:15:32Z</time>
      </trkpt>
      <trkpt lat="47.32211" lon="-0.80261">
        <ele>73.2</ele>
        <time>2020-07-27T07:15:35Z</time>
      </trkpt>
      <trkpt lat="47.32181" lon="-0.80263">
        <ele>74.2</ele>
        <time>2020-07-27T07:15:41Z</time>
      </trkpt>
      <trkpt lat="47.32162" lon="-0.80263">
        <ele>75.2</ele>
        <time>2020-07-27T07:15:45Z</time>
      </trkpt>
      <trkpt lat="47.32133" lon="-0.80263">
        <ele>76.4</ele>
        <time>2020-07-27T07:15:51Z</time>
      </trkpt>
      <trkpt lat="47.32115" lon="-0.80264">
        <ele>77.4</ele>
        <time>2020-07-27T07:15:55Z</time>
      </trkpt>
      <trkpt lat="47.3211" lon="-0.80264">
        <ele>77.4</ele>
        <time>2020-07-27T07:15:56Z</time>
      </trkpt>
      <trkpt lat="47.32071" lon="-0.80264">
        <ele>78.4</ele>
        <time>2020-07-27T07:16:04Z</time>
      </trkpt>
      <trkpt lat="47.32066" lon="-0.80264">
        <ele>78.6</ele>
        <time>2020-07-27T07:16:05Z</time>
      </trkpt>
      <trkpt lat="47.32033" lon="-0.80265">
        <ele>79.2</ele>
        <time>2020-07-27T07:16:12Z</time>
      </trkpt>
      <trkpt lat="47.32018" lon="-0.80266">
        <ele>79.6</ele>
        <time>2020-07-27T07:16:15Z</time>
      </trkpt>
      <trkpt lat="47.31989" lon="-0.80268">
        <ele>80.2</ele>
        <time>2020-07-27T07:16:21Z</time>
      </trkpt>
      <trkpt lat="47.31951" lon="-0.8027">
        <ele>80.6</ele>
        <time>2020-07-27T07:16:29Z</time>
      </trkpt>
      <trkpt lat="47.3194" lon="-0.80271">
        <ele>80.6</ele>
        <time>2020-07-27T07:16:31Z</time>
      </trkpt>
      <trkpt lat="47.31888" lon="-0.80273">
        <ele>80.6</ele>
        <time>2020-07-27T07:16:41Z</time>
      </trkpt>
      <trkpt lat="47.31835" lon="-0.80274">
        <ele>80.6</ele>
        <time>2020-07-27T07:16:51Z</time>
      </trkpt>
      <trkpt lat="47.3179" lon="-0.80277">
        <ele>80</ele>
        <time>2020-07-27T07:16:59Z</time>
      </trkpt>
      <trkpt lat="47.31746" lon="-0.8028">
        <ele>80</ele>
        <time>2020-07-27T07:17:07Z</time>
      </trkpt>
      <trkpt lat="47.31728" lon="-0.80284">
        <ele>80</ele>
        <time>2020-07-27T07:17:10Z</time>
      </trkpt>
      <trkpt lat="47.31717" lon="-0.8029">
        <ele>80</ele>
        <time>2020-07-27T07:17:12Z</time>
      </trkpt>
      <trkpt lat="47.317" lon="-0.80315">
        <ele>80</ele>
        <time>2020-07-27T07:17:16Z</time>
      </trkpt>
      <trkpt lat="47.31694" lon="-0.80329">
        <ele>79.8</ele>
        <time>2020-07-27T07:17:18Z</time>
      </trkpt>
      <trkpt lat="47.31682" lon="-0.80357">
        <ele>79.8</ele>
        <time>2020-07-27T07:17:22Z</time>
      </trkpt>
      <trkpt lat="47.31675" lon="-0.80369">
        <ele>79.8</ele>
        <time>2020-07-27T07:17:24Z</time>
      </trkpt>
      <trkpt lat="47.31663" lon="-0.80384">
        <ele>79.8</ele>
        <time>2020-07-27T07:17:27Z</time>
      </trkpt>
      <trkpt lat="47.31645" lon="-0.80391">
        <ele>79.6</ele>
        <time>2020-07-27T07:17:31Z</time>
      </trkpt>
      <trkpt lat="47.31641" lon="-0.80391">
        <ele>79.4</ele>
        <time>2020-07-27T07:17:32Z</time>
      </trkpt>
      <trkpt lat="47.31618" lon="-0.80393">
        <ele>79</ele>
        <time>2020-07-27T07:17:37Z</time>
      </trkpt>
      <trkpt lat="47.31593" lon="-0.80399">
        <ele>78.4</ele>
        <time>2020-07-27T07:17:43Z</time>
      </trkpt>
      <trkpt lat="47.31585" lon="-0.80405">
        <ele>78.2</ele>
        <time>2020-07-27T07:17:45Z</time>
      </trkpt>
      <trkpt lat="47.31569" lon="-0.80419">
        <ele>77.4</ele>
        <time>2020-07-27T07:17:49Z</time>
      </trkpt>
      <trkpt lat="47.31551" lon="-0.80436">
        <ele>76.6</ele>
        <time>2020-07-27T07:17:54Z</time>
      </trkpt>
      <trkpt lat="47.31544" lon="-0.80445">
        <ele>76.4</ele>
        <time>2020-07-27T07:17:56Z</time>
      </trkpt>
      <trkpt lat="47.31528" lon="-0.80469">
        <ele>76.4</ele>
        <time>2020-07-27T07:18:01Z</time>
      </trkpt>
      <trkpt lat="47.31518" lon="-0.80492">
        <ele>77.2</ele>
        <time>2020-07-27T07:18:06Z</time>
      </trkpt>
      <trkpt lat="47.31518" lon="-0.80494">
        <ele>77.4</ele>
        <time>2020-07-27T07:18:07Z</time>
      </trkpt>
      <trkpt lat="47.31516" lon="-0.80492">
        <ele>79.2</ele>
        <time>2020-07-27T07:18:13Z</time>
      </trkpt>
      <trkpt lat="47.31517" lon="-0.8049">
        <ele>79.2</ele>
        <time>2020-07-27T07:18:14Z</time>
      </trkpt>
      <trkpt lat="47.31521" lon="-0.8048">
        <ele>79.4</ele>
        <time>2020-07-27T07:18:17Z</time>
      </trkpt>
      <trkpt lat="47.31524" lon="-0.80473">
        <ele>79.2</ele>
        <time>2020-07-27T07:18:19Z</time>
      </trkpt>
      <trkpt lat="47.31538" lon="-0.80447">
        <ele>79</ele>
        <time>2020-07-27T07:18:27Z</time>
      </trkpt>
      <trkpt lat="47.31537" lon="-0.80443">
        <ele>79</ele>
        <time>2020-07-27T07:18:28Z</time>
      </trkpt>
      <trkpt lat="47.31532" lon="-0.80436">
        <ele>78.6</ele>
        <time>2020-07-27T07:18:30Z</time>
      </trkpt>
      <trkpt lat="47.31526" lon="-0.80429">
        <ele>78.2</ele>
        <time>2020-07-27T07:18:32Z</time>
      </trkpt>
      <trkpt lat="47.31509" lon="-0.80414">
        <ele>77.4</ele>
        <time>2020-07-27T07:18:37Z</time>
      </trkpt>
      <trkpt lat="47.31482" lon="-0.80397">
        <ele>78.6</ele>
        <time>2020-07-27T07:18:44Z</time>
      </trkpt>
      <trkpt lat="47.31478" lon="-0.80394">
        <ele>79.4</ele>
        <time>2020-07-27T07:18:45Z</time>
      </trkpt>
      <trkpt lat="47.3147" lon="-0.80389">
        <ele>80.6</ele>
        <time>2020-07-27T07:18:47Z</time>
      </trkpt>
      <trkpt lat="47.31453" lon="-0.80381">
        <ele>81.8</ele>
        <time>2020-07-27T07:18:51Z</time>
      </trkpt>
      <trkpt lat="47.31444" lon="-0.80376">
        <ele>83</ele>
        <time>2020-07-27T07:18:53Z</time>
      </trkpt>
      <trkpt lat="47.31435" lon="-0.80372">
        <ele>84</ele>
        <time>2020-07-27T07:18:55Z</time>
      </trkpt>
      <trkpt lat="47.31421" lon="-0.8037">
        <ele>84.4</ele>
        <time>2020-07-27T07:18:58Z</time>
      </trkpt>
      <trkpt lat="47.31404" lon="-0.80368">
        <ele>85.2</ele>
        <time>2020-07-27T07:19:02Z</time>
      </trkpt>
      <trkpt lat="47.31388" lon="-0.80366">
        <ele>86.2</ele>
        <time>2020-07-27T07:19:06Z</time>
      </trkpt>
      <trkpt lat="47.31384" lon="-0.80365">
        <ele>86.2</ele>
        <time>2020-07-27T07:19:07Z</time>
      </trkpt>
      <trkpt lat="47.31353" lon="-0.80362">
        <ele>87.4</ele>
        <time>2020-07-27T07:19:15Z</time>
      </trkpt>
      <trkpt lat="47.31346" lon="-0.80359">
        <ele>88</ele>
        <time>2020-07-27T07:19:17Z</time>
      </trkpt>
      <trkpt lat="47.31338" lon="-0.80355">
        <ele>88.8</ele>
        <time>2020-07-27T07:19:19Z</time>
      </trkpt>
      <trkpt lat="47.31317" lon="-0.8034">
        <ele>89.8</ele>
        <time>2020-07-27T07:19:25Z</time>
      </trkpt>
      <trkpt lat="47.31298" lon="-0.80326">
        <ele>91</ele>
        <time>2020-07-27T07:19:31Z</time>
      </trkpt>
      <trkpt lat="47.31288" lon="-0.80319">
        <ele>91.4</ele>
        <time>2020-07-27T07:19:34Z</time>
      </trkpt>
      <trkpt lat="47.31282" lon="-0.80314">
        <ele>92</ele>
        <time>2020-07-27T07:19:36Z</time>
      </trkpt>
      <trkpt lat="47.31273" lon="-0.80307">
        <ele>92.8</ele>
        <time>2020-07-27T07:19:41Z</time>
      </trkpt>
      <trkpt lat="47.31268" lon="-0.80304">
        <ele>93.2</ele>
        <time>2020-07-27T07:20:35Z</time>
      </trkpt>
      <trkpt lat="47.31266" lon="-0.80303">
        <ele>93.2</ele>
        <time>2020-07-27T07:20:36Z</time>
      </trkpt>
      <trkpt lat="47.31252" lon="-0.80292">
        <ele>92.6</ele>
        <time>2020-07-27T07:20:41Z</time>
      </trkpt>
      <trkpt lat="47.3124" lon="-0.80281">
        <ele>92</ele>
        <time>2020-07-27T07:20:45Z</time>
      </trkpt>
      <trkpt lat="47.3123" lon="-0.80272">
        <ele>90.6</ele>
        <time>2020-07-27T07:20:48Z</time>
      </trkpt>
      <trkpt lat="47.31221" lon="-0.80262">
        <ele>89.4</ele>
        <time>2020-07-27T07:20:51Z</time>
      </trkpt>
      <trkpt lat="47.31209" lon="-0.80249">
        <ele>88.2</ele>
        <time>2020-07-27T07:20:55Z</time>
      </trkpt>
      <trkpt lat="47.31203" lon="-0.80242">
        <ele>88</ele>
        <time>2020-07-27T07:20:57Z</time>
      </trkpt>
      <trkpt lat="47.31177" lon="-0.8021">
        <ele>88.2</ele>
        <time>2020-07-27T07:21:05Z</time>
      </trkpt>
      <trkpt lat="47.31149" lon="-0.8018">
        <ele>89.4</ele>
        <time>2020-07-27T07:21:13Z</time>
      </trkpt>
      <trkpt lat="47.31127" lon="-0.80161">
        <ele>90.4</ele>
        <time>2020-07-27T07:21:19Z</time>
      </trkpt>
      <trkpt lat="47.3112" lon="-0.80154">
        <ele>90.6</ele>
        <time>2020-07-27T07:21:21Z</time>
      </trkpt>
      <trkpt lat="47.31104" lon="-0.80137">
        <ele>91.8</ele>
        <time>2020-07-27T07:21:25Z</time>
      </trkpt>
      <trkpt lat="47.31092" lon="-0.80127">
        <ele>93</ele>
        <time>2020-07-27T07:21:28Z</time>
      </trkpt>
      <trkpt lat="47.31083" lon="-0.80122">
        <ele>93.6</ele>
        <time>2020-07-27T07:21:30Z</time>
      </trkpt>
      <trkpt lat="47.31067" lon="-0.80112">
        <ele>94</ele>
        <time>2020-07-27T07:21:34Z</time>
      </trkpt>
      <trkpt lat="47.31045" lon="-0.80098">
        <ele>94.8</ele>
        <time>2020-07-27T07:21:39Z</time>
      </trkpt>
      <trkpt lat="47.31023" lon="-0.80085">
        <ele>95.2</ele>
        <time>2020-07-27T07:21:44Z</time>
      </trkpt>
      <trkpt lat="47.31006" lon="-0.80076">
        <ele>95.6</ele>
        <time>2020-07-27T07:21:48Z</time>
      </trkpt>
      <trkpt lat="47.30994" lon="-0.80068">
        <ele>96.2</ele>
        <time>2020-07-27T07:21:51Z</time>
      </trkpt>
      <trkpt lat="47.30973" lon="-0.80056">
        <ele>96.6</ele>
        <time>2020-07-27T07:21:56Z</time>
      </trkpt>
      <trkpt lat="47.30938" lon="-0.80043">
        <ele>97.2</ele>
        <time>2020-07-27T07:22:03Z</time>
      </trkpt>
      <trkpt lat="47.30904" lon="-0.80047">
        <ele>96.6</ele>
        <time>2020-07-27T07:22:09Z</time>
      </trkpt>
      <trkpt lat="47.30853" lon="-0.80057">
        <ele>97</ele>
        <time>2020-07-27T07:22:18Z</time>
      </trkpt>
      <trkpt lat="47.3083" lon="-0.80061">
        <ele>97.2</ele>
        <time>2020-07-27T07:22:22Z</time>
      </trkpt>
      <trkpt lat="47.30791" lon="-0.80067">
        <ele>97.4</ele>
        <time>2020-07-27T07:22:29Z</time>
      </trkpt>
      <trkpt lat="47.30741" lon="-0.80078">
        <ele>97.8</ele>
        <time>2020-07-27T07:22:38Z</time>
      </trkpt>
      <trkpt lat="47.30692" lon="-0.80089">
        <ele>98.4</ele>
        <time>2020-07-27T07:22:47Z</time>
      </trkpt>
      <trkpt lat="47.30643" lon="-0.80098">
        <ele>99.4</ele>
        <time>2020-07-27T07:22:57Z</time>
      </trkpt>
      <trkpt lat="47.30638" lon="-0.80098">
        <ele>99.6</ele>
        <time>2020-07-27T07:22:58Z</time>
      </trkpt>
      <trkpt lat="47.30603" lon="-0.80105">
        <ele>100.4</ele>
        <time>2020-07-27T07:23:06Z</time>
      </trkpt>
      <trkpt lat="47.30599" lon="-0.80107">
        <ele>100.6</ele>
        <time>2020-07-27T07:23:07Z</time>
      </trkpt>
      <trkpt lat="47.30555" lon="-0.80115">
        <ele>101.4</ele>
        <time>2020-07-27T07:23:18Z</time>
      </trkpt>
      <trkpt lat="47.30551" lon="-0.80115">
        <ele>101.6</ele>
        <time>2020-07-27T07:23:19Z</time>
      </trkpt>
      <trkpt lat="47.30522" lon="-0.80122">
        <ele>102.8</ele>
        <time>2020-07-27T07:23:26Z</time>
      </trkpt>
      <trkpt lat="47.30489" lon="-0.80128">
        <ele>103.8</ele>
        <time>2020-07-27T07:23:34Z</time>
      </trkpt>
      <trkpt lat="47.30485" lon="-0.80129">
        <ele>104</ele>
        <time>2020-07-27T07:23:35Z</time>
      </trkpt>
      <trkpt lat="47.3046" lon="-0.80135">
        <ele>105</ele>
        <time>2020-07-27T07:23:41Z</time>
      </trkpt>
      <trkpt lat="47.30448" lon="-0.80138">
        <ele>105.4</ele>
        <time>2020-07-27T07:23:44Z</time>
      </trkpt>
      <trkpt lat="47.30431" lon="-0.80141">
        <ele>106</ele>
        <time>2020-07-27T07:23:48Z</time>
      </trkpt>
      <trkpt lat="47.30407" lon="-0.80145">
        <ele>106.8</ele>
        <time>2020-07-27T07:23:54Z</time>
      </trkpt>
      <trkpt lat="47.304" lon="-0.80147">
        <ele>107.2</ele>
        <time>2020-07-27T07:23:56Z</time>
      </trkpt>
      <trkpt lat="47.30369" lon="-0.80153">
        <ele>108.2</ele>
        <time>2020-07-27T07:24:04Z</time>
      </trkpt>
      <trkpt lat="47.30365" lon="-0.80154">
        <ele>108.4</ele>
        <time>2020-07-27T07:24:05Z</time>
      </trkpt>
      <trkpt lat="47.30337" lon="-0.8016">
        <ele>109.2</ele>
        <time>2020-07-27T07:24:12Z</time>
      </trkpt>
      <trkpt lat="47.30316" lon="-0.80164">
        <ele>109.4</ele>
        <time>2020-07-27T07:24:17Z</time>
      </trkpt>
      <trkpt lat="47.30303" lon="-0.80167">
        <ele>109.6</ele>
        <time>2020-07-27T07:24:20Z</time>
      </trkpt>
      <trkpt lat="47.30262" lon="-0.80176">
        <ele>110</ele>
        <time>2020-07-27T07:24:28Z</time>
      </trkpt>
      <trkpt lat="47.30217" lon="-0.80185">
        <ele>109.4</ele>
        <time>2020-07-27T07:24:35Z</time>
      </trkpt>
      <trkpt lat="47.30196" lon="-0.8019">
        <ele>108.4</ele>
        <time>2020-07-27T07:24:38Z</time>
      </trkpt>
      <trkpt lat="47.30165" lon="-0.80196">
        <ele>107.4</ele>
        <time>2020-07-27T07:24:42Z</time>
      </trkpt>
      <trkpt lat="47.30157" lon="-0.80198">
        <ele>107.2</ele>
        <time>2020-07-27T07:24:43Z</time>
      </trkpt>
      <trkpt lat="47.30133" lon="-0.802">
        <ele>106</ele>
        <time>2020-07-27T07:24:46Z</time>
      </trkpt>
      <trkpt lat="47.30111" lon="-0.80199">
        <ele>105</ele>
        <time>2020-07-27T07:24:49Z</time>
      </trkpt>
      <trkpt lat="47.30103" lon="-0.80197">
        <ele>104.6</ele>
        <time>2020-07-27T07:24:50Z</time>
      </trkpt>
      <trkpt lat="47.30089" lon="-0.80191">
        <ele>104</ele>
        <time>2020-07-27T07:24:52Z</time>
      </trkpt>
      <trkpt lat="47.30082" lon="-0.80187">
        <ele>103.6</ele>
        <time>2020-07-27T07:24:53Z</time>
      </trkpt>
      <trkpt lat="47.30069" lon="-0.80178">
        <ele>103.2</ele>
        <time>2020-07-27T07:24:55Z</time>
      </trkpt>
      <trkpt lat="47.30055" lon="-0.80168">
        <ele>102.4</ele>
        <time>2020-07-27T07:24:57Z</time>
      </trkpt>
      <trkpt lat="47.30028" lon="-0.80149">
        <ele>101.2</ele>
        <time>2020-07-27T07:25:01Z</time>
      </trkpt>
      <trkpt lat="47.30007" lon="-0.80136">
        <ele>100.6</ele>
        <time>2020-07-27T07:25:04Z</time>
      </trkpt>
      <trkpt lat="47.29988" lon="-0.80123">
        <ele>100.2</ele>
        <time>2020-07-27T07:25:07Z</time>
      </trkpt>
      <trkpt lat="47.29957" lon="-0.80104">
        <ele>99.8</ele>
        <time>2020-07-27T07:25:12Z</time>
      </trkpt>
      <trkpt lat="47.29915" lon="-0.80079">
        <ele>99.6</ele>
        <time>2020-07-27T07:25:19Z</time>
      </trkpt>
      <trkpt lat="47.29889" lon="-0.80063">
        <ele>99.2</ele>
        <time>2020-07-27T07:25:23Z</time>
      </trkpt>
      <trkpt lat="47.29863" lon="-0.80048">
        <ele>98.4</ele>
        <time>2020-07-27T07:25:27Z</time>
      </trkpt>
      <trkpt lat="47.29836" lon="-0.80033">
        <ele>98</ele>
        <time>2020-07-27T07:25:31Z</time>
      </trkpt>
      <trkpt lat="47.29809" lon="-0.80016">
        <ele>97.4</ele>
        <time>2020-07-27T07:25:35Z</time>
      </trkpt>
      <trkpt lat="47.29789" lon="-0.80005">
        <ele>96.8</ele>
        <time>2020-07-27T07:25:38Z</time>
      </trkpt>
      <trkpt lat="47.29762" lon="-0.79994">
        <ele>95.8</ele>
        <time>2020-07-27T07:25:42Z</time>
      </trkpt>
      <trkpt lat="47.29748" lon="-0.79991">
        <ele>95.2</ele>
        <time>2020-07-27T07:25:44Z</time>
      </trkpt>
      <trkpt lat="47.29721" lon="-0.79989">
        <ele>94.6</ele>
        <time>2020-07-27T07:25:48Z</time>
      </trkpt>
      <trkpt lat="47.29701" lon="-0.79989">
        <ele>94.2</ele>
        <time>2020-07-27T07:25:51Z</time>
      </trkpt>
      <trkpt lat="47.29675" lon="-0.79994">
        <ele>93.8</ele>
        <time>2020-07-27T07:25:55Z</time>
      </trkpt>
      <trkpt lat="47.29663" lon="-0.80003">
        <ele>93.6</ele>
        <time>2020-07-27T07:25:57Z</time>
      </trkpt>
      <trkpt lat="47.29651" lon="-0.80013">
        <ele>93.4</ele>
        <time>2020-07-27T07:25:59Z</time>
      </trkpt>
      <trkpt lat="47.29628" lon="-0.80034">
        <ele>92.8</ele>
        <time>2020-07-27T07:26:03Z</time>
      </trkpt>
      <trkpt lat="47.29605" lon="-0.80049">
        <ele>92.6</ele>
        <time>2020-07-27T07:26:07Z</time>
      </trkpt>
      <trkpt lat="47.29599" lon="-0.80051">
        <ele>92.4</ele>
        <time>2020-07-27T07:26:08Z</time>
      </trkpt>
      <trkpt lat="47.29593" lon="-0.80053">
        <ele>92.4</ele>
        <time>2020-07-27T07:26:09Z</time>
      </trkpt>
      <trkpt lat="47.29541" lon="-0.80066">
        <ele>92.4</ele>
        <time>2020-07-27T07:26:18Z</time>
      </trkpt>
      <trkpt lat="47.29492" lon="-0.80068">
        <ele>92.6</ele>
        <time>2020-07-27T07:26:27Z</time>
      </trkpt>
      <trkpt lat="47.29442" lon="-0.80061">
        <ele>92.6</ele>
        <time>2020-07-27T07:26:36Z</time>
      </trkpt>
      <trkpt lat="47.29388" lon="-0.80053">
        <ele>92.2</ele>
        <time>2020-07-27T07:26:46Z</time>
      </trkpt>
      <trkpt lat="47.29345" lon="-0.80061">
        <ele>92.2</ele>
        <time>2020-07-27T07:26:54Z</time>
      </trkpt>
      <trkpt lat="47.29288" lon="-0.80073">
        <ele>92</ele>
        <time>2020-07-27T07:27:04Z</time>
      </trkpt>
      <trkpt lat="47.29282" lon="-0.80075">
        <ele>91.8</ele>
        <time>2020-07-27T07:27:05Z</time>
      </trkpt>
      <trkpt lat="47.29259" lon="-0.80088">
        <ele>91.4</ele>
        <time>2020-07-27T07:27:09Z</time>
      </trkpt>
      <trkpt lat="47.29247" lon="-0.80096">
        <ele>91.2</ele>
        <time>2020-07-27T07:27:11Z</time>
      </trkpt>
      <trkpt lat="47.29212" lon="-0.80121">
        <ele>90.4</ele>
        <time>2020-07-27T07:27:17Z</time>
      </trkpt>
      <trkpt lat="47.29182" lon="-0.8014">
        <ele>89.6</ele>
        <time>2020-07-27T07:27:22Z</time>
      </trkpt>
      <trkpt lat="47.29163" lon="-0.8015">
        <ele>89.2</ele>
        <time>2020-07-27T07:27:25Z</time>
      </trkpt>
      <trkpt lat="47.29138" lon="-0.80159">
        <ele>88.4</ele>
        <time>2020-07-27T07:27:29Z</time>
      </trkpt>
      <trkpt lat="47.29125" lon="-0.80164">
        <ele>88.2</ele>
        <time>2020-07-27T07:27:31Z</time>
      </trkpt>
      <trkpt lat="47.29075" lon="-0.80177">
        <ele>87.4</ele>
        <time>2020-07-27T07:27:39Z</time>
      </trkpt>
      <trkpt lat="47.29062" lon="-0.8018">
        <ele>87.2</ele>
        <time>2020-07-27T07:27:41Z</time>
      </trkpt>
      <trkpt lat="47.29018" lon="-0.80188">
        <ele>86.8</ele>
        <time>2020-07-27T07:27:48Z</time>
      </trkpt>
      <trkpt lat="47.28992" lon="-0.80192">
        <ele>86.2</ele>
        <time>2020-07-27T07:27:52Z</time>
      </trkpt>
      <trkpt lat="47.28949" lon="-0.80201">
        <ele>85.8</ele>
        <time>2020-07-27T07:27:59Z</time>
      </trkpt>
      <trkpt lat="47.28922" lon="-0.80201">
        <ele>85.2</ele>
        <time>2020-07-27T07:28:03Z</time>
      </trkpt>
      <trkpt lat="47.28909" lon="-0.80201">
        <ele>84.8</ele>
        <time>2020-07-27T07:28:05Z</time>
      </trkpt>
      <trkpt lat="47.28862" lon="-0.80214">
        <ele>84.2</ele>
        <time>2020-07-27T07:28:12Z</time>
      </trkpt>
      <trkpt lat="47.28856" lon="-0.80217">
        <ele>84</ele>
        <time>2020-07-27T07:28:13Z</time>
      </trkpt>
      <trkpt lat="47.28812" lon="-0.80243">
        <ele>83.2</ele>
        <time>2020-07-27T07:28:20Z</time>
      </trkpt>
      <trkpt lat="47.288" lon="-0.80252">
        <ele>82.8</ele>
        <time>2020-07-27T07:28:22Z</time>
      </trkpt>
      <trkpt lat="47.28761" lon="-0.80288">
        <ele>81.6</ele>
        <time>2020-07-27T07:28:29Z</time>
      </trkpt>
      <trkpt lat="47.28719" lon="-0.80338">
        <ele>80.8</ele>
        <time>2020-07-27T07:28:37Z</time>
      </trkpt>
      <trkpt lat="47.28709" lon="-0.8035">
        <ele>80.4</ele>
        <time>2020-07-27T07:28:39Z</time>
      </trkpt>
      <trkpt lat="47.28671" lon="-0.80395">
        <ele>80.2</ele>
        <time>2020-07-27T07:28:47Z</time>
      </trkpt>
      <trkpt lat="47.28631" lon="-0.8043">
        <ele>79.4</ele>
        <time>2020-07-27T07:28:54Z</time>
      </trkpt>
      <trkpt lat="47.28616" lon="-0.80438">
        <ele>78.4</ele>
        <time>2020-07-27T07:28:56Z</time>
      </trkpt>
      <trkpt lat="47.28608" lon="-0.80441">
        <ele>77.8</ele>
        <time>2020-07-27T07:28:57Z</time>
      </trkpt>
      <trkpt lat="47.286" lon="-0.80445">
        <ele>77.2</ele>
        <time>2020-07-27T07:28:58Z</time>
      </trkpt>
      <trkpt lat="47.28591" lon="-0.80449">
        <ele>76.4</ele>
        <time>2020-07-27T07:28:59Z</time>
      </trkpt>
      <trkpt lat="47.28571" lon="-0.80456">
        <ele>75</ele>
        <time>2020-07-27T07:29:01Z</time>
      </trkpt>
      <trkpt lat="47.28549" lon="-0.80462">
        <ele>73.4</ele>
        <time>2020-07-27T07:29:03Z</time>
      </trkpt>
      <trkpt lat="47.28525" lon="-0.80465">
        <ele>71.8</ele>
        <time>2020-07-27T07:29:05Z</time>
      </trkpt>
      <trkpt lat="47.28501" lon="-0.80464">
        <ele>71</ele>
        <time>2020-07-27T07:29:07Z</time>
      </trkpt>
      <trkpt lat="47.28488" lon="-0.80462">
        <ele>70.2</ele>
        <time>2020-07-27T07:29:08Z</time>
      </trkpt>
      <trkpt lat="47.28464" lon="-0.80457">
        <ele>68.6</ele>
        <time>2020-07-27T07:29:10Z</time>
      </trkpt>
      <trkpt lat="47.2844" lon="-0.80456">
        <ele>67</ele>
        <time>2020-07-27T07:29:12Z</time>
      </trkpt>
      <trkpt lat="47.2843" lon="-0.80455">
        <ele>65.8</ele>
        <time>2020-07-27T07:29:13Z</time>
      </trkpt>
      <trkpt lat="47.284" lon="-0.80455">
        <ele>64.8</ele>
        <time>2020-07-27T07:29:16Z</time>
      </trkpt>
      <trkpt lat="47.28373" lon="-0.80455">
        <ele>63.8</ele>
        <time>2020-07-27T07:29:19Z</time>
      </trkpt>
      <trkpt lat="47.28365" lon="-0.80455">
        <ele>63.6</ele>
        <time>2020-07-27T07:29:20Z</time>
      </trkpt>
      <trkpt lat="47.28346" lon="-0.80453">
        <ele>62.6</ele>
        <time>2020-07-27T07:29:23Z</time>
      </trkpt>
      <trkpt lat="47.28341" lon="-0.80452">
        <ele>62.2</ele>
        <time>2020-07-27T07:29:24Z</time>
      </trkpt>
      <trkpt lat="47.28328" lon="-0.8045">
        <ele>62</ele>
        <time>2020-07-27T07:29:27Z</time>
      </trkpt>
      <trkpt lat="47.28322" lon="-0.80452">
        <ele>63.2</ele>
        <time>2020-07-27T07:29:29Z</time>
      </trkpt>
      <trkpt lat="47.2832" lon="-0.80454">
        <ele>64</ele>
        <time>2020-07-27T07:29:30Z</time>
      </trkpt>
      <trkpt lat="47.28318" lon="-0.80455">
        <ele>65.4</ele>
        <time>2020-07-27T07:29:31Z</time>
      </trkpt>
      <trkpt lat="47.2831" lon="-0.80459">
        <ele>66.6</ele>
        <time>2020-07-27T07:29:34Z</time>
      </trkpt>
      <trkpt lat="47.28305" lon="-0.80461">
        <ele>67.2</ele>
        <time>2020-07-27T07:29:36Z</time>
      </trkpt>
      <trkpt lat="47.28299" lon="-0.80462">
        <ele>67.6</ele>
        <time>2020-07-27T07:29:38Z</time>
      </trkpt>
      <trkpt lat="47.2828" lon="-0.80462">
        <ele>68.8</ele>
        <time>2020-07-27T07:29:43Z</time>
      </trkpt>
      <trkpt lat="47.2825" lon="-0.80461">
        <ele>70.2</ele>
        <time>2020-07-27T07:29:49Z</time>
      </trkpt>
      <trkpt lat="47.28244" lon="-0.80461">
        <ele>70.2</ele>
        <time>2020-07-27T07:29:50Z</time>
      </trkpt>
      <trkpt lat="47.28203" lon="-0.80461">
        <ele>69.6</ele>
        <time>2020-07-27T07:29:56Z</time>
      </trkpt>
      <trkpt lat="47.28188" lon="-0.80458">
        <ele>68.8</ele>
        <time>2020-07-27T07:29:58Z</time>
      </trkpt>
      <trkpt lat="47.28162" lon="-0.80452">
        <ele>67.6</ele>
        <time>2020-07-27T07:30:01Z</time>
      </trkpt>
      <trkpt lat="47.28131" lon="-0.80447">
        <ele>66.2</ele>
        <time>2020-07-27T07:30:04Z</time>
      </trkpt>
      <trkpt lat="47.2811" lon="-0.80445">
        <ele>65.2</ele>
        <time>2020-07-27T07:30:06Z</time>
      </trkpt>
      <trkpt lat="47.281" lon="-0.80445">
        <ele>64.8</ele>
        <time>2020-07-27T07:30:07Z</time>
      </trkpt>
      <trkpt lat="47.2809" lon="-0.80446">
        <ele>64.4</ele>
        <time>2020-07-27T07:30:08Z</time>
      </trkpt>
      <trkpt lat="47.28071" lon="-0.80451">
        <ele>64</ele>
        <time>2020-07-27T07:30:10Z</time>
      </trkpt>
      <trkpt lat="47.28063" lon="-0.80456">
        <ele>63.8</ele>
        <time>2020-07-27T07:30:11Z</time>
      </trkpt>
      <trkpt lat="47.28044" lon="-0.80475">
        <ele>64</ele>
        <time>2020-07-27T07:30:14Z</time>
      </trkpt>
      <trkpt lat="47.28036" lon="-0.80489">
        <ele>64.2</ele>
        <time>2020-07-27T07:30:16Z</time>
      </trkpt>
      <trkpt lat="47.28029" lon="-0.80502">
        <ele>64.6</ele>
        <time>2020-07-27T07:30:18Z</time>
      </trkpt>
      <trkpt lat="47.28019" lon="-0.80519">
        <ele>65.2</ele>
        <time>2020-07-27T07:30:21Z</time>
      </trkpt>
      <trkpt lat="47.28014" lon="-0.80527">
        <ele>65.8</ele>
        <time>2020-07-27T07:30:23Z</time>
      </trkpt>
      <trkpt lat="47.28009" lon="-0.80535">
        <ele>66.4</ele>
        <time>2020-07-27T07:30:25Z</time>
      </trkpt>
      <trkpt lat="47.28001" lon="-0.80544">
        <ele>67.6</ele>
        <time>2020-07-27T07:30:28Z</time>
      </trkpt>
      <trkpt lat="47.27995" lon="-0.80549">
        <ele>68</ele>
        <time>2020-07-27T07:30:30Z</time>
      </trkpt>
      <trkpt lat="47.27987" lon="-0.80556">
        <ele>68.8</ele>
        <time>2020-07-27T07:30:33Z</time>
      </trkpt>
      <trkpt lat="47.27975" lon="-0.80562">
        <ele>70.2</ele>
        <time>2020-07-27T07:30:37Z</time>
      </trkpt>
      <trkpt lat="47.27972" lon="-0.80563">
        <ele>70.4</ele>
        <time>2020-07-27T07:30:38Z</time>
      </trkpt>
      <trkpt lat="47.2796" lon="-0.8057">
        <ele>71.2</ele>
        <time>2020-07-27T07:30:42Z</time>
      </trkpt>
      <trkpt lat="47.27945" lon="-0.80578">
        <ele>72</ele>
        <time>2020-07-27T07:30:47Z</time>
      </trkpt>
      <trkpt lat="47.27942" lon="-0.8058">
        <ele>72.2</ele>
        <time>2020-07-27T07:30:48Z</time>
      </trkpt>
      <trkpt lat="47.27928" lon="-0.80588">
        <ele>73.2</ele>
        <time>2020-07-27T07:30:53Z</time>
      </trkpt>
      <trkpt lat="47.27911" lon="-0.80598">
        <ele>74.4</ele>
        <time>2020-07-27T07:30:59Z</time>
      </trkpt>
      <trkpt lat="47.27905" lon="-0.806">
        <ele>75</ele>
        <time>2020-07-27T07:31:01Z</time>
      </trkpt>
      <trkpt lat="47.27897" lon="-0.80605">
        <ele>75.6</ele>
        <time>2020-07-27T07:31:04Z</time>
      </trkpt>
      <trkpt lat="47.27887" lon="-0.80611">
        <ele>76.2</ele>
        <time>2020-07-27T07:31:08Z</time>
      </trkpt>
      <trkpt lat="47.27881" lon="-0.80614">
        <ele>76.6</ele>
        <time>2020-07-27T07:31:10Z</time>
      </trkpt>
      <trkpt lat="47.27865" lon="-0.80622">
        <ele>77.4</ele>
        <time>2020-07-27T07:31:16Z</time>
      </trkpt>
      <trkpt lat="47.2786" lon="-0.80625">
        <ele>77.6</ele>
        <time>2020-07-27T07:31:18Z</time>
      </trkpt>
      <trkpt lat="47.27841" lon="-0.80633">
        <ele>78.8</ele>
        <time>2020-07-27T07:31:25Z</time>
      </trkpt>
      <trkpt lat="47.27836" lon="-0.80635">
        <ele>79</ele>
        <time>2020-07-27T07:31:27Z</time>
      </trkpt>
      <trkpt lat="47.27814" lon="-0.8064">
        <ele>79.6</ele>
        <time>2020-07-27T07:31:35Z</time>
      </trkpt>
      <trkpt lat="47.27808" lon="-0.80641">
        <ele>79.8</ele>
        <time>2020-07-27T07:31:37Z</time>
      </trkpt>
      <trkpt lat="47.27786" lon="-0.80644">
        <ele>80.8</ele>
        <time>2020-07-27T07:31:45Z</time>
      </trkpt>
      <trkpt lat="47.27781" lon="-0.80644">
        <ele>81.2</ele>
        <time>2020-07-27T07:31:47Z</time>
      </trkpt>
      <trkpt lat="47.2777" lon="-0.80644">
        <ele>82</ele>
        <time>2020-07-27T07:31:51Z</time>
      </trkpt>
      <trkpt lat="47.27758" lon="-0.80645">
        <ele>82.8</ele>
        <time>2020-07-27T07:31:55Z</time>
      </trkpt>
      <trkpt lat="47.27755" lon="-0.80645">
        <ele>83.2</ele>
        <time>2020-07-27T07:31:56Z</time>
      </trkpt>
      <trkpt lat="47.27736" lon="-0.80646">
        <ele>84.2</ele>
        <time>2020-07-27T07:32:03Z</time>
      </trkpt>
      <trkpt lat="47.27728" lon="-0.80646">
        <ele>84.8</ele>
        <time>2020-07-27T07:32:06Z</time>
      </trkpt>
      <trkpt lat="47.27723" lon="-0.80646">
        <ele>85.4</ele>
        <time>2020-07-27T07:32:08Z</time>
      </trkpt>
      <trkpt lat="47.27704" lon="-0.80647">
        <ele>86.2</ele>
        <time>2020-07-27T07:32:15Z</time>
      </trkpt>
      <trkpt lat="47.27701" lon="-0.80647">
        <ele>86.4</ele>
        <time>2020-07-27T07:32:16Z</time>
      </trkpt>
      <trkpt lat="47.2769" lon="-0.80646">
        <ele>87.4</ele>
        <time>2020-07-27T07:32:20Z</time>
      </trkpt>
      <trkpt lat="47.2767" lon="-0.80645">
        <ele>88.4</ele>
        <time>2020-07-27T07:32:27Z</time>
      </trkpt>
      <trkpt lat="47.27668" lon="-0.80644">
        <ele>88.6</ele>
        <time>2020-07-27T07:32:28Z</time>
      </trkpt>
      <trkpt lat="47.27654" lon="-0.80642">
        <ele>89.6</ele>
        <time>2020-07-27T07:32:33Z</time>
      </trkpt>
      <trkpt lat="47.27646" lon="-0.8064">
        <ele>90</ele>
        <time>2020-07-27T07:32:36Z</time>
      </trkpt>
      <trkpt lat="47.27635" lon="-0.80638">
        <ele>90.8</ele>
        <time>2020-07-27T07:32:40Z</time>
      </trkpt>
      <trkpt lat="47.27621" lon="-0.80635">
        <ele>92</ele>
        <time>2020-07-27T07:32:45Z</time>
      </trkpt>
      <trkpt lat="47.27618" lon="-0.80635">
        <ele>92</ele>
        <time>2020-07-27T07:32:46Z</time>
      </trkpt>
      <trkpt lat="47.27613" lon="-0.80637">
        <ele>92.2</ele>
        <time>2020-07-27T07:32:48Z</time>
      </trkpt>
      <trkpt lat="47.27609" lon="-0.80645">
        <ele>92.2</ele>
        <time>2020-07-27T07:32:50Z</time>
      </trkpt>
      <trkpt lat="47.27607" lon="-0.80654">
        <ele>92.2</ele>
        <time>2020-07-27T07:32:52Z</time>
      </trkpt>
      <trkpt lat="47.27604" lon="-0.80677">
        <ele>92.2</ele>
        <time>2020-07-27T07:32:56Z</time>
      </trkpt>
      <trkpt lat="47.27596" lon="-0.80732">
        <ele>91.8</ele>
        <time>2020-07-27T07:33:05Z</time>
      </trkpt>
      <trkpt lat="47.27587" lon="-0.80787">
        <ele>91.8</ele>
        <time>2020-07-27T07:33:14Z</time>
      </trkpt>
      <trkpt lat="47.2758" lon="-0.80836">
        <ele>92.2</ele>
        <time>2020-07-27T07:33:22Z</time>
      </trkpt>
      <trkpt lat="47.27572" lon="-0.80903">
        <ele>92.8</ele>
        <time>2020-07-27T07:33:32Z</time>
      </trkpt>
      <trkpt lat="47.27568" lon="-0.80932">
        <ele>93</ele>
        <time>2020-07-27T07:33:36Z</time>
      </trkpt>
      <trkpt lat="47.27564" lon="-0.80961">
        <ele>93.2</ele>
        <time>2020-07-27T07:33:40Z</time>
      </trkpt>
      <trkpt lat="47.27556" lon="-0.81022">
        <ele>94</ele>
        <time>2020-07-27T07:33:48Z</time>
      </trkpt>
      <trkpt lat="47.27545" lon="-0.81098">
        <ele>94.8</ele>
        <time>2020-07-27T07:33:57Z</time>
      </trkpt>
      <trkpt lat="47.27532" lon="-0.81182">
        <ele>93</ele>
        <time>2020-07-27T07:34:06Z</time>
      </trkpt>
      <trkpt lat="47.27532" lon="-0.81219">
        <ele>93.2</ele>
        <time>2020-07-27T07:34:10Z</time>
      </trkpt>
      <trkpt lat="47.27534" lon="-0.81237">
        <ele>93.2</ele>
        <time>2020-07-27T07:34:12Z</time>
      </trkpt>
      <trkpt lat="47.27547" lon="-0.81316">
        <ele>93.6</ele>
        <time>2020-07-27T07:34:21Z</time>
      </trkpt>
      <trkpt lat="47.27558" lon="-0.81376">
        <ele>92.8</ele>
        <time>2020-07-27T07:34:27Z</time>
      </trkpt>
      <trkpt lat="47.2756" lon="-0.81388">
        <ele>92.4</ele>
        <time>2020-07-27T07:34:28Z</time>
      </trkpt>
      <trkpt lat="47.27565" lon="-0.81412">
        <ele>91.4</ele>
        <time>2020-07-27T07:34:30Z</time>
      </trkpt>
      <trkpt lat="47.27571" lon="-0.81451">
        <ele>90.4</ele>
        <time>2020-07-27T07:34:33Z</time>
      </trkpt>
      <trkpt lat="47.27575" lon="-0.81479">
        <ele>89.4</ele>
        <time>2020-07-27T07:34:35Z</time>
      </trkpt>
      <trkpt lat="47.27578" lon="-0.81494">
        <ele>88.8</ele>
        <time>2020-07-27T07:34:36Z</time>
      </trkpt>
      <trkpt lat="47.27584" lon="-0.81535">
        <ele>87.4</ele>
        <time>2020-07-27T07:34:39Z</time>
      </trkpt>
      <trkpt lat="47.27588" lon="-0.8156">
        <ele>86.8</ele>
        <time>2020-07-27T07:34:41Z</time>
      </trkpt>
      <trkpt lat="47.27591" lon="-0.81583">
        <ele>86.2</ele>
        <time>2020-07-27T07:34:43Z</time>
      </trkpt>
      <trkpt lat="47.27598" lon="-0.81626">
        <ele>85.4</ele>
        <time>2020-07-27T07:34:47Z</time>
      </trkpt>
      <trkpt lat="47.27604" lon="-0.81666">
        <ele>85</ele>
        <time>2020-07-27T07:34:51Z</time>
      </trkpt>
      <trkpt lat="47.27611" lon="-0.81703">
        <ele>84.8</ele>
        <time>2020-07-27T07:34:55Z</time>
      </trkpt>
      <trkpt lat="47.27623" lon="-0.8177">
        <ele>84.2</ele>
        <time>2020-07-27T07:35:01Z</time>
      </trkpt>
      <trkpt lat="47.27625" lon="-0.81782">
        <ele>84</ele>
        <time>2020-07-27T07:35:02Z</time>
      </trkpt>
      <trkpt lat="47.27631" lon="-0.81834">
        <ele>82.6</ele>
        <time>2020-07-27T07:35:06Z</time>
      </trkpt>
      <trkpt lat="47.27631" lon="-0.81847">
        <ele>82</ele>
        <time>2020-07-27T07:35:07Z</time>
      </trkpt>
      <trkpt lat="47.2763" lon="-0.81862">
        <ele>81.4</ele>
        <time>2020-07-27T07:35:08Z</time>
      </trkpt>
      <trkpt lat="47.27625" lon="-0.81892">
        <ele>80</ele>
        <time>2020-07-27T07:35:10Z</time>
      </trkpt>
      <trkpt lat="47.27617" lon="-0.8192">
        <ele>78.4</ele>
        <time>2020-07-27T07:35:12Z</time>
      </trkpt>
      <trkpt lat="47.27607" lon="-0.81943">
        <ele>77.4</ele>
        <time>2020-07-27T07:35:14Z</time>
      </trkpt>
      <trkpt lat="47.27601" lon="-0.81953">
        <ele>77</ele>
        <time>2020-07-27T07:35:15Z</time>
      </trkpt>
      <trkpt lat="47.27583" lon="-0.81976">
        <ele>76.4</ele>
        <time>2020-07-27T07:35:18Z</time>
      </trkpt>
      <trkpt lat="47.27577" lon="-0.81981">
        <ele>76.2</ele>
        <time>2020-07-27T07:35:19Z</time>
      </trkpt>
      <trkpt lat="47.27566" lon="-0.81988">
        <ele>76</ele>
        <time>2020-07-27T07:35:21Z</time>
      </trkpt>
      <trkpt lat="47.27561" lon="-0.81991">
        <ele>76</ele>
        <time>2020-07-27T07:35:22Z</time>
      </trkpt>
      <trkpt lat="47.27533" lon="-0.82001">
        <ele>75.8</ele>
        <time>2020-07-27T07:35:28Z</time>
      </trkpt>
      <trkpt lat="47.27502" lon="-0.82003">
        <ele>77</ele>
        <time>2020-07-27T07:35:36Z</time>
      </trkpt>
      <trkpt lat="47.27483" lon="-0.82002">
        <ele>78.2</ele>
        <time>2020-07-27T07:35:41Z</time>
      </trkpt>
      <trkpt lat="47.27472" lon="-0.82003">
        <ele>79.2</ele>
        <time>2020-07-27T07:35:44Z</time>
      </trkpt>
      <trkpt lat="47.27462" lon="-0.82004">
        <ele>80.4</ele>
        <time>2020-07-27T07:35:47Z</time>
      </trkpt>
      <trkpt lat="47.27452" lon="-0.82005">
        <ele>81.6</ele>
        <time>2020-07-27T07:35:50Z</time>
      </trkpt>
      <trkpt lat="47.27442" lon="-0.82006">
        <ele>82.8</ele>
        <time>2020-07-27T07:35:53Z</time>
      </trkpt>
      <trkpt lat="47.27435" lon="-0.82008">
        <ele>83.4</ele>
        <time>2020-07-27T07:35:55Z</time>
      </trkpt>
      <trkpt lat="47.27428" lon="-0.82009">
        <ele>84.2</ele>
        <time>2020-07-27T07:35:57Z</time>
      </trkpt>
      <trkpt lat="47.27418" lon="-0.82013">
        <ele>85.2</ele>
        <time>2020-07-27T07:36:00Z</time>
      </trkpt>
      <trkpt lat="47.27411" lon="-0.82015">
        <ele>85.4</ele>
        <time>2020-07-27T07:36:02Z</time>
      </trkpt>
      <trkpt lat="47.27396" lon="-0.82019">
        <ele>86.2</ele>
        <time>2020-07-27T07:36:06Z</time>
      </trkpt>
      <trkpt lat="47.27381" lon="-0.82023">
        <ele>87</ele>
        <time>2020-07-27T07:36:10Z</time>
      </trkpt>
      <trkpt lat="47.27374" lon="-0.82026">
        <ele>87.2</ele>
        <time>2020-07-27T07:36:12Z</time>
      </trkpt>
      <trkpt lat="47.27353" lon="-0.82039">
        <ele>88.2</ele>
        <time>2020-07-27T07:36:18Z</time>
      </trkpt>
      <trkpt lat="47.27347" lon="-0.82045">
        <ele>88.4</ele>
        <time>2020-07-27T07:36:20Z</time>
      </trkpt>
      <trkpt lat="47.27327" lon="-0.82069">
        <ele>89.2</ele>
        <time>2020-07-27T07:36:27Z</time>
      </trkpt>
      <trkpt lat="47.27319" lon="-0.82081">
        <ele>89.4</ele>
        <time>2020-07-27T07:36:30Z</time>
      </trkpt>
      <trkpt lat="47.273" lon="-0.82108">
        <ele>90.4</ele>
        <time>2020-07-27T07:36:37Z</time>
      </trkpt>
      <trkpt lat="47.27287" lon="-0.82133">
        <ele>91.8</ele>
        <time>2020-07-27T07:36:42Z</time>
      </trkpt>
      <trkpt lat="47.27284" lon="-0.82138">
        <ele>92</ele>
        <time>2020-07-27T07:36:43Z</time>
      </trkpt>
      <trkpt lat="47.27277" lon="-0.82153">
        <ele>92.8</ele>
        <time>2020-07-27T07:36:46Z</time>
      </trkpt>
      <trkpt lat="47.27268" lon="-0.82173">
        <ele>93.8</ele>
        <time>2020-07-27T07:36:50Z</time>
      </trkpt>
      <trkpt lat="47.27263" lon="-0.82184">
        <ele>93.8</ele>
        <time>2020-07-27T07:36:52Z</time>
      </trkpt>
      <trkpt lat="47.27251" lon="-0.82217">
        <ele>95</ele>
        <time>2020-07-27T07:36:58Z</time>
      </trkpt>
      <trkpt lat="47.27248" lon="-0.82223">
        <ele>95</ele>
        <time>2020-07-27T07:36:59Z</time>
      </trkpt>
      <trkpt lat="47.27233" lon="-0.82261">
        <ele>96</ele>
        <time>2020-07-27T07:37:06Z</time>
      </trkpt>
      <trkpt lat="47.27226" lon="-0.82277">
        <ele>96.4</ele>
        <time>2020-07-27T07:37:09Z</time>
      </trkpt>
      <trkpt lat="47.27215" lon="-0.82297">
        <ele>97.2</ele>
        <time>2020-07-27T07:37:13Z</time>
      </trkpt>
      <trkpt lat="47.27203" lon="-0.82316">
        <ele>97.6</ele>
        <time>2020-07-27T07:37:17Z</time>
      </trkpt>
      <trkpt lat="47.27174" lon="-0.82344">
        <ele>98.2</ele>
        <time>2020-07-27T07:37:25Z</time>
      </trkpt>
      <trkpt lat="47.27138" lon="-0.82369">
        <ele>99.2</ele>
        <time>2020-07-27T07:37:34Z</time>
      </trkpt>
      <trkpt lat="47.27121" lon="-0.82377">
        <ele>99.8</ele>
        <time>2020-07-27T07:37:38Z</time>
      </trkpt>
      <trkpt lat="47.27108" lon="-0.82381">
        <ele>99.8</ele>
        <time>2020-07-27T07:37:41Z</time>
      </trkpt>
      <trkpt lat="47.27069" lon="-0.82394">
        <ele>100.2</ele>
        <time>2020-07-27T07:37:50Z</time>
      </trkpt>
      <trkpt lat="47.2705" lon="-0.82399">
        <ele>100.2</ele>
        <time>2020-07-27T07:37:54Z</time>
      </trkpt>
      <trkpt lat="47.27027" lon="-0.82402">
        <ele>100.4</ele>
        <time>2020-07-27T07:37:59Z</time>
      </trkpt>
      <trkpt lat="47.26991" lon="-0.82398">
        <ele>100.2</ele>
        <time>2020-07-27T07:38:07Z</time>
      </trkpt>
      <trkpt lat="47.26984" lon="-0.82395">
        <ele>99.8</ele>
        <time>2020-07-27T07:38:10Z</time>
      </trkpt>
      <trkpt lat="47.26973" lon="-0.82398">
        <ele>99.6</ele>
        <time>2020-07-27T07:38:15Z</time>
      </trkpt>
      <trkpt lat="47.26966" lon="-0.82401">
        <ele>99.2</ele>
        <time>2020-07-27T07:38:17Z</time>
      </trkpt>
      <trkpt lat="47.26957" lon="-0.82407">
        <ele>98.8</ele>
        <time>2020-07-27T07:38:19Z</time>
      </trkpt>
      <trkpt lat="47.26953" lon="-0.82411">
        <ele>98.6</ele>
        <time>2020-07-27T07:38:20Z</time>
      </trkpt>
      <trkpt lat="47.26941" lon="-0.82422">
        <ele>98.2</ele>
        <time>2020-07-27T07:38:23Z</time>
      </trkpt>
      <trkpt lat="47.26921" lon="-0.82442">
        <ele>98.2</ele>
        <time>2020-07-27T07:38:28Z</time>
      </trkpt>
      <trkpt lat="47.26917" lon="-0.82447">
        <ele>98.4</ele>
        <time>2020-07-27T07:38:29Z</time>
      </trkpt>
      <trkpt lat="47.26888" lon="-0.82476">
        <ele>98</ele>
        <time>2020-07-27T07:38:36Z</time>
      </trkpt>
      <trkpt lat="47.26856" lon="-0.82516">
        <ele>97</ele>
        <time>2020-07-27T07:38:44Z</time>
      </trkpt>
      <trkpt lat="47.26836" lon="-0.82549">
        <ele>95.8</ele>
        <time>2020-07-27T07:38:49Z</time>
      </trkpt>
      <trkpt lat="47.26829" lon="-0.82564">
        <ele>95.6</ele>
        <time>2020-07-27T07:38:51Z</time>
      </trkpt>
      <trkpt lat="47.26805" lon="-0.82607">
        <ele>94.8</ele>
        <time>2020-07-27T07:38:57Z</time>
      </trkpt>
      <trkpt lat="47.26793" lon="-0.82625">
        <ele>94.2</ele>
        <time>2020-07-27T07:39:00Z</time>
      </trkpt>
      <trkpt lat="47.26784" lon="-0.82639">
        <ele>93.6</ele>
        <time>2020-07-27T07:39:03Z</time>
      </trkpt>
      <trkpt lat="47.2678" lon="-0.82646">
        <ele>93.2</ele>
        <time>2020-07-27T07:39:05Z</time>
      </trkpt>
      <trkpt lat="47.26767" lon="-0.82666">
        <ele>92.8</ele>
        <time>2020-07-27T07:39:11Z</time>
      </trkpt>
      <trkpt lat="47.26766" lon="-0.8267">
        <ele>92.6</ele>
        <time>2020-07-27T07:39:12Z</time>
      </trkpt>
      <trkpt lat="47.26766" lon="-0.82675">
        <ele>92.4</ele>
        <time>2020-07-27T07:39:13Z</time>
      </trkpt>
      <trkpt lat="47.26767" lon="-0.82681">
        <ele>92</ele>
        <time>2020-07-27T07:39:14Z</time>
      </trkpt>
      <trkpt lat="47.26771" lon="-0.82694">
        <ele>91.4</ele>
        <time>2020-07-27T07:39:16Z</time>
      </trkpt>
      <trkpt lat="47.26774" lon="-0.82701">
        <ele>91.2</ele>
        <time>2020-07-27T07:39:17Z</time>
      </trkpt>
      <trkpt lat="47.26779" lon="-0.82717">
        <ele>90.6</ele>
        <time>2020-07-27T07:39:19Z</time>
      </trkpt>
      <trkpt lat="47.26781" lon="-0.82726">
        <ele>90.2</ele>
        <time>2020-07-27T07:39:20Z</time>
      </trkpt>
      <trkpt lat="47.26789" lon="-0.82755">
        <ele>89</ele>
        <time>2020-07-27T07:39:23Z</time>
      </trkpt>
      <trkpt lat="47.26792" lon="-0.82766">
        <ele>88.6</ele>
        <time>2020-07-27T07:39:24Z</time>
      </trkpt>
      <trkpt lat="47.26799" lon="-0.82787">
        <ele>88</ele>
        <time>2020-07-27T07:39:26Z</time>
      </trkpt>
      <trkpt lat="47.26811" lon="-0.82821">
        <ele>86.6</ele>
        <time>2020-07-27T07:39:29Z</time>
      </trkpt>
      <trkpt lat="47.26826" lon="-0.82856">
        <ele>85.2</ele>
        <time>2020-07-27T07:39:32Z</time>
      </trkpt>
      <trkpt lat="47.26836" lon="-0.8288">
        <ele>84</ele>
        <time>2020-07-27T07:39:34Z</time>
      </trkpt>
      <trkpt lat="47.26844" lon="-0.82906">
        <ele>83</ele>
        <time>2020-07-27T07:39:36Z</time>
      </trkpt>
      <trkpt lat="47.2685" lon="-0.82935">
        <ele>81.8</ele>
        <time>2020-07-27T07:39:38Z</time>
      </trkpt>
      <trkpt lat="47.26853" lon="-0.82964">
        <ele>81</ele>
        <time>2020-07-27T07:39:40Z</time>
      </trkpt>
      <trkpt lat="47.26854" lon="-0.82978">
        <ele>80.8</ele>
        <time>2020-07-27T07:39:41Z</time>
      </trkpt>
      <trkpt lat="47.26862" lon="-0.83043">
        <ele>79.8</ele>
        <time>2020-07-27T07:39:46Z</time>
      </trkpt>
      <trkpt lat="47.26874" lon="-0.8309">
        <ele>80</ele>
        <time>2020-07-27T07:39:51Z</time>
      </trkpt>
      <trkpt lat="47.26887" lon="-0.83132">
        <ele>81.6</ele>
        <time>2020-07-27T07:39:57Z</time>
      </trkpt>
      <trkpt lat="47.26888" lon="-0.83139">
        <ele>81.8</ele>
        <time>2020-07-27T07:39:58Z</time>
      </trkpt>
      <trkpt lat="47.26896" lon="-0.83162">
        <ele>82.8</ele>
        <time>2020-07-27T07:40:02Z</time>
      </trkpt>
      <trkpt lat="47.269" lon="-0.83173">
        <ele>83.4</ele>
        <time>2020-07-27T07:40:04Z</time>
      </trkpt>
      <trkpt lat="47.26904" lon="-0.83183">
        <ele>84.2</ele>
        <time>2020-07-27T07:40:06Z</time>
      </trkpt>
      <trkpt lat="47.26912" lon="-0.83201">
        <ele>85.4</ele>
        <time>2020-07-27T07:40:10Z</time>
      </trkpt>
      <trkpt lat="47.26917" lon="-0.83209">
        <ele>86.2</ele>
        <time>2020-07-27T07:40:12Z</time>
      </trkpt>
      <trkpt lat="47.26921" lon="-0.83217">
        <ele>86.8</ele>
        <time>2020-07-27T07:40:14Z</time>
      </trkpt>
      <trkpt lat="47.26927" lon="-0.83229">
        <ele>88</ele>
        <time>2020-07-27T07:40:17Z</time>
      </trkpt>
      <trkpt lat="47.26936" lon="-0.83246">
        <ele>89.2</ele>
        <time>2020-07-27T07:40:21Z</time>
      </trkpt>
      <trkpt lat="47.26938" lon="-0.83251">
        <ele>89.4</ele>
        <time>2020-07-27T07:40:22Z</time>
      </trkpt>
      <trkpt lat="47.26944" lon="-0.83264">
        <ele>90.2</ele>
        <time>2020-07-27T07:40:25Z</time>
      </trkpt>
      <trkpt lat="47.26951" lon="-0.83283">
        <ele>91.6</ele>
        <time>2020-07-27T07:40:29Z</time>
      </trkpt>
      <trkpt lat="47.26953" lon="-0.83288">
        <ele>91.8</ele>
        <time>2020-07-27T07:40:30Z</time>
      </trkpt>
      <trkpt lat="47.26958" lon="-0.83308">
        <ele>92.6</ele>
        <time>2020-07-27T07:40:34Z</time>
      </trkpt>
      <trkpt lat="47.26963" lon="-0.83331">
        <ele>93.8</ele>
        <time>2020-07-27T07:40:39Z</time>
      </trkpt>
      <trkpt lat="47.2697" lon="-0.83357">
        <ele>95</ele>
        <time>2020-07-27T07:40:45Z</time>
      </trkpt>
      <trkpt lat="47.26973" lon="-0.83369">
        <ele>95.6</ele>
        <time>2020-07-27T07:40:48Z</time>
      </trkpt>
      <trkpt lat="47.26974" lon="-0.83377">
        <ele>96.2</ele>
        <time>2020-07-27T07:40:50Z</time>
      </trkpt>
      <trkpt lat="47.26979" lon="-0.83394">
        <ele>97.2</ele>
        <time>2020-07-27T07:40:54Z</time>
      </trkpt>
      <trkpt lat="47.26982" lon="-0.83407">
        <ele>98</ele>
        <time>2020-07-27T07:40:57Z</time>
      </trkpt>
      <trkpt lat="47.26985" lon="-0.8342">
        <ele>98.4</ele>
        <time>2020-07-27T07:41:00Z</time>
      </trkpt>
      <trkpt lat="47.2699" lon="-0.83436">
        <ele>99</ele>
        <time>2020-07-27T07:41:04Z</time>
      </trkpt>
      <trkpt lat="47.26994" lon="-0.83449">
        <ele>99.6</ele>
        <time>2020-07-27T07:41:07Z</time>
      </trkpt>
      <trkpt lat="47.26997" lon="-0.83466">
        <ele>100.6</ele>
        <time>2020-07-27T07:41:11Z</time>
      </trkpt>
      <trkpt lat="47.26998" lon="-0.83475">
        <ele>101.2</ele>
        <time>2020-07-27T07:41:13Z</time>
      </trkpt>
      <trkpt lat="47.26998" lon="-0.83488">
        <ele>101.8</ele>
        <time>2020-07-27T07:41:16Z</time>
      </trkpt>
      <trkpt lat="47.26995" lon="-0.83509">
        <ele>102.6</ele>
        <time>2020-07-27T07:41:21Z</time>
      </trkpt>
      <trkpt lat="47.26992" lon="-0.83517">
        <ele>102.8</ele>
        <time>2020-07-27T07:41:23Z</time>
      </trkpt>
      <trkpt lat="47.26982" lon="-0.83534">
        <ele>103.4</ele>
        <time>2020-07-27T07:41:28Z</time>
      </trkpt>
      <trkpt lat="47.26971" lon="-0.83551">
        <ele>104</ele>
        <time>2020-07-27T07:41:33Z</time>
      </trkpt>
      <trkpt lat="47.26964" lon="-0.83562">
        <ele>104.2</ele>
        <time>2020-07-27T07:41:36Z</time>
      </trkpt>
      <trkpt lat="47.26946" lon="-0.8359">
        <ele>105</ele>
        <time>2020-07-27T07:41:43Z</time>
      </trkpt>
      <trkpt lat="47.26943" lon="-0.83594">
        <ele>105.2</ele>
        <time>2020-07-27T07:41:44Z</time>
      </trkpt>
      <trkpt lat="47.26914" lon="-0.83639">
        <ele>105.8</ele>
        <time>2020-07-27T07:41:54Z</time>
      </trkpt>
      <trkpt lat="47.26905" lon="-0.83653">
        <ele>106</ele>
        <time>2020-07-27T07:41:57Z</time>
      </trkpt>
      <trkpt lat="47.26883" lon="-0.83687">
        <ele>106.6</ele>
        <time>2020-07-27T07:42:04Z</time>
      </trkpt>
      <trkpt lat="47.26864" lon="-0.83715">
        <ele>107.2</ele>
        <time>2020-07-27T07:42:10Z</time>
      </trkpt>
      <trkpt lat="47.26852" lon="-0.83735">
        <ele>107.6</ele>
        <time>2020-07-27T07:42:14Z</time>
      </trkpt>
      <trkpt lat="47.2684" lon="-0.83753">
        <ele>108.2</ele>
        <time>2020-07-27T07:42:18Z</time>
      </trkpt>
      <trkpt lat="47.26827" lon="-0.83775">
        <ele>108.8</ele>
        <time>2020-07-27T07:42:23Z</time>
      </trkpt>
      <trkpt lat="47.26818" lon="-0.83788">
        <ele>109.2</ele>
        <time>2020-07-27T07:42:26Z</time>
      </trkpt>
      <trkpt lat="47.26796" lon="-0.83821">
        <ele>109.8</ele>
        <time>2020-07-27T07:42:33Z</time>
      </trkpt>
      <trkpt lat="47.26777" lon="-0.83851">
        <ele>110.2</ele>
        <time>2020-07-27T07:42:39Z</time>
      </trkpt>
      <trkpt lat="47.26764" lon="-0.83872">
        <ele>110.6</ele>
        <time>2020-07-27T07:42:43Z</time>
      </trkpt>
      <trkpt lat="47.26729" lon="-0.83928">
        <ele>111.2</ele>
        <time>2020-07-27T07:42:54Z</time>
      </trkpt>
      <trkpt lat="47.26726" lon="-0.83934">
        <ele>111.4</ele>
        <time>2020-07-27T07:42:55Z</time>
      </trkpt>
      <trkpt lat="47.26703" lon="-0.83979">
        <ele>112.2</ele>
        <time>2020-07-27T07:43:03Z</time>
      </trkpt>
      <trkpt lat="47.26698" lon="-0.8399">
        <ele>112.4</ele>
        <time>2020-07-27T07:43:05Z</time>
      </trkpt>
      <trkpt lat="47.26677" lon="-0.84035">
        <ele>113.2</ele>
        <time>2020-07-27T07:43:13Z</time>
      </trkpt>
      <trkpt lat="47.26669" lon="-0.84052">
        <ele>113.4</ele>
        <time>2020-07-27T07:43:16Z</time>
      </trkpt>
      <trkpt lat="47.26657" lon="-0.84079">
        <ele>113.8</ele>
        <time>2020-07-27T07:43:21Z</time>
      </trkpt>
      <trkpt lat="47.26637" lon="-0.84123">
        <ele>114.6</ele>
        <time>2020-07-27T07:43:29Z</time>
      </trkpt>
      <trkpt lat="47.26635" lon="-0.84129">
        <ele>114.8</ele>
        <time>2020-07-27T07:43:30Z</time>
      </trkpt>
      <trkpt lat="47.26619" lon="-0.84169">
        <ele>115.6</ele>
        <time>2020-07-27T07:43:37Z</time>
      </trkpt>
      <trkpt lat="47.26617" lon="-0.84175">
        <ele>115.6</ele>
        <time>2020-07-27T07:43:38Z</time>
      </trkpt>
      <trkpt lat="47.26601" lon="-0.84219">
        <ele>116.6</ele>
        <time>2020-07-27T07:43:46Z</time>
      </trkpt>
      <trkpt lat="47.26599" lon="-0.84225">
        <ele>116.8</ele>
        <time>2020-07-27T07:43:47Z</time>
      </trkpt>
      <trkpt lat="47.26588" lon="-0.84259">
        <ele>117.8</ele>
        <time>2020-07-27T07:43:53Z</time>
      </trkpt>
      <trkpt lat="47.26585" lon="-0.84271">
        <ele>117.8</ele>
        <time>2020-07-27T07:43:55Z</time>
      </trkpt>
      <trkpt lat="47.26566" lon="-0.84334">
        <ele>118.4</ele>
        <time>2020-07-27T07:44:05Z</time>
      </trkpt>
      <trkpt lat="47.26545" lon="-0.84394">
        <ele>118.2</ele>
        <time>2020-07-27T07:44:14Z</time>
      </trkpt>
      <trkpt lat="47.2652" lon="-0.84447">
        <ele>118</ele>
        <time>2020-07-27T07:44:22Z</time>
      </trkpt>
      <trkpt lat="47.26488" lon="-0.84504">
        <ele>117.4</ele>
        <time>2020-07-27T07:44:31Z</time>
      </trkpt>
      <trkpt lat="47.26465" lon="-0.84547">
        <ele>117.2</ele>
        <time>2020-07-27T07:44:38Z</time>
      </trkpt>
      <trkpt lat="47.26443" lon="-0.84588">
        <ele>117.6</ele>
        <time>2020-07-27T07:44:45Z</time>
      </trkpt>
      <trkpt lat="47.26416" lon="-0.84621">
        <ele>118</ele>
        <time>2020-07-27T07:44:52Z</time>
      </trkpt>
      <trkpt lat="47.26412" lon="-0.84625">
        <ele>118</ele>
        <time>2020-07-27T07:44:53Z</time>
      </trkpt>
      <trkpt lat="47.26388" lon="-0.8464">
        <ele>118.4</ele>
        <time>2020-07-27T07:44:58Z</time>
      </trkpt>
      <trkpt lat="47.26364" lon="-0.84653">
        <ele>118.8</ele>
        <time>2020-07-27T07:45:03Z</time>
      </trkpt>
      <trkpt lat="47.26337" lon="-0.84667">
        <ele>119</ele>
        <time>2020-07-27T07:45:08Z</time>
      </trkpt>
      <trkpt lat="47.26285" lon="-0.84696">
        <ele>118.8</ele>
        <time>2020-07-27T07:45:17Z</time>
      </trkpt>
      <trkpt lat="47.26274" lon="-0.84703">
        <ele>118.8</ele>
        <time>2020-07-27T07:45:19Z</time>
      </trkpt>
      <trkpt lat="47.26226" lon="-0.84729">
        <ele>119</ele>
        <time>2020-07-27T07:45:28Z</time>
      </trkpt>
      <trkpt lat="47.26183" lon="-0.84752">
        <ele>119.6</ele>
        <time>2020-07-27T07:45:37Z</time>
      </trkpt>
      <trkpt lat="47.26152" lon="-0.84763">
        <ele>119.8</ele>
        <time>2020-07-27T07:45:43Z</time>
      </trkpt>
      <trkpt lat="47.26134" lon="-0.84767">
        <ele>120.6</ele>
        <time>2020-07-27T07:45:46Z</time>
      </trkpt>
      <trkpt lat="47.26083" lon="-0.8478">
        <ele>121</ele>
        <time>2020-07-27T07:45:55Z</time>
      </trkpt>
      <trkpt lat="47.26077" lon="-0.84782">
        <ele>121.2</ele>
        <time>2020-07-27T07:45:56Z</time>
      </trkpt>
      <trkpt lat="47.26027" lon="-0.84803">
        <ele>121.6</ele>
        <time>2020-07-27T07:46:05Z</time>
      </trkpt>
      <trkpt lat="47.25975" lon="-0.84829">
        <ele>122</ele>
        <time>2020-07-27T07:46:15Z</time>
      </trkpt>
      <trkpt lat="47.2597" lon="-0.84832">
        <ele>122</ele>
        <time>2020-07-27T07:46:16Z</time>
      </trkpt>
      <trkpt lat="47.25965" lon="-0.84834">
        <ele>122.2</ele>
        <time>2020-07-27T07:46:17Z</time>
      </trkpt>
      <trkpt lat="47.25919" lon="-0.84856">
        <ele>122.6</ele>
        <time>2020-07-27T07:46:26Z</time>
      </trkpt>
      <trkpt lat="47.25888" lon="-0.8487">
        <ele>123.2</ele>
        <time>2020-07-27T07:46:32Z</time>
      </trkpt>
      <trkpt lat="47.25874" lon="-0.84877">
        <ele>123.4</ele>
        <time>2020-07-27T07:46:35Z</time>
      </trkpt>
      <trkpt lat="47.25826" lon="-0.84902">
        <ele>124</ele>
        <time>2020-07-27T07:46:45Z</time>
      </trkpt>
      <trkpt lat="47.25816" lon="-0.84907">
        <ele>124.2</ele>
        <time>2020-07-27T07:46:47Z</time>
      </trkpt>
      <trkpt lat="47.25781" lon="-0.84923">
        <ele>125.2</ele>
        <time>2020-07-27T07:46:54Z</time>
      </trkpt>
      <trkpt lat="47.25767" lon="-0.84928">
        <ele>125.4</ele>
        <time>2020-07-27T07:46:57Z</time>
      </trkpt>
      <trkpt lat="47.25727" lon="-0.84945">
        <ele>125.4</ele>
        <time>2020-07-27T07:47:05Z</time>
      </trkpt>
      <trkpt lat="47.25682" lon="-0.84975">
        <ele>124.8</ele>
        <time>2020-07-27T07:47:14Z</time>
      </trkpt>
      <trkpt lat="47.25659" lon="-0.84999">
        <ele>124.2</ele>
        <time>2020-07-27T07:47:19Z</time>
      </trkpt>
      <trkpt lat="47.25641" lon="-0.85019">
        <ele>123.6</ele>
        <time>2020-07-27T07:47:23Z</time>
      </trkpt>
      <trkpt lat="47.25626" lon="-0.85033">
        <ele>123.2</ele>
        <time>2020-07-27T07:47:26Z</time>
      </trkpt>
      <trkpt lat="47.25604" lon="-0.85055">
        <ele>122</ele>
        <time>2020-07-27T07:47:31Z</time>
      </trkpt>
      <trkpt lat="47.2558" lon="-0.85084">
        <ele>122</ele>
        <time>2020-07-27T07:47:38Z</time>
      </trkpt>
      <trkpt lat="47.25577" lon="-0.85088">
        <ele>122</ele>
        <time>2020-07-27T07:47:39Z</time>
      </trkpt>
      <trkpt lat="47.25563" lon="-0.85098">
        <ele>122</ele>
        <time>2020-07-27T07:47:42Z</time>
      </trkpt>
      <trkpt lat="47.25552" lon="-0.85107">
        <ele>122.2</ele>
        <time>2020-07-27T07:47:44Z</time>
      </trkpt>
      <trkpt lat="47.25538" lon="-0.85122">
        <ele>122.4</ele>
        <time>2020-07-27T07:47:47Z</time>
      </trkpt>
      <trkpt lat="47.25506" lon="-0.85169">
        <ele>122.8</ele>
        <time>2020-07-27T07:47:55Z</time>
      </trkpt>
      <trkpt lat="47.2549" lon="-0.85192">
        <ele>123</ele>
        <time>2020-07-27T07:47:59Z</time>
      </trkpt>
      <trkpt lat="47.2547" lon="-0.8522">
        <ele>123</ele>
        <time>2020-07-27T07:48:04Z</time>
      </trkpt>
      <trkpt lat="47.25438" lon="-0.85252">
        <ele>123.6</ele>
        <time>2020-07-27T07:48:11Z</time>
      </trkpt>
      <trkpt lat="47.25399" lon="-0.85283">
        <ele>124</ele>
        <time>2020-07-27T07:48:19Z</time>
      </trkpt>
      <trkpt lat="47.25394" lon="-0.85286">
        <ele>124.2</ele>
        <time>2020-07-27T07:48:20Z</time>
      </trkpt>
      <trkpt lat="47.25351" lon="-0.85309">
        <ele>124.6</ele>
        <time>2020-07-27T07:48:28Z</time>
      </trkpt>
      <trkpt lat="47.25323" lon="-0.85314">
        <ele>125</ele>
        <time>2020-07-27T07:48:34Z</time>
      </trkpt>
      <trkpt lat="47.25314" lon="-0.85314">
        <ele>125.2</ele>
        <time>2020-07-27T07:48:36Z</time>
      </trkpt>
      <trkpt lat="47.25304" lon="-0.85314">
        <ele>125.2</ele>
        <time>2020-07-27T07:48:40Z</time>
      </trkpt>
      <trkpt lat="47.25291" lon="-0.85307">
        <ele>126.4</ele>
        <time>2020-07-27T07:49:06Z</time>
      </trkpt>
      <trkpt lat="47.25288" lon="-0.85307">
        <ele>126.6</ele>
        <time>2020-07-27T07:49:07Z</time>
      </trkpt>
      <trkpt lat="47.25268" lon="-0.85309">
        <ele>126.4</ele>
        <time>2020-07-27T07:49:13Z</time>
      </trkpt>
      <trkpt lat="47.25236" lon="-0.85314">
        <ele>125.6</ele>
        <time>2020-07-27T07:49:21Z</time>
      </trkpt>
      <trkpt lat="47.25224" lon="-0.85318">
        <ele>125.4</ele>
        <time>2020-07-27T07:49:24Z</time>
      </trkpt>
      <trkpt lat="47.25206" lon="-0.85325">
        <ele>125.2</ele>
        <time>2020-07-27T07:49:28Z</time>
      </trkpt>
      <trkpt lat="47.25171" lon="-0.85336">
        <ele>124.4</ele>
        <time>2020-07-27T07:49:36Z</time>
      </trkpt>
      <trkpt lat="47.25167" lon="-0.85337">
        <ele>124.4</ele>
        <time>2020-07-27T07:49:37Z</time>
      </trkpt>
      <trkpt lat="47.25142" lon="-0.85345">
        <ele>124.2</ele>
        <time>2020-07-27T07:49:43Z</time>
      </trkpt>
      <trkpt lat="47.25096" lon="-0.85361">
        <ele>124.8</ele>
        <time>2020-07-27T07:49:52Z</time>
      </trkpt>
      <trkpt lat="47.25053" lon="-0.85375">
        <ele>125</ele>
        <time>2020-07-27T07:50:01Z</time>
      </trkpt>
      <trkpt lat="47.25021" lon="-0.85383">
        <ele>125.2</ele>
        <time>2020-07-27T07:50:07Z</time>
      </trkpt>
      <trkpt lat="47.2501" lon="-0.85384">
        <ele>125</ele>
        <time>2020-07-27T07:50:09Z</time>
      </trkpt>
      <trkpt lat="47.2497" lon="-0.8538">
        <ele>124.8</ele>
        <time>2020-07-27T07:50:16Z</time>
      </trkpt>
      <trkpt lat="47.24924" lon="-0.85378">
        <ele>124.6</ele>
        <time>2020-07-27T07:50:24Z</time>
      </trkpt>
      <trkpt lat="47.24872" lon="-0.85375">
        <ele>124.4</ele>
        <time>2020-07-27T07:50:33Z</time>
      </trkpt>
      <trkpt lat="47.24828" lon="-0.85376">
        <ele>124.2</ele>
        <time>2020-07-27T07:50:41Z</time>
      </trkpt>
      <trkpt lat="47.24804" lon="-0.85394">
        <ele>123.6</ele>
        <time>2020-07-27T07:50:46Z</time>
      </trkpt>
      <trkpt lat="47.24797" lon="-0.85405">
        <ele>123.2</ele>
        <time>2020-07-27T07:50:48Z</time>
      </trkpt>
      <trkpt lat="47.24788" lon="-0.85425">
        <ele>123</ele>
        <time>2020-07-27T07:50:51Z</time>
      </trkpt>
      <trkpt lat="47.24766" lon="-0.85484">
        <ele>122.6</ele>
        <time>2020-07-27T07:50:59Z</time>
      </trkpt>
      <trkpt lat="47.2474" lon="-0.85545">
        <ele>122.2</ele>
        <time>2020-07-27T07:51:07Z</time>
      </trkpt>
      <trkpt lat="47.24737" lon="-0.85554">
        <ele>122.2</ele>
        <time>2020-07-27T07:51:08Z</time>
      </trkpt>
      <trkpt lat="47.24704" lon="-0.85615">
        <ele>121.6</ele>
        <time>2020-07-27T07:51:16Z</time>
      </trkpt>
      <trkpt lat="47.24684" lon="-0.85641">
        <ele>121.2</ele>
        <time>2020-07-27T07:51:20Z</time>
      </trkpt>
      <trkpt lat="47.2467" lon="-0.85659">
        <ele>121</ele>
        <time>2020-07-27T07:51:23Z</time>
      </trkpt>
      <trkpt lat="47.24632" lon="-0.85704">
        <ele>120.8</ele>
        <time>2020-07-27T07:51:31Z</time>
      </trkpt>
      <trkpt lat="47.2459" lon="-0.85753">
        <ele>121.2</ele>
        <time>2020-07-27T07:51:40Z</time>
      </trkpt>
      <trkpt lat="47.24558" lon="-0.85786">
        <ele>122</ele>
        <time>2020-07-27T07:51:47Z</time>
      </trkpt>
      <trkpt lat="47.24534" lon="-0.85807">
        <ele>122.2</ele>
        <time>2020-07-27T07:51:52Z</time>
      </trkpt>
      <trkpt lat="47.2451" lon="-0.85829">
        <ele>122.4</ele>
        <time>2020-07-27T07:51:57Z</time>
      </trkpt>
      <trkpt lat="47.24506" lon="-0.85835">
        <ele>122.4</ele>
        <time>2020-07-27T07:51:58Z</time>
      </trkpt>
      <trkpt lat="47.2449" lon="-0.8586">
        <ele>122.4</ele>
        <time>2020-07-27T07:52:02Z</time>
      </trkpt>
      <trkpt lat="47.2447" lon="-0.85913">
        <ele>122.8</ele>
        <time>2020-07-27T07:52:09Z</time>
      </trkpt>
      <trkpt lat="47.24447" lon="-0.8598">
        <ele>122.2</ele>
        <time>2020-07-27T07:52:17Z</time>
      </trkpt>
      <trkpt lat="47.2442" lon="-0.86045">
        <ele>122</ele>
        <time>2020-07-27T07:52:25Z</time>
      </trkpt>
      <trkpt lat="47.24389" lon="-0.86093">
        <ele>121.6</ele>
        <time>2020-07-27T07:52:32Z</time>
      </trkpt>
      <trkpt lat="47.24349" lon="-0.8615">
        <ele>121.4</ele>
        <time>2020-07-27T07:52:41Z</time>
      </trkpt>
      <trkpt lat="47.24345" lon="-0.86156">
        <ele>121.4</ele>
        <time>2020-07-27T07:52:42Z</time>
      </trkpt>
      <trkpt lat="47.24317" lon="-0.86184">
        <ele>121.8</ele>
        <time>2020-07-27T07:52:48Z</time>
      </trkpt>
      <trkpt lat="47.2428" lon="-0.86224">
        <ele>121.4</ele>
        <time>2020-07-27T07:52:56Z</time>
      </trkpt>
      <trkpt lat="47.24275" lon="-0.86231">
        <ele>121.2</ele>
        <time>2020-07-27T07:52:57Z</time>
      </trkpt>
      <trkpt lat="47.24256" lon="-0.86268">
        <ele>120.6</ele>
        <time>2020-07-27T07:53:02Z</time>
      </trkpt>
      <trkpt lat="47.2424" lon="-0.86301">
        <ele>120.2</ele>
        <time>2020-07-27T07:53:06Z</time>
      </trkpt>
      <trkpt lat="47.24225" lon="-0.86336">
        <ele>119.4</ele>
        <time>2020-07-27T07:53:10Z</time>
      </trkpt>
      <trkpt lat="47.24217" lon="-0.86353">
        <ele>119.2</ele>
        <time>2020-07-27T07:53:12Z</time>
      </trkpt>
      <trkpt lat="47.24201" lon="-0.86397">
        <ele>118.4</ele>
        <time>2020-07-27T07:53:17Z</time>
      </trkpt>
      <trkpt lat="47.24194" lon="-0.86425">
        <ele>118</ele>
        <time>2020-07-27T07:53:20Z</time>
      </trkpt>
      <trkpt lat="47.24187" lon="-0.86465">
        <ele>117.6</ele>
        <time>2020-07-27T07:53:24Z</time>
      </trkpt>
      <trkpt lat="47.24172" lon="-0.86546">
        <ele>117</ele>
        <time>2020-07-27T07:53:32Z</time>
      </trkpt>
      <trkpt lat="47.2417" lon="-0.86556">
        <ele>117</ele>
        <time>2020-07-27T07:53:33Z</time>
      </trkpt>
      <trkpt lat="47.24152" lon="-0.86633">
        <ele>116.6</ele>
        <time>2020-07-27T07:53:41Z</time>
      </trkpt>
      <trkpt lat="47.24126" lon="-0.86702">
        <ele>116</ele>
        <time>2020-07-27T07:53:49Z</time>
      </trkpt>
      <trkpt lat="47.2412" lon="-0.86718">
        <ele>116</ele>
        <time>2020-07-27T07:53:51Z</time>
      </trkpt>
      <trkpt lat="47.24094" lon="-0.86772">
        <ele>115.2</ele>
        <time>2020-07-27T07:53:58Z</time>
      </trkpt>
      <trkpt lat="47.24068" lon="-0.86815">
        <ele>114.8</ele>
        <time>2020-07-27T07:54:04Z</time>
      </trkpt>
      <trkpt lat="47.24059" lon="-0.86829">
        <ele>114.8</ele>
        <time>2020-07-27T07:54:06Z</time>
      </trkpt>
      <trkpt lat="47.24022" lon="-0.86871">
        <ele>114.4</ele>
        <time>2020-07-27T07:54:13Z</time>
      </trkpt>
      <trkpt lat="47.23975" lon="-0.8691">
        <ele>114</ele>
        <time>2020-07-27T07:54:21Z</time>
      </trkpt>
      <trkpt lat="47.23935" lon="-0.86944">
        <ele>114</ele>
        <time>2020-07-27T07:54:28Z</time>
      </trkpt>
      <trkpt lat="47.23895" lon="-0.8699">
        <ele>114</ele>
        <time>2020-07-27T07:54:36Z</time>
      </trkpt>
      <trkpt lat="47.23866" lon="-0.87039">
        <ele>114.2</ele>
        <time>2020-07-27T07:54:43Z</time>
      </trkpt>
      <trkpt lat="47.23861" lon="-0.87056">
        <ele>114.2</ele>
        <time>2020-07-27T07:54:45Z</time>
      </trkpt>
      <trkpt lat="47.23856" lon="-0.87083">
        <ele>114.4</ele>
        <time>2020-07-27T07:54:48Z</time>
      </trkpt>
      <trkpt lat="47.23841" lon="-0.87145">
        <ele>114.4</ele>
        <time>2020-07-27T07:54:55Z</time>
      </trkpt>
      <trkpt lat="47.23818" lon="-0.87217">
        <ele>114.6</ele>
        <time>2020-07-27T07:55:03Z</time>
      </trkpt>
      <trkpt lat="47.23812" lon="-0.87234">
        <ele>114.6</ele>
        <time>2020-07-27T07:55:05Z</time>
      </trkpt>
      <trkpt lat="47.23787" lon="-0.87303">
        <ele>114.4</ele>
        <time>2020-07-27T07:55:13Z</time>
      </trkpt>
      <trkpt lat="47.23771" lon="-0.87365">
        <ele>114.2</ele>
        <time>2020-07-27T07:55:20Z</time>
      </trkpt>
      <trkpt lat="47.23754" lon="-0.87444">
        <ele>114.4</ele>
        <time>2020-07-27T07:55:29Z</time>
      </trkpt>
      <trkpt lat="47.23733" lon="-0.8752">
        <ele>114.8</ele>
        <time>2020-07-27T07:55:38Z</time>
      </trkpt>
      <trkpt lat="47.23717" lon="-0.87547">
        <ele>115</ele>
        <time>2020-07-27T07:55:42Z</time>
      </trkpt>
      <trkpt lat="47.23708" lon="-0.87559">
        <ele>115.2</ele>
        <time>2020-07-27T07:55:44Z</time>
      </trkpt>
      <trkpt lat="47.23667" lon="-0.87613">
        <ele>115.2</ele>
        <time>2020-07-27T07:55:53Z</time>
      </trkpt>
      <trkpt lat="47.23663" lon="-0.87619">
        <ele>115.2</ele>
        <time>2020-07-27T07:55:54Z</time>
      </trkpt>
      <trkpt lat="47.23621" lon="-0.87674">
        <ele>114.8</ele>
        <time>2020-07-27T07:56:03Z</time>
      </trkpt>
      <trkpt lat="47.23605" lon="-0.87713">
        <ele>114.4</ele>
        <time>2020-07-27T07:56:08Z</time>
      </trkpt>
      <trkpt lat="47.23593" lon="-0.87763">
        <ele>114.4</ele>
        <time>2020-07-27T07:56:14Z</time>
      </trkpt>
      <trkpt lat="47.23569" lon="-0.87817">
        <ele>114</ele>
        <time>2020-07-27T07:56:21Z</time>
      </trkpt>
      <trkpt lat="47.23552" lon="-0.87846">
        <ele>113.8</ele>
        <time>2020-07-27T07:56:25Z</time>
      </trkpt>
      <trkpt lat="47.23533" lon="-0.87873">
        <ele>113.4</ele>
        <time>2020-07-27T07:56:29Z</time>
      </trkpt>
      <trkpt lat="47.23513" lon="-0.87899">
        <ele>112.8</ele>
        <time>2020-07-27T07:56:33Z</time>
      </trkpt>
      <trkpt lat="47.23491" lon="-0.87924">
        <ele>112.4</ele>
        <time>2020-07-27T07:56:37Z</time>
      </trkpt>
      <trkpt lat="47.23447" lon="-0.87975">
        <ele>112.4</ele>
        <time>2020-07-27T07:56:46Z</time>
      </trkpt>
      <trkpt lat="47.23405" lon="-0.88024">
        <ele>113.4</ele>
        <time>2020-07-27T07:56:55Z</time>
      </trkpt>
      <trkpt lat="47.234" lon="-0.88029">
        <ele>113.6</ele>
        <time>2020-07-27T07:56:56Z</time>
      </trkpt>
      <trkpt lat="47.23386" lon="-0.88045">
        <ele>113.8</ele>
        <time>2020-07-27T07:56:59Z</time>
      </trkpt>
      <trkpt lat="47.23365" lon="-0.8806">
        <ele>114.4</ele>
        <time>2020-07-27T07:57:03Z</time>
      </trkpt>
      <trkpt lat="47.23333" lon="-0.88082">
        <ele>115</ele>
        <time>2020-07-27T07:57:09Z</time>
      </trkpt>
      <trkpt lat="47.23312" lon="-0.88097">
        <ele>115</ele>
        <time>2020-07-27T07:57:13Z</time>
      </trkpt>
      <trkpt lat="47.233" lon="-0.88103">
        <ele>115</ele>
        <time>2020-07-27T07:57:15Z</time>
      </trkpt>
      <trkpt lat="47.23281" lon="-0.88105">
        <ele>115</ele>
        <time>2020-07-27T07:57:18Z</time>
      </trkpt>
      <trkpt lat="47.23262" lon="-0.88102">
        <ele>114.8</ele>
        <time>2020-07-27T07:57:21Z</time>
      </trkpt>
      <trkpt lat="47.23242" lon="-0.881">
        <ele>114.6</ele>
        <time>2020-07-27T07:57:24Z</time>
      </trkpt>
      <trkpt lat="47.23215" lon="-0.88105">
        <ele>113.8</ele>
        <time>2020-07-27T07:57:28Z</time>
      </trkpt>
      <trkpt lat="47.23209" lon="-0.88108">
        <ele>113.6</ele>
        <time>2020-07-27T07:57:29Z</time>
      </trkpt>
      <trkpt lat="47.23184" lon="-0.88124">
        <ele>112.6</ele>
        <time>2020-07-27T07:57:33Z</time>
      </trkpt>
      <trkpt lat="47.23178" lon="-0.8813">
        <ele>112.4</ele>
        <time>2020-07-27T07:57:34Z</time>
      </trkpt>
      <trkpt lat="47.23172" lon="-0.88136">
        <ele>112.2</ele>
        <time>2020-07-27T07:57:35Z</time>
      </trkpt>
      <trkpt lat="47.23158" lon="-0.88156">
        <ele>111.6</ele>
        <time>2020-07-27T07:57:38Z</time>
      </trkpt>
      <trkpt lat="47.23143" lon="-0.88176">
        <ele>111.4</ele>
        <time>2020-07-27T07:57:41Z</time>
      </trkpt>
      <trkpt lat="47.23109" lon="-0.88222">
        <ele>110.6</ele>
        <time>2020-07-27T07:57:48Z</time>
      </trkpt>
      <trkpt lat="47.23105" lon="-0.88228">
        <ele>110.6</ele>
        <time>2020-07-27T07:57:49Z</time>
      </trkpt>
      <trkpt lat="47.23075" lon="-0.88279">
        <ele>109.6</ele>
        <time>2020-07-27T07:57:56Z</time>
      </trkpt>
      <trkpt lat="47.2307" lon="-0.88287">
        <ele>109.4</ele>
        <time>2020-07-27T07:57:57Z</time>
      </trkpt>
      <trkpt lat="47.23048" lon="-0.88324">
        <ele>108.6</ele>
        <time>2020-07-27T07:58:02Z</time>
      </trkpt>
      <trkpt lat="47.2302" lon="-0.88371">
        <ele>107.4</ele>
        <time>2020-07-27T07:58:08Z</time>
      </trkpt>
      <trkpt lat="47.22998" lon="-0.88413">
        <ele>106.4</ele>
        <time>2020-07-27T07:58:13Z</time>
      </trkpt>
      <trkpt lat="47.22991" lon="-0.88431">
        <ele>106</ele>
        <time>2020-07-27T07:58:15Z</time>
      </trkpt>
      <trkpt lat="47.22972" lon="-0.88479">
        <ele>105.4</ele>
        <time>2020-07-27T07:58:20Z</time>
      </trkpt>
      <trkpt lat="47.22967" lon="-0.88489">
        <ele>105.2</ele>
        <time>2020-07-27T07:58:21Z</time>
      </trkpt>
      <trkpt lat="47.22945" lon="-0.88537">
        <ele>104.2</ele>
        <time>2020-07-27T07:58:26Z</time>
      </trkpt>
      <trkpt lat="47.22927" lon="-0.88577">
        <ele>103.4</ele>
        <time>2020-07-27T07:58:30Z</time>
      </trkpt>
      <trkpt lat="47.22919" lon="-0.88597">
        <ele>103</ele>
        <time>2020-07-27T07:58:32Z</time>
      </trkpt>
      <trkpt lat="47.22902" lon="-0.88649">
        <ele>102.2</ele>
        <time>2020-07-27T07:58:37Z</time>
      </trkpt>
      <trkpt lat="47.22899" lon="-0.8866">
        <ele>102</ele>
        <time>2020-07-27T07:58:38Z</time>
      </trkpt>
      <trkpt lat="47.22886" lon="-0.88712">
        <ele>100.8</ele>
        <time>2020-07-27T07:58:43Z</time>
      </trkpt>
      <trkpt lat="47.22883" lon="-0.88723">
        <ele>100.4</ele>
        <time>2020-07-27T07:58:44Z</time>
      </trkpt>
      <trkpt lat="47.22875" lon="-0.88754">
        <ele>99.6</ele>
        <time>2020-07-27T07:58:47Z</time>
      </trkpt>
      <trkpt lat="47.22862" lon="-0.88816">
        <ele>98.4</ele>
        <time>2020-07-27T07:58:53Z</time>
      </trkpt>
      <trkpt lat="47.22851" lon="-0.88879">
        <ele>97.4</ele>
        <time>2020-07-27T07:58:59Z</time>
      </trkpt>
      <trkpt lat="47.22847" lon="-0.88899">
        <ele>97</ele>
        <time>2020-07-27T07:59:01Z</time>
      </trkpt>
      <trkpt lat="47.22836" lon="-0.8894">
        <ele>96.2</ele>
        <time>2020-07-27T07:59:05Z</time>
      </trkpt>
      <trkpt lat="47.22826" lon="-0.8897">
        <ele>95.8</ele>
        <time>2020-07-27T07:59:08Z</time>
      </trkpt>
      <trkpt lat="47.22818" lon="-0.88989">
        <ele>95.2</ele>
        <time>2020-07-27T07:59:10Z</time>
      </trkpt>
      <trkpt lat="47.22797" lon="-0.89036">
        <ele>94</ele>
        <time>2020-07-27T07:59:15Z</time>
      </trkpt>
      <trkpt lat="47.22775" lon="-0.89083">
        <ele>93</ele>
        <time>2020-07-27T07:59:20Z</time>
      </trkpt>
      <trkpt lat="47.22763" lon="-0.89112">
        <ele>92.4</ele>
        <time>2020-07-27T07:59:23Z</time>
      </trkpt>
      <trkpt lat="47.22748" lon="-0.89148">
        <ele>91.8</ele>
        <time>2020-07-27T07:59:27Z</time>
      </trkpt>
      <trkpt lat="47.22741" lon="-0.89165">
        <ele>91.6</ele>
        <time>2020-07-27T07:59:29Z</time>
      </trkpt>
      <trkpt lat="47.22724" lon="-0.89212">
        <ele>91</ele>
        <time>2020-07-27T07:59:35Z</time>
      </trkpt>
      <trkpt lat="47.22719" lon="-0.89229">
        <ele>90.6</ele>
        <time>2020-07-27T07:59:37Z</time>
      </trkpt>
      <trkpt lat="47.22706" lon="-0.89266">
        <ele>89.8</ele>
        <time>2020-07-27T07:59:41Z</time>
      </trkpt>
      <trkpt lat="47.22702" lon="-0.89276">
        <ele>89.4</ele>
        <time>2020-07-27T07:59:42Z</time>
      </trkpt>
      <trkpt lat="47.22688" lon="-0.89315">
        <ele>88.4</ele>
        <time>2020-07-27T07:59:46Z</time>
      </trkpt>
      <trkpt lat="47.22684" lon="-0.89324">
        <ele>88</ele>
        <time>2020-07-27T07:59:47Z</time>
      </trkpt>
      <trkpt lat="47.22662" lon="-0.89369">
        <ele>87.2</ele>
        <time>2020-07-27T07:59:52Z</time>
      </trkpt>
      <trkpt lat="47.2266" lon="-0.8938">
        <ele>86.8</ele>
        <time>2020-07-27T07:59:53Z</time>
      </trkpt>
      <trkpt lat="47.22661" lon="-0.89413">
        <ele>86.2</ele>
        <time>2020-07-27T07:59:56Z</time>
      </trkpt>
      <trkpt lat="47.22663" lon="-0.89424">
        <ele>86</ele>
        <time>2020-07-27T07:59:57Z</time>
      </trkpt>
      <trkpt lat="47.22666" lon="-0.89436">
        <ele>85.6</ele>
        <time>2020-07-27T07:59:58Z</time>
      </trkpt>
      <trkpt lat="47.2267" lon="-0.89458">
        <ele>85.2</ele>
        <time>2020-07-27T08:00:00Z</time>
      </trkpt>
      <trkpt lat="47.22673" lon="-0.8947">
        <ele>84.8</ele>
        <time>2020-07-27T08:00:01Z</time>
      </trkpt>
      <trkpt lat="47.22682" lon="-0.89499">
        <ele>83.6</ele>
        <time>2020-07-27T08:00:04Z</time>
      </trkpt>
      <trkpt lat="47.22685" lon="-0.89506">
        <ele>83.4</ele>
        <time>2020-07-27T08:00:05Z</time>
      </trkpt>
      <trkpt lat="47.22688" lon="-0.89513">
        <ele>83</ele>
        <time>2020-07-27T08:00:06Z</time>
      </trkpt>
      <trkpt lat="47.22692" lon="-0.89519">
        <ele>82.4</ele>
        <time>2020-07-27T08:00:07Z</time>
      </trkpt>
      <trkpt lat="47.22699" lon="-0.8953">
        <ele>81.6</ele>
        <time>2020-07-27T08:00:09Z</time>
      </trkpt>
      <trkpt lat="47.22701" lon="-0.89535">
        <ele>81.4</ele>
        <time>2020-07-27T08:00:10Z</time>
      </trkpt>
      <trkpt lat="47.22709" lon="-0.89555">
        <ele>81</ele>
        <time>2020-07-27T08:00:14Z</time>
      </trkpt>
      <trkpt lat="47.22716" lon="-0.89591">
        <ele>80.4</ele>
        <time>2020-07-27T08:00:21Z</time>
      </trkpt>
      <trkpt lat="47.22717" lon="-0.89597">
        <ele>80.2</ele>
        <time>2020-07-27T08:00:22Z</time>
      </trkpt>
      <trkpt lat="47.22722" lon="-0.89624">
        <ele>79.8</ele>
        <time>2020-07-27T08:00:27Z</time>
      </trkpt>
      <trkpt lat="47.22724" lon="-0.89648">
        <ele>79.6</ele>
        <time>2020-07-27T08:00:33Z</time>
      </trkpt>
      <trkpt lat="47.22725" lon="-0.89671">
        <ele>80.2</ele>
        <time>2020-07-27T08:00:40Z</time>
      </trkpt>
      <trkpt lat="47.22729" lon="-0.89687">
        <ele>81.8</ele>
        <time>2020-07-27T08:01:10Z</time>
      </trkpt>
      <trkpt lat="47.22725" lon="-0.8969">
        <ele>82.8</ele>
        <time>2020-07-27T08:01:13Z</time>
      </trkpt>
      <trkpt lat="47.2272" lon="-0.89694">
        <ele>83.4</ele>
        <time>2020-07-27T08:01:15Z</time>
      </trkpt>
      <trkpt lat="47.22714" lon="-0.89698">
        <ele>84</ele>
        <time>2020-07-27T08:01:17Z</time>
      </trkpt>
      <trkpt lat="47.22701" lon="-0.89708">
        <ele>84.8</ele>
        <time>2020-07-27T08:01:22Z</time>
      </trkpt>
      <trkpt lat="47.22693" lon="-0.89718">
        <ele>84.8</ele>
        <time>2020-07-27T08:01:26Z</time>
      </trkpt>
      <trkpt lat="47.22693" lon="-0.89722">
        <ele>84.8</ele>
        <time>2020-07-27T08:01:27Z</time>
      </trkpt>
      <trkpt lat="47.22695" lon="-0.89729">
        <ele>85.4</ele>
        <time>2020-07-27T08:01:28Z</time>
      </trkpt>
      <trkpt lat="47.22698" lon="-0.89747">
        <ele>86.6</ele>
        <time>2020-07-27T08:01:31Z</time>
      </trkpt>
      <trkpt lat="47.22695" lon="-0.89787">
        <ele>87.8</ele>
        <time>2020-07-27T08:01:39Z</time>
      </trkpt>
      <trkpt lat="47.22691" lon="-0.8981">
        <ele>89</ele>
        <time>2020-07-27T08:01:44Z</time>
      </trkpt>
      <trkpt lat="47.22689" lon="-0.89818">
        <ele>89.2</ele>
        <time>2020-07-27T08:01:46Z</time>
      </trkpt>
      <trkpt lat="47.22684" lon="-0.89861">
        <ele>89.6</ele>
        <time>2020-07-27T08:01:55Z</time>
      </trkpt>
      <trkpt lat="47.22682" lon="-0.89908">
        <ele>89.6</ele>
        <time>2020-07-27T08:02:05Z</time>
      </trkpt>
      <trkpt lat="47.22681" lon="-0.8992">
        <ele>90.2</ele>
        <time>2020-07-27T08:02:08Z</time>
      </trkpt>
      <trkpt lat="47.22678" lon="-0.89938">
        <ele>90.6</ele>
        <time>2020-07-27T08:02:12Z</time>
      </trkpt>
      <trkpt lat="47.22675" lon="-0.89968">
        <ele>91.2</ele>
        <time>2020-07-27T08:02:19Z</time>
      </trkpt>
      <trkpt lat="47.22674" lon="-0.89972">
        <ele>91.2</ele>
        <time>2020-07-27T08:02:20Z</time>
      </trkpt>
      <trkpt lat="47.2267" lon="-0.90002">
        <ele>92.2</ele>
        <time>2020-07-27T08:02:27Z</time>
      </trkpt>
      <trkpt lat="47.22666" lon="-0.90037">
        <ele>93.4</ele>
        <time>2020-07-27T08:02:35Z</time>
      </trkpt>
      <trkpt lat="47.22663" lon="-0.9006">
        <ele>94.6</ele>
        <time>2020-07-27T08:02:40Z</time>
      </trkpt>
      <trkpt lat="47.22659" lon="-0.90078">
        <ele>95.2</ele>
        <time>2020-07-27T08:02:44Z</time>
      </trkpt>
      <trkpt lat="47.22657" lon="-0.90087">
        <ele>95.6</ele>
        <time>2020-07-27T08:02:46Z</time>
      </trkpt>
      <trkpt lat="47.22647" lon="-0.90114">
        <ele>96.6</ele>
        <time>2020-07-27T08:02:52Z</time>
      </trkpt>
      <trkpt lat="47.22646" lon="-0.90118">
        <ele>96.8</ele>
        <time>2020-07-27T08:02:53Z</time>
      </trkpt>
      <trkpt lat="47.22633" lon="-0.9016">
        <ele>96.8</ele>
        <time>2020-07-27T08:03:01Z</time>
      </trkpt>
      <trkpt lat="47.22631" lon="-0.90198">
        <ele>96</ele>
        <time>2020-07-27T08:03:06Z</time>
      </trkpt>
      <trkpt lat="47.22631" lon="-0.90215">
        <ele>95.6</ele>
        <time>2020-07-27T08:03:08Z</time>
      </trkpt>
      <trkpt lat="47.22631" lon="-0.90253">
        <ele>94.4</ele>
        <time>2020-07-27T08:03:12Z</time>
      </trkpt>
      <trkpt lat="47.22632" lon="-0.90287">
        <ele>93.2</ele>
        <time>2020-07-27T08:03:15Z</time>
      </trkpt>
      <trkpt lat="47.22633" lon="-0.90323">
        <ele>92.2</ele>
        <time>2020-07-27T08:03:18Z</time>
      </trkpt>
      <trkpt lat="47.22634" lon="-0.90359">
        <ele>91</ele>
        <time>2020-07-27T08:03:21Z</time>
      </trkpt>
      <trkpt lat="47.22632" lon="-0.90402">
        <ele>90</ele>
        <time>2020-07-27T08:03:25Z</time>
      </trkpt>
      <trkpt lat="47.22629" lon="-0.90421">
        <ele>89.6</ele>
        <time>2020-07-27T08:03:27Z</time>
      </trkpt>
      <trkpt lat="47.22624" lon="-0.90437">
        <ele>89.8</ele>
        <time>2020-07-27T08:03:29Z</time>
      </trkpt>
      <trkpt lat="47.22621" lon="-0.90444">
        <ele>89.8</ele>
        <time>2020-07-27T08:03:30Z</time>
      </trkpt>
      <trkpt lat="47.22611" lon="-0.90463">
        <ele>90.4</ele>
        <time>2020-07-27T08:03:33Z</time>
      </trkpt>
      <trkpt lat="47.22608" lon="-0.90468">
        <ele>90.6</ele>
        <time>2020-07-27T08:03:34Z</time>
      </trkpt>
      <trkpt lat="47.22598" lon="-0.90484">
        <ele>91</ele>
        <time>2020-07-27T08:03:37Z</time>
      </trkpt>
      <trkpt lat="47.22586" lon="-0.90501">
        <ele>91.8</ele>
        <time>2020-07-27T08:03:41Z</time>
      </trkpt>
      <trkpt lat="47.22583" lon="-0.90506">
        <ele>92</ele>
        <time>2020-07-27T08:03:42Z</time>
      </trkpt>
      <trkpt lat="47.22572" lon="-0.90522">
        <ele>93</ele>
        <time>2020-07-27T08:03:46Z</time>
      </trkpt>
      <trkpt lat="47.22565" lon="-0.90535">
        <ele>94</ele>
        <time>2020-07-27T08:03:49Z</time>
      </trkpt>
      <trkpt lat="47.22562" lon="-0.90539">
        <ele>94.2</ele>
        <time>2020-07-27T08:03:50Z</time>
      </trkpt>
      <trkpt lat="47.22552" lon="-0.90555">
        <ele>95.4</ele>
        <time>2020-07-27T08:03:54Z</time>
      </trkpt>
      <trkpt lat="47.22547" lon="-0.90563">
        <ele>96</ele>
        <time>2020-07-27T08:03:56Z</time>
      </trkpt>
      <trkpt lat="47.22541" lon="-0.90571">
        <ele>96.6</ele>
        <time>2020-07-27T08:03:58Z</time>
      </trkpt>
      <trkpt lat="47.22531" lon="-0.90588">
        <ele>97.8</ele>
        <time>2020-07-27T08:04:02Z</time>
      </trkpt>
      <trkpt lat="47.22529" lon="-0.90592">
        <ele>98</ele>
        <time>2020-07-27T08:04:03Z</time>
      </trkpt>
      <trkpt lat="47.22516" lon="-0.90615">
        <ele>98.8</ele>
        <time>2020-07-27T08:04:08Z</time>
      </trkpt>
      <trkpt lat="47.22509" lon="-0.9063">
        <ele>99.2</ele>
        <time>2020-07-27T08:04:11Z</time>
      </trkpt>
      <trkpt lat="47.225" lon="-0.90656">
        <ele>99.8</ele>
        <time>2020-07-27T08:04:16Z</time>
      </trkpt>
      <trkpt lat="47.22495" lon="-0.90672">
        <ele>100.2</ele>
        <time>2020-07-27T08:04:19Z</time>
      </trkpt>
      <trkpt lat="47.22484" lon="-0.90716">
        <ele>100.8</ele>
        <time>2020-07-27T08:04:27Z</time>
      </trkpt>
      <trkpt lat="47.22467" lon="-0.90783">
        <ele>101.4</ele>
        <time>2020-07-27T08:04:39Z</time>
      </trkpt>
      <trkpt lat="47.22458" lon="-0.90832">
        <ele>102</ele>
        <time>2020-07-27T08:04:47Z</time>
      </trkpt>
      <trkpt lat="47.22456" lon="-0.90844">
        <ele>102</ele>
        <time>2020-07-27T08:04:49Z</time>
      </trkpt>
      <trkpt lat="47.22447" lon="-0.90904">
        <ele>102.6</ele>
        <time>2020-07-27T08:04:58Z</time>
      </trkpt>
      <trkpt lat="47.22435" lon="-0.90962">
        <ele>102.6</ele>
        <time>2020-07-27T08:05:06Z</time>
      </trkpt>
      <trkpt lat="47.22418" lon="-0.91018">
        <ele>102.6</ele>
        <time>2020-07-27T08:05:14Z</time>
      </trkpt>
      <trkpt lat="47.22399" lon="-0.91078">
        <ele>103</ele>
        <time>2020-07-27T08:05:23Z</time>
      </trkpt>
      <trkpt lat="47.2238" lon="-0.91138">
        <ele>103.4</ele>
        <time>2020-07-27T08:05:33Z</time>
      </trkpt>
      <trkpt lat="47.2237" lon="-0.91165">
        <ele>104</ele>
        <time>2020-07-27T08:05:38Z</time>
      </trkpt>
      <trkpt lat="47.22364" lon="-0.91186">
        <ele>104.6</ele>
        <time>2020-07-27T08:05:42Z</time>
      </trkpt>
      <trkpt lat="47.22355" lon="-0.91215">
        <ele>105</ele>
        <time>2020-07-27T08:05:47Z</time>
      </trkpt>
      <trkpt lat="47.22351" lon="-0.91226">
        <ele>105.4</ele>
        <time>2020-07-27T08:05:49Z</time>
      </trkpt>
      <trkpt lat="47.22342" lon="-0.91254">
        <ele>106</ele>
        <time>2020-07-27T08:05:54Z</time>
      </trkpt>
      <trkpt lat="47.22335" lon="-0.91275">
        <ele>106.8</ele>
        <time>2020-07-27T08:05:58Z</time>
      </trkpt>
      <trkpt lat="47.22331" lon="-0.91286">
        <ele>107.2</ele>
        <time>2020-07-27T08:06:00Z</time>
      </trkpt>
      <trkpt lat="47.22314" lon="-0.91319">
        <ele>108.2</ele>
        <time>2020-07-27T08:06:07Z</time>
      </trkpt>
      <trkpt lat="47.2231" lon="-0.91323">
        <ele>108.2</ele>
        <time>2020-07-27T08:06:08Z</time>
      </trkpt>
      <trkpt lat="47.22289" lon="-0.91347">
        <ele>108.8</ele>
        <time>2020-07-27T08:06:14Z</time>
      </trkpt>
      <trkpt lat="47.22259" lon="-0.91378">
        <ele>109</ele>
        <time>2020-07-27T08:06:21Z</time>
      </trkpt>
      <trkpt lat="47.22231" lon="-0.91416">
        <ele>108.6</ele>
        <time>2020-07-27T08:06:28Z</time>
      </trkpt>
      <trkpt lat="47.22228" lon="-0.91424">
        <ele>108.4</ele>
        <time>2020-07-27T08:06:29Z</time>
      </trkpt>
      <trkpt lat="47.22226" lon="-0.91456">
        <ele>108</ele>
        <time>2020-07-27T08:06:33Z</time>
      </trkpt>
      <trkpt lat="47.22236" lon="-0.9149">
        <ele>107.6</ele>
        <time>2020-07-27T08:06:37Z</time>
      </trkpt>
      <trkpt lat="47.22239" lon="-0.91498">
        <ele>107.6</ele>
        <time>2020-07-27T08:06:38Z</time>
      </trkpt>
      <trkpt lat="47.2225" lon="-0.91523">
        <ele>107.2</ele>
        <time>2020-07-27T08:06:41Z</time>
      </trkpt>
      <trkpt lat="47.22261" lon="-0.9155">
        <ele>106.4</ele>
        <time>2020-07-27T08:06:44Z</time>
      </trkpt>
      <trkpt lat="47.22268" lon="-0.91569">
        <ele>106</ele>
        <time>2020-07-27T08:06:46Z</time>
      </trkpt>
      <trkpt lat="47.22279" lon="-0.91609">
        <ele>105.4</ele>
        <time>2020-07-27T08:06:50Z</time>
      </trkpt>
      <trkpt lat="47.22284" lon="-0.9164">
        <ele>105</ele>
        <time>2020-07-27T08:06:53Z</time>
      </trkpt>
      <trkpt lat="47.22293" lon="-0.91689">
        <ele>104.6</ele>
        <time>2020-07-27T08:06:58Z</time>
      </trkpt>
      <trkpt lat="47.22303" lon="-0.9175">
        <ele>104.8</ele>
        <time>2020-07-27T08:07:05Z</time>
      </trkpt>
      <trkpt lat="47.22308" lon="-0.91803">
        <ele>105.8</ele>
        <time>2020-07-27T08:07:12Z</time>
      </trkpt>
      <trkpt lat="47.22308" lon="-0.91816">
        <ele>106.2</ele>
        <time>2020-07-27T08:07:14Z</time>
      </trkpt>
      <trkpt lat="47.22307" lon="-0.91843">
        <ele>107.2</ele>
        <time>2020-07-27T08:07:18Z</time>
      </trkpt>
      <trkpt lat="47.22306" lon="-0.91849">
        <ele>107.4</ele>
        <time>2020-07-27T08:07:19Z</time>
      </trkpt>
      <trkpt lat="47.22304" lon="-0.91875">
        <ele>108.4</ele>
        <time>2020-07-27T08:07:23Z</time>
      </trkpt>
      <trkpt lat="47.223" lon="-0.91905">
        <ele>109.6</ele>
        <time>2020-07-27T08:07:28Z</time>
      </trkpt>
      <trkpt lat="47.22296" lon="-0.91928">
        <ele>110.6</ele>
        <time>2020-07-27T08:07:32Z</time>
      </trkpt>
      <trkpt lat="47.22288" lon="-0.91958">
        <ele>111.6</ele>
        <time>2020-07-27T08:07:37Z</time>
      </trkpt>
      <trkpt lat="47.22287" lon="-0.91964">
        <ele>111.8</ele>
        <time>2020-07-27T08:07:38Z</time>
      </trkpt>
      <trkpt lat="47.22269" lon="-0.92023">
        <ele>112.4</ele>
        <time>2020-07-27T08:07:47Z</time>
      </trkpt>
      <trkpt lat="47.22248" lon="-0.9209">
        <ele>112.4</ele>
        <time>2020-07-27T08:07:57Z</time>
      </trkpt>
      <trkpt lat="47.22235" lon="-0.92147">
        <ele>112</ele>
        <time>2020-07-27T08:08:05Z</time>
      </trkpt>
      <trkpt lat="47.22234" lon="-0.92162">
        <ele>112</ele>
        <time>2020-07-27T08:08:07Z</time>
      </trkpt>
      <trkpt lat="47.22235" lon="-0.92185">
        <ele>112</ele>
        <time>2020-07-27T08:08:10Z</time>
      </trkpt>
      <trkpt lat="47.22236" lon="-0.92193">
        <ele>112</ele>
        <time>2020-07-27T08:08:11Z</time>
      </trkpt>
      <trkpt lat="47.22239" lon="-0.92208">
        <ele>112</ele>
        <time>2020-07-27T08:08:13Z</time>
      </trkpt>
      <trkpt lat="47.22248" lon="-0.92241">
        <ele>111.6</ele>
        <time>2020-07-27T08:08:17Z</time>
      </trkpt>
      <trkpt lat="47.22266" lon="-0.92297">
        <ele>110.4</ele>
        <time>2020-07-27T08:08:23Z</time>
      </trkpt>
      <trkpt lat="47.22274" lon="-0.92328">
        <ele>109.4</ele>
        <time>2020-07-27T08:08:26Z</time>
      </trkpt>
      <trkpt lat="47.22285" lon="-0.92361">
        <ele>108.2</ele>
        <time>2020-07-27T08:08:29Z</time>
      </trkpt>
      <trkpt lat="47.22288" lon="-0.92373">
        <ele>107.8</ele>
        <time>2020-07-27T08:08:30Z</time>
      </trkpt>
      <trkpt lat="47.22296" lon="-0.92397">
        <ele>106.8</ele>
        <time>2020-07-27T08:08:32Z</time>
      </trkpt>
      <trkpt lat="47.22307" lon="-0.92434">
        <ele>105.4</ele>
        <time>2020-07-27T08:08:35Z</time>
      </trkpt>
      <trkpt lat="47.22314" lon="-0.9246">
        <ele>104.6</ele>
        <time>2020-07-27T08:08:37Z</time>
      </trkpt>
      <trkpt lat="47.22318" lon="-0.92473">
        <ele>104.2</ele>
        <time>2020-07-27T08:08:38Z</time>
      </trkpt>
      <trkpt lat="47.22331" lon="-0.92526">
        <ele>103</ele>
        <time>2020-07-27T08:08:42Z</time>
      </trkpt>
      <trkpt lat="47.22332" lon="-0.9254">
        <ele>102.6</ele>
        <time>2020-07-27T08:08:43Z</time>
      </trkpt>
      <trkpt lat="47.22332" lon="-0.92553">
        <ele>102.2</ele>
        <time>2020-07-27T08:08:44Z</time>
      </trkpt>
      <trkpt lat="47.2233" lon="-0.92567">
        <ele>102</ele>
        <time>2020-07-27T08:08:45Z</time>
      </trkpt>
      <trkpt lat="47.22322" lon="-0.92591">
        <ele>101.2</ele>
        <time>2020-07-27T08:08:47Z</time>
      </trkpt>
      <trkpt lat="47.22312" lon="-0.92613">
        <ele>100.6</ele>
        <time>2020-07-27T08:08:49Z</time>
      </trkpt>
      <trkpt lat="47.22296" lon="-0.92644">
        <ele>100.2</ele>
        <time>2020-07-27T08:08:52Z</time>
      </trkpt>
      <trkpt lat="47.22281" lon="-0.92676">
        <ele>99.6</ele>
        <time>2020-07-27T08:08:55Z</time>
      </trkpt>
      <trkpt lat="47.22267" lon="-0.92706">
        <ele>99.2</ele>
        <time>2020-07-27T08:08:58Z</time>
      </trkpt>
      <trkpt lat="47.2225" lon="-0.92744">
        <ele>98.6</ele>
        <time>2020-07-27T08:09:02Z</time>
      </trkpt>
      <trkpt lat="47.22238" lon="-0.92771">
        <ele>98.2</ele>
        <time>2020-07-27T08:09:05Z</time>
      </trkpt>
      <trkpt lat="47.22209" lon="-0.92835">
        <ele>98.2</ele>
        <time>2020-07-27T08:09:13Z</time>
      </trkpt>
      <trkpt lat="47.2218" lon="-0.92899">
        <ele>98.2</ele>
        <time>2020-07-27T08:09:21Z</time>
      </trkpt>
      <trkpt lat="47.22148" lon="-0.9297">
        <ele>98.6</ele>
        <time>2020-07-27T08:09:30Z</time>
      </trkpt>
      <trkpt lat="47.22129" lon="-0.93013">
        <ele>99.6</ele>
        <time>2020-07-27T08:09:36Z</time>
      </trkpt>
      <trkpt lat="47.2212" lon="-0.93033">
        <ele>100</ele>
        <time>2020-07-27T08:09:39Z</time>
      </trkpt>
      <trkpt lat="47.22109" lon="-0.93059">
        <ele>100.8</ele>
        <time>2020-07-27T08:09:43Z</time>
      </trkpt>
      <trkpt lat="47.22098" lon="-0.93082">
        <ele>101.4</ele>
        <time>2020-07-27T08:09:47Z</time>
      </trkpt>
      <trkpt lat="47.22091" lon="-0.93097">
        <ele>101.8</ele>
        <time>2020-07-27T08:09:50Z</time>
      </trkpt>
      <trkpt lat="47.22078" lon="-0.93122">
        <ele>103</ele>
        <time>2020-07-27T08:09:55Z</time>
      </trkpt>
      <trkpt lat="47.22076" lon="-0.93126">
        <ele>103.2</ele>
        <time>2020-07-27T08:09:56Z</time>
      </trkpt>
      <trkpt lat="47.22065" lon="-0.93144">
        <ele>104</ele>
        <time>2020-07-27T08:10:00Z</time>
      </trkpt>
      <trkpt lat="47.22055" lon="-0.93156">
        <ele>104.4</ele>
        <time>2020-07-27T08:10:03Z</time>
      </trkpt>
      <trkpt lat="47.22042" lon="-0.93169">
        <ele>105</ele>
        <time>2020-07-27T08:10:07Z</time>
      </trkpt>
      <trkpt lat="47.2202" lon="-0.93188">
        <ele>106.2</ele>
        <time>2020-07-27T08:10:13Z</time>
      </trkpt>
      <trkpt lat="47.22017" lon="-0.93192">
        <ele>106.4</ele>
        <time>2020-07-27T08:10:14Z</time>
      </trkpt>
      <trkpt lat="47.2199" lon="-0.93215">
        <ele>107.2</ele>
        <time>2020-07-27T08:10:21Z</time>
      </trkpt>
      <trkpt lat="47.21986" lon="-0.93218">
        <ele>107.2</ele>
        <time>2020-07-27T08:10:22Z</time>
      </trkpt>
      <trkpt lat="47.21951" lon="-0.93249">
        <ele>108.2</ele>
        <time>2020-07-27T08:10:31Z</time>
      </trkpt>
      <trkpt lat="47.21919" lon="-0.93285">
        <ele>108.6</ele>
        <time>2020-07-27T08:10:39Z</time>
      </trkpt>
      <trkpt lat="47.2188" lon="-0.9334">
        <ele>108.6</ele>
        <time>2020-07-27T08:10:48Z</time>
      </trkpt>
      <trkpt lat="47.21844" lon="-0.934">
        <ele>108.6</ele>
        <time>2020-07-27T08:10:56Z</time>
      </trkpt>
      <trkpt lat="47.2181" lon="-0.93462">
        <ele>107.6</ele>
        <time>2020-07-27T08:11:03Z</time>
      </trkpt>
      <trkpt lat="47.21805" lon="-0.93472">
        <ele>107.4</ele>
        <time>2020-07-27T08:11:04Z</time>
      </trkpt>
      <trkpt lat="47.21794" lon="-0.93493">
        <ele>107</ele>
        <time>2020-07-27T08:11:06Z</time>
      </trkpt>
      <trkpt lat="47.21772" lon="-0.93535">
        <ele>106</ele>
        <time>2020-07-27T08:11:10Z</time>
      </trkpt>
      <trkpt lat="47.21761" lon="-0.93556">
        <ele>105.4</ele>
        <time>2020-07-27T08:11:12Z</time>
      </trkpt>
      <trkpt lat="47.21749" lon="-0.93576">
        <ele>104.8</ele>
        <time>2020-07-27T08:11:14Z</time>
      </trkpt>
      <trkpt lat="47.2173" lon="-0.93604">
        <ele>103.6</ele>
        <time>2020-07-27T08:11:17Z</time>
      </trkpt>
      <trkpt lat="47.21716" lon="-0.93621">
        <ele>102.8</ele>
        <time>2020-07-27T08:11:19Z</time>
      </trkpt>
      <trkpt lat="47.21709" lon="-0.93628">
        <ele>102.6</ele>
        <time>2020-07-27T08:11:20Z</time>
      </trkpt>
      <trkpt lat="47.21687" lon="-0.93647">
        <ele>101.4</ele>
        <time>2020-07-27T08:11:23Z</time>
      </trkpt>
      <trkpt lat="47.21681" lon="-0.93653">
        <ele>101.2</ele>
        <time>2020-07-27T08:11:24Z</time>
      </trkpt>
      <trkpt lat="47.21661" lon="-0.93669">
        <ele>100.2</ele>
        <time>2020-07-27T08:11:27Z</time>
      </trkpt>
      <trkpt lat="47.21638" lon="-0.93689">
        <ele>99.6</ele>
        <time>2020-07-27T08:11:31Z</time>
      </trkpt>
      <trkpt lat="47.21618" lon="-0.9371">
        <ele>99.2</ele>
        <time>2020-07-27T08:11:35Z</time>
      </trkpt>
      <trkpt lat="47.2161" lon="-0.93722">
        <ele>98.8</ele>
        <time>2020-07-27T08:11:37Z</time>
      </trkpt>
      <trkpt lat="47.21582" lon="-0.93773">
        <ele>99</ele>
        <time>2020-07-27T08:11:45Z</time>
      </trkpt>
      <trkpt lat="47.2155" lon="-0.93845">
        <ele>99.2</ele>
        <time>2020-07-27T08:11:56Z</time>
      </trkpt>
      <trkpt lat="47.21547" lon="-0.93851">
        <ele>99.2</ele>
        <time>2020-07-27T08:11:57Z</time>
      </trkpt>
      <trkpt lat="47.21521" lon="-0.93894">
        <ele>99.4</ele>
        <time>2020-07-27T08:12:05Z</time>
      </trkpt>
      <trkpt lat="47.21489" lon="-0.93938">
        <ele>100</ele>
        <time>2020-07-27T08:12:14Z</time>
      </trkpt>
      <trkpt lat="47.21469" lon="-0.93967">
        <ele>100.4</ele>
        <time>2020-07-27T08:12:20Z</time>
      </trkpt>
      <trkpt lat="47.21463" lon="-0.93977">
        <ele>100.6</ele>
        <time>2020-07-27T08:12:22Z</time>
      </trkpt>
      <trkpt lat="47.2144" lon="-0.94022">
        <ele>101</ele>
        <time>2020-07-27T08:12:30Z</time>
      </trkpt>
      <trkpt lat="47.21434" lon="-0.94041">
        <ele>101.4</ele>
        <time>2020-07-27T08:12:33Z</time>
      </trkpt>
      <trkpt lat="47.21424" lon="-0.94075">
        <ele>101.8</ele>
        <time>2020-07-27T08:12:38Z</time>
      </trkpt>
      <trkpt lat="47.21408" lon="-0.94136">
        <ele>101.8</ele>
        <time>2020-07-27T08:12:46Z</time>
      </trkpt>
      <trkpt lat="47.21383" lon="-0.942">
        <ele>101.8</ele>
        <time>2020-07-27T08:12:55Z</time>
      </trkpt>
      <trkpt lat="47.21355" lon="-0.94253">
        <ele>101.4</ele>
        <time>2020-07-27T08:13:03Z</time>
      </trkpt>
      <trkpt lat="47.2132" lon="-0.94304">
        <ele>101.2</ele>
        <time>2020-07-27T08:13:11Z</time>
      </trkpt>
      <trkpt lat="47.21286" lon="-0.94356">
        <ele>100.8</ele>
        <time>2020-07-27T08:13:19Z</time>
      </trkpt>
      <trkpt lat="47.21262" lon="-0.94396">
        <ele>100.4</ele>
        <time>2020-07-27T08:13:25Z</time>
      </trkpt>
      <trkpt lat="47.21254" lon="-0.94409">
        <ele>100.4</ele>
        <time>2020-07-27T08:13:27Z</time>
      </trkpt>
      <trkpt lat="47.21217" lon="-0.9447">
        <ele>99.8</ele>
        <time>2020-07-27T08:13:36Z</time>
      </trkpt>
      <trkpt lat="47.21189" lon="-0.94529">
        <ele>99.8</ele>
        <time>2020-07-27T08:13:44Z</time>
      </trkpt>
      <trkpt lat="47.21163" lon="-0.94597">
        <ele>99.6</ele>
        <time>2020-07-27T08:13:53Z</time>
      </trkpt>
      <trkpt lat="47.21148" lon="-0.94632">
        <ele>99.8</ele>
        <time>2020-07-27T08:13:58Z</time>
      </trkpt>
      <trkpt lat="47.21141" lon="-0.94644">
        <ele>99.6</ele>
        <time>2020-07-27T08:14:00Z</time>
      </trkpt>
      <trkpt lat="47.21109" lon="-0.94694">
        <ele>99.6</ele>
        <time>2020-07-27T08:14:08Z</time>
      </trkpt>
      <trkpt lat="47.21083" lon="-0.94731">
        <ele>99.4</ele>
        <time>2020-07-27T08:14:14Z</time>
      </trkpt>
      <trkpt lat="47.21073" lon="-0.94754">
        <ele>98.8</ele>
        <time>2020-07-27T08:14:17Z</time>
      </trkpt>
      <trkpt lat="47.21068" lon="-0.94771">
        <ele>98.2</ele>
        <time>2020-07-27T08:14:19Z</time>
      </trkpt>
      <trkpt lat="47.21061" lon="-0.94798">
        <ele>97.6</ele>
        <time>2020-07-27T08:14:22Z</time>
      </trkpt>
      <trkpt lat="47.21054" lon="-0.94825">
        <ele>97</ele>
        <time>2020-07-27T08:14:25Z</time>
      </trkpt>
      <trkpt lat="47.2104" lon="-0.94881">
        <ele>96</ele>
        <time>2020-07-27T08:14:31Z</time>
      </trkpt>
      <trkpt lat="47.21032" lon="-0.94908">
        <ele>95.4</ele>
        <time>2020-07-27T08:14:34Z</time>
      </trkpt>
      <trkpt lat="47.21021" lon="-0.94958">
        <ele>94.8</ele>
        <time>2020-07-27T08:14:39Z</time>
      </trkpt>
      <trkpt lat="47.21019" lon="-0.94968">
        <ele>94.8</ele>
        <time>2020-07-27T08:14:40Z</time>
      </trkpt>
      <trkpt lat="47.21002" lon="-0.95044">
        <ele>94.4</ele>
        <time>2020-07-27T08:14:48Z</time>
      </trkpt>
      <trkpt lat="47.20995" lon="-0.95109">
        <ele>95.2</ele>
        <time>2020-07-27T08:14:55Z</time>
      </trkpt>
      <trkpt lat="47.20986" lon="-0.95181">
        <ele>95.8</ele>
        <time>2020-07-27T08:15:03Z</time>
      </trkpt>
      <trkpt lat="47.20985" lon="-0.9519">
        <ele>96</ele>
        <time>2020-07-27T08:15:04Z</time>
      </trkpt>
      <trkpt lat="47.2098" lon="-0.95254">
        <ele>96.2</ele>
        <time>2020-07-27T08:15:11Z</time>
      </trkpt>
      <trkpt lat="47.20973" lon="-0.95335">
        <ele>96.4</ele>
        <time>2020-07-27T08:15:19Z</time>
      </trkpt>
      <trkpt lat="47.20964" lon="-0.95376">
        <ele>96.2</ele>
        <time>2020-07-27T08:15:23Z</time>
      </trkpt>
      <trkpt lat="47.20957" lon="-0.95394">
        <ele>96</ele>
        <time>2020-07-27T08:15:25Z</time>
      </trkpt>
      <trkpt lat="47.20929" lon="-0.95456">
        <ele>95.8</ele>
        <time>2020-07-27T08:15:32Z</time>
      </trkpt>
      <trkpt lat="47.20898" lon="-0.95522">
        <ele>95.2</ele>
        <time>2020-07-27T08:15:40Z</time>
      </trkpt>
      <trkpt lat="47.20895" lon="-0.9553">
        <ele>95.2</ele>
        <time>2020-07-27T08:15:41Z</time>
      </trkpt>
      <trkpt lat="47.20884" lon="-0.95552">
        <ele>95.2</ele>
        <time>2020-07-27T08:15:44Z</time>
      </trkpt>
      <trkpt lat="47.20876" lon="-0.95565">
        <ele>95</ele>
        <time>2020-07-27T08:15:46Z</time>
      </trkpt>
      <trkpt lat="47.20871" lon="-0.9557">
        <ele>95</ele>
        <time>2020-07-27T08:15:47Z</time>
      </trkpt>
      <trkpt lat="47.2086" lon="-0.95573">
        <ele>94.8</ele>
        <time>2020-07-27T08:15:49Z</time>
      </trkpt>
      <trkpt lat="47.20854" lon="-0.95574">
        <ele>94.6</ele>
        <time>2020-07-27T08:15:50Z</time>
      </trkpt>
      <trkpt lat="47.20828" lon="-0.95578">
        <ele>94.2</ele>
        <time>2020-07-27T08:15:55Z</time>
      </trkpt>
      <trkpt lat="47.20822" lon="-0.95595">
        <ele>93.6</ele>
        <time>2020-07-27T08:15:58Z</time>
      </trkpt>
      <trkpt lat="47.20821" lon="-0.95611">
        <ele>93.4</ele>
        <time>2020-07-27T08:16:00Z</time>
      </trkpt>
      <trkpt lat="47.20821" lon="-0.95628">
        <ele>93</ele>
        <time>2020-07-27T08:16:02Z</time>
      </trkpt>
      <trkpt lat="47.20821" lon="-0.95638">
        <ele>92.4</ele>
        <time>2020-07-27T08:16:03Z</time>
      </trkpt>
      <trkpt lat="47.20818" lon="-0.95678">
        <ele>91.4</ele>
        <time>2020-07-27T08:16:07Z</time>
      </trkpt>
      <trkpt lat="47.20817" lon="-0.95689">
        <ele>91</ele>
        <time>2020-07-27T08:16:08Z</time>
      </trkpt>
      <trkpt lat="47.20813" lon="-0.95711">
        <ele>90.4</ele>
        <time>2020-07-27T08:16:10Z</time>
      </trkpt>
      <trkpt lat="47.20805" lon="-0.95759">
        <ele>89</ele>
        <time>2020-07-27T08:16:14Z</time>
      </trkpt>
      <trkpt lat="47.20802" lon="-0.95771">
        <ele>88.6</ele>
        <time>2020-07-27T08:16:15Z</time>
      </trkpt>
      <trkpt lat="47.20799" lon="-0.95784">
        <ele>87.8</ele>
        <time>2020-07-27T08:16:16Z</time>
      </trkpt>
      <trkpt lat="47.20788" lon="-0.95821">
        <ele>86.6</ele>
        <time>2020-07-27T08:16:19Z</time>
      </trkpt>
      <trkpt lat="47.2078" lon="-0.95846">
        <ele>85.8</ele>
        <time>2020-07-27T08:16:21Z</time>
      </trkpt>
      <trkpt lat="47.20775" lon="-0.95859">
        <ele>85.2</ele>
        <time>2020-07-27T08:16:22Z</time>
      </trkpt>
      <trkpt lat="47.20761" lon="-0.95899">
        <ele>84</ele>
        <time>2020-07-27T08:16:25Z</time>
      </trkpt>
      <trkpt lat="47.20752" lon="-0.95927">
        <ele>82.8</ele>
        <time>2020-07-27T08:16:27Z</time>
      </trkpt>
      <trkpt lat="47.20742" lon="-0.95972">
        <ele>81.8</ele>
        <time>2020-07-27T08:16:30Z</time>
      </trkpt>
      <trkpt lat="47.20737" lon="-0.96003">
        <ele>80.8</ele>
        <time>2020-07-27T08:16:32Z</time>
      </trkpt>
      <trkpt lat="47.20735" lon="-0.96019">
        <ele>79.8</ele>
        <time>2020-07-27T08:16:33Z</time>
      </trkpt>
      <trkpt lat="47.20734" lon="-0.96035">
        <ele>79.4</ele>
        <time>2020-07-27T08:16:34Z</time>
      </trkpt>
      <trkpt lat="47.20732" lon="-0.96067">
        <ele>78.2</ele>
        <time>2020-07-27T08:16:36Z</time>
      </trkpt>
      <trkpt lat="47.20732" lon="-0.96098">
        <ele>77.2</ele>
        <time>2020-07-27T08:16:38Z</time>
      </trkpt>
      <trkpt lat="47.20732" lon="-0.96113">
        <ele>76.8</ele>
        <time>2020-07-27T08:16:39Z</time>
      </trkpt>
      <trkpt lat="47.20732" lon="-0.96168">
        <ele>76.2</ele>
        <time>2020-07-27T08:16:43Z</time>
      </trkpt>
      <trkpt lat="47.20733" lon="-0.96225">
        <ele>76.6</ele>
        <time>2020-07-27T08:16:48Z</time>
      </trkpt>
      <trkpt lat="47.20734" lon="-0.96278">
        <ele>78.2</ele>
        <time>2020-07-27T08:16:54Z</time>
      </trkpt>
      <trkpt lat="47.20734" lon="-0.96316">
        <ele>79.4</ele>
        <time>2020-07-27T08:16:59Z</time>
      </trkpt>
      <trkpt lat="47.20734" lon="-0.96336">
        <ele>79.8</ele>
        <time>2020-07-27T08:17:02Z</time>
      </trkpt>
      <trkpt lat="47.20734" lon="-0.96357">
        <ele>80.6</ele>
        <time>2020-07-27T08:17:05Z</time>
      </trkpt>
      <trkpt lat="47.20734" lon="-0.96395">
        <ele>81.6</ele>
        <time>2020-07-27T08:17:11Z</time>
      </trkpt>
      <trkpt lat="47.20734" lon="-0.96442">
        <ele>82.8</ele>
        <time>2020-07-27T08:17:19Z</time>
      </trkpt>
      <trkpt lat="47.20734" lon="-0.96471">
        <ele>84</ele>
        <time>2020-07-27T08:17:24Z</time>
      </trkpt>
      <trkpt lat="47.20734" lon="-0.96488">
        <ele>84.4</ele>
        <time>2020-07-27T08:17:27Z</time>
      </trkpt>
      <trkpt lat="47.20733" lon="-0.96505">
        <ele>85</ele>
        <time>2020-07-27T08:17:30Z</time>
      </trkpt>
      <trkpt lat="47.20733" lon="-0.96533">
        <ele>86.2</ele>
        <time>2020-07-27T08:17:35Z</time>
      </trkpt>
      <trkpt lat="47.20732" lon="-0.96555">
        <ele>87.4</ele>
        <time>2020-07-27T08:17:39Z</time>
      </trkpt>
      <trkpt lat="47.20729" lon="-0.96577">
        <ele>88.2</ele>
        <time>2020-07-27T08:17:43Z</time>
      </trkpt>
      <trkpt lat="47.20729" lon="-0.96582">
        <ele>88.4</ele>
        <time>2020-07-27T08:17:44Z</time>
      </trkpt>
      <trkpt lat="47.20723" lon="-0.96625">
        <ele>89.4</ele>
        <time>2020-07-27T08:17:52Z</time>
      </trkpt>
      <trkpt lat="47.20722" lon="-0.9663">
        <ele>89.4</ele>
        <time>2020-07-27T08:17:53Z</time>
      </trkpt>
      <trkpt lat="47.20713" lon="-0.96678">
        <ele>90.2</ele>
        <time>2020-07-27T08:18:02Z</time>
      </trkpt>
      <trkpt lat="47.20705" lon="-0.96714">
        <ele>90.6</ele>
        <time>2020-07-27T08:18:09Z</time>
      </trkpt>
      <trkpt lat="47.20701" lon="-0.96733">
        <ele>91.4</ele>
        <time>2020-07-27T08:18:13Z</time>
      </trkpt>
      <trkpt lat="47.207" lon="-0.96739">
        <ele>91.6</ele>
        <time>2020-07-27T08:18:14Z</time>
      </trkpt>
      <trkpt lat="47.20695" lon="-0.96763">
        <ele>92.8</ele>
        <time>2020-07-27T08:18:19Z</time>
      </trkpt>
      <trkpt lat="47.20688" lon="-0.96798">
        <ele>93.6</ele>
        <time>2020-07-27T08:18:26Z</time>
      </trkpt>
      <trkpt lat="47.20687" lon="-0.96803">
        <ele>93.8</ele>
        <time>2020-07-27T08:18:27Z</time>
      </trkpt>
      <trkpt lat="47.20678" lon="-0.9685">
        <ele>94.8</ele>
        <time>2020-07-27T08:18:36Z</time>
      </trkpt>
      <trkpt lat="47.20677" lon="-0.96856">
        <ele>95</ele>
        <time>2020-07-27T08:18:37Z</time>
      </trkpt>
      <trkpt lat="47.20667" lon="-0.96903">
        <ele>96</ele>
        <time>2020-07-27T08:18:45Z</time>
      </trkpt>
      <trkpt lat="47.20663" lon="-0.9692">
        <ele>96.2</ele>
        <time>2020-07-27T08:18:48Z</time>
      </trkpt>
      <trkpt lat="47.20657" lon="-0.96952">
        <ele>97</ele>
        <time>2020-07-27T08:18:53Z</time>
      </trkpt>
      <trkpt lat="47.20655" lon="-0.96965">
        <ele>97</ele>
        <time>2020-07-27T08:18:55Z</time>
      </trkpt>
      <trkpt lat="47.20642" lon="-0.97028">
        <ele>97.6</ele>
        <time>2020-07-27T08:19:04Z</time>
      </trkpt>
      <trkpt lat="47.20636" lon="-0.97058">
        <ele>98</ele>
        <time>2020-07-27T08:19:08Z</time>
      </trkpt>
      <trkpt lat="47.20628" lon="-0.97098">
        <ele>98.6</ele>
        <time>2020-07-27T08:19:13Z</time>
      </trkpt>
      <trkpt lat="47.20614" lon="-0.97168">
        <ele>99</ele>
        <time>2020-07-27T08:19:21Z</time>
      </trkpt>
      <trkpt lat="47.20597" lon="-0.97253">
        <ele>98.8</ele>
        <time>2020-07-27T08:19:30Z</time>
      </trkpt>
      <trkpt lat="47.20583" lon="-0.97311">
        <ele>98.8</ele>
        <time>2020-07-27T08:19:37Z</time>
      </trkpt>
      <trkpt lat="47.20565" lon="-0.97359">
        <ele>98.8</ele>
        <time>2020-07-27T08:19:44Z</time>
      </trkpt>
      <trkpt lat="47.20552" lon="-0.97395">
        <ele>99.2</ele>
        <time>2020-07-27T08:19:50Z</time>
      </trkpt>
      <trkpt lat="47.20551" lon="-0.97402">
        <ele>99.2</ele>
        <time>2020-07-27T08:19:51Z</time>
      </trkpt>
      <trkpt lat="47.20555" lon="-0.97419">
        <ele>99.6</ele>
        <time>2020-07-27T08:19:54Z</time>
      </trkpt>
      <trkpt lat="47.20567" lon="-0.97431">
        <ele>99.6</ele>
        <time>2020-07-27T08:19:57Z</time>
      </trkpt>
      <trkpt lat="47.20571" lon="-0.97434">
        <ele>99.6</ele>
        <time>2020-07-27T08:19:58Z</time>
      </trkpt>
      <trkpt lat="47.20576" lon="-0.97439">
        <ele>99.6</ele>
        <time>2020-07-27T08:19:59Z</time>
      </trkpt>
      <trkpt lat="47.20585" lon="-0.97457">
        <ele>99.6</ele>
        <time>2020-07-27T08:20:02Z</time>
      </trkpt>
      <trkpt lat="47.20591" lon="-0.97489">
        <ele>99.6</ele>
        <time>2020-07-27T08:20:07Z</time>
      </trkpt>
      <trkpt lat="47.20584" lon="-0.9752">
        <ele>100.2</ele>
        <time>2020-07-27T08:20:12Z</time>
      </trkpt>
      <trkpt lat="47.20581" lon="-0.97526">
        <ele>100.2</ele>
        <time>2020-07-27T08:20:13Z</time>
      </trkpt>
      <trkpt lat="47.20567" lon="-0.97543">
        <ele>100.6</ele>
        <time>2020-07-27T08:20:17Z</time>
      </trkpt>
      <trkpt lat="47.20555" lon="-0.97549">
        <ele>101.2</ele>
        <time>2020-07-27T08:20:20Z</time>
      </trkpt>
      <trkpt lat="47.2055" lon="-0.9755">
        <ele>101.4</ele>
        <time>2020-07-27T08:20:21Z</time>
      </trkpt>
      <trkpt lat="47.20545" lon="-0.97551">
        <ele>101.6</ele>
        <time>2020-07-27T08:20:22Z</time>
      </trkpt>
      <trkpt lat="47.20541" lon="-0.97553">
        <ele>101.8</ele>
        <time>2020-07-27T08:20:23Z</time>
      </trkpt>
      <trkpt lat="47.20529" lon="-0.97566">
        <ele>102.2</ele>
        <time>2020-07-27T08:20:26Z</time>
      </trkpt>
      <trkpt lat="47.20525" lon="-0.97579">
        <ele>102.2</ele>
        <time>2020-07-27T08:20:28Z</time>
      </trkpt>
      <trkpt lat="47.20523" lon="-0.97586">
        <ele>102.4</ele>
        <time>2020-07-27T08:20:29Z</time>
      </trkpt>
      <trkpt lat="47.20523" lon="-0.97602">
        <ele>102.6</ele>
        <time>2020-07-27T08:20:31Z</time>
      </trkpt>
      <trkpt lat="47.20521" lon="-0.97624">
        <ele>103.4</ele>
        <time>2020-07-27T08:20:34Z</time>
      </trkpt>
      <trkpt lat="47.2052" lon="-0.97632">
        <ele>103.6</ele>
        <time>2020-07-27T08:20:35Z</time>
      </trkpt>
      <trkpt lat="47.20512" lon="-0.97676">
        <ele>103.2</ele>
        <time>2020-07-27T08:20:41Z</time>
      </trkpt>
      <trkpt lat="47.205" lon="-0.97737">
        <ele>102</ele>
        <time>2020-07-27T08:20:49Z</time>
      </trkpt>
      <trkpt lat="47.20496" lon="-0.97763">
        <ele>100.8</ele>
        <time>2020-07-27T08:20:52Z</time>
      </trkpt>
      <trkpt lat="47.20496" lon="-0.97772">
        <ele>100.4</ele>
        <time>2020-07-27T08:20:53Z</time>
      </trkpt>
      <trkpt lat="47.20496" lon="-0.97781">
        <ele>100.2</ele>
        <time>2020-07-27T08:20:54Z</time>
      </trkpt>
      <trkpt lat="47.20492" lon="-0.97798">
        <ele>99.6</ele>
        <time>2020-07-27T08:20:56Z</time>
      </trkpt>
      <trkpt lat="47.2049" lon="-0.97807">
        <ele>99.2</ele>
        <time>2020-07-27T08:20:57Z</time>
      </trkpt>
      <trkpt lat="47.20482" lon="-0.97837">
        <ele>98.2</ele>
        <time>2020-07-27T08:21:00Z</time>
      </trkpt>
      <trkpt lat="47.20478" lon="-0.97859">
        <ele>97.6</ele>
        <time>2020-07-27T08:21:02Z</time>
      </trkpt>
      <trkpt lat="47.20475" lon="-0.9787">
        <ele>97.2</ele>
        <time>2020-07-27T08:21:03Z</time>
      </trkpt>
      <trkpt lat="47.20466" lon="-0.97914">
        <ele>95.8</ele>
        <time>2020-07-27T08:21:07Z</time>
      </trkpt>
      <trkpt lat="47.20459" lon="-0.97948">
        <ele>95</ele>
        <time>2020-07-27T08:21:10Z</time>
      </trkpt>
      <trkpt lat="47.20456" lon="-0.97959">
        <ele>94.8</ele>
        <time>2020-07-27T08:21:11Z</time>
      </trkpt>
      <trkpt lat="47.20441" lon="-0.98037">
        <ele>94</ele>
        <time>2020-07-27T08:21:18Z</time>
      </trkpt>
      <trkpt lat="47.20434" lon="-0.98077">
        <ele>93.8</ele>
        <time>2020-07-27T08:21:22Z</time>
      </trkpt>
      <trkpt lat="47.20429" lon="-0.98104">
        <ele>93.6</ele>
        <time>2020-07-27T08:21:25Z</time>
      </trkpt>
      <trkpt lat="47.20414" lon="-0.98172">
        <ele>93.4</ele>
        <time>2020-07-27T08:21:33Z</time>
      </trkpt>
      <trkpt lat="47.20411" lon="-0.98187">
        <ele>93.6</ele>
        <time>2020-07-27T08:21:35Z</time>
      </trkpt>
      <trkpt lat="47.20401" lon="-0.98215">
        <ele>93.8</ele>
        <time>2020-07-27T08:21:39Z</time>
      </trkpt>
      <trkpt lat="47.20383" lon="-0.9826">
        <ele>94.4</ele>
        <time>2020-07-27T08:21:46Z</time>
      </trkpt>
      <trkpt lat="47.20363" lon="-0.98301">
        <ele>94.8</ele>
        <time>2020-07-27T08:21:53Z</time>
      </trkpt>
      <trkpt lat="47.20358" lon="-0.98312">
        <ele>95</ele>
        <time>2020-07-27T08:21:55Z</time>
      </trkpt>
      <trkpt lat="47.20334" lon="-0.98361">
        <ele>95.4</ele>
        <time>2020-07-27T08:22:04Z</time>
      </trkpt>
      <trkpt lat="47.2032" lon="-0.98389">
        <ele>96</ele>
        <time>2020-07-27T08:22:09Z</time>
      </trkpt>
      <trkpt lat="47.20315" lon="-0.98401">
        <ele>96.2</ele>
        <time>2020-07-27T08:22:11Z</time>
      </trkpt>
      <trkpt lat="47.20302" lon="-0.98434">
        <ele>97</ele>
        <time>2020-07-27T08:22:17Z</time>
      </trkpt>
      <trkpt lat="47.203" lon="-0.9844">
        <ele>97</ele>
        <time>2020-07-27T08:22:18Z</time>
      </trkpt>
      <trkpt lat="47.20279" lon="-0.98481">
        <ele>97</ele>
        <time>2020-07-27T08:22:26Z</time>
      </trkpt>
      <trkpt lat="47.20259" lon="-0.98518">
        <ele>97.2</ele>
        <time>2020-07-27T08:22:33Z</time>
      </trkpt>
      <trkpt lat="47.20235" lon="-0.9857">
        <ele>97.8</ele>
        <time>2020-07-27T08:22:42Z</time>
      </trkpt>
      <trkpt lat="47.20228" lon="-0.9859">
        <ele>97.6</ele>
        <time>2020-07-27T08:22:45Z</time>
      </trkpt>
      <trkpt lat="47.20227" lon="-0.98602">
        <ele>97.4</ele>
        <time>2020-07-27T08:22:47Z</time>
      </trkpt>
      <trkpt lat="47.20229" lon="-0.98618">
        <ele>97.4</ele>
        <time>2020-07-27T08:22:51Z</time>
      </trkpt>
      <trkpt lat="47.2022" lon="-0.98634">
        <ele>97.2</ele>
        <time>2020-07-27T08:22:55Z</time>
      </trkpt>
      <trkpt lat="47.20213" lon="-0.98657">
        <ele>96.8</ele>
        <time>2020-07-27T08:22:59Z</time>
      </trkpt>
      <trkpt lat="47.20211" lon="-0.98678">
        <ele>96.2</ele>
        <time>2020-07-27T08:23:02Z</time>
      </trkpt>
      <trkpt lat="47.2021" lon="-0.98693">
        <ele>96</ele>
        <time>2020-07-27T08:23:04Z</time>
      </trkpt>
      <trkpt lat="47.20206" lon="-0.9877">
        <ele>95.4</ele>
        <time>2020-07-27T08:23:13Z</time>
      </trkpt>
      <trkpt lat="47.20204" lon="-0.98799">
        <ele>94.8</ele>
        <time>2020-07-27T08:23:16Z</time>
      </trkpt>
      <trkpt lat="47.20202" lon="-0.98831">
        <ele>94.2</ele>
        <time>2020-07-27T08:23:19Z</time>
      </trkpt>
      <trkpt lat="47.20199" lon="-0.98866">
        <ele>93.6</ele>
        <time>2020-07-27T08:23:22Z</time>
      </trkpt>
      <trkpt lat="47.20195" lon="-0.98905">
        <ele>92.6</ele>
        <time>2020-07-27T08:23:25Z</time>
      </trkpt>
      <trkpt lat="47.20194" lon="-0.98918">
        <ele>92.4</ele>
        <time>2020-07-27T08:23:26Z</time>
      </trkpt>
      <trkpt lat="47.20191" lon="-0.98954">
        <ele>91</ele>
        <time>2020-07-27T08:23:29Z</time>
      </trkpt>
      <trkpt lat="47.20189" lon="-0.98979">
        <ele>89.8</ele>
        <time>2020-07-27T08:23:31Z</time>
      </trkpt>
      <trkpt lat="47.20187" lon="-0.99016">
        <ele>88.4</ele>
        <time>2020-07-27T08:23:34Z</time>
      </trkpt>
      <trkpt lat="47.20186" lon="-0.99036">
        <ele>87.6</ele>
        <time>2020-07-27T08:23:36Z</time>
      </trkpt>
      <trkpt lat="47.20185" lon="-0.99046">
        <ele>87.2</ele>
        <time>2020-07-27T08:23:37Z</time>
      </trkpt>
      <trkpt lat="47.20182" lon="-0.99078">
        <ele>85.8</ele>
        <time>2020-07-27T08:23:40Z</time>
      </trkpt>
      <trkpt lat="47.2018" lon="-0.99099">
        <ele>84.8</ele>
        <time>2020-07-27T08:23:42Z</time>
      </trkpt>
      <trkpt lat="47.2018" lon="-0.99109">
        <ele>84.4</ele>
        <time>2020-07-27T08:23:43Z</time>
      </trkpt>
      <trkpt lat="47.20178" lon="-0.99127">
        <ele>83.4</ele>
        <time>2020-07-27T08:23:45Z</time>
      </trkpt>
      <trkpt lat="47.20178" lon="-0.99144">
        <ele>82.2</ele>
        <time>2020-07-27T08:23:47Z</time>
      </trkpt>
      <trkpt lat="47.20178" lon="-0.99153">
        <ele>81.6</ele>
        <time>2020-07-27T08:23:48Z</time>
      </trkpt>
      <trkpt lat="47.20177" lon="-0.99161">
        <ele>81.2</ele>
        <time>2020-07-27T08:23:49Z</time>
      </trkpt>
      <trkpt lat="47.20174" lon="-0.99178">
        <ele>80</ele>
        <time>2020-07-27T08:23:51Z</time>
      </trkpt>
      <trkpt lat="47.20173" lon="-0.99187">
        <ele>79.4</ele>
        <time>2020-07-27T08:23:52Z</time>
      </trkpt>
      <trkpt lat="47.20173" lon="-0.99196">
        <ele>79</ele>
        <time>2020-07-27T08:23:53Z</time>
      </trkpt>
      <trkpt lat="47.20171" lon="-0.99224">
        <ele>77.6</ele>
        <time>2020-07-27T08:23:56Z</time>
      </trkpt>
      <trkpt lat="47.20169" lon="-0.99253">
        <ele>76.2</ele>
        <time>2020-07-27T08:23:59Z</time>
      </trkpt>
      <trkpt lat="47.20169" lon="-0.99263">
        <ele>75.6</ele>
        <time>2020-07-27T08:24:00Z</time>
      </trkpt>
      <trkpt lat="47.20168" lon="-0.99273">
        <ele>75</ele>
        <time>2020-07-27T08:24:01Z</time>
      </trkpt>
      <trkpt lat="47.20167" lon="-0.99291">
        <ele>73.8</ele>
        <time>2020-07-27T08:24:03Z</time>
      </trkpt>
      <trkpt lat="47.20166" lon="-0.99319">
        <ele>72.4</ele>
        <time>2020-07-27T08:24:06Z</time>
      </trkpt>
      <trkpt lat="47.20165" lon="-0.99342">
        <ele>71.2</ele>
        <time>2020-07-27T08:24:09Z</time>
      </trkpt>
      <trkpt lat="47.20165" lon="-0.99352">
        <ele>70.2</ele>
        <time>2020-07-27T08:24:11Z</time>
      </trkpt>
      <trkpt lat="47.20166" lon="-0.99354">
        <ele>69.8</ele>
        <time>2020-07-27T08:24:12Z</time>
      </trkpt>
      <trkpt lat="47.20168" lon="-0.99356">
        <ele>68.6</ele>
        <time>2020-07-27T08:24:16Z</time>
      </trkpt>
      <trkpt lat="47.2017" lon="-0.99363">
        <ele>68.2</ele>
        <time>2020-07-27T08:24:18Z</time>
      </trkpt>
      <trkpt lat="47.20169" lon="-0.99371">
        <ele>68</ele>
        <time>2020-07-27T08:24:20Z</time>
      </trkpt>
      <trkpt lat="47.20165" lon="-0.99378">
        <ele>67.6</ele>
        <time>2020-07-27T08:24:22Z</time>
      </trkpt>
      <trkpt lat="47.20141" lon="-0.99405">
        <ele>66.4</ele>
        <time>2020-07-27T08:24:28Z</time>
      </trkpt>
      <trkpt lat="47.20121" lon="-0.99427">
        <ele>65.2</ele>
        <time>2020-07-27T08:24:32Z</time>
      </trkpt>
      <trkpt lat="47.20105" lon="-0.99445">
        <ele>64.2</ele>
        <time>2020-07-27T08:24:35Z</time>
      </trkpt>
      <trkpt lat="47.20089" lon="-0.99464">
        <ele>63.2</ele>
        <time>2020-07-27T08:24:38Z</time>
      </trkpt>
      <trkpt lat="47.20077" lon="-0.99475">
        <ele>62.4</ele>
        <time>2020-07-27T08:24:40Z</time>
      </trkpt>
      <trkpt lat="47.20071" lon="-0.99479">
        <ele>62.2</ele>
        <time>2020-07-27T08:24:41Z</time>
      </trkpt>
      <trkpt lat="47.20065" lon="-0.99481">
        <ele>61.8</ele>
        <time>2020-07-27T08:24:42Z</time>
      </trkpt>
      <trkpt lat="47.20053" lon="-0.99485">
        <ele>61.4</ele>
        <time>2020-07-27T08:24:44Z</time>
      </trkpt>
      <trkpt lat="47.20039" lon="-0.99487">
        <ele>60.6</ele>
        <time>2020-07-27T08:24:46Z</time>
      </trkpt>
      <trkpt lat="47.20016" lon="-0.99488">
        <ele>59.6</ele>
        <time>2020-07-27T08:24:49Z</time>
      </trkpt>
      <trkpt lat="47.19991" lon="-0.99483">
        <ele>59.2</ele>
        <time>2020-07-27T08:24:52Z</time>
      </trkpt>
      <trkpt lat="47.19966" lon="-0.99483">
        <ele>58.2</ele>
        <time>2020-07-27T08:24:55Z</time>
      </trkpt>
      <trkpt lat="47.19941" lon="-0.99484">
        <ele>57</ele>
        <time>2020-07-27T08:24:58Z</time>
      </trkpt>
      <trkpt lat="47.19924" lon="-0.99485">
        <ele>56.4</ele>
        <time>2020-07-27T08:25:00Z</time>
      </trkpt>
      <trkpt lat="47.19907" lon="-0.99486">
        <ele>55.8</ele>
        <time>2020-07-27T08:25:02Z</time>
      </trkpt>
      <trkpt lat="47.19873" lon="-0.99485">
        <ele>54.6</ele>
        <time>2020-07-27T08:25:06Z</time>
      </trkpt>
      <trkpt lat="47.19865" lon="-0.99482">
        <ele>54.2</ele>
        <time>2020-07-27T08:25:07Z</time>
      </trkpt>
      <trkpt lat="47.19848" lon="-0.99471">
        <ele>53.2</ele>
        <time>2020-07-27T08:25:09Z</time>
      </trkpt>
      <trkpt lat="47.19831" lon="-0.99458">
        <ele>52.2</ele>
        <time>2020-07-27T08:25:11Z</time>
      </trkpt>
      <trkpt lat="47.19823" lon="-0.9945">
        <ele>51.8</ele>
        <time>2020-07-27T08:25:12Z</time>
      </trkpt>
      <trkpt lat="47.19796" lon="-0.99416">
        <ele>50.6</ele>
        <time>2020-07-27T08:25:16Z</time>
      </trkpt>
      <trkpt lat="47.19761" lon="-0.99368">
        <ele>49.6</ele>
        <time>2020-07-27T08:25:22Z</time>
      </trkpt>
      <trkpt lat="47.19755" lon="-0.99362">
        <ele>49.4</ele>
        <time>2020-07-27T08:25:23Z</time>
      </trkpt>
      <trkpt lat="47.19747" lon="-0.99353">
        <ele>49.2</ele>
        <time>2020-07-27T08:25:25Z</time>
      </trkpt>
      <trkpt lat="47.19742" lon="-0.99351">
        <ele>48.8</ele>
        <time>2020-07-27T08:25:26Z</time>
      </trkpt>
      <trkpt lat="47.19726" lon="-0.99338">
        <ele>48.4</ele>
        <time>2020-07-27T08:25:30Z</time>
      </trkpt>
      <trkpt lat="47.19721" lon="-0.99333">
        <ele>48.4</ele>
        <time>2020-07-27T08:25:31Z</time>
      </trkpt>
      <trkpt lat="47.19696" lon="-0.99311">
        <ele>47.8</ele>
        <time>2020-07-27T08:25:37Z</time>
      </trkpt>
      <trkpt lat="47.1967" lon="-0.99306">
        <ele>48</ele>
        <time>2020-07-27T08:25:42Z</time>
      </trkpt>
      <trkpt lat="47.1964" lon="-0.99307">
        <ele>47.8</ele>
        <time>2020-07-27T08:25:48Z</time>
      </trkpt>
      <trkpt lat="47.19601" lon="-0.99313">
        <ele>48.8</ele>
        <time>2020-07-27T08:25:57Z</time>
      </trkpt>
      <trkpt lat="47.19578" lon="-0.99324">
        <ele>49.6</ele>
        <time>2020-07-27T08:26:02Z</time>
      </trkpt>
      <trkpt lat="47.19573" lon="-0.99327">
        <ele>49.8</ele>
        <time>2020-07-27T08:26:03Z</time>
      </trkpt>
      <trkpt lat="47.1954" lon="-0.99355">
        <ele>50.6</ele>
        <time>2020-07-27T08:26:11Z</time>
      </trkpt>
      <trkpt lat="47.19511" lon="-0.99389">
        <ele>51.4</ele>
        <time>2020-07-27T08:26:19Z</time>
      </trkpt>
      <trkpt lat="47.19502" lon="-0.99403">
        <ele>51.8</ele>
        <time>2020-07-27T08:26:22Z</time>
      </trkpt>
      <trkpt lat="47.19478" lon="-0.99438">
        <ele>53</ele>
        <time>2020-07-27T08:26:30Z</time>
      </trkpt>
      <trkpt lat="47.19462" lon="-0.99459">
        <ele>54</ele>
        <time>2020-07-27T08:26:35Z</time>
      </trkpt>
      <trkpt lat="47.19454" lon="-0.99472">
        <ele>54.6</ele>
        <time>2020-07-27T08:26:38Z</time>
      </trkpt>
      <trkpt lat="47.19446" lon="-0.99484">
        <ele>55.2</ele>
        <time>2020-07-27T08:26:41Z</time>
      </trkpt>
      <trkpt lat="47.1943" lon="-0.99508">
        <ele>56.2</ele>
        <time>2020-07-27T08:26:47Z</time>
      </trkpt>
      <trkpt lat="47.19424" lon="-0.99516">
        <ele>56.6</ele>
        <time>2020-07-27T08:26:49Z</time>
      </trkpt>
      <trkpt lat="47.19417" lon="-0.99528">
        <ele>57.4</ele>
        <time>2020-07-27T08:26:52Z</time>
      </trkpt>
      <trkpt lat="47.19406" lon="-0.99543">
        <ele>58.6</ele>
        <time>2020-07-27T08:26:56Z</time>
      </trkpt>
      <trkpt lat="47.19398" lon="-0.99553">
        <ele>59.2</ele>
        <time>2020-07-27T08:26:59Z</time>
      </trkpt>
      <trkpt lat="47.19383" lon="-0.99574">
        <ele>59.6</ele>
        <time>2020-07-27T08:27:05Z</time>
      </trkpt>
      <trkpt lat="47.19377" lon="-0.99582">
        <ele>60</ele>
        <time>2020-07-27T08:27:07Z</time>
      </trkpt>
      <trkpt lat="47.1936" lon="-0.99605">
        <ele>60.8</ele>
        <time>2020-07-27T08:27:13Z</time>
      </trkpt>
      <trkpt lat="47.1935" lon="-0.99621">
        <ele>61.4</ele>
        <time>2020-07-27T08:27:17Z</time>
      </trkpt>
      <trkpt lat="47.19343" lon="-0.99631">
        <ele>61.8</ele>
        <time>2020-07-27T08:27:20Z</time>
      </trkpt>
      <trkpt lat="47.19329" lon="-0.99651">
        <ele>63</ele>
        <time>2020-07-27T08:27:26Z</time>
      </trkpt>
      <trkpt lat="47.19326" lon="-0.99654">
        <ele>63.2</ele>
        <time>2020-07-27T08:27:27Z</time>
      </trkpt>
      <trkpt lat="47.19317" lon="-0.99669">
        <ele>64</ele>
        <time>2020-07-27T08:27:31Z</time>
      </trkpt>
      <trkpt lat="47.19305" lon="-0.99687">
        <ele>65</ele>
        <time>2020-07-27T08:27:36Z</time>
      </trkpt>
      <trkpt lat="47.19303" lon="-0.9969">
        <ele>65.2</ele>
        <time>2020-07-27T08:27:37Z</time>
      </trkpt>
      <trkpt lat="47.19292" lon="-0.99707">
        <ele>66.2</ele>
        <time>2020-07-27T08:27:42Z</time>
      </trkpt>
      <trkpt lat="47.19283" lon="-0.99721">
        <ele>66.8</ele>
        <time>2020-07-27T08:27:46Z</time>
      </trkpt>
      <trkpt lat="47.19278" lon="-0.99727">
        <ele>67.4</ele>
        <time>2020-07-27T08:27:48Z</time>
      </trkpt>
      <trkpt lat="47.19263" lon="-0.99752">
        <ele>68.6</ele>
        <time>2020-07-27T08:27:55Z</time>
      </trkpt>
      <trkpt lat="47.19261" lon="-0.99756">
        <ele>68.6</ele>
        <time>2020-07-27T08:27:56Z</time>
      </trkpt>
      <trkpt lat="47.19246" lon="-0.99777">
        <ele>69.6</ele>
        <time>2020-07-27T08:28:02Z</time>
      </trkpt>
      <trkpt lat="47.19243" lon="-0.9978">
        <ele>69.8</ele>
        <time>2020-07-27T08:28:03Z</time>
      </trkpt>
      <trkpt lat="47.19222" lon="-0.99815">
        <ele>70.6</ele>
        <time>2020-07-27T08:28:12Z</time>
      </trkpt>
      <trkpt lat="47.1922" lon="-0.99819">
        <ele>70.6</ele>
        <time>2020-07-27T08:28:13Z</time>
      </trkpt>
      <trkpt lat="47.19213" lon="-0.99849">
        <ele>71.2</ele>
        <time>2020-07-27T08:28:19Z</time>
      </trkpt>
      <trkpt lat="47.19206" lon="-0.99873">
        <ele>71.4</ele>
        <time>2020-07-27T08:28:24Z</time>
      </trkpt>
      <trkpt lat="47.19191" lon="-0.9988">
        <ele>71.6</ele>
        <time>2020-07-27T08:28:28Z</time>
      </trkpt>
      <trkpt lat="47.19176" lon="-0.99884">
        <ele>71.8</ele>
        <time>2020-07-27T08:28:32Z</time>
      </trkpt>
      <trkpt lat="47.19172" lon="-0.99887">
        <ele>71.8</ele>
        <time>2020-07-27T08:28:33Z</time>
      </trkpt>
      <trkpt lat="47.19154" lon="-0.99909">
        <ele>72.8</ele>
        <time>2020-07-27T08:28:39Z</time>
      </trkpt>
      <trkpt lat="47.19148" lon="-0.99916">
        <ele>73</ele>
        <time>2020-07-27T08:28:41Z</time>
      </trkpt>
      <trkpt lat="47.19132" lon="-0.99939">
        <ele>73.8</ele>
        <time>2020-07-27T08:28:47Z</time>
      </trkpt>
      <trkpt lat="47.19124" lon="-0.99951">
        <ele>74.4</ele>
        <time>2020-07-27T08:28:50Z</time>
      </trkpt>
      <trkpt lat="47.19117" lon="-0.99962">
        <ele>74.8</ele>
        <time>2020-07-27T08:28:53Z</time>
      </trkpt>
      <trkpt lat="47.19101" lon="-0.99985">
        <ele>75.8</ele>
        <time>2020-07-27T08:28:59Z</time>
      </trkpt>
      <trkpt lat="47.19098" lon="-0.99989">
        <ele>76</ele>
        <time>2020-07-27T08:29:00Z</time>
      </trkpt>
      <trkpt lat="47.19082" lon="-1.00011">
        <ele>77</ele>
        <time>2020-07-27T08:29:06Z</time>
      </trkpt>
      <trkpt lat="47.19074" lon="-1.00023">
        <ele>77.4</ele>
        <time>2020-07-27T08:29:09Z</time>
      </trkpt>
      <trkpt lat="47.19067" lon="-1.00035">
        <ele>78</ele>
        <time>2020-07-27T08:29:12Z</time>
      </trkpt>
      <trkpt lat="47.19053" lon="-1.00054">
        <ele>79.2</ele>
        <time>2020-07-27T08:29:17Z</time>
      </trkpt>
      <trkpt lat="47.19048" lon="-1.00062">
        <ele>79.6</ele>
        <time>2020-07-27T08:29:19Z</time>
      </trkpt>
      <trkpt lat="47.1904" lon="-1.00073">
        <ele>80.4</ele>
        <time>2020-07-27T08:29:22Z</time>
      </trkpt>
      <trkpt lat="47.19027" lon="-1.00091">
        <ele>81.6</ele>
        <time>2020-07-27T08:29:27Z</time>
      </trkpt>
      <trkpt lat="47.1902" lon="-1.00103">
        <ele>82</ele>
        <time>2020-07-27T08:29:30Z</time>
      </trkpt>
      <trkpt lat="47.19008" lon="-1.00122">
        <ele>82.6</ele>
        <time>2020-07-27T08:29:35Z</time>
      </trkpt>
      <trkpt lat="47.18998" lon="-1.00137">
        <ele>83.4</ele>
        <time>2020-07-27T08:29:39Z</time>
      </trkpt>
      <trkpt lat="47.1899" lon="-1.00149">
        <ele>83.8</ele>
        <time>2020-07-27T08:29:42Z</time>
      </trkpt>
      <trkpt lat="47.18974" lon="-1.00173">
        <ele>84.6</ele>
        <time>2020-07-27T08:29:48Z</time>
      </trkpt>
      <trkpt lat="47.18972" lon="-1.00177">
        <ele>84.8</ele>
        <time>2020-07-27T08:29:49Z</time>
      </trkpt>
      <trkpt lat="47.18953" lon="-1.00203">
        <ele>86</ele>
        <time>2020-07-27T08:29:56Z</time>
      </trkpt>
      <trkpt lat="47.18948" lon="-1.00211">
        <ele>86</ele>
        <time>2020-07-27T08:29:58Z</time>
      </trkpt>
      <trkpt lat="47.18918" lon="-1.00255">
        <ele>86.8</ele>
        <time>2020-07-27T08:30:08Z</time>
      </trkpt>
      <trkpt lat="47.18882" lon="-1.00308">
        <ele>86.6</ele>
        <time>2020-07-27T08:30:19Z</time>
      </trkpt>
      <trkpt lat="47.18857" lon="-1.00346">
        <ele>86.6</ele>
        <time>2020-07-27T08:30:26Z</time>
      </trkpt>
      <trkpt lat="47.18824" lon="-1.00392">
        <ele>85.8</ele>
        <time>2020-07-27T08:30:33Z</time>
      </trkpt>
      <trkpt lat="47.18798" lon="-1.00431">
        <ele>84.8</ele>
        <time>2020-07-27T08:30:38Z</time>
      </trkpt>
      <trkpt lat="47.18787" lon="-1.00447">
        <ele>84.2</ele>
        <time>2020-07-27T08:30:40Z</time>
      </trkpt>
      <trkpt lat="47.18776" lon="-1.00464">
        <ele>83.6</ele>
        <time>2020-07-27T08:30:42Z</time>
      </trkpt>
      <trkpt lat="47.18752" lon="-1.00498">
        <ele>82.4</ele>
        <time>2020-07-27T08:30:46Z</time>
      </trkpt>
      <trkpt lat="47.1874" lon="-1.00515">
        <ele>81.8</ele>
        <time>2020-07-27T08:30:48Z</time>
      </trkpt>
      <trkpt lat="47.18723" lon="-1.00541">
        <ele>81.2</ele>
        <time>2020-07-27T08:30:51Z</time>
      </trkpt>
      <trkpt lat="47.18696" lon="-1.0058">
        <ele>80.6</ele>
        <time>2020-07-27T08:30:56Z</time>
      </trkpt>
      <trkpt lat="47.18681" lon="-1.00602">
        <ele>80.2</ele>
        <time>2020-07-27T08:30:59Z</time>
      </trkpt>
      <trkpt lat="47.18651" lon="-1.00645">
        <ele>79.4</ele>
        <time>2020-07-27T08:31:05Z</time>
      </trkpt>
      <trkpt lat="47.18637" lon="-1.00666">
        <ele>79.2</ele>
        <time>2020-07-27T08:31:08Z</time>
      </trkpt>
      <trkpt lat="47.186" lon="-1.0072">
        <ele>78.8</ele>
        <time>2020-07-27T08:31:16Z</time>
      </trkpt>
      <trkpt lat="47.18559" lon="-1.00779">
        <ele>78.6</ele>
        <time>2020-07-27T08:31:25Z</time>
      </trkpt>
      <trkpt lat="47.1855" lon="-1.00793">
        <ele>78.6</ele>
        <time>2020-07-27T08:31:27Z</time>
      </trkpt>
      <trkpt lat="47.18508" lon="-1.00853">
        <ele>78.8</ele>
        <time>2020-07-27T08:31:36Z</time>
      </trkpt>
      <trkpt lat="47.18503" lon="-1.0086">
        <ele>79</ele>
        <time>2020-07-27T08:31:37Z</time>
      </trkpt>
      <trkpt lat="47.18465" lon="-1.00918">
        <ele>79.2</ele>
        <time>2020-07-27T08:31:46Z</time>
      </trkpt>
      <trkpt lat="47.1846" lon="-1.00925">
        <ele>79.4</ele>
        <time>2020-07-27T08:31:47Z</time>
      </trkpt>
      <trkpt lat="47.18429" lon="-1.00971">
        <ele>80</ele>
        <time>2020-07-27T08:31:55Z</time>
      </trkpt>
      <trkpt lat="47.18426" lon="-1.00977">
        <ele>80.2</ele>
        <time>2020-07-27T08:31:56Z</time>
      </trkpt>
      <trkpt lat="47.18406" lon="-1.01004">
        <ele>80.8</ele>
        <time>2020-07-27T08:32:02Z</time>
      </trkpt>
      <trkpt lat="47.18397" lon="-1.01016">
        <ele>81.2</ele>
        <time>2020-07-27T08:32:05Z</time>
      </trkpt>
      <trkpt lat="47.1838" lon="-1.0104">
        <ele>82.4</ele>
        <time>2020-07-27T08:32:11Z</time>
      </trkpt>
      <trkpt lat="47.1837" lon="-1.01055">
        <ele>83.4</ele>
        <time>2020-07-27T08:32:15Z</time>
      </trkpt>
      <trkpt lat="47.18357" lon="-1.01073">
        <ele>84.6</ele>
        <time>2020-07-27T08:32:20Z</time>
      </trkpt>
      <trkpt lat="47.18352" lon="-1.0108">
        <ele>85</ele>
        <time>2020-07-27T08:32:22Z</time>
      </trkpt>
      <trkpt lat="47.18345" lon="-1.01091">
        <ele>85.6</ele>
        <time>2020-07-27T08:32:25Z</time>
      </trkpt>
      <trkpt lat="47.18333" lon="-1.01109">
        <ele>86.8</ele>
        <time>2020-07-27T08:32:30Z</time>
      </trkpt>
      <trkpt lat="47.18328" lon="-1.01116">
        <ele>87.2</ele>
        <time>2020-07-27T08:32:32Z</time>
      </trkpt>
      <trkpt lat="47.18319" lon="-1.0113">
        <ele>88</ele>
        <time>2020-07-27T08:32:36Z</time>
      </trkpt>
      <trkpt lat="47.18304" lon="-1.01151">
        <ele>89</ele>
        <time>2020-07-27T08:32:42Z</time>
      </trkpt>
      <trkpt lat="47.18293" lon="-1.01168">
        <ele>90</ele>
        <time>2020-07-27T08:32:47Z</time>
      </trkpt>
      <trkpt lat="47.18282" lon="-1.01185">
        <ele>90.8</ele>
        <time>2020-07-27T08:32:52Z</time>
      </trkpt>
      <trkpt lat="47.18272" lon="-1.01201">
        <ele>91.2</ele>
        <time>2020-07-27T08:32:57Z</time>
      </trkpt>
      <trkpt lat="47.18264" lon="-1.01214">
        <ele>91.6</ele>
        <time>2020-07-27T08:33:01Z</time>
      </trkpt>
      <trkpt lat="47.18252" lon="-1.01247">
        <ele>92</ele>
        <time>2020-07-27T08:33:09Z</time>
      </trkpt>
      <trkpt lat="47.1825" lon="-1.01256">
        <ele>92.2</ele>
        <time>2020-07-27T08:33:11Z</time>
      </trkpt>
      <trkpt lat="47.18243" lon="-1.01284">
        <ele>92.8</ele>
        <time>2020-07-27T08:33:17Z</time>
      </trkpt>
      <trkpt lat="47.18246" lon="-1.01305">
        <ele>93</ele>
        <time>2020-07-27T08:33:21Z</time>
      </trkpt>
      <trkpt lat="47.1825" lon="-1.01316">
        <ele>92.8</ele>
        <time>2020-07-27T08:33:23Z</time>
      </trkpt>
      <trkpt lat="47.18249" lon="-1.01336">
        <ele>93</ele>
        <time>2020-07-27T08:33:26Z</time>
      </trkpt>
      <trkpt lat="47.18238" lon="-1.01357">
        <ele>92.8</ele>
        <time>2020-07-27T08:33:30Z</time>
      </trkpt>
      <trkpt lat="47.18235" lon="-1.01362">
        <ele>92.8</ele>
        <time>2020-07-27T08:33:31Z</time>
      </trkpt>
      <trkpt lat="47.18232" lon="-1.01379">
        <ele>93</ele>
        <time>2020-07-27T08:33:34Z</time>
      </trkpt>
      <trkpt lat="47.18232" lon="-1.01392">
        <ele>93.2</ele>
        <time>2020-07-27T08:33:36Z</time>
      </trkpt>
      <trkpt lat="47.18232" lon="-1.01399">
        <ele>93.2</ele>
        <time>2020-07-27T08:33:37Z</time>
      </trkpt>
      <trkpt lat="47.18232" lon="-1.01419">
        <ele>93.2</ele>
        <time>2020-07-27T08:33:40Z</time>
      </trkpt>
      <trkpt lat="47.18238" lon="-1.0148">
        <ele>93</ele>
        <time>2020-07-27T08:33:48Z</time>
      </trkpt>
      <trkpt lat="47.18247" lon="-1.01555">
        <ele>92.4</ele>
        <time>2020-07-27T08:33:57Z</time>
      </trkpt>
      <trkpt lat="47.18255" lon="-1.01613">
        <ele>92</ele>
        <time>2020-07-27T08:34:04Z</time>
      </trkpt>
      <trkpt lat="47.18256" lon="-1.01622">
        <ele>92</ele>
        <time>2020-07-27T08:34:05Z</time>
      </trkpt>
      <trkpt lat="47.18264" lon="-1.0169">
        <ele>91.6</ele>
        <time>2020-07-27T08:34:13Z</time>
      </trkpt>
      <trkpt lat="47.18269" lon="-1.01732">
        <ele>90.8</ele>
        <time>2020-07-27T08:34:18Z</time>
      </trkpt>
      <trkpt lat="47.18273" lon="-1.01765">
        <ele>91</ele>
        <time>2020-07-27T08:34:22Z</time>
      </trkpt>
      <trkpt lat="47.18277" lon="-1.01813">
        <ele>91</ele>
        <time>2020-07-27T08:34:28Z</time>
      </trkpt>
      <trkpt lat="47.18275" lon="-1.01829">
        <ele>91</ele>
        <time>2020-07-27T08:34:30Z</time>
      </trkpt>
      <trkpt lat="47.18269" lon="-1.01851">
        <ele>91.2</ele>
        <time>2020-07-27T08:34:33Z</time>
      </trkpt>
      <trkpt lat="47.18261" lon="-1.01879">
        <ele>91.8</ele>
        <time>2020-07-27T08:34:37Z</time>
      </trkpt>
      <trkpt lat="47.18255" lon="-1.019">
        <ele>92</ele>
        <time>2020-07-27T08:34:40Z</time>
      </trkpt>
      <trkpt lat="47.18245" lon="-1.01941">
        <ele>92.4</ele>
        <time>2020-07-27T08:34:46Z</time>
      </trkpt>
      <trkpt lat="47.1825" lon="-1.01965">
        <ele>93</ele>
        <time>2020-07-27T08:34:50Z</time>
      </trkpt>
      <trkpt lat="47.18252" lon="-1.01971">
        <ele>93.2</ele>
        <time>2020-07-27T08:34:51Z</time>
      </trkpt>
      <trkpt lat="47.18265" lon="-1.02006">
        <ele>93.8</ele>
        <time>2020-07-27T08:34:57Z</time>
      </trkpt>
      <trkpt lat="47.18269" lon="-1.02019">
        <ele>94.2</ele>
        <time>2020-07-27T08:34:59Z</time>
      </trkpt>
      <trkpt lat="47.18277" lon="-1.02047">
        <ele>94.8</ele>
        <time>2020-07-27T08:35:03Z</time>
      </trkpt>
      <trkpt lat="47.18282" lon="-1.0206">
        <ele>95.2</ele>
        <time>2020-07-27T08:35:05Z</time>
      </trkpt>
      <trkpt lat="47.18297" lon="-1.02099">
        <ele>96.4</ele>
        <time>2020-07-27T08:35:11Z</time>
      </trkpt>
      <trkpt lat="47.18299" lon="-1.02105">
        <ele>96.6</ele>
        <time>2020-07-27T08:35:12Z</time>
      </trkpt>
      <trkpt lat="47.18316" lon="-1.02153">
        <ele>97.2</ele>
        <time>2020-07-27T08:35:19Z</time>
      </trkpt>
      <trkpt lat="47.18327" lon="-1.02206">
        <ele>96.8</ele>
        <time>2020-07-27T08:35:25Z</time>
      </trkpt>
      <trkpt lat="47.18328" lon="-1.0227">
        <ele>95.4</ele>
        <time>2020-07-27T08:35:31Z</time>
      </trkpt>
      <trkpt lat="47.18327" lon="-1.02282">
        <ele>95.2</ele>
        <time>2020-07-27T08:35:32Z</time>
      </trkpt>
      <trkpt lat="47.18321" lon="-1.02329">
        <ele>93.8</ele>
        <time>2020-07-27T08:35:36Z</time>
      </trkpt>
      <trkpt lat="47.18319" lon="-1.02341">
        <ele>93.6</ele>
        <time>2020-07-27T08:35:37Z</time>
      </trkpt>
      <trkpt lat="47.18303" lon="-1.02401">
        <ele>92.8</ele>
        <time>2020-07-27T08:35:42Z</time>
      </trkpt>
      <trkpt lat="47.1829" lon="-1.02484">
        <ele>91.4</ele>
        <time>2020-07-27T08:35:48Z</time>
      </trkpt>
      <trkpt lat="47.18291" lon="-1.02498">
        <ele>91</ele>
        <time>2020-07-27T08:35:49Z</time>
      </trkpt>
      <trkpt lat="47.18293" lon="-1.02527">
        <ele>90.2</ele>
        <time>2020-07-27T08:35:51Z</time>
      </trkpt>
      <trkpt lat="47.18295" lon="-1.02542">
        <ele>90</ele>
        <time>2020-07-27T08:35:52Z</time>
      </trkpt>
      <trkpt lat="47.18298" lon="-1.02556">
        <ele>89.8</ele>
        <time>2020-07-27T08:35:53Z</time>
      </trkpt>
      <trkpt lat="47.18305" lon="-1.02584">
        <ele>89.2</ele>
        <time>2020-07-27T08:35:55Z</time>
      </trkpt>
      <trkpt lat="47.1831" lon="-1.02598">
        <ele>89</ele>
        <time>2020-07-27T08:35:56Z</time>
      </trkpt>
      <trkpt lat="47.18335" lon="-1.02665">
        <ele>88.2</ele>
        <time>2020-07-27T08:36:01Z</time>
      </trkpt>
      <trkpt lat="47.18341" lon="-1.02678">
        <ele>88</ele>
        <time>2020-07-27T08:36:02Z</time>
      </trkpt>
      <trkpt lat="47.18348" lon="-1.02687">
        <ele>86.8</ele>
        <time>2020-07-27T08:36:03Z</time>
      </trkpt>
      <trkpt lat="47.18362" lon="-1.02708">
        <ele>85.8</ele>
        <time>2020-07-27T08:36:05Z</time>
      </trkpt>
      <trkpt lat="47.18376" lon="-1.0273">
        <ele>85.2</ele>
        <time>2020-07-27T08:36:07Z</time>
      </trkpt>
      <trkpt lat="47.18399" lon="-1.0276">
        <ele>84.8</ele>
        <time>2020-07-27T08:36:10Z</time>
      </trkpt>
      <trkpt lat="47.18415" lon="-1.02778">
        <ele>84.4</ele>
        <time>2020-07-27T08:36:12Z</time>
      </trkpt>
      <trkpt lat="47.18449" lon="-1.02806">
        <ele>83.6</ele>
        <time>2020-07-27T08:36:16Z</time>
      </trkpt>
      <trkpt lat="47.18459" lon="-1.02812">
        <ele>83.6</ele>
        <time>2020-07-27T08:36:17Z</time>
      </trkpt>
      <trkpt lat="47.18496" lon="-1.02839">
        <ele>82.6</ele>
        <time>2020-07-27T08:36:21Z</time>
      </trkpt>
      <trkpt lat="47.18521" lon="-1.02865">
        <ele>81.6</ele>
        <time>2020-07-27T08:36:24Z</time>
      </trkpt>
      <trkpt lat="47.18529" lon="-1.02876">
        <ele>81.2</ele>
        <time>2020-07-27T08:36:25Z</time>
      </trkpt>
      <trkpt lat="47.18549" lon="-1.02911">
        <ele>79.8</ele>
        <time>2020-07-27T08:36:28Z</time>
      </trkpt>
      <trkpt lat="47.18562" lon="-1.02936">
        <ele>78.8</ele>
        <time>2020-07-27T08:36:30Z</time>
      </trkpt>
      <trkpt lat="47.18575" lon="-1.02962">
        <ele>77.6</ele>
        <time>2020-07-27T08:36:32Z</time>
      </trkpt>
      <trkpt lat="47.18589" lon="-1.02987">
        <ele>76.6</ele>
        <time>2020-07-27T08:36:34Z</time>
      </trkpt>
      <trkpt lat="47.18604" lon="-1.0301">
        <ele>75.6</ele>
        <time>2020-07-27T08:36:36Z</time>
      </trkpt>
      <trkpt lat="47.18629" lon="-1.03042">
        <ele>74</ele>
        <time>2020-07-27T08:36:39Z</time>
      </trkpt>
      <trkpt lat="47.18647" lon="-1.0306">
        <ele>73</ele>
        <time>2020-07-27T08:36:41Z</time>
      </trkpt>
      <trkpt lat="47.18667" lon="-1.03076">
        <ele>71.8</ele>
        <time>2020-07-27T08:36:43Z</time>
      </trkpt>
      <trkpt lat="47.18697" lon="-1.03095">
        <ele>70.4</ele>
        <time>2020-07-27T08:36:46Z</time>
      </trkpt>
      <trkpt lat="47.18718" lon="-1.03104">
        <ele>69.4</ele>
        <time>2020-07-27T08:36:48Z</time>
      </trkpt>
      <trkpt lat="47.18728" lon="-1.03106">
        <ele>68.8</ele>
        <time>2020-07-27T08:36:49Z</time>
      </trkpt>
      <trkpt lat="47.18739" lon="-1.03108">
        <ele>68.2</ele>
        <time>2020-07-27T08:36:50Z</time>
      </trkpt>
      <trkpt lat="47.18749" lon="-1.03109">
        <ele>67.6</ele>
        <time>2020-07-27T08:36:51Z</time>
      </trkpt>
      <trkpt lat="47.1878" lon="-1.0311">
        <ele>66.2</ele>
        <time>2020-07-27T08:36:54Z</time>
      </trkpt>
      <trkpt lat="47.1879" lon="-1.0311">
        <ele>66</ele>
        <time>2020-07-27T08:36:55Z</time>
      </trkpt>
      <trkpt lat="47.1881" lon="-1.03107">
        <ele>65.2</ele>
        <time>2020-07-27T08:36:57Z</time>
      </trkpt>
      <trkpt lat="47.18842" lon="-1.03105">
        <ele>63.8</ele>
        <time>2020-07-27T08:37:00Z</time>
      </trkpt>
      <trkpt lat="47.18852" lon="-1.03107">
        <ele>63.4</ele>
        <time>2020-07-27T08:37:01Z</time>
      </trkpt>
      <trkpt lat="47.18863" lon="-1.03109">
        <ele>62.8</ele>
        <time>2020-07-27T08:37:02Z</time>
      </trkpt>
      <trkpt lat="47.18873" lon="-1.03113">
        <ele>62.4</ele>
        <time>2020-07-27T08:37:03Z</time>
      </trkpt>
      <trkpt lat="47.18883" lon="-1.03119">
        <ele>61.8</ele>
        <time>2020-07-27T08:37:04Z</time>
      </trkpt>
      <trkpt lat="47.18902" lon="-1.03136">
        <ele>61</ele>
        <time>2020-07-27T08:37:06Z</time>
      </trkpt>
      <trkpt lat="47.1891" lon="-1.03146">
        <ele>60.6</ele>
        <time>2020-07-27T08:37:07Z</time>
      </trkpt>
      <trkpt lat="47.18924" lon="-1.03171">
        <ele>59.6</ele>
        <time>2020-07-27T08:37:09Z</time>
      </trkpt>
      <trkpt lat="47.18929" lon="-1.03184">
        <ele>59.2</ele>
        <time>2020-07-27T08:37:10Z</time>
      </trkpt>
      <trkpt lat="47.18937" lon="-1.03213">
        <ele>58.4</ele>
        <time>2020-07-27T08:37:12Z</time>
      </trkpt>
      <trkpt lat="47.1894" lon="-1.03242">
        <ele>57.4</ele>
        <time>2020-07-27T08:37:14Z</time>
      </trkpt>
      <trkpt lat="47.18941" lon="-1.03255">
        <ele>57.2</ele>
        <time>2020-07-27T08:37:15Z</time>
      </trkpt>
      <trkpt lat="47.18938" lon="-1.03294">
        <ele>56.6</ele>
        <time>2020-07-27T08:37:18Z</time>
      </trkpt>
      <trkpt lat="47.1893" lon="-1.03327">
        <ele>56.4</ele>
        <time>2020-07-27T08:37:21Z</time>
      </trkpt>
      <trkpt lat="47.18927" lon="-1.03336">
        <ele>56.4</ele>
        <time>2020-07-27T08:37:22Z</time>
      </trkpt>
      <trkpt lat="47.18911" lon="-1.03364">
        <ele>56.4</ele>
        <time>2020-07-27T08:37:26Z</time>
      </trkpt>
      <trkpt lat="47.18899" lon="-1.0338">
        <ele>56.4</ele>
        <time>2020-07-27T08:37:29Z</time>
      </trkpt>
      <trkpt lat="47.18884" lon="-1.03389">
        <ele>56.4</ele>
        <time>2020-07-27T08:37:32Z</time>
      </trkpt>
      <trkpt lat="47.18849" lon="-1.03397">
        <ele>56.2</ele>
        <time>2020-07-27T08:37:39Z</time>
      </trkpt>
      <trkpt lat="47.18812" lon="-1.03404">
        <ele>58.4</ele>
        <time>2020-07-27T08:37:47Z</time>
      </trkpt>
      <trkpt lat="47.18787" lon="-1.0341">
        <ele>59.4</ele>
        <time>2020-07-27T08:37:53Z</time>
      </trkpt>
      <trkpt lat="47.18772" lon="-1.03416">
        <ele>60.4</ele>
        <time>2020-07-27T08:37:57Z</time>
      </trkpt>
      <trkpt lat="47.18769" lon="-1.03417">
        <ele>60.6</ele>
        <time>2020-07-27T08:37:58Z</time>
      </trkpt>
      <trkpt lat="47.18749" lon="-1.03428">
        <ele>61.6</ele>
        <time>2020-07-27T08:38:04Z</time>
      </trkpt>
      <trkpt lat="47.18746" lon="-1.0343">
        <ele>61.8</ele>
        <time>2020-07-27T08:38:05Z</time>
      </trkpt>
      <trkpt lat="47.18723" lon="-1.03448">
        <ele>62.8</ele>
        <time>2020-07-27T08:38:13Z</time>
      </trkpt>
      <trkpt lat="47.1872" lon="-1.0345">
        <ele>63</ele>
        <time>2020-07-27T08:38:14Z</time>
      </trkpt>
      <trkpt lat="47.18706" lon="-1.03464">
        <ele>64</ele>
        <time>2020-07-27T08:38:19Z</time>
      </trkpt>
      <trkpt lat="47.18698" lon="-1.03472">
        <ele>64.4</ele>
        <time>2020-07-27T08:38:22Z</time>
      </trkpt>
      <trkpt lat="47.18679" lon="-1.03494">
        <ele>65</ele>
        <time>2020-07-27T08:38:29Z</time>
      </trkpt>
      <trkpt lat="47.18671" lon="-1.03504">
        <ele>65.4</ele>
        <time>2020-07-27T08:38:32Z</time>
      </trkpt>
      <trkpt lat="47.1866" lon="-1.03522">
        <ele>66</ele>
        <time>2020-07-27T08:38:37Z</time>
      </trkpt>
      <trkpt lat="47.1865" lon="-1.03542">
        <ele>66.6</ele>
        <time>2020-07-27T08:38:42Z</time>
      </trkpt>
      <trkpt lat="47.18643" lon="-1.03558">
        <ele>67.2</ele>
        <time>2020-07-27T08:38:46Z</time>
      </trkpt>
      <trkpt lat="47.18635" lon="-1.03578">
        <ele>68.2</ele>
        <time>2020-07-27T08:38:51Z</time>
      </trkpt>
      <trkpt lat="47.18633" lon="-1.03582">
        <ele>68.4</ele>
        <time>2020-07-27T08:38:52Z</time>
      </trkpt>
      <trkpt lat="47.18622" lon="-1.0361">
        <ele>69.4</ele>
        <time>2020-07-27T08:38:59Z</time>
      </trkpt>
      <trkpt lat="47.18621" lon="-1.03614">
        <ele>69.4</ele>
        <time>2020-07-27T08:39:00Z</time>
      </trkpt>
      <trkpt lat="47.18614" lon="-1.03639">
        <ele>70.6</ele>
        <time>2020-07-27T08:39:06Z</time>
      </trkpt>
      <trkpt lat="47.18613" lon="-1.03644">
        <ele>70.6</ele>
        <time>2020-07-27T08:39:07Z</time>
      </trkpt>
      <trkpt lat="47.18608" lon="-1.03671">
        <ele>71.6</ele>
        <time>2020-07-27T08:39:13Z</time>
      </trkpt>
      <trkpt lat="47.18606" lon="-1.03688">
        <ele>72.4</ele>
        <time>2020-07-27T08:39:17Z</time>
      </trkpt>
      <trkpt lat="47.18604" lon="-1.03697">
        <ele>72.6</ele>
        <time>2020-07-27T08:39:19Z</time>
      </trkpt>
      <trkpt lat="47.18602" lon="-1.03728">
        <ele>73.8</ele>
        <time>2020-07-27T08:39:26Z</time>
      </trkpt>
      <trkpt lat="47.186" lon="-1.03754">
        <ele>74.8</ele>
        <time>2020-07-27T08:39:32Z</time>
      </trkpt>
      <trkpt lat="47.18599" lon="-1.03768">
        <ele>75.2</ele>
        <time>2020-07-27T08:39:35Z</time>
      </trkpt>
      <trkpt lat="47.18598" lon="-1.03792">
        <ele>75.8</ele>
        <time>2020-07-27T08:39:40Z</time>
      </trkpt>
      <trkpt lat="47.18597" lon="-1.0381">
        <ele>76.6</ele>
        <time>2020-07-27T08:39:44Z</time>
      </trkpt>
      <trkpt lat="47.18596" lon="-1.03823">
        <ele>76.8</ele>
        <time>2020-07-27T08:39:47Z</time>
      </trkpt>
      <trkpt lat="47.18592" lon="-1.03851">
        <ele>77.4</ele>
        <time>2020-07-27T08:39:53Z</time>
      </trkpt>
      <trkpt lat="47.18584" lon="-1.03882">
        <ele>78</ele>
        <time>2020-07-27T08:40:00Z</time>
      </trkpt>
      <trkpt lat="47.18582" lon="-1.03886">
        <ele>78</ele>
        <time>2020-07-27T08:40:01Z</time>
      </trkpt>
      <trkpt lat="47.18571" lon="-1.0391">
        <ele>79</ele>
        <time>2020-07-27T08:40:07Z</time>
      </trkpt>
      <trkpt lat="47.1857" lon="-1.03914">
        <ele>79.2</ele>
        <time>2020-07-27T08:40:08Z</time>
      </trkpt>
      <trkpt lat="47.18555" lon="-1.03942">
        <ele>80.2</ele>
        <time>2020-07-27T08:40:15Z</time>
      </trkpt>
      <trkpt lat="47.1855" lon="-1.0395">
        <ele>80.4</ele>
        <time>2020-07-27T08:40:17Z</time>
      </trkpt>
      <trkpt lat="47.18542" lon="-1.03966">
        <ele>81.2</ele>
        <time>2020-07-27T08:40:21Z</time>
      </trkpt>
      <trkpt lat="47.18532" lon="-1.03986">
        <ele>82.2</ele>
        <time>2020-07-27T08:40:26Z</time>
      </trkpt>
      <trkpt lat="47.18526" lon="-1.03999">
        <ele>82.4</ele>
        <time>2020-07-27T08:40:29Z</time>
      </trkpt>
      <trkpt lat="47.18518" lon="-1.0402">
        <ele>82.8</ele>
        <time>2020-07-27T08:40:34Z</time>
      </trkpt>
      <trkpt lat="47.1851" lon="-1.04043">
        <ele>83.4</ele>
        <time>2020-07-27T08:40:39Z</time>
      </trkpt>
      <trkpt lat="47.18504" lon="-1.04066">
        <ele>83.8</ele>
        <time>2020-07-27T08:40:44Z</time>
      </trkpt>
      <trkpt lat="47.18496" lon="-1.04105">
        <ele>84.2</ele>
        <time>2020-07-27T08:40:52Z</time>
      </trkpt>
      <trkpt lat="47.18495" lon="-1.0411">
        <ele>84.4</ele>
        <time>2020-07-27T08:40:53Z</time>
      </trkpt>
      <trkpt lat="47.18488" lon="-1.04151">
        <ele>84.8</ele>
        <time>2020-07-27T08:41:01Z</time>
      </trkpt>
      <trkpt lat="47.18485" lon="-1.04182">
        <ele>85.4</ele>
        <time>2020-07-27T08:41:07Z</time>
      </trkpt>
      <trkpt lat="47.18484" lon="-1.04199">
        <ele>85.8</ele>
        <time>2020-07-27T08:41:10Z</time>
      </trkpt>
      <trkpt lat="47.18484" lon="-1.04231">
        <ele>86.6</ele>
        <time>2020-07-27T08:41:16Z</time>
      </trkpt>
      <trkpt lat="47.18484" lon="-1.04242">
        <ele>87</ele>
        <time>2020-07-27T08:41:18Z</time>
      </trkpt>
      <trkpt lat="47.18485" lon="-1.04263">
        <ele>87.6</ele>
        <time>2020-07-27T08:41:22Z</time>
      </trkpt>
      <trkpt lat="47.18488" lon="-1.04293">
        <ele>88.6</ele>
        <time>2020-07-27T08:41:28Z</time>
      </trkpt>
      <trkpt lat="47.18488" lon="-1.04298">
        <ele>88.8</ele>
        <time>2020-07-27T08:41:29Z</time>
      </trkpt>
      <trkpt lat="47.1849" lon="-1.04323">
        <ele>89.8</ele>
        <time>2020-07-27T08:41:34Z</time>
      </trkpt>
      <trkpt lat="47.18491" lon="-1.04334">
        <ele>90.2</ele>
        <time>2020-07-27T08:41:36Z</time>
      </trkpt>
      <trkpt lat="47.18494" lon="-1.04355">
        <ele>90.8</ele>
        <time>2020-07-27T08:41:40Z</time>
      </trkpt>
      <trkpt lat="47.18496" lon="-1.04375">
        <ele>91.6</ele>
        <time>2020-07-27T08:41:44Z</time>
      </trkpt>
      <trkpt lat="47.18497" lon="-1.04386">
        <ele>92</ele>
        <time>2020-07-27T08:41:46Z</time>
      </trkpt>
      <trkpt lat="47.185" lon="-1.04417">
        <ele>93.2</ele>
        <time>2020-07-27T08:41:52Z</time>
      </trkpt>
      <trkpt lat="47.18502" lon="-1.04434">
        <ele>93.6</ele>
        <time>2020-07-27T08:41:55Z</time>
      </trkpt>
      <trkpt lat="47.18504" lon="-1.04455">
        <ele>94.4</ele>
        <time>2020-07-27T08:41:59Z</time>
      </trkpt>
      <trkpt lat="47.18505" lon="-1.04471">
        <ele>94.8</ele>
        <time>2020-07-27T08:42:02Z</time>
      </trkpt>
      <trkpt lat="47.18507" lon="-1.04486">
        <ele>95.4</ele>
        <time>2020-07-27T08:42:05Z</time>
      </trkpt>
      <trkpt lat="47.18509" lon="-1.04511">
        <ele>96.4</ele>
        <time>2020-07-27T08:42:10Z</time>
      </trkpt>
      <trkpt lat="47.1851" lon="-1.04522">
        <ele>97</ele>
        <time>2020-07-27T08:42:12Z</time>
      </trkpt>
      <trkpt lat="47.18512" lon="-1.04536">
        <ele>97.4</ele>
        <time>2020-07-27T08:42:15Z</time>
      </trkpt>
      <trkpt lat="47.18515" lon="-1.04565">
        <ele>98.4</ele>
        <time>2020-07-27T08:42:21Z</time>
      </trkpt>
      <trkpt lat="47.18516" lon="-1.04575">
        <ele>98.6</ele>
        <time>2020-07-27T08:42:23Z</time>
      </trkpt>
      <trkpt lat="47.18518" lon="-1.04608">
        <ele>99.6</ele>
        <time>2020-07-27T08:42:30Z</time>
      </trkpt>
      <trkpt lat="47.18518" lon="-1.04613">
        <ele>99.8</ele>
        <time>2020-07-27T08:42:31Z</time>
      </trkpt>
      <trkpt lat="47.1852" lon="-1.04638">
        <ele>101</ele>
        <time>2020-07-27T08:42:36Z</time>
      </trkpt>
      <trkpt lat="47.1852" lon="-1.04658">
        <ele>101.8</ele>
        <time>2020-07-27T08:42:40Z</time>
      </trkpt>
      <trkpt lat="47.1852" lon="-1.04663">
        <ele>102</ele>
        <time>2020-07-27T08:42:41Z</time>
      </trkpt>
      <trkpt lat="47.1852" lon="-1.04694">
        <ele>103.2</ele>
        <time>2020-07-27T08:42:47Z</time>
      </trkpt>
      <trkpt lat="47.18518" lon="-1.04747">
        <ele>104.2</ele>
        <time>2020-07-27T08:42:57Z</time>
      </trkpt>
      <trkpt lat="47.18516" lon="-1.04791">
        <ele>104.6</ele>
        <time>2020-07-27T08:43:04Z</time>
      </trkpt>
      <trkpt lat="47.18514" lon="-1.0483">
        <ele>104.4</ele>
        <time>2020-07-27T08:43:11Z</time>
      </trkpt>
      <trkpt lat="47.18511" lon="-1.04871">
        <ele>104.2</ele>
        <time>2020-07-27T08:43:19Z</time>
      </trkpt>
      <trkpt lat="47.1851" lon="-1.04883">
        <ele>103.8</ele>
        <time>2020-07-27T08:43:24Z</time>
      </trkpt>
      <trkpt lat="47.18508" lon="-1.04885">
        <ele>103.8</ele>
        <time>2020-07-27T08:45:16Z</time>
      </trkpt>
      <trkpt lat="47.18508" lon="-1.0489">
        <ele>103.4</ele>
        <time>2020-07-27T08:45:18Z</time>
      </trkpt>
      <trkpt lat="47.18508" lon="-1.04895">
        <ele>103.2</ele>
        <time>2020-07-27T08:45:19Z</time>
      </trkpt>
      <trkpt lat="47.18507" lon="-1.04907">
        <ele>102.8</ele>
        <time>2020-07-27T08:45:21Z</time>
      </trkpt>
      <trkpt lat="47.18505" lon="-1.04933">
        <ele>102.2</ele>
        <time>2020-07-27T08:45:25Z</time>
      </trkpt>
      <trkpt lat="47.18503" lon="-1.04961">
        <ele>102</ele>
        <time>2020-07-27T08:45:29Z</time>
      </trkpt>
      <trkpt lat="47.18497" lon="-1.05026">
        <ele>101.8</ele>
        <time>2020-07-27T08:45:38Z</time>
      </trkpt>
      <trkpt lat="47.18493" lon="-1.05085">
        <ele>102.2</ele>
        <time>2020-07-27T08:45:46Z</time>
      </trkpt>
      <trkpt lat="47.18488" lon="-1.0514">
        <ele>102.8</ele>
        <time>2020-07-27T08:45:54Z</time>
      </trkpt>
      <trkpt lat="47.18483" lon="-1.05202">
        <ele>102.8</ele>
        <time>2020-07-27T08:46:03Z</time>
      </trkpt>
      <trkpt lat="47.18477" lon="-1.05273">
        <ele>101.4</ele>
        <time>2020-07-27T08:46:12Z</time>
      </trkpt>
      <trkpt lat="47.18476" lon="-1.05291">
        <ele>101</ele>
        <time>2020-07-27T08:46:14Z</time>
      </trkpt>
      <trkpt lat="47.18473" lon="-1.05332">
        <ele>100</ele>
        <time>2020-07-27T08:46:18Z</time>
      </trkpt>
      <trkpt lat="47.18469" lon="-1.05378">
        <ele>98.8</ele>
        <time>2020-07-27T08:46:22Z</time>
      </trkpt>
      <trkpt lat="47.18467" lon="-1.05414">
        <ele>97.6</ele>
        <time>2020-07-27T08:46:25Z</time>
      </trkpt>
      <trkpt lat="47.18466" lon="-1.05426">
        <ele>97.2</ele>
        <time>2020-07-27T08:46:26Z</time>
      </trkpt>
      <trkpt lat="47.18464" lon="-1.05451">
        <ele>96.4</ele>
        <time>2020-07-27T08:46:28Z</time>
      </trkpt>
      <trkpt lat="47.18461" lon="-1.05488">
        <ele>95.2</ele>
        <time>2020-07-27T08:46:31Z</time>
      </trkpt>
      <trkpt lat="47.18457" lon="-1.05525">
        <ele>94.2</ele>
        <time>2020-07-27T08:46:34Z</time>
      </trkpt>
      <trkpt lat="47.18456" lon="-1.05538">
        <ele>93.6</ele>
        <time>2020-07-27T08:46:35Z</time>
      </trkpt>
      <trkpt lat="47.18454" lon="-1.05564">
        <ele>92.8</ele>
        <time>2020-07-27T08:46:37Z</time>
      </trkpt>
      <trkpt lat="47.18451" lon="-1.05602">
        <ele>91.6</ele>
        <time>2020-07-27T08:46:40Z</time>
      </trkpt>
      <trkpt lat="47.18448" lon="-1.05638">
        <ele>90.8</ele>
        <time>2020-07-27T08:46:43Z</time>
      </trkpt>
      <trkpt lat="47.18447" lon="-1.05659">
        <ele>90.4</ele>
        <time>2020-07-27T08:46:45Z</time>
      </trkpt>
      <trkpt lat="47.18445" lon="-1.05698">
        <ele>90.2</ele>
        <time>2020-07-27T08:46:49Z</time>
      </trkpt>
      <trkpt lat="47.18439" lon="-1.05769">
        <ele>90.2</ele>
        <time>2020-07-27T08:46:57Z</time>
      </trkpt>
      <trkpt lat="47.18433" lon="-1.05842">
        <ele>90.6</ele>
        <time>2020-07-27T08:47:06Z</time>
      </trkpt>
      <trkpt lat="47.18428" lon="-1.05903">
        <ele>91.6</ele>
        <time>2020-07-27T08:47:14Z</time>
      </trkpt>
      <trkpt lat="47.18426" lon="-1.05919">
        <ele>91.6</ele>
        <time>2020-07-27T08:47:16Z</time>
      </trkpt>
      <trkpt lat="47.1842" lon="-1.05986">
        <ele>91.4</ele>
        <time>2020-07-27T08:47:24Z</time>
      </trkpt>
      <trkpt lat="47.18416" lon="-1.06041">
        <ele>90.6</ele>
        <time>2020-07-27T08:47:30Z</time>
      </trkpt>
      <trkpt lat="47.18415" lon="-1.0605">
        <ele>90.4</ele>
        <time>2020-07-27T08:47:31Z</time>
      </trkpt>
      <trkpt lat="47.18409" lon="-1.06131">
        <ele>89.6</ele>
        <time>2020-07-27T08:47:39Z</time>
      </trkpt>
      <trkpt lat="47.18401" lon="-1.06216">
        <ele>89</ele>
        <time>2020-07-27T08:47:48Z</time>
      </trkpt>
      <trkpt lat="47.18395" lon="-1.0629">
        <ele>89.4</ele>
        <time>2020-07-27T08:47:57Z</time>
      </trkpt>
      <trkpt lat="47.18388" lon="-1.0637">
        <ele>90.2</ele>
        <time>2020-07-27T08:48:07Z</time>
      </trkpt>
      <trkpt lat="47.18386" lon="-1.06401">
        <ele>90.6</ele>
        <time>2020-07-27T08:48:11Z</time>
      </trkpt>
      <trkpt lat="47.18383" lon="-1.06439">
        <ele>91.2</ele>
        <time>2020-07-27T08:48:16Z</time>
      </trkpt>
      <trkpt lat="47.18379" lon="-1.06475">
        <ele>91.8</ele>
        <time>2020-07-27T08:48:21Z</time>
      </trkpt>
      <trkpt lat="47.18377" lon="-1.06504">
        <ele>92.2</ele>
        <time>2020-07-27T08:48:25Z</time>
      </trkpt>
      <trkpt lat="47.18375" lon="-1.06533">
        <ele>92.8</ele>
        <time>2020-07-27T08:48:29Z</time>
      </trkpt>
      <trkpt lat="47.18372" lon="-1.06573">
        <ele>94</ele>
        <time>2020-07-27T08:48:35Z</time>
      </trkpt>
      <trkpt lat="47.18366" lon="-1.06638">
        <ele>95</ele>
        <time>2020-07-27T08:48:45Z</time>
      </trkpt>
      <trkpt lat="47.18364" lon="-1.06671">
        <ele>95</ele>
        <time>2020-07-27T08:48:50Z</time>
      </trkpt>
      <trkpt lat="47.18362" lon="-1.06691">
        <ele>95.6</ele>
        <time>2020-07-27T08:48:53Z</time>
      </trkpt>
      <trkpt lat="47.18359" lon="-1.06735">
        <ele>96.2</ele>
        <time>2020-07-27T08:49:00Z</time>
      </trkpt>
      <trkpt lat="47.18358" lon="-1.0674">
        <ele>96.2</ele>
        <time>2020-07-27T08:49:01Z</time>
      </trkpt>
      <trkpt lat="47.18353" lon="-1.06794">
        <ele>97.2</ele>
        <time>2020-07-27T08:49:10Z</time>
      </trkpt>
      <trkpt lat="47.18353" lon="-1.068">
        <ele>97.2</ele>
        <time>2020-07-27T08:49:11Z</time>
      </trkpt>
      <trkpt lat="47.1835" lon="-1.06837">
        <ele>98.2</ele>
        <time>2020-07-27T08:49:17Z</time>
      </trkpt>
      <trkpt lat="47.18347" lon="-1.06874">
        <ele>99</ele>
        <time>2020-07-27T08:49:23Z</time>
      </trkpt>
      <trkpt lat="47.18345" lon="-1.06893">
        <ele>99.4</ele>
        <time>2020-07-27T08:49:26Z</time>
      </trkpt>
      <trkpt lat="47.18342" lon="-1.06933">
        <ele>100</ele>
        <time>2020-07-27T08:49:32Z</time>
      </trkpt>
      <trkpt lat="47.18338" lon="-1.0699">
        <ele>99.8</ele>
        <time>2020-07-27T08:49:39Z</time>
      </trkpt>
      <trkpt lat="47.1833" lon="-1.07073">
        <ele>99</ele>
        <time>2020-07-27T08:49:48Z</time>
      </trkpt>
      <trkpt lat="47.18329" lon="-1.07083">
        <ele>98.8</ele>
        <time>2020-07-27T08:49:49Z</time>
      </trkpt>
      <trkpt lat="47.18325" lon="-1.07134">
        <ele>98.2</ele>
        <time>2020-07-27T08:49:54Z</time>
      </trkpt>
      <trkpt lat="47.18322" lon="-1.07174">
        <ele>97</ele>
        <time>2020-07-27T08:49:58Z</time>
      </trkpt>
      <trkpt lat="47.18318" lon="-1.07223">
        <ele>96</ele>
        <time>2020-07-27T08:50:03Z</time>
      </trkpt>
      <trkpt lat="47.18313" lon="-1.07274">
        <ele>95</ele>
        <time>2020-07-27T08:50:08Z</time>
      </trkpt>
      <trkpt lat="47.18312" lon="-1.07284">
        <ele>94.8</ele>
        <time>2020-07-27T08:50:09Z</time>
      </trkpt>
      <trkpt lat="47.18307" lon="-1.07343">
        <ele>93.6</ele>
        <time>2020-07-27T08:50:15Z</time>
      </trkpt>
      <trkpt lat="47.18306" lon="-1.07352">
        <ele>93.6</ele>
        <time>2020-07-27T08:50:16Z</time>
      </trkpt>
      <trkpt lat="47.18303" lon="-1.07368">
        <ele>93.2</ele>
        <time>2020-07-27T08:50:18Z</time>
      </trkpt>
      <trkpt lat="47.18297" lon="-1.07379">
        <ele>93.4</ele>
        <time>2020-07-27T08:50:20Z</time>
      </trkpt>
      <trkpt lat="47.18278" lon="-1.07383">
        <ele>93</ele>
        <time>2020-07-27T08:50:23Z</time>
      </trkpt>
      <trkpt lat="47.18271" lon="-1.07384">
        <ele>92.8</ele>
        <time>2020-07-27T08:50:24Z</time>
      </trkpt>
      <trkpt lat="47.18258" lon="-1.07385">
        <ele>92.6</ele>
        <time>2020-07-27T08:50:26Z</time>
      </trkpt>
      <trkpt lat="47.1823" lon="-1.07388">
        <ele>92.2</ele>
        <time>2020-07-27T08:50:30Z</time>
      </trkpt>
      <trkpt lat="47.18188" lon="-1.07394">
        <ele>91.8</ele>
        <time>2020-07-27T08:50:37Z</time>
      </trkpt>
      <trkpt lat="47.18139" lon="-1.07402">
        <ele>92.2</ele>
        <time>2020-07-27T08:50:46Z</time>
      </trkpt>
      <trkpt lat="47.18101" lon="-1.07402">
        <ele>92.8</ele>
        <time>2020-07-27T08:50:53Z</time>
      </trkpt>
      <trkpt lat="47.18062" lon="-1.07398">
        <ele>93.6</ele>
        <time>2020-07-27T08:51:01Z</time>
      </trkpt>
      <trkpt lat="47.18052" lon="-1.07397">
        <ele>93.8</ele>
        <time>2020-07-27T08:51:03Z</time>
      </trkpt>
      <trkpt lat="47.18028" lon="-1.07395">
        <ele>94.6</ele>
        <time>2020-07-27T08:51:08Z</time>
      </trkpt>
      <trkpt lat="47.18009" lon="-1.07393">
        <ele>95</ele>
        <time>2020-07-27T08:51:12Z</time>
      </trkpt>
      <trkpt lat="47.17981" lon="-1.0739">
        <ele>95.6</ele>
        <time>2020-07-27T08:51:18Z</time>
      </trkpt>
      <trkpt lat="47.17967" lon="-1.07388">
        <ele>96.2</ele>
        <time>2020-07-27T08:51:21Z</time>
      </trkpt>
      <trkpt lat="47.17953" lon="-1.07387">
        <ele>96.8</ele>
        <time>2020-07-27T08:51:24Z</time>
      </trkpt>
      <trkpt lat="47.17923" lon="-1.07385">
        <ele>97.2</ele>
        <time>2020-07-27T08:51:30Z</time>
      </trkpt>
      <trkpt lat="47.17891" lon="-1.07382">
        <ele>97.8</ele>
        <time>2020-07-27T08:51:37Z</time>
      </trkpt>
      <trkpt lat="47.17876" lon="-1.07381">
        <ele>98</ele>
        <time>2020-07-27T08:51:40Z</time>
      </trkpt>
      <trkpt lat="47.17834" lon="-1.07377">
        <ele>98.4</ele>
        <time>2020-07-27T08:51:49Z</time>
      </trkpt>
      <trkpt lat="47.1781" lon="-1.07377">
        <ele>98.8</ele>
        <time>2020-07-27T08:51:54Z</time>
      </trkpt>
      <trkpt lat="47.17796" lon="-1.07376">
        <ele>99.2</ele>
        <time>2020-07-27T08:51:57Z</time>
      </trkpt>
      <trkpt lat="47.17741" lon="-1.07375">
        <ele>98.4</ele>
        <time>2020-07-27T08:52:08Z</time>
      </trkpt>
      <trkpt lat="47.17735" lon="-1.07375">
        <ele>98.4</ele>
        <time>2020-07-27T08:52:09Z</time>
      </trkpt>
      <trkpt lat="47.17701" lon="-1.07374">
        <ele>97.8</ele>
        <time>2020-07-27T08:52:15Z</time>
      </trkpt>
      <trkpt lat="47.17684" lon="-1.07374">
        <ele>97.4</ele>
        <time>2020-07-27T08:52:18Z</time>
      </trkpt>
      <trkpt lat="47.17642" lon="-1.07376">
        <ele>96.6</ele>
        <time>2020-07-27T08:52:25Z</time>
      </trkpt>
      <trkpt lat="47.17636" lon="-1.07377">
        <ele>96.4</ele>
        <time>2020-07-27T08:52:26Z</time>
      </trkpt>
      <trkpt lat="47.17605" lon="-1.07385">
        <ele>95.4</ele>
        <time>2020-07-27T08:52:31Z</time>
      </trkpt>
      <trkpt lat="47.17587" lon="-1.07391">
        <ele>94.8</ele>
        <time>2020-07-27T08:52:34Z</time>
      </trkpt>
      <trkpt lat="47.17574" lon="-1.07395">
        <ele>94.4</ele>
        <time>2020-07-27T08:52:36Z</time>
      </trkpt>
      <trkpt lat="47.17535" lon="-1.07408">
        <ele>93.4</ele>
        <time>2020-07-27T08:52:42Z</time>
      </trkpt>
      <trkpt lat="47.17503" lon="-1.07426">
        <ele>92.4</ele>
        <time>2020-07-27T08:52:47Z</time>
      </trkpt>
      <trkpt lat="47.17498" lon="-1.07432">
        <ele>92.2</ele>
        <time>2020-07-27T08:52:48Z</time>
      </trkpt>
      <trkpt lat="47.17486" lon="-1.07465">
        <ele>91.4</ele>
        <time>2020-07-27T08:52:52Z</time>
      </trkpt>
      <trkpt lat="47.17484" lon="-1.07474">
        <ele>91.2</ele>
        <time>2020-07-27T08:52:53Z</time>
      </trkpt>
      <trkpt lat="47.17478" lon="-1.07517">
        <ele>90.6</ele>
        <time>2020-07-27T08:52:58Z</time>
      </trkpt>
      <trkpt lat="47.17474" lon="-1.07542">
        <ele>90</ele>
        <time>2020-07-27T08:53:01Z</time>
      </trkpt>
      <trkpt lat="47.17465" lon="-1.07594">
        <ele>89</ele>
        <time>2020-07-27T08:53:07Z</time>
      </trkpt>
      <trkpt lat="47.17462" lon="-1.07602">
        <ele>88.8</ele>
        <time>2020-07-27T08:53:08Z</time>
      </trkpt>
      <trkpt lat="47.17459" lon="-1.0761">
        <ele>88.6</ele>
        <time>2020-07-27T08:53:09Z</time>
      </trkpt>
      <trkpt lat="47.17443" lon="-1.07627">
        <ele>88.2</ele>
        <time>2020-07-27T08:53:12Z</time>
      </trkpt>
      <trkpt lat="47.17431" lon="-1.07635">
        <ele>88</ele>
        <time>2020-07-27T08:53:14Z</time>
      </trkpt>
      <trkpt lat="47.17406" lon="-1.07648">
        <ele>87.2</ele>
        <time>2020-07-27T08:53:18Z</time>
      </trkpt>
      <trkpt lat="47.17392" lon="-1.07652">
        <ele>86.8</ele>
        <time>2020-07-27T08:53:20Z</time>
      </trkpt>
      <trkpt lat="47.17371" lon="-1.07654">
        <ele>86.6</ele>
        <time>2020-07-27T08:53:23Z</time>
      </trkpt>
      <trkpt lat="47.17313" lon="-1.07651">
        <ele>85.8</ele>
        <time>2020-07-27T08:53:31Z</time>
      </trkpt>
      <trkpt lat="47.17275" lon="-1.07649">
        <ele>85.4</ele>
        <time>2020-07-27T08:53:37Z</time>
      </trkpt>
      <trkpt lat="47.17232" lon="-1.07648">
        <ele>85.6</ele>
        <time>2020-07-27T08:53:45Z</time>
      </trkpt>
      <trkpt lat="47.17201" lon="-1.07647">
        <ele>86.8</ele>
        <time>2020-07-27T08:53:51Z</time>
      </trkpt>
      <trkpt lat="47.17176" lon="-1.07645">
        <ele>87.6</ele>
        <time>2020-07-27T08:53:56Z</time>
      </trkpt>
      <trkpt lat="47.17166" lon="-1.07645">
        <ele>88</ele>
        <time>2020-07-27T08:53:58Z</time>
      </trkpt>
      <trkpt lat="47.17141" lon="-1.0765">
        <ele>89</ele>
        <time>2020-07-27T08:54:03Z</time>
      </trkpt>
      <trkpt lat="47.17136" lon="-1.07652">
        <ele>89.4</ele>
        <time>2020-07-27T08:54:04Z</time>
      </trkpt>
      <trkpt lat="47.17118" lon="-1.0767">
        <ele>90.2</ele>
        <time>2020-07-27T08:54:09Z</time>
      </trkpt>
      <trkpt lat="47.17113" lon="-1.0768">
        <ele>90.4</ele>
        <time>2020-07-27T08:54:11Z</time>
      </trkpt>
      <trkpt lat="47.17109" lon="-1.07692">
        <ele>90.8</ele>
        <time>2020-07-27T08:54:13Z</time>
      </trkpt>
      <trkpt lat="47.17107" lon="-1.07699">
        <ele>90.8</ele>
        <time>2020-07-27T08:54:14Z</time>
      </trkpt>
      <trkpt lat="47.17105" lon="-1.07712">
        <ele>91.2</ele>
        <time>2020-07-27T08:54:16Z</time>
      </trkpt>
      <trkpt lat="47.17104" lon="-1.07726">
        <ele>91.4</ele>
        <time>2020-07-27T08:54:18Z</time>
      </trkpt>
      <trkpt lat="47.17104" lon="-1.07742">
        <ele>91.6</ele>
        <time>2020-07-27T08:54:20Z</time>
      </trkpt>
      <trkpt lat="47.17103" lon="-1.07793">
        <ele>92.2</ele>
        <time>2020-07-27T08:54:27Z</time>
      </trkpt>
      <trkpt lat="47.17102" lon="-1.07815">
        <ele>92.2</ele>
        <time>2020-07-27T08:54:30Z</time>
      </trkpt>
      <trkpt lat="47.17099" lon="-1.07879">
        <ele>91.6</ele>
        <time>2020-07-27T08:54:38Z</time>
      </trkpt>
      <trkpt lat="47.17098" lon="-1.07915">
        <ele>91</ele>
        <time>2020-07-27T08:54:42Z</time>
      </trkpt>
      <trkpt lat="47.17095" lon="-1.07962">
        <ele>90.4</ele>
        <time>2020-07-27T08:54:47Z</time>
      </trkpt>
      <trkpt lat="47.17094" lon="-1.0799">
        <ele>90</ele>
        <time>2020-07-27T08:54:50Z</time>
      </trkpt>
      <trkpt lat="47.17091" lon="-1.08053">
        <ele>89.2</ele>
        <time>2020-07-27T08:54:56Z</time>
      </trkpt>
      <trkpt lat="47.17091" lon="-1.08074">
        <ele>89</ele>
        <time>2020-07-27T08:54:58Z</time>
      </trkpt>
      <trkpt lat="47.17095" lon="-1.08123">
        <ele>88.6</ele>
        <time>2020-07-27T08:55:03Z</time>
      </trkpt>
      <trkpt lat="47.17107" lon="-1.08184">
        <ele>88</ele>
        <time>2020-07-27T08:55:10Z</time>
      </trkpt>
      <trkpt lat="47.17109" lon="-1.08201">
        <ele>87.8</ele>
        <time>2020-07-27T08:55:12Z</time>
      </trkpt>
      <trkpt lat="47.1711" lon="-1.08218">
        <ele>87.8</ele>
        <time>2020-07-27T08:55:14Z</time>
      </trkpt>
      <trkpt lat="47.17107" lon="-1.08244">
        <ele>88</ele>
        <time>2020-07-27T08:55:17Z</time>
      </trkpt>
      <trkpt lat="47.17097" lon="-1.08272">
        <ele>88.2</ele>
        <time>2020-07-27T08:55:21Z</time>
      </trkpt>
      <trkpt lat="47.17095" lon="-1.08279">
        <ele>88.4</ele>
        <time>2020-07-27T08:55:22Z</time>
      </trkpt>
      <trkpt lat="47.17075" lon="-1.08323">
        <ele>89</ele>
        <time>2020-07-27T08:55:29Z</time>
      </trkpt>
      <trkpt lat="47.17073" lon="-1.08329">
        <ele>89.2</ele>
        <time>2020-07-27T08:55:30Z</time>
      </trkpt>
      <trkpt lat="47.17051" lon="-1.08384">
        <ele>90.2</ele>
        <time>2020-07-27T08:55:39Z</time>
      </trkpt>
      <trkpt lat="47.17048" lon="-1.0839">
        <ele>90.2</ele>
        <time>2020-07-27T08:55:40Z</time>
      </trkpt>
      <trkpt lat="47.17034" lon="-1.08426">
        <ele>91.2</ele>
        <time>2020-07-27T08:55:46Z</time>
      </trkpt>
      <trkpt lat="47.17026" lon="-1.08444">
        <ele>91.4</ele>
        <time>2020-07-27T08:55:49Z</time>
      </trkpt>
      <trkpt lat="47.17009" lon="-1.08486">
        <ele>92.2</ele>
        <time>2020-07-27T08:55:56Z</time>
      </trkpt>
      <trkpt lat="47.17004" lon="-1.08497">
        <ele>92.4</ele>
        <time>2020-07-27T08:55:58Z</time>
      </trkpt>
      <trkpt lat="47.16984" lon="-1.08541">
        <ele>93.2</ele>
        <time>2020-07-27T08:56:06Z</time>
      </trkpt>
      <trkpt lat="47.16964" lon="-1.08573">
        <ele>93.4</ele>
        <time>2020-07-27T08:56:14Z</time>
      </trkpt>
      <trkpt lat="47.16953" lon="-1.08591">
        <ele>93.8</ele>
        <time>2020-07-27T08:56:20Z</time>
      </trkpt>
      <trkpt lat="47.16953" lon="-1.086">
        <ele>91.4</ele>
        <time>2020-07-27T09:03:07Z</time>
      </trkpt>
      <trkpt lat="47.16951" lon="-1.08601">
        <ele>91.8</ele>
        <time>2020-07-27T09:03:08Z</time>
      </trkpt>
      <trkpt lat="47.16945" lon="-1.08596">
        <ele>92.4</ele>
        <time>2020-07-27T09:03:11Z</time>
      </trkpt>
      <trkpt lat="47.16929" lon="-1.08584">
        <ele>92.8</ele>
        <time>2020-07-27T09:03:16Z</time>
      </trkpt>
      <trkpt lat="47.16915" lon="-1.08571">
        <ele>93.6</ele>
        <time>2020-07-27T09:03:20Z</time>
      </trkpt>
      <trkpt lat="47.16907" lon="-1.08565">
        <ele>93.8</ele>
        <time>2020-07-27T09:03:22Z</time>
      </trkpt>
      <trkpt lat="47.16874" lon="-1.08536">
        <ele>94.4</ele>
        <time>2020-07-27T09:03:31Z</time>
      </trkpt>
      <trkpt lat="47.16866" lon="-1.0853">
        <ele>94.6</ele>
        <time>2020-07-27T09:03:33Z</time>
      </trkpt>
      <trkpt lat="47.16842" lon="-1.08509">
        <ele>95.2</ele>
        <time>2020-07-27T09:03:39Z</time>
      </trkpt>
      <trkpt lat="47.16828" lon="-1.08496">
        <ele>95.6</ele>
        <time>2020-07-27T09:03:43Z</time>
      </trkpt>
      <trkpt lat="47.16816" lon="-1.08486">
        <ele>96</ele>
        <time>2020-07-27T09:03:47Z</time>
      </trkpt>
      <trkpt lat="47.16813" lon="-1.08489">
        <ele>96</ele>
        <time>2020-07-27T09:03:48Z</time>
      </trkpt>
      <trkpt lat="47.16806" lon="-1.08495">
        <ele>96</ele>
        <time>2020-07-27T09:03:50Z</time>
      </trkpt>
      <trkpt lat="47.16799" lon="-1.08505">
        <ele>96</ele>
        <time>2020-07-27T09:03:52Z</time>
      </trkpt>
      <trkpt lat="47.1679" lon="-1.08523">
        <ele>95.8</ele>
        <time>2020-07-27T09:03:55Z</time>
      </trkpt>
      <trkpt lat="47.16765" lon="-1.08565">
        <ele>95.2</ele>
        <time>2020-07-27T09:04:02Z</time>
      </trkpt>
      <trkpt lat="47.16731" lon="-1.08622">
        <ele>95</ele>
        <time>2020-07-27T09:04:11Z</time>
      </trkpt>
      <trkpt lat="47.167" lon="-1.0868">
        <ele>95.6</ele>
        <time>2020-07-27T09:04:21Z</time>
      </trkpt>
      <trkpt lat="47.16676" lon="-1.08727">
        <ele>96.2</ele>
        <time>2020-07-27T09:04:30Z</time>
      </trkpt>
      <trkpt lat="47.16664" lon="-1.08748">
        <ele>96.8</ele>
        <time>2020-07-27T09:04:34Z</time>
      </trkpt>
      <trkpt lat="47.16646" lon="-1.08779">
        <ele>97.4</ele>
        <time>2020-07-27T09:04:40Z</time>
      </trkpt>
      <trkpt lat="47.16634" lon="-1.08801">
        <ele>97.8</ele>
        <time>2020-07-27T09:04:44Z</time>
      </trkpt>
      <trkpt lat="47.16618" lon="-1.0883">
        <ele>98.2</ele>
        <time>2020-07-27T09:04:49Z</time>
      </trkpt>
      <trkpt lat="47.16599" lon="-1.08864">
        <ele>98.8</ele>
        <time>2020-07-27T09:04:55Z</time>
      </trkpt>
      <trkpt lat="47.16586" lon="-1.08886">
        <ele>99.4</ele>
        <time>2020-07-27T09:04:59Z</time>
      </trkpt>
      <trkpt lat="47.16576" lon="-1.08901">
        <ele>100</ele>
        <time>2020-07-27T09:05:02Z</time>
      </trkpt>
      <trkpt lat="47.16562" lon="-1.08919">
        <ele>100.4</ele>
        <time>2020-07-27T09:05:06Z</time>
      </trkpt>
      <trkpt lat="47.16558" lon="-1.08923">
        <ele>100.4</ele>
        <time>2020-07-27T09:05:07Z</time>
      </trkpt>
      <trkpt lat="47.1654" lon="-1.08937">
        <ele>101</ele>
        <time>2020-07-27T09:05:11Z</time>
      </trkpt>
      <trkpt lat="47.16521" lon="-1.08948">
        <ele>101.6</ele>
        <time>2020-07-27T09:05:15Z</time>
      </trkpt>
      <trkpt lat="47.16477" lon="-1.08975">
        <ele>101.4</ele>
        <time>2020-07-27T09:05:24Z</time>
      </trkpt>
      <trkpt lat="47.16436" lon="-1.09001">
        <ele>100.6</ele>
        <time>2020-07-27T09:05:31Z</time>
      </trkpt>
      <trkpt lat="47.16402" lon="-1.09026">
        <ele>100</ele>
        <time>2020-07-27T09:05:37Z</time>
      </trkpt>
      <trkpt lat="47.16391" lon="-1.09036">
        <ele>99.8</ele>
        <time>2020-07-27T09:05:39Z</time>
      </trkpt>
      <trkpt lat="47.16367" lon="-1.09064">
        <ele>99</ele>
        <time>2020-07-27T09:05:44Z</time>
      </trkpt>
      <trkpt lat="47.16349" lon="-1.09086">
        <ele>98.4</ele>
        <time>2020-07-27T09:05:48Z</time>
      </trkpt>
      <trkpt lat="47.16336" lon="-1.09103">
        <ele>97.8</ele>
        <time>2020-07-27T09:05:51Z</time>
      </trkpt>
      <trkpt lat="47.16294" lon="-1.09149">
        <ele>97</ele>
        <time>2020-07-27T09:06:00Z</time>
      </trkpt>
      <trkpt lat="47.16279" lon="-1.09165">
        <ele>96.8</ele>
        <time>2020-07-27T09:06:03Z</time>
      </trkpt>
      <trkpt lat="47.16256" lon="-1.09194">
        <ele>96.4</ele>
        <time>2020-07-27T09:06:08Z</time>
      </trkpt>
      <trkpt lat="47.16249" lon="-1.09209">
        <ele>95.6</ele>
        <time>2020-07-27T09:06:10Z</time>
      </trkpt>
      <trkpt lat="47.16236" lon="-1.09241">
        <ele>94.4</ele>
        <time>2020-07-27T09:06:14Z</time>
      </trkpt>
      <trkpt lat="47.16229" lon="-1.09266">
        <ele>93</ele>
        <time>2020-07-27T09:06:17Z</time>
      </trkpt>
      <trkpt lat="47.16218" lon="-1.09312">
        <ele>92</ele>
        <time>2020-07-27T09:06:22Z</time>
      </trkpt>
      <trkpt lat="47.16197" lon="-1.09381">
        <ele>91</ele>
        <time>2020-07-27T09:06:30Z</time>
      </trkpt>
      <trkpt lat="47.16178" lon="-1.09429">
        <ele>90</ele>
        <time>2020-07-27T09:06:36Z</time>
      </trkpt>
      <trkpt lat="47.16168" lon="-1.0945">
        <ele>89.4</ele>
        <time>2020-07-27T09:06:39Z</time>
      </trkpt>
      <trkpt lat="47.16156" lon="-1.09469">
        <ele>88.6</ele>
        <time>2020-07-27T09:06:42Z</time>
      </trkpt>
      <trkpt lat="47.16141" lon="-1.09487">
        <ele>87.8</ele>
        <time>2020-07-27T09:06:45Z</time>
      </trkpt>
      <trkpt lat="47.16131" lon="-1.09499">
        <ele>87.6</ele>
        <time>2020-07-27T09:06:47Z</time>
      </trkpt>
      <trkpt lat="47.16119" lon="-1.09518">
        <ele>87</ele>
        <time>2020-07-27T09:06:50Z</time>
      </trkpt>
      <trkpt lat="47.16116" lon="-1.09525">
        <ele>86.6</ele>
        <time>2020-07-27T09:06:51Z</time>
      </trkpt>
      <trkpt lat="47.16112" lon="-1.09533">
        <ele>86.2</ele>
        <time>2020-07-27T09:06:52Z</time>
      </trkpt>
      <trkpt lat="47.16106" lon="-1.09551">
        <ele>85.2</ele>
        <time>2020-07-27T09:06:54Z</time>
      </trkpt>
      <trkpt lat="47.16103" lon="-1.09561">
        <ele>84.6</ele>
        <time>2020-07-27T09:06:55Z</time>
      </trkpt>
      <trkpt lat="47.16101" lon="-1.0957">
        <ele>84.2</ele>
        <time>2020-07-27T09:06:56Z</time>
      </trkpt>
      <trkpt lat="47.16101" lon="-1.09591">
        <ele>83.4</ele>
        <time>2020-07-27T09:06:58Z</time>
      </trkpt>
      <trkpt lat="47.16101" lon="-1.09602">
        <ele>83</ele>
        <time>2020-07-27T09:06:59Z</time>
      </trkpt>
      <trkpt lat="47.16103" lon="-1.09613">
        <ele>82.6</ele>
        <time>2020-07-27T09:07:00Z</time>
      </trkpt>
      <trkpt lat="47.16108" lon="-1.09636">
        <ele>81.6</ele>
        <time>2020-07-27T09:07:02Z</time>
      </trkpt>
      <trkpt lat="47.16117" lon="-1.09669">
        <ele>80.2</ele>
        <time>2020-07-27T09:07:05Z</time>
      </trkpt>
      <trkpt lat="47.1613" lon="-1.09709">
        <ele>79.2</ele>
        <time>2020-07-27T09:07:09Z</time>
      </trkpt>
      <trkpt lat="47.16159" lon="-1.09773">
        <ele>78.4</ele>
        <time>2020-07-27T09:07:17Z</time>
      </trkpt>
      <trkpt lat="47.16175" lon="-1.09817">
        <ele>78.2</ele>
        <time>2020-07-27T09:07:23Z</time>
      </trkpt>
      <trkpt lat="47.16182" lon="-1.09849">
        <ele>77.8</ele>
        <time>2020-07-27T09:07:28Z</time>
      </trkpt>
      <trkpt lat="47.1618" lon="-1.09862">
        <ele>77.4</ele>
        <time>2020-07-27T09:07:32Z</time>
      </trkpt>
      <trkpt lat="47.16169" lon="-1.09867">
        <ele>77.6</ele>
        <time>2020-07-27T09:07:35Z</time>
      </trkpt>
      <trkpt lat="47.16155" lon="-1.09869">
        <ele>77.8</ele>
        <time>2020-07-27T09:07:38Z</time>
      </trkpt>
      <trkpt lat="47.16144" lon="-1.0987">
        <ele>78</ele>
        <time>2020-07-27T09:07:40Z</time>
      </trkpt>
      <trkpt lat="47.16114" lon="-1.09875">
        <ele>79.4</ele>
        <time>2020-07-27T09:07:47Z</time>
      </trkpt>
      <trkpt lat="47.1611" lon="-1.09876">
        <ele>79.6</ele>
        <time>2020-07-27T09:07:48Z</time>
      </trkpt>
      <trkpt lat="47.16093" lon="-1.0988">
        <ele>80.6</ele>
        <time>2020-07-27T09:07:52Z</time>
      </trkpt>
      <trkpt lat="47.16072" lon="-1.09885">
        <ele>81.8</ele>
        <time>2020-07-27T09:07:57Z</time>
      </trkpt>
      <trkpt lat="47.16052" lon="-1.09889">
        <ele>83</ele>
        <time>2020-07-27T09:08:02Z</time>
      </trkpt>
      <trkpt lat="47.16031" lon="-1.09894">
        <ele>84.4</ele>
        <time>2020-07-27T09:08:07Z</time>
      </trkpt>
      <trkpt lat="47.16027" lon="-1.09895">
        <ele>84.6</ele>
        <time>2020-07-27T09:08:08Z</time>
      </trkpt>
      <trkpt lat="47.1601" lon="-1.099">
        <ele>85.4</ele>
        <time>2020-07-27T09:08:12Z</time>
      </trkpt>
      <trkpt lat="47.15983" lon="-1.09906">
        <ele>86.2</ele>
        <time>2020-07-27T09:08:18Z</time>
      </trkpt>
      <trkpt lat="47.15975" lon="-1.09908">
        <ele>86.6</ele>
        <time>2020-07-27T09:08:20Z</time>
      </trkpt>
      <trkpt lat="47.1593" lon="-1.09919">
        <ele>87.6</ele>
        <time>2020-07-27T09:08:30Z</time>
      </trkpt>
      <trkpt lat="47.15895" lon="-1.09927">
        <ele>88.6</ele>
        <time>2020-07-27T09:08:38Z</time>
      </trkpt>
      <trkpt lat="47.15881" lon="-1.09929">
        <ele>89</ele>
        <time>2020-07-27T09:08:41Z</time>
      </trkpt>
      <trkpt lat="47.15868" lon="-1.09932">
        <ele>89.8</ele>
        <time>2020-07-27T09:08:44Z</time>
      </trkpt>
      <trkpt lat="47.15833" lon="-1.09941">
        <ele>90</ele>
        <time>2020-07-27T09:08:52Z</time>
      </trkpt>
      <trkpt lat="47.15813" lon="-1.09946">
        <ele>90.8</ele>
        <time>2020-07-27T09:08:57Z</time>
      </trkpt>
      <trkpt lat="47.15793" lon="-1.0995">
        <ele>90.8</ele>
        <time>2020-07-27T09:09:02Z</time>
      </trkpt>
      <trkpt lat="47.15767" lon="-1.09957">
        <ele>91.2</ele>
        <time>2020-07-27T09:09:08Z</time>
      </trkpt>
      <trkpt lat="47.15717" lon="-1.09968">
        <ele>91.6</ele>
        <time>2020-07-27T09:09:20Z</time>
      </trkpt>
      <trkpt lat="47.15704" lon="-1.0997">
        <ele>92</ele>
        <time>2020-07-27T09:09:23Z</time>
      </trkpt>
      <trkpt lat="47.15677" lon="-1.09979">
        <ele>92.6</ele>
        <time>2020-07-27T09:09:29Z</time>
      </trkpt>
      <trkpt lat="47.15663" lon="-1.09984">
        <ele>93</ele>
        <time>2020-07-27T09:09:32Z</time>
      </trkpt>
      <trkpt lat="47.15632" lon="-1.09999">
        <ele>93.2</ele>
        <time>2020-07-27T09:09:39Z</time>
      </trkpt>
      <trkpt lat="47.15595" lon="-1.1002">
        <ele>93.6</ele>
        <time>2020-07-27T09:09:48Z</time>
      </trkpt>
      <trkpt lat="47.15578" lon="-1.1003">
        <ele>94.2</ele>
        <time>2020-07-27T09:09:52Z</time>
      </trkpt>
      <trkpt lat="47.15551" lon="-1.10044">
        <ele>94.4</ele>
        <time>2020-07-27T09:09:58Z</time>
      </trkpt>
      <trkpt lat="47.15516" lon="-1.10062">
        <ele>95.2</ele>
        <time>2020-07-27T09:10:06Z</time>
      </trkpt>
      <trkpt lat="47.15512" lon="-1.10064">
        <ele>95.2</ele>
        <time>2020-07-27T09:10:07Z</time>
      </trkpt>
      <trkpt lat="47.15478" lon="-1.10072">
        <ele>95.6</ele>
        <time>2020-07-27T09:10:14Z</time>
      </trkpt>
      <trkpt lat="47.15453" lon="-1.10072">
        <ele>96.2</ele>
        <time>2020-07-27T09:10:19Z</time>
      </trkpt>
      <trkpt lat="47.15438" lon="-1.10074">
        <ele>96.4</ele>
        <time>2020-07-27T09:10:22Z</time>
      </trkpt>
      <trkpt lat="47.15419" lon="-1.10079">
        <ele>96.8</ele>
        <time>2020-07-27T09:10:26Z</time>
      </trkpt>
      <trkpt lat="47.15405" lon="-1.10086">
        <ele>97</ele>
        <time>2020-07-27T09:10:29Z</time>
      </trkpt>
      <trkpt lat="47.15384" lon="-1.10102">
        <ele>97.2</ele>
        <time>2020-07-27T09:10:34Z</time>
      </trkpt>
      <trkpt lat="47.15371" lon="-1.10114">
        <ele>97.4</ele>
        <time>2020-07-27T09:10:37Z</time>
      </trkpt>
      <trkpt lat="47.15336" lon="-1.10152">
        <ele>98</ele>
        <time>2020-07-27T09:10:46Z</time>
      </trkpt>
      <trkpt lat="47.1532" lon="-1.1017">
        <ele>98.2</ele>
        <time>2020-07-27T09:10:50Z</time>
      </trkpt>
      <trkpt lat="47.153" lon="-1.10191">
        <ele>98.4</ele>
        <time>2020-07-27T09:10:55Z</time>
      </trkpt>
      <trkpt lat="47.15262" lon="-1.10233">
        <ele>98.8</ele>
        <time>2020-07-27T09:11:04Z</time>
      </trkpt>
      <trkpt lat="47.15227" lon="-1.10271">
        <ele>99.2</ele>
        <time>2020-07-27T09:11:12Z</time>
      </trkpt>
      <trkpt lat="47.15189" lon="-1.10312">
        <ele>99</ele>
        <time>2020-07-27T09:11:21Z</time>
      </trkpt>
      <trkpt lat="47.1515" lon="-1.10353">
        <ele>99</ele>
        <time>2020-07-27T09:11:30Z</time>
      </trkpt>
      <trkpt lat="47.1511" lon="-1.10394">
        <ele>99.2</ele>
        <time>2020-07-27T09:11:39Z</time>
      </trkpt>
      <trkpt lat="47.15097" lon="-1.10408">
        <ele>99.4</ele>
        <time>2020-07-27T09:11:42Z</time>
      </trkpt>
      <trkpt lat="47.15067" lon="-1.10441">
        <ele>99</ele>
        <time>2020-07-27T09:11:49Z</time>
      </trkpt>
      <trkpt lat="47.1503" lon="-1.10481">
        <ele>98.6</ele>
        <time>2020-07-27T09:11:57Z</time>
      </trkpt>
      <trkpt lat="47.15016" lon="-1.10497">
        <ele>98.2</ele>
        <time>2020-07-27T09:12:00Z</time>
      </trkpt>
      <trkpt lat="47.14987" lon="-1.10527">
        <ele>97.8</ele>
        <time>2020-07-27T09:12:06Z</time>
      </trkpt>
      <trkpt lat="47.14972" lon="-1.10544">
        <ele>97.2</ele>
        <time>2020-07-27T09:12:09Z</time>
      </trkpt>
      <trkpt lat="47.14952" lon="-1.10565">
        <ele>96.8</ele>
        <time>2020-07-27T09:12:13Z</time>
      </trkpt>
      <trkpt lat="47.14923" lon="-1.10598">
        <ele>96.2</ele>
        <time>2020-07-27T09:12:19Z</time>
      </trkpt>
      <trkpt lat="47.14914" lon="-1.10609">
        <ele>96</ele>
        <time>2020-07-27T09:12:21Z</time>
      </trkpt>
      <trkpt lat="47.14879" lon="-1.10655">
        <ele>95.2</ele>
        <time>2020-07-27T09:12:29Z</time>
      </trkpt>
      <trkpt lat="47.14843" lon="-1.10709">
        <ele>95.2</ele>
        <time>2020-07-27T09:12:38Z</time>
      </trkpt>
      <trkpt lat="47.14813" lon="-1.10762">
        <ele>95.6</ele>
        <time>2020-07-27T09:12:46Z</time>
      </trkpt>
      <trkpt lat="47.14778" lon="-1.10828">
        <ele>96</ele>
        <time>2020-07-27T09:12:56Z</time>
      </trkpt>
      <trkpt lat="47.14772" lon="-1.10841">
        <ele>96.2</ele>
        <time>2020-07-27T09:12:58Z</time>
      </trkpt>
      <trkpt lat="47.1475" lon="-1.10881">
        <ele>96.6</ele>
        <time>2020-07-27T09:13:04Z</time>
      </trkpt>
      <trkpt lat="47.14713" lon="-1.10949">
        <ele>97.2</ele>
        <time>2020-07-27T09:13:14Z</time>
      </trkpt>
      <trkpt lat="47.14701" lon="-1.10969">
        <ele>97.2</ele>
        <time>2020-07-27T09:13:17Z</time>
      </trkpt>
      <trkpt lat="47.14671" lon="-1.11017">
        <ele>97</ele>
        <time>2020-07-27T09:13:24Z</time>
      </trkpt>
      <trkpt lat="47.14632" lon="-1.11081">
        <ele>96.6</ele>
        <time>2020-07-27T09:13:33Z</time>
      </trkpt>
      <trkpt lat="47.14618" lon="-1.11103">
        <ele>96.2</ele>
        <time>2020-07-27T09:13:36Z</time>
      </trkpt>
      <trkpt lat="47.14586" lon="-1.1116">
        <ele>95.8</ele>
        <time>2020-07-27T09:13:44Z</time>
      </trkpt>
      <trkpt lat="47.14553" lon="-1.11224">
        <ele>95.2</ele>
        <time>2020-07-27T09:13:53Z</time>
      </trkpt>
      <trkpt lat="47.1455" lon="-1.11231">
        <ele>95.2</ele>
        <time>2020-07-27T09:13:54Z</time>
      </trkpt>
      <trkpt lat="47.14546" lon="-1.11239">
        <ele>95.2</ele>
        <time>2020-07-27T09:13:55Z</time>
      </trkpt>
      <trkpt lat="47.1451" lon="-1.11308">
        <ele>95.4</ele>
        <time>2020-07-27T09:14:05Z</time>
      </trkpt>
      <trkpt lat="47.14507" lon="-1.11315">
        <ele>95.4</ele>
        <time>2020-07-27T09:14:06Z</time>
      </trkpt>
      <trkpt lat="47.14475" lon="-1.11374">
        <ele>96.2</ele>
        <time>2020-07-27T09:14:15Z</time>
      </trkpt>
      <trkpt lat="47.14452" lon="-1.1142">
        <ele>97.4</ele>
        <time>2020-07-27T09:14:22Z</time>
      </trkpt>
      <trkpt lat="47.14446" lon="-1.11433">
        <ele>97.6</ele>
        <time>2020-07-27T09:14:24Z</time>
      </trkpt>
      <trkpt lat="47.1443" lon="-1.11465">
        <ele>98.4</ele>
        <time>2020-07-27T09:14:29Z</time>
      </trkpt>
      <trkpt lat="47.14424" lon="-1.11477">
        <ele>98.8</ele>
        <time>2020-07-27T09:14:31Z</time>
      </trkpt>
      <trkpt lat="47.14408" lon="-1.11507">
        <ele>99.6</ele>
        <time>2020-07-27T09:14:36Z</time>
      </trkpt>
      <trkpt lat="47.14396" lon="-1.11531">
        <ele>100.4</ele>
        <time>2020-07-27T09:14:40Z</time>
      </trkpt>
      <trkpt lat="47.1439" lon="-1.11542">
        <ele>100.6</ele>
        <time>2020-07-27T09:14:42Z</time>
      </trkpt>
      <trkpt lat="47.14368" lon="-1.11587">
        <ele>101.8</ele>
        <time>2020-07-27T09:14:50Z</time>
      </trkpt>
      <trkpt lat="47.14346" lon="-1.1163">
        <ele>102.6</ele>
        <time>2020-07-27T09:14:59Z</time>
      </trkpt>
      <trkpt lat="47.14339" lon="-1.11662">
        <ele>102.2</ele>
        <time>2020-07-27T09:15:05Z</time>
      </trkpt>
      <trkpt lat="47.14334" lon="-1.11724">
        <ele>102.2</ele>
        <time>2020-07-27T09:15:14Z</time>
      </trkpt>
      <trkpt lat="47.14327" lon="-1.118">
        <ele>101.8</ele>
        <time>2020-07-27T09:15:24Z</time>
      </trkpt>
      <trkpt lat="47.14322" lon="-1.11885">
        <ele>101</ele>
        <time>2020-07-27T09:15:34Z</time>
      </trkpt>
      <trkpt lat="47.14321" lon="-1.11922">
        <ele>100.6</ele>
        <time>2020-07-27T09:15:38Z</time>
      </trkpt>
      <trkpt lat="47.14322" lon="-1.1196">
        <ele>100.4</ele>
        <time>2020-07-27T09:15:42Z</time>
      </trkpt>
      <trkpt lat="47.14327" lon="-1.12043">
        <ele>99.8</ele>
        <time>2020-07-27T09:15:51Z</time>
      </trkpt>
      <trkpt lat="47.14333" lon="-1.12129">
        <ele>100</ele>
        <time>2020-07-27T09:16:01Z</time>
      </trkpt>
      <trkpt lat="47.14333" lon="-1.12137">
        <ele>100.2</ele>
        <time>2020-07-27T09:16:02Z</time>
      </trkpt>
      <trkpt lat="47.14331" lon="-1.1221">
        <ele>101</ele>
        <time>2020-07-27T09:16:11Z</time>
      </trkpt>
      <trkpt lat="47.14327" lon="-1.12283">
        <ele>101.4</ele>
        <time>2020-07-27T09:16:20Z</time>
      </trkpt>
      <trkpt lat="47.14318" lon="-1.12358">
        <ele>101.4</ele>
        <time>2020-07-27T09:16:29Z</time>
      </trkpt>
      <trkpt lat="47.14303" lon="-1.12432">
        <ele>101.2</ele>
        <time>2020-07-27T09:16:38Z</time>
      </trkpt>
      <trkpt lat="47.14291" lon="-1.12488">
        <ele>101.6</ele>
        <time>2020-07-27T09:16:45Z</time>
      </trkpt>
      <trkpt lat="47.14285" lon="-1.12519">
        <ele>101.6</ele>
        <time>2020-07-27T09:16:49Z</time>
      </trkpt>
      <trkpt lat="47.14272" lon="-1.12585">
        <ele>102</ele>
        <time>2020-07-27T09:16:57Z</time>
      </trkpt>
      <trkpt lat="47.14258" lon="-1.12669">
        <ele>102.4</ele>
        <time>2020-07-27T09:17:07Z</time>
      </trkpt>
      <trkpt lat="47.14253" lon="-1.12727">
        <ele>102</ele>
        <time>2020-07-27T09:17:14Z</time>
      </trkpt>
      <trkpt lat="47.1426" lon="-1.12787">
        <ele>101</ele>
        <time>2020-07-27T09:17:21Z</time>
      </trkpt>
      <trkpt lat="47.14268" lon="-1.1283">
        <ele>100.6</ele>
        <time>2020-07-27T09:17:26Z</time>
      </trkpt>
      <trkpt lat="47.14272" lon="-1.12856">
        <ele>100.4</ele>
        <time>2020-07-27T09:17:29Z</time>
      </trkpt>
      <trkpt lat="47.14286" lon="-1.12932">
        <ele>99.6</ele>
        <time>2020-07-27T09:17:37Z</time>
      </trkpt>
      <trkpt lat="47.1429" lon="-1.12952">
        <ele>99.2</ele>
        <time>2020-07-27T09:17:39Z</time>
      </trkpt>
      <trkpt lat="47.14307" lon="-1.13017">
        <ele>98.6</ele>
        <time>2020-07-27T09:17:46Z</time>
      </trkpt>
      <trkpt lat="47.14312" lon="-1.13036">
        <ele>98.4</ele>
        <time>2020-07-27T09:17:48Z</time>
      </trkpt>
      <trkpt lat="47.14333" lon="-1.13111">
        <ele>98</ele>
        <time>2020-07-27T09:17:56Z</time>
      </trkpt>
      <trkpt lat="47.1434" lon="-1.1314">
        <ele>97.8</ele>
        <time>2020-07-27T09:17:59Z</time>
      </trkpt>
      <trkpt lat="47.14353" lon="-1.1319">
        <ele>97.4</ele>
        <time>2020-07-27T09:18:04Z</time>
      </trkpt>
      <trkpt lat="47.14361" lon="-1.13221">
        <ele>97</ele>
        <time>2020-07-27T09:18:07Z</time>
      </trkpt>
      <trkpt lat="47.14372" lon="-1.13261">
        <ele>96.4</ele>
        <time>2020-07-27T09:18:11Z</time>
      </trkpt>
      <trkpt lat="47.14384" lon="-1.1331">
        <ele>95.8</ele>
        <time>2020-07-27T09:18:16Z</time>
      </trkpt>
      <trkpt lat="47.14397" lon="-1.13369">
        <ele>95.2</ele>
        <time>2020-07-27T09:18:22Z</time>
      </trkpt>
      <trkpt lat="47.144" lon="-1.1339">
        <ele>95</ele>
        <time>2020-07-27T09:18:24Z</time>
      </trkpt>
      <trkpt lat="47.14407" lon="-1.13443">
        <ele>94.2</ele>
        <time>2020-07-27T09:18:29Z</time>
      </trkpt>
      <trkpt lat="47.14413" lon="-1.13485">
        <ele>93.6</ele>
        <time>2020-07-27T09:18:33Z</time>
      </trkpt>
      <trkpt lat="47.14417" lon="-1.13517">
        <ele>93</ele>
        <time>2020-07-27T09:18:36Z</time>
      </trkpt>
      <trkpt lat="47.14422" lon="-1.13559">
        <ele>92</ele>
        <time>2020-07-27T09:18:40Z</time>
      </trkpt>
      <trkpt lat="47.14424" lon="-1.13569">
        <ele>91.8</ele>
        <time>2020-07-27T09:18:41Z</time>
      </trkpt>
      <trkpt lat="47.14429" lon="-1.13612">
        <ele>90.6</ele>
        <time>2020-07-27T09:18:45Z</time>
      </trkpt>
      <trkpt lat="47.14434" lon="-1.13655">
        <ele>89.8</ele>
        <time>2020-07-27T09:18:49Z</time>
      </trkpt>
      <trkpt lat="47.14437" lon="-1.13676">
        <ele>89.6</ele>
        <time>2020-07-27T09:18:51Z</time>
      </trkpt>
      <trkpt lat="47.14445" lon="-1.13739">
        <ele>88.6</ele>
        <time>2020-07-27T09:18:57Z</time>
      </trkpt>
      <trkpt lat="47.14447" lon="-1.1375">
        <ele>88.4</ele>
        <time>2020-07-27T09:18:58Z</time>
      </trkpt>
      <trkpt lat="47.14457" lon="-1.13822">
        <ele>87.2</ele>
        <time>2020-07-27T09:19:05Z</time>
      </trkpt>
      <trkpt lat="47.14461" lon="-1.13842">
        <ele>87</ele>
        <time>2020-07-27T09:19:07Z</time>
      </trkpt>
      <trkpt lat="47.14474" lon="-1.13896">
        <ele>86.8</ele>
        <time>2020-07-27T09:19:13Z</time>
      </trkpt>
      <trkpt lat="47.14497" lon="-1.13971">
        <ele>87</ele>
        <time>2020-07-27T09:19:22Z</time>
      </trkpt>
      <trkpt lat="47.14517" lon="-1.14032">
        <ele>87.6</ele>
        <time>2020-07-27T09:19:30Z</time>
      </trkpt>
      <trkpt lat="47.14531" lon="-1.14083">
        <ele>88</ele>
        <time>2020-07-27T09:19:38Z</time>
      </trkpt>
      <trkpt lat="47.14536" lon="-1.14102">
        <ele>88.4</ele>
        <time>2020-07-27T09:19:41Z</time>
      </trkpt>
      <trkpt lat="47.14548" lon="-1.14152">
        <ele>89.2</ele>
        <time>2020-07-27T09:19:49Z</time>
      </trkpt>
      <trkpt lat="47.14549" lon="-1.14158">
        <ele>89.4</ele>
        <time>2020-07-27T09:19:50Z</time>
      </trkpt>
      <trkpt lat="47.14555" lon="-1.14197">
        <ele>90.4</ele>
        <time>2020-07-27T09:19:56Z</time>
      </trkpt>
      <trkpt lat="47.14556" lon="-1.14204">
        <ele>90.6</ele>
        <time>2020-07-27T09:19:57Z</time>
      </trkpt>
      <trkpt lat="47.14558" lon="-1.14258">
        <ele>91.2</ele>
        <time>2020-07-27T09:20:05Z</time>
      </trkpt>
      <trkpt lat="47.14557" lon="-1.14271">
        <ele>91.6</ele>
        <time>2020-07-27T09:20:07Z</time>
      </trkpt>
      <trkpt lat="47.14555" lon="-1.14312">
        <ele>91.6</ele>
        <time>2020-07-27T09:20:13Z</time>
      </trkpt>
      <trkpt lat="47.14552" lon="-1.14381">
        <ele>92</ele>
        <time>2020-07-27T09:20:23Z</time>
      </trkpt>
      <trkpt lat="47.1455" lon="-1.14428">
        <ele>92.6</ele>
        <time>2020-07-27T09:20:30Z</time>
      </trkpt>
      <trkpt lat="47.1455" lon="-1.14448">
        <ele>92.6</ele>
        <time>2020-07-27T09:20:33Z</time>
      </trkpt>
      <trkpt lat="47.14547" lon="-1.14518">
        <ele>93.6</ele>
        <time>2020-07-27T09:20:43Z</time>
      </trkpt>
      <trkpt lat="47.14545" lon="-1.14565">
        <ele>93.2</ele>
        <time>2020-07-27T09:20:49Z</time>
      </trkpt>
      <trkpt lat="47.14542" lon="-1.14644">
        <ele>93</ele>
        <time>2020-07-27T09:20:58Z</time>
      </trkpt>
      <trkpt lat="47.14539" lon="-1.14725">
        <ele>92.4</ele>
        <time>2020-07-27T09:21:07Z</time>
      </trkpt>
      <trkpt lat="47.14536" lon="-1.14781">
        <ele>91.6</ele>
        <time>2020-07-27T09:21:13Z</time>
      </trkpt>
      <trkpt lat="47.14535" lon="-1.1481">
        <ele>91.2</ele>
        <time>2020-07-27T09:21:16Z</time>
      </trkpt>
      <trkpt lat="47.14534" lon="-1.14839">
        <ele>90.4</ele>
        <time>2020-07-27T09:21:19Z</time>
      </trkpt>
      <trkpt lat="47.14532" lon="-1.14888">
        <ele>89.6</ele>
        <time>2020-07-27T09:21:24Z</time>
      </trkpt>
      <trkpt lat="47.14531" lon="-1.14907">
        <ele>89.4</ele>
        <time>2020-07-27T09:21:26Z</time>
      </trkpt>
      <trkpt lat="47.14526" lon="-1.14974">
        <ele>88.8</ele>
        <time>2020-07-27T09:21:33Z</time>
      </trkpt>
      <trkpt lat="47.14515" lon="-1.15055">
        <ele>89</ele>
        <time>2020-07-27T09:21:42Z</time>
      </trkpt>
      <trkpt lat="47.14501" lon="-1.15135">
        <ele>89</ele>
        <time>2020-07-27T09:21:52Z</time>
      </trkpt>
      <trkpt lat="47.14492" lon="-1.15189">
        <ele>89.8</ele>
        <time>2020-07-27T09:21:59Z</time>
      </trkpt>
      <trkpt lat="47.14484" lon="-1.15259">
        <ele>90.4</ele>
        <time>2020-07-27T09:22:08Z</time>
      </trkpt>
      <trkpt lat="47.14483" lon="-1.15276">
        <ele>90.4</ele>
        <time>2020-07-27T09:22:10Z</time>
      </trkpt>
      <trkpt lat="47.14476" lon="-1.15333">
        <ele>90.6</ele>
        <time>2020-07-27T09:22:17Z</time>
      </trkpt>
      <trkpt lat="47.14469" lon="-1.15416">
        <ele>90.4</ele>
        <time>2020-07-27T09:22:27Z</time>
      </trkpt>
      <trkpt lat="47.14456" lon="-1.15474">
        <ele>90.4</ele>
        <time>2020-07-27T09:22:34Z</time>
      </trkpt>
      <trkpt lat="47.14436" lon="-1.1552">
        <ele>90.4</ele>
        <time>2020-07-27T09:22:40Z</time>
      </trkpt>
      <trkpt lat="47.14408" lon="-1.15571">
        <ele>89.4</ele>
        <time>2020-07-27T09:22:47Z</time>
      </trkpt>
      <trkpt lat="47.144" lon="-1.15586">
        <ele>89.2</ele>
        <time>2020-07-27T09:22:49Z</time>
      </trkpt>
      <trkpt lat="47.14379" lon="-1.15632">
        <ele>88.6</ele>
        <time>2020-07-27T09:22:55Z</time>
      </trkpt>
      <trkpt lat="47.14369" lon="-1.15654">
        <ele>88.4</ele>
        <time>2020-07-27T09:22:58Z</time>
      </trkpt>
      <trkpt lat="47.14356" lon="-1.15684">
        <ele>88.2</ele>
        <time>2020-07-27T09:23:02Z</time>
      </trkpt>
      <trkpt lat="47.14354" lon="-1.15693">
        <ele>88</ele>
        <time>2020-07-27T09:23:03Z</time>
      </trkpt>
      <trkpt lat="47.14349" lon="-1.15721">
        <ele>87.4</ele>
        <time>2020-07-27T09:23:06Z</time>
      </trkpt>
      <trkpt lat="47.14347" lon="-1.15742">
        <ele>87</ele>
        <time>2020-07-27T09:23:08Z</time>
      </trkpt>
      <trkpt lat="47.14347" lon="-1.15753">
        <ele>86.8</ele>
        <time>2020-07-27T09:23:09Z</time>
      </trkpt>
      <trkpt lat="47.14351" lon="-1.15775">
        <ele>86.2</ele>
        <time>2020-07-27T09:23:11Z</time>
      </trkpt>
      <trkpt lat="47.14353" lon="-1.15785">
        <ele>86</ele>
        <time>2020-07-27T09:23:12Z</time>
      </trkpt>
      <trkpt lat="47.14356" lon="-1.15796">
        <ele>85.6</ele>
        <time>2020-07-27T09:23:13Z</time>
      </trkpt>
      <trkpt lat="47.14361" lon="-1.15817">
        <ele>85</ele>
        <time>2020-07-27T09:23:15Z</time>
      </trkpt>
      <trkpt lat="47.14372" lon="-1.15861">
        <ele>84</ele>
        <time>2020-07-27T09:23:19Z</time>
      </trkpt>
      <trkpt lat="47.14377" lon="-1.15882">
        <ele>83.4</ele>
        <time>2020-07-27T09:23:21Z</time>
      </trkpt>
      <trkpt lat="47.14382" lon="-1.15903">
        <ele>82.8</ele>
        <time>2020-07-27T09:23:23Z</time>
      </trkpt>
      <trkpt lat="47.14392" lon="-1.15942">
        <ele>81.4</ele>
        <time>2020-07-27T09:23:27Z</time>
      </trkpt>
      <trkpt lat="47.14394" lon="-1.15952">
        <ele>81.2</ele>
        <time>2020-07-27T09:23:28Z</time>
      </trkpt>
      <trkpt lat="47.14401" lon="-1.1598">
        <ele>80.4</ele>
        <time>2020-07-27T09:23:31Z</time>
      </trkpt>
      <trkpt lat="47.14415" lon="-1.16038">
        <ele>79.4</ele>
        <time>2020-07-27T09:23:38Z</time>
      </trkpt>
      <trkpt lat="47.14428" lon="-1.16094">
        <ele>78</ele>
        <time>2020-07-27T09:23:44Z</time>
      </trkpt>
      <trkpt lat="47.14441" lon="-1.1614">
        <ele>77</ele>
        <time>2020-07-27T09:23:49Z</time>
      </trkpt>
      <trkpt lat="47.14455" lon="-1.162">
        <ele>76</ele>
        <time>2020-07-27T09:23:55Z</time>
      </trkpt>
      <trkpt lat="47.1446" lon="-1.16222">
        <ele>75.6</ele>
        <time>2020-07-27T09:23:57Z</time>
      </trkpt>
      <trkpt lat="47.14471" lon="-1.16278">
        <ele>75.2</ele>
        <time>2020-07-27T09:24:03Z</time>
      </trkpt>
      <trkpt lat="47.14477" lon="-1.16319">
        <ele>75.8</ele>
        <time>2020-07-27T09:24:09Z</time>
      </trkpt>
      <trkpt lat="47.14475" lon="-1.16355">
        <ele>76.6</ele>
        <time>2020-07-27T09:24:15Z</time>
      </trkpt>
      <trkpt lat="47.14471" lon="-1.16375">
        <ele>77.2</ele>
        <time>2020-07-27T09:24:18Z</time>
      </trkpt>
      <trkpt lat="47.14466" lon="-1.16412">
        <ele>77.8</ele>
        <time>2020-07-27T09:24:24Z</time>
      </trkpt>
      <trkpt lat="47.14461" lon="-1.16473">
        <ele>77.8</ele>
        <time>2020-07-27T09:24:32Z</time>
      </trkpt>
      <trkpt lat="47.14461" lon="-1.16481">
        <ele>77.6</ele>
        <time>2020-07-27T09:24:33Z</time>
      </trkpt>
      <trkpt lat="47.14461" lon="-1.16524">
        <ele>76.8</ele>
        <time>2020-07-27T09:24:38Z</time>
      </trkpt>
      <trkpt lat="47.14462" lon="-1.16586">
        <ele>76</ele>
        <time>2020-07-27T09:24:45Z</time>
      </trkpt>
      <trkpt lat="47.14463" lon="-1.16614">
        <ele>75</ele>
        <time>2020-07-27T09:24:48Z</time>
      </trkpt>
      <trkpt lat="47.14462" lon="-1.16624">
        <ele>74.8</ele>
        <time>2020-07-27T09:24:49Z</time>
      </trkpt>
      <trkpt lat="47.14461" lon="-1.16655">
        <ele>73.8</ele>
        <time>2020-07-27T09:24:52Z</time>
      </trkpt>
      <trkpt lat="47.14459" lon="-1.16665">
        <ele>73.8</ele>
        <time>2020-07-27T09:24:53Z</time>
      </trkpt>
      <trkpt lat="47.14458" lon="-1.16675">
        <ele>73.6</ele>
        <time>2020-07-27T09:24:54Z</time>
      </trkpt>
      <trkpt lat="47.14452" lon="-1.16716">
        <ele>72.8</ele>
        <time>2020-07-27T09:24:58Z</time>
      </trkpt>
      <trkpt lat="47.14449" lon="-1.16757">
        <ele>72</ele>
        <time>2020-07-27T09:25:02Z</time>
      </trkpt>
      <trkpt lat="47.14447" lon="-1.16766">
        <ele>71.8</ele>
        <time>2020-07-27T09:25:03Z</time>
      </trkpt>
      <trkpt lat="47.1444" lon="-1.16803">
        <ele>71.8</ele>
        <time>2020-07-27T09:25:07Z</time>
      </trkpt>
      <trkpt lat="47.14431" lon="-1.16838">
        <ele>71.6</ele>
        <time>2020-07-27T09:25:11Z</time>
      </trkpt>
      <trkpt lat="47.14423" lon="-1.16865">
        <ele>71.4</ele>
        <time>2020-07-27T09:25:14Z</time>
      </trkpt>
      <trkpt lat="47.14408" lon="-1.16932">
        <ele>71</ele>
        <time>2020-07-27T09:25:22Z</time>
      </trkpt>
      <trkpt lat="47.14405" lon="-1.16949">
        <ele>70.6</ele>
        <time>2020-07-27T09:25:24Z</time>
      </trkpt>
      <trkpt lat="47.14402" lon="-1.16996">
        <ele>70</ele>
        <time>2020-07-27T09:25:29Z</time>
      </trkpt>
      <trkpt lat="47.14402" lon="-1.17006">
        <ele>69.6</ele>
        <time>2020-07-27T09:25:30Z</time>
      </trkpt>
      <trkpt lat="47.14404" lon="-1.1704">
        <ele>68.4</ele>
        <time>2020-07-27T09:25:33Z</time>
      </trkpt>
      <trkpt lat="47.14406" lon="-1.17063">
        <ele>67.6</ele>
        <time>2020-07-27T09:25:35Z</time>
      </trkpt>
      <trkpt lat="47.14407" lon="-1.17074">
        <ele>67.2</ele>
        <time>2020-07-27T09:25:36Z</time>
      </trkpt>
      <trkpt lat="47.14414" lon="-1.1712">
        <ele>66</ele>
        <time>2020-07-27T09:25:40Z</time>
      </trkpt>
      <trkpt lat="47.14419" lon="-1.17154">
        <ele>65.2</ele>
        <time>2020-07-27T09:25:43Z</time>
      </trkpt>
      <trkpt lat="47.14421" lon="-1.17165">
        <ele>65</ele>
        <time>2020-07-27T09:25:44Z</time>
      </trkpt>
      <trkpt lat="47.14429" lon="-1.17218">
        <ele>64</ele>
        <time>2020-07-27T09:25:49Z</time>
      </trkpt>
      <trkpt lat="47.14431" lon="-1.17239">
        <ele>63.6</ele>
        <time>2020-07-27T09:25:51Z</time>
      </trkpt>
      <trkpt lat="47.1443" lon="-1.17285">
        <ele>63.6</ele>
        <time>2020-07-27T09:25:56Z</time>
      </trkpt>
      <trkpt lat="47.14426" lon="-1.17322">
        <ele>65</ele>
        <time>2020-07-27T09:26:01Z</time>
      </trkpt>
      <trkpt lat="47.14424" lon="-1.17335">
        <ele>65.4</ele>
        <time>2020-07-27T09:26:03Z</time>
      </trkpt>
      <trkpt lat="47.14423" lon="-1.17347">
        <ele>66</ele>
        <time>2020-07-27T09:26:05Z</time>
      </trkpt>
      <trkpt lat="47.14419" lon="-1.1737">
        <ele>67</ele>
        <time>2020-07-27T09:26:09Z</time>
      </trkpt>
      <trkpt lat="47.14416" lon="-1.1738">
        <ele>67.6</ele>
        <time>2020-07-27T09:26:11Z</time>
      </trkpt>
      <trkpt lat="47.14413" lon="-1.17396">
        <ele>68.2</ele>
        <time>2020-07-27T09:26:14Z</time>
      </trkpt>
      <trkpt lat="47.14406" lon="-1.17427">
        <ele>69</ele>
        <time>2020-07-27T09:26:20Z</time>
      </trkpt>
      <trkpt lat="47.14405" lon="-1.17432">
        <ele>69.4</ele>
        <time>2020-07-27T09:26:21Z</time>
      </trkpt>
      <trkpt lat="47.14398" lon="-1.17467">
        <ele>70.4</ele>
        <time>2020-07-27T09:26:28Z</time>
      </trkpt>
      <trkpt lat="47.14397" lon="-1.17473">
        <ele>70.4</ele>
        <time>2020-07-27T09:26:29Z</time>
      </trkpt>
      <trkpt lat="47.1439" lon="-1.17504">
        <ele>71.6</ele>
        <time>2020-07-27T09:26:35Z</time>
      </trkpt>
      <trkpt lat="47.14388" lon="-1.17515">
        <ele>72</ele>
        <time>2020-07-27T09:26:37Z</time>
      </trkpt>
      <trkpt lat="47.1438" lon="-1.17552">
        <ele>72.2</ele>
        <time>2020-07-27T09:26:44Z</time>
      </trkpt>
      <trkpt lat="47.14377" lon="-1.17567">
        <ele>73</ele>
        <time>2020-07-27T09:26:47Z</time>
      </trkpt>
      <trkpt lat="47.1437" lon="-1.17599">
        <ele>73.4</ele>
        <time>2020-07-27T09:26:53Z</time>
      </trkpt>
      <trkpt lat="47.14366" lon="-1.1763">
        <ele>74</ele>
        <time>2020-07-27T09:26:59Z</time>
      </trkpt>
      <trkpt lat="47.14365" lon="-1.17645">
        <ele>74.6</ele>
        <time>2020-07-27T09:27:02Z</time>
      </trkpt>
      <trkpt lat="47.14362" lon="-1.17682">
        <ele>75.2</ele>
        <time>2020-07-27T09:27:09Z</time>
      </trkpt>
      <trkpt lat="47.14362" lon="-1.17692">
        <ele>75.4</ele>
        <time>2020-07-27T09:27:11Z</time>
      </trkpt>
      <trkpt lat="47.14361" lon="-1.17727">
        <ele>76.2</ele>
        <time>2020-07-27T09:27:18Z</time>
      </trkpt>
      <trkpt lat="47.14361" lon="-1.17742">
        <ele>76.6</ele>
        <time>2020-07-27T09:27:21Z</time>
      </trkpt>
      <trkpt lat="47.14361" lon="-1.17758">
        <ele>77.2</ele>
        <time>2020-07-27T09:27:24Z</time>
      </trkpt>
      <trkpt lat="47.14364" lon="-1.17794">
        <ele>78.2</ele>
        <time>2020-07-27T09:27:31Z</time>
      </trkpt>
      <trkpt lat="47.14364" lon="-1.17799">
        <ele>78.4</ele>
        <time>2020-07-27T09:27:32Z</time>
      </trkpt>
      <trkpt lat="47.14368" lon="-1.17834">
        <ele>79.4</ele>
        <time>2020-07-27T09:27:39Z</time>
      </trkpt>
      <trkpt lat="47.14369" lon="-1.17838">
        <ele>79.4</ele>
        <time>2020-07-27T09:27:40Z</time>
      </trkpt>
      <trkpt lat="47.1437" lon="-1.17881">
        <ele>80.2</ele>
        <time>2020-07-27T09:27:49Z</time>
      </trkpt>
      <trkpt lat="47.1437" lon="-1.1789">
        <ele>80.6</ele>
        <time>2020-07-27T09:27:51Z</time>
      </trkpt>
      <trkpt lat="47.14368" lon="-1.17929">
        <ele>81.4</ele>
        <time>2020-07-27T09:27:59Z</time>
      </trkpt>
      <trkpt lat="47.14367" lon="-1.17934">
        <ele>81.6</ele>
        <time>2020-07-27T09:28:00Z</time>
      </trkpt>
      <trkpt lat="47.14361" lon="-1.17957">
        <ele>82.2</ele>
        <time>2020-07-27T09:28:05Z</time>
      </trkpt>
      <trkpt lat="47.14346" lon="-1.17976">
        <ele>82.8</ele>
        <time>2020-07-27T09:28:10Z</time>
      </trkpt>
      <trkpt lat="47.14343" lon="-1.17979">
        <ele>82.8</ele>
        <time>2020-07-27T09:28:11Z</time>
      </trkpt>
      <trkpt lat="47.14319" lon="-1.1799">
        <ele>83.8</ele>
        <time>2020-07-27T09:28:17Z</time>
      </trkpt>
      <trkpt lat="47.14315" lon="-1.17991">
        <ele>84</ele>
        <time>2020-07-27T09:28:18Z</time>
      </trkpt>
      <trkpt lat="47.14286" lon="-1.18">
        <ele>85</ele>
        <time>2020-07-27T09:28:25Z</time>
      </trkpt>
      <trkpt lat="47.14282" lon="-1.18002">
        <ele>85.2</ele>
        <time>2020-07-27T09:28:26Z</time>
      </trkpt>
      <trkpt lat="47.14271" lon="-1.18">
        <ele>85.8</ele>
        <time>2020-07-27T09:28:29Z</time>
      </trkpt>
      <trkpt lat="47.14268" lon="-1.17996">
        <ele>85.8</ele>
        <time>2020-07-27T09:28:30Z</time>
      </trkpt>
      <trkpt lat="47.14265" lon="-1.17992">
        <ele>86.2</ele>
        <time>2020-07-27T09:28:31Z</time>
      </trkpt>
      <trkpt lat="47.14251" lon="-1.17977">
        <ele>86.8</ele>
        <time>2020-07-27T09:28:35Z</time>
      </trkpt>
      <trkpt lat="47.1424" lon="-1.17968">
        <ele>87</ele>
        <time>2020-07-27T09:28:38Z</time>
      </trkpt>
      <trkpt lat="47.14236" lon="-1.17965">
        <ele>87</ele>
        <time>2020-07-27T09:28:39Z</time>
      </trkpt>
      <trkpt lat="47.14228" lon="-1.17959">
        <ele>87.2</ele>
        <time>2020-07-27T09:28:41Z</time>
      </trkpt>
      <trkpt lat="47.14202" lon="-1.17939">
        <ele>88.2</ele>
        <time>2020-07-27T09:28:48Z</time>
      </trkpt>
      <trkpt lat="47.1417" lon="-1.17922">
        <ele>89.2</ele>
        <time>2020-07-27T09:28:56Z</time>
      </trkpt>
      <trkpt lat="47.14165" lon="-1.17921">
        <ele>89.2</ele>
        <time>2020-07-27T09:28:57Z</time>
      </trkpt>
      <trkpt lat="47.14141" lon="-1.17918">
        <ele>89.4</ele>
        <time>2020-07-27T09:29:03Z</time>
      </trkpt>
      <trkpt lat="47.14107" lon="-1.17926">
        <ele>90</ele>
        <time>2020-07-27T09:29:11Z</time>
      </trkpt>
      <trkpt lat="47.14077" lon="-1.1794">
        <ele>90.4</ele>
        <time>2020-07-27T09:29:18Z</time>
      </trkpt>
      <trkpt lat="47.14072" lon="-1.17943">
        <ele>90.2</ele>
        <time>2020-07-27T09:29:19Z</time>
      </trkpt>
      <trkpt lat="47.14024" lon="-1.17967">
        <ele>90.2</ele>
        <time>2020-07-27T09:29:29Z</time>
      </trkpt>
      <trkpt lat="47.13972" lon="-1.17987">
        <ele>89.4</ele>
        <time>2020-07-27T09:29:38Z</time>
      </trkpt>
      <trkpt lat="47.13966" lon="-1.17989">
        <ele>89.2</ele>
        <time>2020-07-27T09:29:39Z</time>
      </trkpt>
      <trkpt lat="47.13913" lon="-1.18009">
        <ele>88.2</ele>
        <time>2020-07-27T09:29:48Z</time>
      </trkpt>
      <trkpt lat="47.13907" lon="-1.18011">
        <ele>88.2</ele>
        <time>2020-07-27T09:29:49Z</time>
      </trkpt>
      <trkpt lat="47.13855" lon="-1.1803">
        <ele>87</ele>
        <time>2020-07-27T09:29:58Z</time>
      </trkpt>
      <trkpt lat="47.13849" lon="-1.18032">
        <ele>86.8</ele>
        <time>2020-07-27T09:29:59Z</time>
      </trkpt>
      <trkpt lat="47.13822" lon="-1.18042">
        <ele>86.4</ele>
        <time>2020-07-27T09:30:04Z</time>
      </trkpt>
      <trkpt lat="47.13817" lon="-1.18044">
        <ele>86.4</ele>
        <time>2020-07-27T09:30:05Z</time>
      </trkpt>
      <trkpt lat="47.138" lon="-1.1805">
        <ele>85.8</ele>
        <time>2020-07-27T09:30:08Z</time>
      </trkpt>
      <trkpt lat="47.13775" lon="-1.18062">
        <ele>85</ele>
        <time>2020-07-27T09:30:13Z</time>
      </trkpt>
      <trkpt lat="47.13765" lon="-1.18068">
        <ele>84.8</ele>
        <time>2020-07-27T09:30:15Z</time>
      </trkpt>
      <trkpt lat="47.13752" lon="-1.18079">
        <ele>84.6</ele>
        <time>2020-07-27T09:30:18Z</time>
      </trkpt>
      <trkpt lat="47.13743" lon="-1.18088">
        <ele>84.4</ele>
        <time>2020-07-27T09:30:20Z</time>
      </trkpt>
      <trkpt lat="47.13717" lon="-1.18123">
        <ele>83.8</ele>
        <time>2020-07-27T09:30:27Z</time>
      </trkpt>
      <trkpt lat="47.13714" lon="-1.18129">
        <ele>83.6</ele>
        <time>2020-07-27T09:30:28Z</time>
      </trkpt>
      <trkpt lat="47.13698" lon="-1.18169">
        <ele>82.8</ele>
        <time>2020-07-27T09:30:35Z</time>
      </trkpt>
      <trkpt lat="47.13678" lon="-1.18228">
        <ele>82.6</ele>
        <time>2020-07-27T09:30:44Z</time>
      </trkpt>
      <trkpt lat="47.13655" lon="-1.18279">
        <ele>82.8</ele>
        <time>2020-07-27T09:30:52Z</time>
      </trkpt>
      <trkpt lat="47.13625" lon="-1.1834">
        <ele>83</ele>
        <time>2020-07-27T09:31:01Z</time>
      </trkpt>
      <trkpt lat="47.136" lon="-1.184">
        <ele>83.4</ele>
        <time>2020-07-27T09:31:09Z</time>
      </trkpt>
      <trkpt lat="47.1358" lon="-1.18445">
        <ele>83.6</ele>
        <time>2020-07-27T09:31:15Z</time>
      </trkpt>
      <trkpt lat="47.13546" lon="-1.18517">
        <ele>83.2</ele>
        <time>2020-07-27T09:31:25Z</time>
      </trkpt>
      <trkpt lat="47.13516" lon="-1.18583">
        <ele>82.2</ele>
        <time>2020-07-27T09:31:34Z</time>
      </trkpt>
      <trkpt lat="47.13488" lon="-1.18639">
        <ele>81.6</ele>
        <time>2020-07-27T09:31:42Z</time>
      </trkpt>
      <trkpt lat="47.13454" lon="-1.18696">
        <ele>81.6</ele>
        <time>2020-07-27T09:31:51Z</time>
      </trkpt>
      <trkpt lat="47.13424" lon="-1.18743">
        <ele>81.6</ele>
        <time>2020-07-27T09:31:59Z</time>
      </trkpt>
      <trkpt lat="47.13389" lon="-1.188">
        <ele>82.2</ele>
        <time>2020-07-27T09:32:09Z</time>
      </trkpt>
      <trkpt lat="47.13373" lon="-1.18833">
        <ele>82.4</ele>
        <time>2020-07-27T09:32:14Z</time>
      </trkpt>
      <trkpt lat="47.13368" lon="-1.18848">
        <ele>82.4</ele>
        <time>2020-07-27T09:32:16Z</time>
      </trkpt>
      <trkpt lat="47.13352" lon="-1.18902">
        <ele>82</ele>
        <time>2020-07-27T09:32:23Z</time>
      </trkpt>
      <trkpt lat="47.1333" lon="-1.18952">
        <ele>80.4</ele>
        <time>2020-07-27T09:32:30Z</time>
      </trkpt>
      <trkpt lat="47.13313" lon="-1.18989">
        <ele>79.4</ele>
        <time>2020-07-27T09:32:35Z</time>
      </trkpt>
      <trkpt lat="47.13305" lon="-1.19004">
        <ele>79</ele>
        <time>2020-07-27T09:32:37Z</time>
      </trkpt>
      <trkpt lat="47.13294" lon="-1.19029">
        <ele>78.2</ele>
        <time>2020-07-27T09:32:40Z</time>
      </trkpt>
      <trkpt lat="47.13276" lon="-1.19072">
        <ele>77.6</ele>
        <time>2020-07-27T09:32:45Z</time>
      </trkpt>
      <trkpt lat="47.13264" lon="-1.19098">
        <ele>77.2</ele>
        <time>2020-07-27T09:32:48Z</time>
      </trkpt>
      <trkpt lat="47.13238" lon="-1.19161">
        <ele>76.2</ele>
        <time>2020-07-27T09:32:55Z</time>
      </trkpt>
      <trkpt lat="47.13222" lon="-1.19223">
        <ele>75.4</ele>
        <time>2020-07-27T09:33:01Z</time>
      </trkpt>
      <trkpt lat="47.13212" lon="-1.19267">
        <ele>75</ele>
        <time>2020-07-27T09:33:05Z</time>
      </trkpt>
      <trkpt lat="47.13202" lon="-1.19309">
        <ele>74.6</ele>
        <time>2020-07-27T09:33:09Z</time>
      </trkpt>
      <trkpt lat="47.13188" lon="-1.19388">
        <ele>74.6</ele>
        <time>2020-07-27T09:33:17Z</time>
      </trkpt>
      <trkpt lat="47.13186" lon="-1.19397">
        <ele>74.8</ele>
        <time>2020-07-27T09:33:18Z</time>
      </trkpt>
      <trkpt lat="47.13168" lon="-1.19453">
        <ele>75.6</ele>
        <time>2020-07-27T09:33:25Z</time>
      </trkpt>
      <trkpt lat="47.13158" lon="-1.19473">
        <ele>76</ele>
        <time>2020-07-27T09:33:28Z</time>
      </trkpt>
      <trkpt lat="47.13146" lon="-1.19491">
        <ele>76.2</ele>
        <time>2020-07-27T09:33:31Z</time>
      </trkpt>
      <trkpt lat="47.13117" lon="-1.19524">
        <ele>75.6</ele>
        <time>2020-07-27T09:33:37Z</time>
      </trkpt>
      <trkpt lat="47.1309" lon="-1.19552">
        <ele>75</ele>
        <time>2020-07-27T09:33:42Z</time>
      </trkpt>
      <trkpt lat="47.13084" lon="-1.19559">
        <ele>74.8</ele>
        <time>2020-07-27T09:33:43Z</time>
      </trkpt>
      <trkpt lat="47.1306" lon="-1.19583">
        <ele>73.8</ele>
        <time>2020-07-27T09:33:47Z</time>
      </trkpt>
      <trkpt lat="47.13027" lon="-1.19616">
        <ele>72.6</ele>
        <time>2020-07-27T09:33:52Z</time>
      </trkpt>
      <trkpt lat="47.12998" lon="-1.19645">
        <ele>71.6</ele>
        <time>2020-07-27T09:33:56Z</time>
      </trkpt>
      <trkpt lat="47.12974" lon="-1.19675">
        <ele>70.8</ele>
        <time>2020-07-27T09:34:00Z</time>
      </trkpt>
      <trkpt lat="47.12969" lon="-1.19683">
        <ele>70.4</ele>
        <time>2020-07-27T09:34:01Z</time>
      </trkpt>
      <trkpt lat="47.12951" lon="-1.19711">
        <ele>70.2</ele>
        <time>2020-07-27T09:34:05Z</time>
      </trkpt>
      <trkpt lat="47.12931" lon="-1.19746">
        <ele>70.2</ele>
        <time>2020-07-27T09:34:11Z</time>
      </trkpt>
      <trkpt lat="47.12913" lon="-1.19787">
        <ele>71</ele>
        <time>2020-07-27T09:34:18Z</time>
      </trkpt>
      <trkpt lat="47.12895" lon="-1.19825">
        <ele>71.2</ele>
        <time>2020-07-27T09:34:25Z</time>
      </trkpt>
      <trkpt lat="47.12882" lon="-1.19846">
        <ele>71.6</ele>
        <time>2020-07-27T09:34:29Z</time>
      </trkpt>
      <trkpt lat="47.12867" lon="-1.19869">
        <ele>71.6</ele>
        <time>2020-07-27T09:34:33Z</time>
      </trkpt>
      <trkpt lat="47.1283" lon="-1.19922">
        <ele>71.2</ele>
        <time>2020-07-27T09:34:42Z</time>
      </trkpt>
      <trkpt lat="47.12792" lon="-1.19979">
        <ele>71.2</ele>
        <time>2020-07-27T09:34:52Z</time>
      </trkpt>
      <trkpt lat="47.12761" lon="-1.20029">
        <ele>71.8</ele>
        <time>2020-07-27T09:35:01Z</time>
      </trkpt>
      <trkpt lat="47.12747" lon="-1.20057">
        <ele>72.8</ele>
        <time>2020-07-27T09:35:06Z</time>
      </trkpt>
      <trkpt lat="47.12743" lon="-1.20067">
        <ele>73.2</ele>
        <time>2020-07-27T09:35:08Z</time>
      </trkpt>
      <trkpt lat="47.12734" lon="-1.20087">
        <ele>73.8</ele>
        <time>2020-07-27T09:35:12Z</time>
      </trkpt>
      <trkpt lat="47.12722" lon="-1.20111">
        <ele>74.8</ele>
        <time>2020-07-27T09:35:17Z</time>
      </trkpt>
      <trkpt lat="47.1272" lon="-1.20116">
        <ele>75</ele>
        <time>2020-07-27T09:35:18Z</time>
      </trkpt>
      <trkpt lat="47.1271" lon="-1.20138">
        <ele>76.2</ele>
        <time>2020-07-27T09:35:23Z</time>
      </trkpt>
      <trkpt lat="47.12708" lon="-1.20143">
        <ele>76.2</ele>
        <time>2020-07-27T09:35:24Z</time>
      </trkpt>
      <trkpt lat="47.12699" lon="-1.2016">
        <ele>77.2</ele>
        <time>2020-07-27T09:35:28Z</time>
      </trkpt>
      <trkpt lat="47.12686" lon="-1.20194">
        <ele>78.2</ele>
        <time>2020-07-27T09:35:36Z</time>
      </trkpt>
      <trkpt lat="47.12682" lon="-1.20203">
        <ele>78.2</ele>
        <time>2020-07-27T09:35:38Z</time>
      </trkpt>
      <trkpt lat="47.12671" lon="-1.20239">
        <ele>79.2</ele>
        <time>2020-07-27T09:35:46Z</time>
      </trkpt>
      <trkpt lat="47.12666" lon="-1.20252">
        <ele>79.4</ele>
        <time>2020-07-27T09:35:49Z</time>
      </trkpt>
      <trkpt lat="47.1266" lon="-1.2027">
        <ele>79.8</ele>
        <time>2020-07-27T09:35:53Z</time>
      </trkpt>
      <trkpt lat="47.12655" lon="-1.20285">
        <ele>80.4</ele>
        <time>2020-07-27T09:35:56Z</time>
      </trkpt>
      <trkpt lat="47.12645" lon="-1.20319">
        <ele>81.2</ele>
        <time>2020-07-27T09:36:03Z</time>
      </trkpt>
      <trkpt lat="47.12644" lon="-1.20324">
        <ele>81.6</ele>
        <time>2020-07-27T09:36:04Z</time>
      </trkpt>
      <trkpt lat="47.12633" lon="-1.20359">
        <ele>82.4</ele>
        <time>2020-07-27T09:36:11Z</time>
      </trkpt>
      <trkpt lat="47.12629" lon="-1.20374">
        <ele>82.6</ele>
        <time>2020-07-27T09:36:14Z</time>
      </trkpt>
      <trkpt lat="47.1262" lon="-1.20404">
        <ele>82.8</ele>
        <time>2020-07-27T09:36:20Z</time>
      </trkpt>
      <trkpt lat="47.1261" lon="-1.20445">
        <ele>83.6</ele>
        <time>2020-07-27T09:36:28Z</time>
      </trkpt>
      <trkpt lat="47.12609" lon="-1.2045">
        <ele>83.8</ele>
        <time>2020-07-27T09:36:29Z</time>
      </trkpt>
      <trkpt lat="47.12598" lon="-1.20495">
        <ele>84.2</ele>
        <time>2020-07-27T09:36:38Z</time>
      </trkpt>
      <trkpt lat="47.12594" lon="-1.20511">
        <ele>84.8</ele>
        <time>2020-07-27T09:36:41Z</time>
      </trkpt>
      <trkpt lat="47.12587" lon="-1.20545">
        <ele>84.6</ele>
        <time>2020-07-27T09:36:47Z</time>
      </trkpt>
      <trkpt lat="47.12575" lon="-1.20593">
        <ele>84</ele>
        <time>2020-07-27T09:36:55Z</time>
      </trkpt>
      <trkpt lat="47.12562" lon="-1.20643">
        <ele>83.6</ele>
        <time>2020-07-27T09:37:03Z</time>
      </trkpt>
      <trkpt lat="47.1256" lon="-1.20649">
        <ele>83.6</ele>
        <time>2020-07-27T09:37:04Z</time>
      </trkpt>
      <trkpt lat="47.12541" lon="-1.20716">
        <ele>83</ele>
        <time>2020-07-27T09:37:14Z</time>
      </trkpt>
      <trkpt lat="47.12527" lon="-1.20765">
        <ele>82.6</ele>
        <time>2020-07-27T09:37:21Z</time>
      </trkpt>
      <trkpt lat="47.12525" lon="-1.20772">
        <ele>82.6</ele>
        <time>2020-07-27T09:37:22Z</time>
      </trkpt>
      <trkpt lat="47.12509" lon="-1.20824">
        <ele>81.8</ele>
        <time>2020-07-27T09:37:29Z</time>
      </trkpt>
      <trkpt lat="47.12505" lon="-1.20839">
        <ele>81.6</ele>
        <time>2020-07-27T09:37:31Z</time>
      </trkpt>
      <trkpt lat="47.12491" lon="-1.20884">
        <ele>81.2</ele>
        <time>2020-07-27T09:37:37Z</time>
      </trkpt>
      <trkpt lat="47.1247" lon="-1.20948">
        <ele>81</ele>
        <time>2020-07-27T09:37:46Z</time>
      </trkpt>
      <trkpt lat="47.12461" lon="-1.20986">
        <ele>81</ele>
        <time>2020-07-27T09:37:51Z</time>
      </trkpt>
      <trkpt lat="47.12458" lon="-1.21001">
        <ele>81</ele>
        <time>2020-07-27T09:37:53Z</time>
      </trkpt>
      <trkpt lat="47.12453" lon="-1.21015">
        <ele>80.8</ele>
        <time>2020-07-27T09:37:55Z</time>
      </trkpt>
      <trkpt lat="47.12443" lon="-1.21051">
        <ele>80.8</ele>
        <time>2020-07-27T09:38:00Z</time>
      </trkpt>
      <trkpt lat="47.12426" lon="-1.21108">
        <ele>80.6</ele>
        <time>2020-07-27T09:38:08Z</time>
      </trkpt>
      <trkpt lat="47.12409" lon="-1.2117">
        <ele>80.6</ele>
        <time>2020-07-27T09:38:16Z</time>
      </trkpt>
      <trkpt lat="47.12406" lon="-1.21179">
        <ele>80.4</ele>
        <time>2020-07-27T09:38:17Z</time>
      </trkpt>
      <trkpt lat="47.12386" lon="-1.21245">
        <ele>79.8</ele>
        <time>2020-07-27T09:38:25Z</time>
      </trkpt>
      <trkpt lat="47.12379" lon="-1.21271">
        <ele>79.4</ele>
        <time>2020-07-27T09:38:28Z</time>
      </trkpt>
      <trkpt lat="47.12359" lon="-1.21328">
        <ele>78.4</ele>
        <time>2020-07-27T09:38:35Z</time>
      </trkpt>
      <trkpt lat="47.12355" lon="-1.21336">
        <ele>78.2</ele>
        <time>2020-07-27T09:38:36Z</time>
      </trkpt>
      <trkpt lat="47.12344" lon="-1.21357">
        <ele>78.4</ele>
        <time>2020-07-27T09:38:39Z</time>
      </trkpt>
      <trkpt lat="47.12337" lon="-1.21371">
        <ele>78.2</ele>
        <time>2020-07-27T09:38:41Z</time>
      </trkpt>
      <trkpt lat="47.12306" lon="-1.21427">
        <ele>78.4</ele>
        <time>2020-07-27T09:38:50Z</time>
      </trkpt>
      <trkpt lat="47.12277" lon="-1.21483">
        <ele>78.6</ele>
        <time>2020-07-27T09:38:59Z</time>
      </trkpt>
      <trkpt lat="47.12247" lon="-1.21539">
        <ele>79</ele>
        <time>2020-07-27T09:39:09Z</time>
      </trkpt>
      <trkpt lat="47.12238" lon="-1.21555">
        <ele>79.4</ele>
        <time>2020-07-27T09:39:12Z</time>
      </trkpt>
      <trkpt lat="47.12222" lon="-1.21581">
        <ele>79.8</ele>
        <time>2020-07-27T09:39:17Z</time>
      </trkpt>
      <trkpt lat="47.122" lon="-1.21605">
        <ele>80.4</ele>
        <time>2020-07-27T09:39:23Z</time>
      </trkpt>
      <trkpt lat="47.12196" lon="-1.21608">
        <ele>80.4</ele>
        <time>2020-07-27T09:39:24Z</time>
      </trkpt>
      <trkpt lat="47.1217" lon="-1.21619">
        <ele>81.4</ele>
        <time>2020-07-27T09:39:30Z</time>
      </trkpt>
      <trkpt lat="47.12165" lon="-1.21619">
        <ele>81.6</ele>
        <time>2020-07-27T09:39:31Z</time>
      </trkpt>
      <trkpt lat="47.12132" lon="-1.21616">
        <ele>82.4</ele>
        <time>2020-07-27T09:39:38Z</time>
      </trkpt>
      <trkpt lat="47.12101" lon="-1.21602">
        <ele>83</ele>
        <time>2020-07-27T09:39:45Z</time>
      </trkpt>
      <trkpt lat="47.12084" lon="-1.21603">
        <ele>83</ele>
        <time>2020-07-27T09:39:49Z</time>
      </trkpt>
      <trkpt lat="47.12075" lon="-1.21606">
        <ele>83</ele>
        <time>2020-07-27T09:39:51Z</time>
      </trkpt>
      <trkpt lat="47.12052" lon="-1.21617">
        <ele>83.4</ele>
        <time>2020-07-27T09:39:57Z</time>
      </trkpt>
      <trkpt lat="47.12046" lon="-1.2163">
        <ele>83.2</ele>
        <time>2020-07-27T09:40:00Z</time>
      </trkpt>
      <trkpt lat="47.12047" lon="-1.21635">
        <ele>83.2</ele>
        <time>2020-07-27T09:40:01Z</time>
      </trkpt>
      <trkpt lat="47.12051" lon="-1.21652">
        <ele>83.2</ele>
        <time>2020-07-27T09:40:04Z</time>
      </trkpt>
      <trkpt lat="47.12054" lon="-1.2167">
        <ele>83.4</ele>
        <time>2020-07-27T09:40:07Z</time>
      </trkpt>
      <trkpt lat="47.1206" lon="-1.21696">
        <ele>83.6</ele>
        <time>2020-07-27T09:40:11Z</time>
      </trkpt>
      <trkpt lat="47.12065" lon="-1.21723">
        <ele>83.6</ele>
        <time>2020-07-27T09:40:15Z</time>
      </trkpt>
      <trkpt lat="47.12075" lon="-1.21777">
        <ele>84</ele>
        <time>2020-07-27T09:40:23Z</time>
      </trkpt>
      <trkpt lat="47.12085" lon="-1.21824">
        <ele>84.6</ele>
        <time>2020-07-27T09:40:30Z</time>
      </trkpt>
      <trkpt lat="47.12087" lon="-1.21836">
        <ele>84.6</ele>
        <time>2020-07-27T09:40:32Z</time>
      </trkpt>
      <trkpt lat="47.12082" lon="-1.21853">
        <ele>84.8</ele>
        <time>2020-07-27T09:40:35Z</time>
      </trkpt>
      <trkpt lat="47.12073" lon="-1.2187">
        <ele>85</ele>
        <time>2020-07-27T09:40:38Z</time>
      </trkpt>
      <trkpt lat="47.12066" lon="-1.21881">
        <ele>85.4</ele>
        <time>2020-07-27T09:40:40Z</time>
      </trkpt>
      <trkpt lat="47.1206" lon="-1.21893">
        <ele>85.6</ele>
        <time>2020-07-27T09:40:42Z</time>
      </trkpt>
      <trkpt lat="47.12037" lon="-1.21934">
        <ele>85.6</ele>
        <time>2020-07-27T09:40:49Z</time>
      </trkpt>
      <trkpt lat="47.12005" lon="-1.21985">
        <ele>84.6</ele>
        <time>2020-07-27T09:40:58Z</time>
      </trkpt>
      <trkpt lat="47.12001" lon="-1.2199">
        <ele>84.4</ele>
        <time>2020-07-27T09:40:59Z</time>
      </trkpt>
      <trkpt lat="47.11975" lon="-1.22026">
        <ele>83.6</ele>
        <time>2020-07-27T09:41:05Z</time>
      </trkpt>
      <trkpt lat="47.1197" lon="-1.22032">
        <ele>83.6</ele>
        <time>2020-07-27T09:41:06Z</time>
      </trkpt>
      <trkpt lat="47.1193" lon="-1.22078">
        <ele>82.4</ele>
        <time>2020-07-27T09:41:14Z</time>
      </trkpt>
      <trkpt lat="47.11895" lon="-1.22118">
        <ele>81.6</ele>
        <time>2020-07-27T09:41:21Z</time>
      </trkpt>
      <trkpt lat="47.11885" lon="-1.2213">
        <ele>81.2</ele>
        <time>2020-07-27T09:41:23Z</time>
      </trkpt>
      <trkpt lat="47.11854" lon="-1.22164">
        <ele>80.6</ele>
        <time>2020-07-27T09:41:29Z</time>
      </trkpt>
      <trkpt lat="47.11839" lon="-1.22181">
        <ele>80.2</ele>
        <time>2020-07-27T09:41:32Z</time>
      </trkpt>
      <trkpt lat="47.11809" lon="-1.22219">
        <ele>79.6</ele>
        <time>2020-07-27T09:41:38Z</time>
      </trkpt>
      <trkpt lat="47.1178" lon="-1.22273">
        <ele>79.4</ele>
        <time>2020-07-27T09:41:45Z</time>
      </trkpt>
      <trkpt lat="47.11776" lon="-1.22281">
        <ele>79.2</ele>
        <time>2020-07-27T09:41:46Z</time>
      </trkpt>
      <trkpt lat="47.11754" lon="-1.2234">
        <ele>78.2</ele>
        <time>2020-07-27T09:41:53Z</time>
      </trkpt>
      <trkpt lat="47.11732" lon="-1.22409">
        <ele>77.2</ele>
        <time>2020-07-27T09:42:01Z</time>
      </trkpt>
      <trkpt lat="47.11727" lon="-1.22426">
        <ele>77</ele>
        <time>2020-07-27T09:42:03Z</time>
      </trkpt>
      <trkpt lat="47.11715" lon="-1.22481">
        <ele>76</ele>
        <time>2020-07-27T09:42:09Z</time>
      </trkpt>
      <trkpt lat="47.11714" lon="-1.22491">
        <ele>75.8</ele>
        <time>2020-07-27T09:42:10Z</time>
      </trkpt>
      <trkpt lat="47.11709" lon="-1.22551">
        <ele>74.6</ele>
        <time>2020-07-27T09:42:16Z</time>
      </trkpt>
      <trkpt lat="47.11705" lon="-1.22594">
        <ele>73.6</ele>
        <time>2020-07-27T09:42:20Z</time>
      </trkpt>
      <trkpt lat="47.11702" lon="-1.22636">
        <ele>72.8</ele>
        <time>2020-07-27T09:42:24Z</time>
      </trkpt>
      <trkpt lat="47.11701" lon="-1.22647">
        <ele>72.4</ele>
        <time>2020-07-27T09:42:25Z</time>
      </trkpt>
      <trkpt lat="47.11697" lon="-1.22691">
        <ele>71.4</ele>
        <time>2020-07-27T09:42:29Z</time>
      </trkpt>
      <trkpt lat="47.11692" lon="-1.22713">
        <ele>70.8</ele>
        <time>2020-07-27T09:42:31Z</time>
      </trkpt>
      <trkpt lat="47.11686" lon="-1.22734">
        <ele>70.2</ele>
        <time>2020-07-27T09:42:33Z</time>
      </trkpt>
      <trkpt lat="47.11677" lon="-1.22753">
        <ele>69.6</ele>
        <time>2020-07-27T09:42:35Z</time>
      </trkpt>
      <trkpt lat="47.11667" lon="-1.2277">
        <ele>69</ele>
        <time>2020-07-27T09:42:37Z</time>
      </trkpt>
      <trkpt lat="47.1165" lon="-1.22793">
        <ele>68</ele>
        <time>2020-07-27T09:42:40Z</time>
      </trkpt>
      <trkpt lat="47.11645" lon="-1.22801">
        <ele>67.8</ele>
        <time>2020-07-27T09:42:41Z</time>
      </trkpt>
      <trkpt lat="47.11612" lon="-1.22847">
        <ele>66.8</ele>
        <time>2020-07-27T09:42:47Z</time>
      </trkpt>
      <trkpt lat="47.11606" lon="-1.22854">
        <ele>66.6</ele>
        <time>2020-07-27T09:42:48Z</time>
      </trkpt>
      <trkpt lat="47.11578" lon="-1.22891">
        <ele>65.6</ele>
        <time>2020-07-27T09:42:53Z</time>
      </trkpt>
      <trkpt lat="47.11552" lon="-1.22927">
        <ele>64.8</ele>
        <time>2020-07-27T09:42:58Z</time>
      </trkpt>
      <trkpt lat="47.11547" lon="-1.22934">
        <ele>64.6</ele>
        <time>2020-07-27T09:42:59Z</time>
      </trkpt>
      <trkpt lat="47.11508" lon="-1.22991">
        <ele>63.8</ele>
        <time>2020-07-27T09:43:07Z</time>
      </trkpt>
      <trkpt lat="47.11503" lon="-1.22997">
        <ele>63.8</ele>
        <time>2020-07-27T09:43:08Z</time>
      </trkpt>
      <trkpt lat="47.11481" lon="-1.23032">
        <ele>63.6</ele>
        <time>2020-07-27T09:43:13Z</time>
      </trkpt>
      <trkpt lat="47.11459" lon="-1.23066">
        <ele>63.2</ele>
        <time>2020-07-27T09:43:18Z</time>
      </trkpt>
      <trkpt lat="47.11428" lon="-1.23116">
        <ele>63.2</ele>
        <time>2020-07-27T09:43:25Z</time>
      </trkpt>
      <trkpt lat="47.11393" lon="-1.23165">
        <ele>63.8</ele>
        <time>2020-07-27T09:43:33Z</time>
      </trkpt>
      <trkpt lat="47.11352" lon="-1.23206">
        <ele>64</ele>
        <time>2020-07-27T09:43:41Z</time>
      </trkpt>
      <trkpt lat="47.11318" lon="-1.23225">
        <ele>64.4</ele>
        <time>2020-07-27T09:43:47Z</time>
      </trkpt>
      <trkpt lat="47.11307" lon="-1.2323">
        <ele>64.6</ele>
        <time>2020-07-27T09:43:49Z</time>
      </trkpt>
      <trkpt lat="47.11275" lon="-1.23244">
        <ele>65.4</ele>
        <time>2020-07-27T09:43:55Z</time>
      </trkpt>
      <trkpt lat="47.11248" lon="-1.23259">
        <ele>65.4</ele>
        <time>2020-07-27T09:44:00Z</time>
      </trkpt>
      <trkpt lat="47.11239" lon="-1.23269">
        <ele>65.2</ele>
        <time>2020-07-27T09:44:02Z</time>
      </trkpt>
      <trkpt lat="47.11231" lon="-1.2328">
        <ele>65</ele>
        <time>2020-07-27T09:44:04Z</time>
      </trkpt>
      <trkpt lat="47.11219" lon="-1.23299">
        <ele>64.4</ele>
        <time>2020-07-27T09:44:07Z</time>
      </trkpt>
      <trkpt lat="47.11216" lon="-1.23307">
        <ele>64.2</ele>
        <time>2020-07-27T09:44:08Z</time>
      </trkpt>
      <trkpt lat="47.11202" lon="-1.23336">
        <ele>63.8</ele>
        <time>2020-07-27T09:44:12Z</time>
      </trkpt>
      <trkpt lat="47.11193" lon="-1.23358">
        <ele>63.6</ele>
        <time>2020-07-27T09:44:15Z</time>
      </trkpt>
      <trkpt lat="47.11184" lon="-1.23382">
        <ele>63.2</ele>
        <time>2020-07-27T09:44:18Z</time>
      </trkpt>
      <trkpt lat="47.11156" lon="-1.2345">
        <ele>62.6</ele>
        <time>2020-07-27T09:44:27Z</time>
      </trkpt>
      <trkpt lat="47.11153" lon="-1.23458">
        <ele>62.6</ele>
        <time>2020-07-27T09:44:28Z</time>
      </trkpt>
      <trkpt lat="47.1113" lon="-1.23519">
        <ele>63.2</ele>
        <time>2020-07-27T09:44:36Z</time>
      </trkpt>
      <trkpt lat="47.111" lon="-1.23589">
        <ele>64</ele>
        <time>2020-07-27T09:44:46Z</time>
      </trkpt>
      <trkpt lat="47.11071" lon="-1.23658">
        <ele>64.6</ele>
        <time>2020-07-27T09:44:56Z</time>
      </trkpt>
      <trkpt lat="47.11068" lon="-1.23665">
        <ele>64.8</ele>
        <time>2020-07-27T09:44:57Z</time>
      </trkpt>
      <trkpt lat="47.11047" lon="-1.23714">
        <ele>65</ele>
        <time>2020-07-27T09:45:04Z</time>
      </trkpt>
      <trkpt lat="47.11026" lon="-1.23767">
        <ele>64.6</ele>
        <time>2020-07-27T09:45:11Z</time>
      </trkpt>
      <trkpt lat="47.10998" lon="-1.23836">
        <ele>64.2</ele>
        <time>2020-07-27T09:45:20Z</time>
      </trkpt>
      <trkpt lat="47.10975" lon="-1.23893">
        <ele>64</ele>
        <time>2020-07-27T09:45:28Z</time>
      </trkpt>
      <trkpt lat="47.10956" lon="-1.2396">
        <ele>64.2</ele>
        <time>2020-07-27T09:45:36Z</time>
      </trkpt>
      <trkpt lat="47.10947" lon="-1.24031">
        <ele>64</ele>
        <time>2020-07-27T09:45:44Z</time>
      </trkpt>
      <trkpt lat="47.1095" lon="-1.24062">
        <ele>63.6</ele>
        <time>2020-07-27T09:45:47Z</time>
      </trkpt>
      <trkpt lat="47.10952" lon="-1.24071">
        <ele>63.6</ele>
        <time>2020-07-27T09:45:48Z</time>
      </trkpt>
      <trkpt lat="47.10954" lon="-1.24081">
        <ele>63.4</ele>
        <time>2020-07-27T09:45:49Z</time>
      </trkpt>
      <trkpt lat="47.1096" lon="-1.24099">
        <ele>62.8</ele>
        <time>2020-07-27T09:45:51Z</time>
      </trkpt>
      <trkpt lat="47.10965" lon="-1.24118">
        <ele>62.6</ele>
        <time>2020-07-27T09:45:53Z</time>
      </trkpt>
      <trkpt lat="47.10969" lon="-1.24138">
        <ele>62.4</ele>
        <time>2020-07-27T09:45:55Z</time>
      </trkpt>
      <trkpt lat="47.1097" lon="-1.24159">
        <ele>62.2</ele>
        <time>2020-07-27T09:45:57Z</time>
      </trkpt>
      <trkpt lat="47.10968" lon="-1.24179">
        <ele>61.8</ele>
        <time>2020-07-27T09:45:59Z</time>
      </trkpt>
      <trkpt lat="47.10965" lon="-1.24188">
        <ele>61.6</ele>
        <time>2020-07-27T09:46:00Z</time>
      </trkpt>
      <trkpt lat="47.10956" lon="-1.24215">
        <ele>61.4</ele>
        <time>2020-07-27T09:46:03Z</time>
      </trkpt>
      <trkpt lat="47.1093" lon="-1.24281">
        <ele>61.2</ele>
        <time>2020-07-27T09:46:11Z</time>
      </trkpt>
      <trkpt lat="47.109" lon="-1.24352">
        <ele>62</ele>
        <time>2020-07-27T09:46:20Z</time>
      </trkpt>
      <trkpt lat="47.10877" lon="-1.24392">
        <ele>62</ele>
        <time>2020-07-27T09:46:27Z</time>
      </trkpt>
      <trkpt lat="47.10867" lon="-1.24406">
        <ele>61.8</ele>
        <time>2020-07-27T09:46:30Z</time>
      </trkpt>
      <trkpt lat="47.10854" lon="-1.24416">
        <ele>62</ele>
        <time>2020-07-27T09:46:33Z</time>
      </trkpt>
      <trkpt lat="47.10846" lon="-1.24424">
        <ele>62</ele>
        <time>2020-07-27T09:46:35Z</time>
      </trkpt>
      <trkpt lat="47.10831" lon="-1.24445">
        <ele>62</ele>
        <time>2020-07-27T09:46:39Z</time>
      </trkpt>
      <trkpt lat="47.10824" lon="-1.24458">
        <ele>62</ele>
        <time>2020-07-27T09:46:41Z</time>
      </trkpt>
      <trkpt lat="47.10815" lon="-1.24481">
        <ele>62.2</ele>
        <time>2020-07-27T09:46:44Z</time>
      </trkpt>
      <trkpt lat="47.10793" lon="-1.24551">
        <ele>62</ele>
        <time>2020-07-27T09:46:53Z</time>
      </trkpt>
      <trkpt lat="47.10779" lon="-1.246">
        <ele>61</ele>
        <time>2020-07-27T09:46:59Z</time>
      </trkpt>
      <trkpt lat="47.10772" lon="-1.24634">
        <ele>60.6</ele>
        <time>2020-07-27T09:47:03Z</time>
      </trkpt>
      <trkpt lat="47.10772" lon="-1.24643">
        <ele>60.4</ele>
        <time>2020-07-27T09:47:04Z</time>
      </trkpt>
      <trkpt lat="47.10771" lon="-1.24652">
        <ele>60.4</ele>
        <time>2020-07-27T09:47:05Z</time>
      </trkpt>
      <trkpt lat="47.10762" lon="-1.24737">
        <ele>59.6</ele>
        <time>2020-07-27T09:47:15Z</time>
      </trkpt>
      <trkpt lat="47.10761" lon="-1.24746">
        <ele>59.6</ele>
        <time>2020-07-27T09:47:16Z</time>
      </trkpt>
      <trkpt lat="47.1076" lon="-1.24755">
        <ele>59.2</ele>
        <time>2020-07-27T09:47:17Z</time>
      </trkpt>
      <trkpt lat="47.10756" lon="-1.24792">
        <ele>58.2</ele>
        <time>2020-07-27T09:47:21Z</time>
      </trkpt>
      <trkpt lat="47.10754" lon="-1.24811">
        <ele>57.8</ele>
        <time>2020-07-27T09:47:23Z</time>
      </trkpt>
      <trkpt lat="47.10752" lon="-1.24831">
        <ele>57</ele>
        <time>2020-07-27T09:47:25Z</time>
      </trkpt>
      <trkpt lat="47.10748" lon="-1.24872">
        <ele>56</ele>
        <time>2020-07-27T09:47:29Z</time>
      </trkpt>
      <trkpt lat="47.10749" lon="-1.24891">
        <ele>55.4</ele>
        <time>2020-07-27T09:47:31Z</time>
      </trkpt>
      <trkpt lat="47.1075" lon="-1.24911">
        <ele>54.8</ele>
        <time>2020-07-27T09:47:33Z</time>
      </trkpt>
      <trkpt lat="47.1075" lon="-1.24951">
        <ele>54</ele>
        <time>2020-07-27T09:47:37Z</time>
      </trkpt>
      <trkpt lat="47.10749" lon="-1.24961">
        <ele>53.8</ele>
        <time>2020-07-27T09:47:38Z</time>
      </trkpt>
      <trkpt lat="47.10749" lon="-1.25012">
        <ele>52.8</ele>
        <time>2020-07-27T09:47:43Z</time>
      </trkpt>
      <trkpt lat="47.10748" lon="-1.25022">
        <ele>52.8</ele>
        <time>2020-07-27T09:47:44Z</time>
      </trkpt>
      <trkpt lat="47.10744" lon="-1.25082">
        <ele>52.2</ele>
        <time>2020-07-27T09:47:50Z</time>
      </trkpt>
      <trkpt lat="47.1074" lon="-1.25113">
        <ele>51.6</ele>
        <time>2020-07-27T09:47:53Z</time>
      </trkpt>
      <trkpt lat="47.10736" lon="-1.25131">
        <ele>51.4</ele>
        <time>2020-07-27T09:47:55Z</time>
      </trkpt>
      <trkpt lat="47.10722" lon="-1.25163">
        <ele>51</ele>
        <time>2020-07-27T09:47:59Z</time>
      </trkpt>
      <trkpt lat="47.10718" lon="-1.2517">
        <ele>50.8</ele>
        <time>2020-07-27T09:48:00Z</time>
      </trkpt>
      <trkpt lat="47.10709" lon="-1.25186">
        <ele>50.4</ele>
        <time>2020-07-27T09:48:02Z</time>
      </trkpt>
      <trkpt lat="47.10686" lon="-1.25233">
        <ele>49.6</ele>
        <time>2020-07-27T09:48:08Z</time>
      </trkpt>
      <trkpt lat="47.1067" lon="-1.25264">
        <ele>49.4</ele>
        <time>2020-07-27T09:48:12Z</time>
      </trkpt>
      <trkpt lat="47.10659" lon="-1.25289">
        <ele>49</ele>
        <time>2020-07-27T09:48:15Z</time>
      </trkpt>
      <trkpt lat="47.10633" lon="-1.25357">
        <ele>48.6</ele>
        <time>2020-07-27T09:48:23Z</time>
      </trkpt>
      <trkpt lat="47.10624" lon="-1.25383">
        <ele>48.2</ele>
        <time>2020-07-27T09:48:26Z</time>
      </trkpt>
      <trkpt lat="47.10609" lon="-1.25427">
        <ele>47.8</ele>
        <time>2020-07-27T09:48:31Z</time>
      </trkpt>
      <trkpt lat="47.10586" lon="-1.2549">
        <ele>47.2</ele>
        <time>2020-07-27T09:48:38Z</time>
      </trkpt>
      <trkpt lat="47.10576" lon="-1.25518">
        <ele>46.6</ele>
        <time>2020-07-27T09:48:41Z</time>
      </trkpt>
      <trkpt lat="47.1055" lon="-1.2559">
        <ele>46.2</ele>
        <time>2020-07-27T09:48:49Z</time>
      </trkpt>
      <trkpt lat="47.10525" lon="-1.2566">
        <ele>45.8</ele>
        <time>2020-07-27T09:48:57Z</time>
      </trkpt>
      <trkpt lat="47.10522" lon="-1.25669">
        <ele>45.8</ele>
        <time>2020-07-27T09:48:58Z</time>
      </trkpt>
      <trkpt lat="47.10493" lon="-1.25746">
        <ele>45.6</ele>
        <time>2020-07-27T09:49:07Z</time>
      </trkpt>
      <trkpt lat="47.1049" lon="-1.25755">
        <ele>45.6</ele>
        <time>2020-07-27T09:49:08Z</time>
      </trkpt>
      <trkpt lat="47.10463" lon="-1.25826">
        <ele>45.4</ele>
        <time>2020-07-27T09:49:16Z</time>
      </trkpt>
      <trkpt lat="47.10456" lon="-1.25843">
        <ele>45</ele>
        <time>2020-07-27T09:49:18Z</time>
      </trkpt>
      <trkpt lat="47.10437" lon="-1.25894">
        <ele>44.6</ele>
        <time>2020-07-27T09:49:24Z</time>
      </trkpt>
      <trkpt lat="47.10416" lon="-1.25947">
        <ele>44</ele>
        <time>2020-07-27T09:49:30Z</time>
      </trkpt>
      <trkpt lat="47.10406" lon="-1.25974">
        <ele>43.6</ele>
        <time>2020-07-27T09:49:33Z</time>
      </trkpt>
      <trkpt lat="47.10383" lon="-1.26035">
        <ele>42.8</ele>
        <time>2020-07-27T09:49:40Z</time>
      </trkpt>
      <trkpt lat="47.10373" lon="-1.26061">
        <ele>42.6</ele>
        <time>2020-07-27T09:49:43Z</time>
      </trkpt>
      <trkpt lat="47.10355" lon="-1.26123">
        <ele>42</ele>
        <time>2020-07-27T09:49:50Z</time>
      </trkpt>
      <trkpt lat="47.10353" lon="-1.26143">
        <ele>41.8</ele>
        <time>2020-07-27T09:49:52Z</time>
      </trkpt>
      <trkpt lat="47.10351" lon="-1.26174">
        <ele>41.4</ele>
        <time>2020-07-27T09:49:55Z</time>
      </trkpt>
      <trkpt lat="47.10354" lon="-1.26224">
        <ele>40.8</ele>
        <time>2020-07-27T09:50:00Z</time>
      </trkpt>
      <trkpt lat="47.10356" lon="-1.26253">
        <ele>40.4</ele>
        <time>2020-07-27T09:50:03Z</time>
      </trkpt>
      <trkpt lat="47.10358" lon="-1.26299">
        <ele>40.2</ele>
        <time>2020-07-27T09:50:08Z</time>
      </trkpt>
      <trkpt lat="47.10357" lon="-1.26318">
        <ele>40</ele>
        <time>2020-07-27T09:50:10Z</time>
      </trkpt>
      <trkpt lat="47.10347" lon="-1.26371">
        <ele>39.8</ele>
        <time>2020-07-27T09:50:16Z</time>
      </trkpt>
      <trkpt lat="47.10342" lon="-1.26387">
        <ele>39.4</ele>
        <time>2020-07-27T09:50:18Z</time>
      </trkpt>
      <trkpt lat="47.10337" lon="-1.26402">
        <ele>39.4</ele>
        <time>2020-07-27T09:50:20Z</time>
      </trkpt>
      <trkpt lat="47.10335" lon="-1.2641">
        <ele>39.4</ele>
        <time>2020-07-27T09:50:21Z</time>
      </trkpt>
      <trkpt lat="47.10316" lon="-1.26485">
        <ele>39</ele>
        <time>2020-07-27T09:50:30Z</time>
      </trkpt>
      <trkpt lat="47.10297" lon="-1.26551">
        <ele>39</ele>
        <time>2020-07-27T09:50:38Z</time>
      </trkpt>
      <trkpt lat="47.10285" lon="-1.26591">
        <ele>38.6</ele>
        <time>2020-07-27T09:50:43Z</time>
      </trkpt>
      <trkpt lat="47.10278" lon="-1.26616">
        <ele>38.2</ele>
        <time>2020-07-27T09:50:46Z</time>
      </trkpt>
      <trkpt lat="47.10267" lon="-1.26662">
        <ele>38.2</ele>
        <time>2020-07-27T09:50:52Z</time>
      </trkpt>
      <trkpt lat="47.10265" lon="-1.26677">
        <ele>38.2</ele>
        <time>2020-07-27T09:50:56Z</time>
      </trkpt>
      <trkpt lat="47.10265" lon="-1.26679">
        <ele>37.6</ele>
        <time>2020-07-27T09:51:04Z</time>
      </trkpt>
      <trkpt lat="47.10265" lon="-1.26684">
        <ele>37.6</ele>
        <time>2020-07-27T09:51:06Z</time>
      </trkpt>
      <trkpt lat="47.10261" lon="-1.26688">
        <ele>37.6</ele>
        <time>2020-07-27T09:51:08Z</time>
      </trkpt>
      <trkpt lat="47.10256" lon="-1.26694">
        <ele>37.4</ele>
        <time>2020-07-27T09:51:10Z</time>
      </trkpt>
      <trkpt lat="47.10232" lon="-1.26718">
        <ele>37.4</ele>
        <time>2020-07-27T09:51:16Z</time>
      </trkpt>
      <trkpt lat="47.10195" lon="-1.26754">
        <ele>36.6</ele>
        <time>2020-07-27T09:51:24Z</time>
      </trkpt>
      <trkpt lat="47.1019" lon="-1.26758">
        <ele>36.4</ele>
        <time>2020-07-27T09:51:25Z</time>
      </trkpt>
      <trkpt lat="47.10149" lon="-1.268">
        <ele>36.2</ele>
        <time>2020-07-27T09:51:34Z</time>
      </trkpt>
      <trkpt lat="47.10108" lon="-1.26838">
        <ele>37</ele>
        <time>2020-07-27T09:51:43Z</time>
      </trkpt>
      <trkpt lat="47.10069" lon="-1.26868">
        <ele>37.6</ele>
        <time>2020-07-27T09:51:51Z</time>
      </trkpt>
      <trkpt lat="47.10019" lon="-1.26905">
        <ele>38</ele>
        <time>2020-07-27T09:52:01Z</time>
      </trkpt>
      <trkpt lat="47.09971" lon="-1.2694">
        <ele>38.2</ele>
        <time>2020-07-27T09:52:10Z</time>
      </trkpt>
      <trkpt lat="47.09925" lon="-1.26975">
        <ele>38.4</ele>
        <time>2020-07-27T09:52:19Z</time>
      </trkpt>
      <trkpt lat="47.09893" lon="-1.26998">
        <ele>38.6</ele>
        <time>2020-07-27T09:52:25Z</time>
      </trkpt>
      <trkpt lat="47.09878" lon="-1.2701">
        <ele>38.8</ele>
        <time>2020-07-27T09:52:28Z</time>
      </trkpt>
      <trkpt lat="47.09828" lon="-1.27053">
        <ele>39</ele>
        <time>2020-07-27T09:52:38Z</time>
      </trkpt>
      <trkpt lat="47.0979" lon="-1.27091">
        <ele>39.4</ele>
        <time>2020-07-27T09:52:46Z</time>
      </trkpt>
      <trkpt lat="47.09746" lon="-1.27137">
        <ele>39.4</ele>
        <time>2020-07-27T09:52:56Z</time>
      </trkpt>
      <trkpt lat="47.09739" lon="-1.27147">
        <ele>39.6</ele>
        <time>2020-07-27T09:52:58Z</time>
      </trkpt>
      <trkpt lat="47.09733" lon="-1.27157">
        <ele>39.8</ele>
        <time>2020-07-27T09:53:00Z</time>
      </trkpt>
      <trkpt lat="47.09731" lon="-1.27163">
        <ele>39.8</ele>
        <time>2020-07-27T09:53:01Z</time>
      </trkpt>
      <trkpt lat="47.09727" lon="-1.27174">
        <ele>39.8</ele>
        <time>2020-07-27T09:53:03Z</time>
      </trkpt>
      <trkpt lat="47.09721" lon="-1.27197">
        <ele>40.2</ele>
        <time>2020-07-27T09:53:07Z</time>
      </trkpt>
      <trkpt lat="47.09706" lon="-1.27213">
        <ele>40.6</ele>
        <time>2020-07-27T09:53:11Z</time>
      </trkpt>
      <trkpt lat="47.09701" lon="-1.27215">
        <ele>40.6</ele>
        <time>2020-07-27T09:53:12Z</time>
      </trkpt>
      <trkpt lat="47.09696" lon="-1.27216">
        <ele>40.8</ele>
        <time>2020-07-27T09:53:13Z</time>
      </trkpt>
      <trkpt lat="47.09684" lon="-1.27219">
        <ele>40.8</ele>
        <time>2020-07-27T09:53:15Z</time>
      </trkpt>
      <trkpt lat="47.09663" lon="-1.27234">
        <ele>41.4</ele>
        <time>2020-07-27T09:53:19Z</time>
      </trkpt>
      <trkpt lat="47.09647" lon="-1.27252">
        <ele>41.8</ele>
        <time>2020-07-27T09:53:23Z</time>
      </trkpt>
      <trkpt lat="47.09639" lon="-1.27262">
        <ele>41.8</ele>
        <time>2020-07-27T09:53:25Z</time>
      </trkpt>
      <trkpt lat="47.09617" lon="-1.27286">
        <ele>42</ele>
        <time>2020-07-27T09:53:30Z</time>
      </trkpt>
      <trkpt lat="47.09592" lon="-1.27317">
        <ele>41.8</ele>
        <time>2020-07-27T09:53:36Z</time>
      </trkpt>
      <trkpt lat="47.09563" lon="-1.27342">
        <ele>41.2</ele>
        <time>2020-07-27T09:53:42Z</time>
      </trkpt>
      <trkpt lat="47.09534" lon="-1.27367">
        <ele>40.8</ele>
        <time>2020-07-27T09:53:48Z</time>
      </trkpt>
      <trkpt lat="47.09529" lon="-1.27371">
        <ele>40.6</ele>
        <time>2020-07-27T09:53:49Z</time>
      </trkpt>
      <trkpt lat="47.09487" lon="-1.27408">
        <ele>39.6</ele>
        <time>2020-07-27T09:53:58Z</time>
      </trkpt>
      <trkpt lat="47.09483" lon="-1.27412">
        <ele>39.6</ele>
        <time>2020-07-27T09:53:59Z</time>
      </trkpt>
      <trkpt lat="47.09448" lon="-1.27439">
        <ele>39</ele>
        <time>2020-07-27T09:54:06Z</time>
      </trkpt>
      <trkpt lat="47.09406" lon="-1.27478">
        <ele>38.6</ele>
        <time>2020-07-27T09:54:15Z</time>
      </trkpt>
      <trkpt lat="47.09396" lon="-1.27486">
        <ele>38.4</ele>
        <time>2020-07-27T09:54:17Z</time>
      </trkpt>
      <trkpt lat="47.09365" lon="-1.27516">
        <ele>38</ele>
        <time>2020-07-27T09:54:24Z</time>
      </trkpt>
      <trkpt lat="47.09351" lon="-1.2753">
        <ele>37.4</ele>
        <time>2020-07-27T09:54:28Z</time>
      </trkpt>
      <trkpt lat="47.09346" lon="-1.27537">
        <ele>37.2</ele>
        <time>2020-07-27T09:54:30Z</time>
      </trkpt>
      <trkpt lat="47.09343" lon="-1.27548">
        <ele>36.8</ele>
        <time>2020-07-27T09:54:32Z</time>
      </trkpt>
      <trkpt lat="47.09342" lon="-1.27555">
        <ele>36.6</ele>
        <time>2020-07-27T09:54:33Z</time>
      </trkpt>
      <trkpt lat="47.09343" lon="-1.27562">
        <ele>36.4</ele>
        <time>2020-07-27T09:54:34Z</time>
      </trkpt>
      <trkpt lat="47.09348" lon="-1.27575">
        <ele>36.2</ele>
        <time>2020-07-27T09:54:36Z</time>
      </trkpt>
      <trkpt lat="47.0936" lon="-1.27623">
        <ele>35.6</ele>
        <time>2020-07-27T09:54:44Z</time>
      </trkpt>
      <trkpt lat="47.09355" lon="-1.27629">
        <ele>35.6</ele>
        <time>2020-07-27T09:54:46Z</time>
      </trkpt>
      <trkpt lat="47.09337" lon="-1.2763">
        <ele>35.6</ele>
        <time>2020-07-27T09:54:50Z</time>
      </trkpt>
      <trkpt lat="47.09332" lon="-1.27632">
        <ele>35.6</ele>
        <time>2020-07-27T09:54:51Z</time>
      </trkpt>
      <trkpt lat="47.09322" lon="-1.27638">
        <ele>35.4</ele>
        <time>2020-07-27T09:54:53Z</time>
      </trkpt>
      <trkpt lat="47.09307" lon="-1.27645">
        <ele>35.2</ele>
        <time>2020-07-27T09:54:56Z</time>
      </trkpt>
      <trkpt lat="47.09266" lon="-1.27659">
        <ele>34.4</ele>
        <time>2020-07-27T09:55:04Z</time>
      </trkpt>
      <trkpt lat="47.0926" lon="-1.2766">
        <ele>34.2</ele>
        <time>2020-07-27T09:55:05Z</time>
      </trkpt>
      <trkpt lat="47.09231" lon="-1.27665">
        <ele>33.6</ele>
        <time>2020-07-27T09:55:11Z</time>
      </trkpt>
      <trkpt lat="47.09222" lon="-1.27669">
        <ele>33.2</ele>
        <time>2020-07-27T09:55:13Z</time>
      </trkpt>
      <trkpt lat="47.09218" lon="-1.27673">
        <ele>33.2</ele>
        <time>2020-07-27T09:55:14Z</time>
      </trkpt>
      <trkpt lat="47.09205" lon="-1.27683">
        <ele>32.8</ele>
        <time>2020-07-27T09:55:17Z</time>
      </trkpt>
      <trkpt lat="47.09173" lon="-1.2771">
        <ele>32.2</ele>
        <time>2020-07-27T09:55:24Z</time>
      </trkpt>
      <trkpt lat="47.09168" lon="-1.27713">
        <ele>32</ele>
        <time>2020-07-27T09:55:25Z</time>
      </trkpt>
      <trkpt lat="47.09134" lon="-1.27735">
        <ele>31</ele>
        <time>2020-07-27T09:55:32Z</time>
      </trkpt>
      <trkpt lat="47.0913" lon="-1.27738">
        <ele>30.8</ele>
        <time>2020-07-27T09:55:33Z</time>
      </trkpt>
      <trkpt lat="47.091" lon="-1.27759">
        <ele>29.8</ele>
        <time>2020-07-27T09:55:40Z</time>
      </trkpt>
      <trkpt lat="47.09096" lon="-1.27762">
        <ele>29.8</ele>
        <time>2020-07-27T09:55:41Z</time>
      </trkpt>
      <trkpt lat="47.09071" lon="-1.2778">
        <ele>29</ele>
        <time>2020-07-27T09:55:48Z</time>
      </trkpt>
      <trkpt lat="47.09068" lon="-1.27782">
        <ele>28.8</ele>
        <time>2020-07-27T09:55:49Z</time>
      </trkpt>
      <trkpt lat="47.09042" lon="-1.27798">
        <ele>28.4</ele>
        <time>2020-07-27T09:55:57Z</time>
      </trkpt>
      <trkpt lat="47.09017" lon="-1.2781">
        <ele>27.8</ele>
        <time>2020-07-27T09:56:03Z</time>
      </trkpt>
      <trkpt lat="47.09013" lon="-1.27813">
        <ele>27.6</ele>
        <time>2020-07-27T09:56:04Z</time>
      </trkpt>
      <trkpt lat="47.08988" lon="-1.27827">
        <ele>27</ele>
        <time>2020-07-27T09:56:10Z</time>
      </trkpt>
      <trkpt lat="47.08983" lon="-1.27829">
        <ele>26.6</ele>
        <time>2020-07-27T09:56:12Z</time>
      </trkpt>
      <trkpt lat="47.08977" lon="-1.27832">
        <ele>26</ele>
        <time>2020-07-27T09:56:16Z</time>
      </trkpt>
      <trkpt lat="47.08976" lon="-1.27836">
        <ele>26.2</ele>
        <time>2020-07-27T09:56:19Z</time>
      </trkpt>
      <trkpt lat="47.08976" lon="-1.27841">
        <ele>26.6</ele>
        <time>2020-07-27T09:56:21Z</time>
      </trkpt>
      <trkpt lat="47.08972" lon="-1.27859">
        <ele>26</ele>
        <time>2020-07-27T09:56:27Z</time>
      </trkpt>
      <trkpt lat="47.08972" lon="-1.27881">
        <ele>26.4</ele>
        <time>2020-07-27T09:56:33Z</time>
      </trkpt>
      <trkpt lat="47.08969" lon="-1.27879">
        <ele>27</ele>
        <time>2020-07-27T09:56:35Z</time>
      </trkpt>
      <trkpt lat="47.08967" lon="-1.27875">
        <ele>27</ele>
        <time>2020-07-27T09:56:36Z</time>
      </trkpt>
      <trkpt lat="47.08958" lon="-1.27856">
        <ele>27.8</ele>
        <time>2020-07-27T09:56:40Z</time>
      </trkpt>
      <trkpt lat="47.08951" lon="-1.27849">
        <ele>28.2</ele>
        <time>2020-07-27T09:56:42Z</time>
      </trkpt>
      <trkpt lat="47.08938" lon="-1.27838">
        <ele>28.6</ele>
        <time>2020-07-27T09:56:45Z</time>
      </trkpt>
      <trkpt lat="47.08908" lon="-1.27815">
        <ele>28.8</ele>
        <time>2020-07-27T09:56:51Z</time>
      </trkpt>
      <trkpt lat="47.08879" lon="-1.27796">
        <ele>28.6</ele>
        <time>2020-07-27T09:56:58Z</time>
      </trkpt>
      <trkpt lat="47.08857" lon="-1.27785">
        <ele>29</ele>
        <time>2020-07-27T09:57:04Z</time>
      </trkpt>
      <trkpt lat="47.08854" lon="-1.27784">
        <ele>29</ele>
        <time>2020-07-27T09:57:05Z</time>
      </trkpt>
      <trkpt lat="47.08839" lon="-1.27776">
        <ele>29.2</ele>
        <time>2020-07-27T09:57:12Z</time>
      </trkpt>
      <trkpt lat="47.08835" lon="-1.27773">
        <ele>29.6</ele>
        <time>2020-07-27T09:58:06Z</time>
      </trkpt>
      <trkpt lat="47.0884" lon="-1.27769">
        <ele>29.4</ele>
        <time>2020-07-27T09:58:10Z</time>
      </trkpt>
      <trkpt lat="47.08844" lon="-1.2777">
        <ele>29.8</ele>
        <time>2020-07-27T09:58:12Z</time>
      </trkpt>
      <trkpt lat="47.08846" lon="-1.2777">
        <ele>30.2</ele>
        <time>2020-07-27T09:58:13Z</time>
      </trkpt>
      <trkpt lat="47.08853" lon="-1.27776">
        <ele>31</ele>
        <time>2020-07-27T09:58:16Z</time>
      </trkpt>
      <trkpt lat="47.08859" lon="-1.27781">
        <ele>31.4</ele>
        <time>2020-07-27T09:58:18Z</time>
      </trkpt>
      <trkpt lat="47.08874" lon="-1.27789">
        <ele>31.6</ele>
        <time>2020-07-27T09:58:23Z</time>
      </trkpt>
      <trkpt lat="47.08893" lon="-1.27799">
        <ele>30</ele>
        <time>2020-07-27T09:58:29Z</time>
      </trkpt>
      <trkpt lat="47.08899" lon="-1.27802">
        <ele>29.6</ele>
        <time>2020-07-27T09:58:31Z</time>
      </trkpt>
      <trkpt lat="47.08907" lon="-1.27807">
        <ele>28.8</ele>
        <time>2020-07-27T09:58:34Z</time>
      </trkpt>
      <trkpt lat="47.08913" lon="-1.2781">
        <ele>28</ele>
        <time>2020-07-27T09:58:36Z</time>
      </trkpt>
      <trkpt lat="47.08916" lon="-1.27811">
        <ele>27.6</ele>
        <time>2020-07-27T09:58:37Z</time>
      </trkpt>
      <trkpt lat="47.08925" lon="-1.27815">
        <ele>26.2</ele>
        <time>2020-07-27T09:58:40Z</time>
      </trkpt>
      <trkpt lat="47.08933" lon="-1.2782">
        <ele>25</ele>
        <time>2020-07-27T09:58:43Z</time>
      </trkpt>
      <trkpt lat="47.08936" lon="-1.27822">
        <ele>24.6</ele>
        <time>2020-07-27T09:58:44Z</time>
      </trkpt>
      <trkpt lat="47.08941" lon="-1.27825">
        <ele>23.6</ele>
        <time>2020-07-27T09:58:46Z</time>
      </trkpt>
      <trkpt lat="47.08944" lon="-1.27829">
        <ele>22.4</ele>
        <time>2020-07-27T09:58:48Z</time>
      </trkpt>
      <trkpt lat="47.08949" lon="-1.27832">
        <ele>21.4</ele>
        <time>2020-07-27T09:58:50Z</time>
      </trkpt>
      <trkpt lat="47.08951" lon="-1.27835">
        <ele>21</ele>
        <time>2020-07-27T09:58:51Z</time>
      </trkpt>
      <trkpt lat="47.08955" lon="-1.27838">
        <ele>20.2</ele>
        <time>2020-07-27T09:58:53Z</time>
      </trkpt>
      <trkpt lat="47.08959" lon="-1.27843">
        <ele>19</ele>
        <time>2020-07-27T09:58:55Z</time>
      </trkpt>
      <trkpt lat="47.08968" lon="-1.27844">
        <ele>17.8</ele>
        <time>2020-07-27T09:58:58Z</time>
      </trkpt>
      <trkpt lat="47.08975" lon="-1.27838">
        <ele>16.8</ele>
        <time>2020-07-27T09:59:01Z</time>
      </trkpt>
      <trkpt lat="47.08979" lon="-1.27834">
        <ele>15.6</ele>
        <time>2020-07-27T09:59:03Z</time>
      </trkpt>
      <trkpt lat="47.08983" lon="-1.27832">
        <ele>14.2</ele>
        <time>2020-07-27T09:59:05Z</time>
      </trkpt>
      <trkpt lat="47.08991" lon="-1.27826">
        <ele>13.2</ele>
        <time>2020-07-27T09:59:08Z</time>
      </trkpt>
      <trkpt lat="47.08981" lon="-1.27852">
        <ele>25.6</ele>
        <time>2020-07-27T10:43:13Z</time>
      </trkpt>
      <trkpt lat="47.08979" lon="-1.27858">
        <ele>26.8</ele>
        <time>2020-07-27T10:43:15Z</time>
      </trkpt>
      <trkpt lat="47.08976" lon="-1.27866">
        <ele>27.8</ele>
        <time>2020-07-27T10:43:17Z</time>
      </trkpt>
      <trkpt lat="47.08973" lon="-1.27874">
        <ele>29</ele>
        <time>2020-07-27T10:43:19Z</time>
      </trkpt>
      <trkpt lat="47.0897" lon="-1.27881">
        <ele>30</ele>
        <time>2020-07-27T10:43:21Z</time>
      </trkpt>
      <trkpt lat="47.08969" lon="-1.27884">
        <ele>30.6</ele>
        <time>2020-07-27T10:43:22Z</time>
      </trkpt>
      <trkpt lat="47.08968" lon="-1.27878">
        <ele>29.8</ele>
        <time>2020-07-27T10:48:23Z</time>
      </trkpt>
      <trkpt lat="47.08966" lon="-1.27863">
        <ele>31.2</ele>
        <time>2020-07-27T10:48:28Z</time>
      </trkpt>
      <trkpt lat="47.08964" lon="-1.27861">
        <ele>31.8</ele>
        <time>2020-07-27T10:48:29Z</time>
      </trkpt>
      <trkpt lat="47.08963" lon="-1.27859">
        <ele>32.6</ele>
        <time>2020-07-27T10:48:30Z</time>
      </trkpt>
      <trkpt lat="47.08953" lon="-1.27851">
        <ele>33</ele>
        <time>2020-07-27T10:48:34Z</time>
      </trkpt>
      <trkpt lat="47.08931" lon="-1.27832">
        <ele>31.8</ele>
        <time>2020-07-27T10:48:43Z</time>
      </trkpt>
      <trkpt lat="47.08927" lon="-1.2783">
        <ele>31.6</ele>
        <time>2020-07-27T10:48:44Z</time>
      </trkpt>
      <trkpt lat="47.08906" lon="-1.27817">
        <ele>30.4</ele>
        <time>2020-07-27T10:48:49Z</time>
      </trkpt>
      <trkpt lat="47.08871" lon="-1.27797">
        <ele>29.4</ele>
        <time>2020-07-27T10:48:57Z</time>
      </trkpt>
      <trkpt lat="47.08855" lon="-1.27787">
        <ele>28.4</ele>
        <time>2020-07-27T10:49:02Z</time>
      </trkpt>
      <trkpt lat="47.08831" lon="-1.27771">
        <ele>27.2</ele>
        <time>2020-07-27T10:49:08Z</time>
      </trkpt>
      <trkpt lat="47.08815" lon="-1.27756">
        <ele>26.4</ele>
        <time>2020-07-27T10:49:12Z</time>
      </trkpt>
      <trkpt lat="47.08805" lon="-1.27751">
        <ele>26</ele>
        <time>2020-07-27T10:49:14Z</time>
      </trkpt>
      <trkpt lat="47.08784" lon="-1.27737">
        <ele>24.8</ele>
        <time>2020-07-27T10:49:18Z</time>
      </trkpt>
      <trkpt lat="47.08774" lon="-1.27727">
        <ele>24.2</ele>
        <time>2020-07-27T10:49:20Z</time>
      </trkpt>
      <trkpt lat="47.08755" lon="-1.27708">
        <ele>24.2</ele>
        <time>2020-07-27T10:49:25Z</time>
      </trkpt>
      <trkpt lat="47.08737" lon="-1.27691">
        <ele>25.4</ele>
        <time>2020-07-27T10:49:31Z</time>
      </trkpt>
      <trkpt lat="47.08722" lon="-1.27675">
        <ele>26</ele>
        <time>2020-07-27T10:49:36Z</time>
      </trkpt>
      <trkpt lat="47.0871" lon="-1.27662">
        <ele>26.6</ele>
        <time>2020-07-27T10:49:40Z</time>
      </trkpt>
      <trkpt lat="47.08695" lon="-1.27649">
        <ele>27.2</ele>
        <time>2020-07-27T10:49:45Z</time>
      </trkpt>
      <trkpt lat="47.08689" lon="-1.27643">
        <ele>27.4</ele>
        <time>2020-07-27T10:49:47Z</time>
      </trkpt>
      <trkpt lat="47.08681" lon="-1.27634">
        <ele>28.2</ele>
        <time>2020-07-27T10:49:50Z</time>
      </trkpt>
      <trkpt lat="47.0867" lon="-1.27618">
        <ele>29</ele>
        <time>2020-07-27T10:49:55Z</time>
      </trkpt>
      <trkpt lat="47.08667" lon="-1.27611">
        <ele>29.2</ele>
        <time>2020-07-27T10:49:57Z</time>
      </trkpt>
      <trkpt lat="47.0866" lon="-1.27591">
        <ele>30.2</ele>
        <time>2020-07-27T10:50:02Z</time>
      </trkpt>
      <trkpt lat="47.08658" lon="-1.27586">
        <ele>30.4</ele>
        <time>2020-07-27T10:50:03Z</time>
      </trkpt>
      <trkpt lat="47.08653" lon="-1.27564">
        <ele>31.4</ele>
        <time>2020-07-27T10:50:08Z</time>
      </trkpt>
      <trkpt lat="47.08651" lon="-1.27554">
        <ele>32</ele>
        <time>2020-07-27T10:50:10Z</time>
      </trkpt>
      <trkpt lat="47.08648" lon="-1.27546">
        <ele>32.6</ele>
        <time>2020-07-27T10:50:12Z</time>
      </trkpt>
      <trkpt lat="47.08643" lon="-1.27523">
        <ele>33.8</ele>
        <time>2020-07-27T10:50:17Z</time>
      </trkpt>
      <trkpt lat="47.0864" lon="-1.27509">
        <ele>34.4</ele>
        <time>2020-07-27T10:50:20Z</time>
      </trkpt>
      <trkpt lat="47.08638" lon="-1.275">
        <ele>34.8</ele>
        <time>2020-07-27T10:50:22Z</time>
      </trkpt>
      <trkpt lat="47.08634" lon="-1.27481">
        <ele>36.2</ele>
        <time>2020-07-27T10:50:26Z</time>
      </trkpt>
      <trkpt lat="47.08633" lon="-1.27477">
        <ele>36.2</ele>
        <time>2020-07-27T10:50:27Z</time>
      </trkpt>
      <trkpt lat="47.08627" lon="-1.27424">
        <ele>37</ele>
        <time>2020-07-27T10:50:37Z</time>
      </trkpt>
      <trkpt lat="47.08623" lon="-1.27373">
        <ele>36.4</ele>
        <time>2020-07-27T10:50:46Z</time>
      </trkpt>
      <trkpt lat="47.08622" lon="-1.27367">
        <ele>36.2</ele>
        <time>2020-07-27T10:50:47Z</time>
      </trkpt>
      <trkpt lat="47.08619" lon="-1.27339">
        <ele>36.2</ele>
        <time>2020-07-27T10:50:52Z</time>
      </trkpt>
      <trkpt lat="47.08616" lon="-1.27295">
        <ele>36.6</ele>
        <time>2020-07-27T10:50:59Z</time>
      </trkpt>
      <trkpt lat="47.08609" lon="-1.27223">
        <ele>36.8</ele>
        <time>2020-07-27T10:51:09Z</time>
      </trkpt>
      <trkpt lat="47.08608" lon="-1.27167">
        <ele>36</ele>
        <time>2020-07-27T10:51:17Z</time>
      </trkpt>
      <trkpt lat="47.08614" lon="-1.27121">
        <ele>36.2</ele>
        <time>2020-07-27T10:51:24Z</time>
      </trkpt>
      <trkpt lat="47.08623" lon="-1.27064">
        <ele>36.4</ele>
        <time>2020-07-27T10:51:33Z</time>
      </trkpt>
      <trkpt lat="47.08633" lon="-1.26987">
        <ele>36.4</ele>
        <time>2020-07-27T10:51:44Z</time>
      </trkpt>
      <trkpt lat="47.0864" lon="-1.26911">
        <ele>36.6</ele>
        <time>2020-07-27T10:51:55Z</time>
      </trkpt>
      <trkpt lat="47.08643" lon="-1.26858">
        <ele>36.6</ele>
        <time>2020-07-27T10:52:03Z</time>
      </trkpt>
      <trkpt lat="47.0864" lon="-1.26807">
        <ele>37</ele>
        <time>2020-07-27T10:52:11Z</time>
      </trkpt>
      <trkpt lat="47.08639" lon="-1.26801">
        <ele>37.4</ele>
        <time>2020-07-27T10:52:12Z</time>
      </trkpt>
      <trkpt lat="47.08635" lon="-1.2678">
        <ele>38</ele>
        <time>2020-07-27T10:52:17Z</time>
      </trkpt>
      <trkpt lat="47.08633" lon="-1.26773">
        <ele>38.4</ele>
        <time>2020-07-27T10:52:19Z</time>
      </trkpt>
      <trkpt lat="47.0863" lon="-1.26767">
        <ele>38.6</ele>
        <time>2020-07-27T10:52:22Z</time>
      </trkpt>
      <trkpt lat="47.08631" lon="-1.26765">
        <ele>38.8</ele>
        <time>2020-07-27T10:52:27Z</time>
      </trkpt>
      <trkpt lat="47.08633" lon="-1.26763">
        <ele>38.6</ele>
        <time>2020-07-27T10:52:29Z</time>
      </trkpt>
      <trkpt lat="47.08637" lon="-1.26771">
        <ele>38.4</ele>
        <time>2020-07-27T10:52:32Z</time>
      </trkpt>
      <trkpt lat="47.0864" lon="-1.26787">
        <ele>38.4</ele>
        <time>2020-07-27T10:52:35Z</time>
      </trkpt>
      <trkpt lat="47.08643" lon="-1.26799">
        <ele>38.4</ele>
        <time>2020-07-27T10:52:37Z</time>
      </trkpt>
      <trkpt lat="47.08649" lon="-1.2685">
        <ele>38.2</ele>
        <time>2020-07-27T10:52:44Z</time>
      </trkpt>
      <trkpt lat="47.08647" lon="-1.26901">
        <ele>37.4</ele>
        <time>2020-07-27T10:52:50Z</time>
      </trkpt>
      <trkpt lat="47.08646" lon="-1.2691">
        <ele>37.2</ele>
        <time>2020-07-27T10:52:51Z</time>
      </trkpt>
      <trkpt lat="47.0864" lon="-1.26975">
        <ele>36.2</ele>
        <time>2020-07-27T10:52:58Z</time>
      </trkpt>
      <trkpt lat="47.08639" lon="-1.26983">
        <ele>36.2</ele>
        <time>2020-07-27T10:52:59Z</time>
      </trkpt>
      <trkpt lat="47.08632" lon="-1.27039">
        <ele>35.4</ele>
        <time>2020-07-27T10:53:06Z</time>
      </trkpt>
      <trkpt lat="47.08631" lon="-1.27047">
        <ele>35.2</ele>
        <time>2020-07-27T10:53:07Z</time>
      </trkpt>
      <trkpt lat="47.08619" lon="-1.27121">
        <ele>34.8</ele>
        <time>2020-07-27T10:53:16Z</time>
      </trkpt>
      <trkpt lat="47.08612" lon="-1.27183">
        <ele>35</ele>
        <time>2020-07-27T10:53:24Z</time>
      </trkpt>
      <trkpt lat="47.08615" lon="-1.27237">
        <ele>35.6</ele>
        <time>2020-07-27T10:53:31Z</time>
      </trkpt>
      <trkpt lat="47.08622" lon="-1.27314">
        <ele>35.6</ele>
        <time>2020-07-27T10:53:41Z</time>
      </trkpt>
      <trkpt lat="47.08626" lon="-1.27364">
        <ele>35.4</ele>
        <time>2020-07-27T10:53:48Z</time>
      </trkpt>
      <trkpt lat="47.08634" lon="-1.27446">
        <ele>34.6</ele>
        <time>2020-07-27T10:53:59Z</time>
      </trkpt>
      <trkpt lat="47.08643" lon="-1.27504">
        <ele>34.2</ele>
        <time>2020-07-27T10:54:06Z</time>
      </trkpt>
      <trkpt lat="47.08645" lon="-1.27513">
        <ele>34</ele>
        <time>2020-07-27T10:54:07Z</time>
      </trkpt>
      <trkpt lat="47.08653" lon="-1.27551">
        <ele>33</ele>
        <time>2020-07-27T10:54:12Z</time>
      </trkpt>
      <trkpt lat="47.08659" lon="-1.27571">
        <ele>32.4</ele>
        <time>2020-07-27T10:54:14Z</time>
      </trkpt>
      <trkpt lat="47.08666" lon="-1.27594">
        <ele>32</ele>
        <time>2020-07-27T10:54:17Z</time>
      </trkpt>
      <trkpt lat="47.08668" lon="-1.27598">
        <ele>31.8</ele>
        <time>2020-07-27T10:54:18Z</time>
      </trkpt>
      <trkpt lat="47.08677" lon="-1.2761">
        <ele>31.4</ele>
        <time>2020-07-27T10:54:21Z</time>
      </trkpt>
      <trkpt lat="47.08681" lon="-1.27614">
        <ele>31.2</ele>
        <time>2020-07-27T10:54:22Z</time>
      </trkpt>
      <trkpt lat="47.08685" lon="-1.27617">
        <ele>30.8</ele>
        <time>2020-07-27T10:54:23Z</time>
      </trkpt>
      <trkpt lat="47.08695" lon="-1.27628">
        <ele>29.6</ele>
        <time>2020-07-27T10:54:26Z</time>
      </trkpt>
      <trkpt lat="47.08699" lon="-1.27635">
        <ele>28.6</ele>
        <time>2020-07-27T10:54:28Z</time>
      </trkpt>
      <trkpt lat="47.08701" lon="-1.27639">
        <ele>28.2</ele>
        <time>2020-07-27T10:54:29Z</time>
      </trkpt>
      <trkpt lat="47.08702" lon="-1.27649">
        <ele>27.2</ele>
        <time>2020-07-27T10:54:32Z</time>
      </trkpt>
      <trkpt lat="47.08696" lon="-1.27663">
        <ele>26</ele>
        <time>2020-07-27T10:54:36Z</time>
      </trkpt>
      <trkpt lat="47.08694" lon="-1.27666">
        <ele>25.8</ele>
        <time>2020-07-27T10:54:37Z</time>
      </trkpt>
      <trkpt lat="47.08679" lon="-1.27679">
        <ele>25</ele>
        <time>2020-07-27T10:54:42Z</time>
      </trkpt>
      <trkpt lat="47.08678" lon="-1.27682">
        <ele>24.8</ele>
        <time>2020-07-27T10:54:43Z</time>
      </trkpt>
      <trkpt lat="47.08678" lon="-1.27686">
        <ele>24.4</ele>
        <time>2020-07-27T10:54:45Z</time>
      </trkpt>
      <trkpt lat="47.08676" lon="-1.27686">
        <ele>24</ele>
        <time>2020-07-27T10:54:50Z</time>
      </trkpt>
      <trkpt lat="47.08674" lon="-1.27684">
        <ele>23.8</ele>
        <time>2020-07-27T10:54:51Z</time>
      </trkpt>
      <trkpt lat="47.08666" lon="-1.27682">
        <ele>22.8</ele>
        <time>2020-07-27T10:54:54Z</time>
      </trkpt>
      <trkpt lat="47.08663" lon="-1.27685">
        <ele>22.2</ele>
        <time>2020-07-27T10:54:55Z</time>
      </trkpt>
      <trkpt lat="47.08656" lon="-1.27691">
        <ele>21.2</ele>
        <time>2020-07-27T10:54:57Z</time>
      </trkpt>
      <trkpt lat="47.08647" lon="-1.27703">
        <ele>20</ele>
        <time>2020-07-27T10:55:00Z</time>
      </trkpt>
      <trkpt lat="47.08644" lon="-1.27708">
        <ele>19.6</ele>
        <time>2020-07-27T10:55:01Z</time>
      </trkpt>
      <trkpt lat="47.08643" lon="-1.27718">
        <ele>18.6</ele>
        <time>2020-07-27T10:55:03Z</time>
      </trkpt>
      <trkpt lat="47.08643" lon="-1.27729">
        <ele>18</ele>
        <time>2020-07-27T10:55:05Z</time>
      </trkpt>
      <trkpt lat="47.08644" lon="-1.27741">
        <ele>17.4</ele>
        <time>2020-07-27T10:55:07Z</time>
      </trkpt>
      <trkpt lat="47.08647" lon="-1.2776">
        <ele>16.8</ele>
        <time>2020-07-27T10:55:10Z</time>
      </trkpt>
      <trkpt lat="47.0865" lon="-1.27773">
        <ele>16.2</ele>
        <time>2020-07-27T10:55:12Z</time>
      </trkpt>
      <trkpt lat="47.08655" lon="-1.27786">
        <ele>15.6</ele>
        <time>2020-07-27T10:55:15Z</time>
      </trkpt>
      <trkpt lat="47.08658" lon="-1.27791">
        <ele>15.2</ele>
        <time>2020-07-27T10:55:17Z</time>
      </trkpt>
      <trkpt lat="47.08664" lon="-1.27799">
        <ele>15.2</ele>
        <time>2020-07-27T10:55:21Z</time>
      </trkpt>
      <trkpt lat="47.08668" lon="-1.27803">
        <ele>14.2</ele>
        <time>2020-07-27T10:57:04Z</time>
      </trkpt>
      <trkpt lat="47.08669" lon="-1.27806">
        <ele>14</ele>
        <time>2020-07-27T10:57:05Z</time>
      </trkpt>
      <trkpt lat="47.0868" lon="-1.27822">
        <ele>13</ele>
        <time>2020-07-27T10:57:10Z</time>
      </trkpt>
      <trkpt lat="47.08695" lon="-1.27846">
        <ele>11.8</ele>
        <time>2020-07-27T10:57:15Z</time>
      </trkpt>
      <trkpt lat="47.087" lon="-1.27852">
        <ele>11.4</ele>
        <time>2020-07-27T10:57:17Z</time>
      </trkpt>
      <trkpt lat="47.08709" lon="-1.27853">
        <ele>10.8</ele>
        <time>2020-07-27T10:57:20Z</time>
      </trkpt>
      <trkpt lat="47.08711" lon="-1.27851">
        <ele>10.6</ele>
        <time>2020-07-27T10:57:21Z</time>
      </trkpt>
      <trkpt lat="47.08715" lon="-1.27845">
        <ele>10.2</ele>
        <time>2020-07-27T10:57:23Z</time>
      </trkpt>
      <trkpt lat="47.08715" lon="-1.27838">
        <ele>9.8</ele>
        <time>2020-07-27T10:57:25Z</time>
      </trkpt>
      <trkpt lat="47.0871" lon="-1.27832">
        <ele>9.6</ele>
        <time>2020-07-27T10:57:26Z</time>
      </trkpt>
      <trkpt lat="47.08708" lon="-1.27807">
        <ele>9</ele>
        <time>2020-07-27T10:57:30Z</time>
      </trkpt>
      <trkpt lat="47.08712" lon="-1.27791">
        <ele>8.4</ele>
        <time>2020-07-27T10:57:33Z</time>
      </trkpt>
      <trkpt lat="47.08717" lon="-1.27779">
        <ele>8.2</ele>
        <time>2020-07-27T10:57:36Z</time>
      </trkpt>
      <trkpt lat="47.08719" lon="-1.27771">
        <ele>8.8</ele>
        <time>2020-07-27T10:57:40Z</time>
      </trkpt>
      <trkpt lat="47.0872" lon="-1.27763">
        <ele>9.2</ele>
        <time>2020-07-27T10:58:27Z</time>
      </trkpt>
      <trkpt lat="47.08721" lon="-1.27759">
        <ele>9.8</ele>
        <time>2020-07-27T10:58:29Z</time>
      </trkpt>
      <trkpt lat="47.08737" lon="-1.27711">
        <ele>10.6</ele>
        <time>2020-07-27T11:05:06Z</time>
      </trkpt>
      <trkpt lat="47.08736" lon="-1.27714">
        <ele>10.6</ele>
        <time>2020-07-27T11:05:07Z</time>
      </trkpt>
      <trkpt lat="47.08734" lon="-1.27726">
        <ele>11</ele>
        <time>2020-07-27T11:05:10Z</time>
      </trkpt>
      <trkpt lat="47.08735" lon="-1.27737">
        <ele>12</ele>
        <time>2020-07-27T11:05:13Z</time>
      </trkpt>
      <trkpt lat="47.08731" lon="-1.2775">
        <ele>13.2</ele>
        <time>2020-07-27T11:05:17Z</time>
      </trkpt>
      <trkpt lat="47.08727" lon="-1.27759">
        <ele>14.2</ele>
        <time>2020-07-27T11:05:20Z</time>
      </trkpt>
      <trkpt lat="47.08725" lon="-1.27762">
        <ele>14.4</ele>
        <time>2020-07-27T11:05:21Z</time>
      </trkpt>
      <trkpt lat="47.08717" lon="-1.2778">
        <ele>15.4</ele>
        <time>2020-07-27T11:05:27Z</time>
      </trkpt>
      <trkpt lat="47.08715" lon="-1.27782">
        <ele>15.6</ele>
        <time>2020-07-27T11:05:28Z</time>
      </trkpt>
      <trkpt lat="47.0871" lon="-1.27799">
        <ele>16.8</ele>
        <time>2020-07-27T11:05:33Z</time>
      </trkpt>
      <trkpt lat="47.08706" lon="-1.27822">
        <ele>17.8</ele>
        <time>2020-07-27T11:05:39Z</time>
      </trkpt>
      <trkpt lat="47.08709" lon="-1.27842">
        <ele>18</ele>
        <time>2020-07-27T11:05:44Z</time>
      </trkpt>
      <trkpt lat="47.08708" lon="-1.27846">
        <ele>18</ele>
        <time>2020-07-27T11:05:45Z</time>
      </trkpt>
      <trkpt lat="47.08704" lon="-1.27851">
        <ele>18.8</ele>
        <time>2020-07-27T11:05:49Z</time>
      </trkpt>
      <trkpt lat="47.08701" lon="-1.27847">
        <ele>19</ele>
        <time>2020-07-27T11:05:51Z</time>
      </trkpt>
      <trkpt lat="47.08696" lon="-1.27841">
        <ele>19.2</ele>
        <time>2020-07-27T11:05:53Z</time>
      </trkpt>
      <trkpt lat="47.0868" lon="-1.27822">
        <ele>19.2</ele>
        <time>2020-07-27T11:06:00Z</time>
      </trkpt>
      <trkpt lat="47.0867" lon="-1.27811">
        <ele>17.6</ele>
        <time>2020-07-27T11:06:05Z</time>
      </trkpt>
      <trkpt lat="47.08669" lon="-1.27809">
        <ele>17</ele>
        <time>2020-07-27T11:06:06Z</time>
      </trkpt>
      <trkpt lat="47.08666" lon="-1.27805">
        <ele>16.4</ele>
        <time>2020-07-27T11:06:08Z</time>
      </trkpt>
      <trkpt lat="47.0866" lon="-1.27792">
        <ele>17.4</ele>
        <time>2020-07-27T11:06:13Z</time>
      </trkpt>
      <trkpt lat="47.08648" lon="-1.27769">
        <ele>17.8</ele>
        <time>2020-07-27T11:06:19Z</time>
      </trkpt>
      <trkpt lat="47.08641" lon="-1.27742">
        <ele>17.6</ele>
        <time>2020-07-27T11:06:24Z</time>
      </trkpt>
      <trkpt lat="47.08639" lon="-1.2771">
        <ele>18</ele>
        <time>2020-07-27T11:06:31Z</time>
      </trkpt>
      <trkpt lat="47.08645" lon="-1.27692">
        <ele>18.4</ele>
        <time>2020-07-27T11:06:36Z</time>
      </trkpt>
      <trkpt lat="47.08647" lon="-1.27689">
        <ele>18.6</ele>
        <time>2020-07-27T11:06:37Z</time>
      </trkpt>
      <trkpt lat="47.08658" lon="-1.27677">
        <ele>19.2</ele>
        <time>2020-07-27T11:06:43Z</time>
      </trkpt>
      <trkpt lat="47.08664" lon="-1.27672">
        <ele>19.6</ele>
        <time>2020-07-27T11:06:46Z</time>
      </trkpt>
      <trkpt lat="47.08677" lon="-1.27662">
        <ele>20.6</ele>
        <time>2020-07-27T11:06:52Z</time>
      </trkpt>
      <trkpt lat="47.0869" lon="-1.27644">
        <ele>20.6</ele>
        <time>2020-07-27T11:06:59Z</time>
      </trkpt>
      <trkpt lat="47.08692" lon="-1.27637">
        <ele>20.6</ele>
        <time>2020-07-27T11:07:01Z</time>
      </trkpt>
      <trkpt lat="47.08694" lon="-1.27625">
        <ele>20.8</ele>
        <time>2020-07-27T11:07:04Z</time>
      </trkpt>
      <trkpt lat="47.08693" lon="-1.27623">
        <ele>20.8</ele>
        <time>2020-07-27T11:07:05Z</time>
      </trkpt>
      <trkpt lat="47.08689" lon="-1.27615">
        <ele>20.8</ele>
        <time>2020-07-27T11:07:08Z</time>
      </trkpt>
      <trkpt lat="47.08683" lon="-1.27607">
        <ele>21</ele>
        <time>2020-07-27T11:07:12Z</time>
      </trkpt>
      <trkpt lat="47.08673" lon="-1.27595">
        <ele>21.6</ele>
        <time>2020-07-27T11:07:19Z</time>
      </trkpt>
      <trkpt lat="47.0867" lon="-1.27591">
        <ele>21.8</ele>
        <time>2020-07-27T11:07:21Z</time>
      </trkpt>
      <trkpt lat="47.08658" lon="-1.27584">
        <ele>22.6</ele>
        <time>2020-07-27T11:07:27Z</time>
      </trkpt>
      <trkpt lat="47.08655" lon="-1.27577">
        <ele>22.8</ele>
        <time>2020-07-27T11:07:29Z</time>
      </trkpt>
      <trkpt lat="47.08652" lon="-1.27567">
        <ele>23.4</ele>
        <time>2020-07-27T11:07:32Z</time>
      </trkpt>
      <trkpt lat="47.08649" lon="-1.27553">
        <ele>24</ele>
        <time>2020-07-27T11:07:36Z</time>
      </trkpt>
      <trkpt lat="47.08644" lon="-1.27531">
        <ele>25.2</ele>
        <time>2020-07-27T11:07:42Z</time>
      </trkpt>
      <trkpt lat="47.08641" lon="-1.2752">
        <ele>26.4</ele>
        <time>2020-07-27T11:07:45Z</time>
      </trkpt>
      <trkpt lat="47.08639" lon="-1.27509">
        <ele>27.6</ele>
        <time>2020-07-27T11:07:48Z</time>
      </trkpt>
      <trkpt lat="47.08638" lon="-1.27502">
        <ele>29.2</ele>
        <time>2020-07-27T11:07:50Z</time>
      </trkpt>
      <trkpt lat="47.08638" lon="-1.27498">
        <ele>29.8</ele>
        <time>2020-07-27T11:07:51Z</time>
      </trkpt>
      <trkpt lat="47.08637" lon="-1.27494">
        <ele>30.4</ele>
        <time>2020-07-27T11:07:52Z</time>
      </trkpt>
      <trkpt lat="47.08635" lon="-1.27483">
        <ele>31.8</ele>
        <time>2020-07-27T11:07:55Z</time>
      </trkpt>
      <trkpt lat="47.08632" lon="-1.27467">
        <ele>32.6</ele>
        <time>2020-07-27T11:07:59Z</time>
      </trkpt>
      <trkpt lat="47.08632" lon="-1.27463">
        <ele>33</ele>
        <time>2020-07-27T11:08:00Z</time>
      </trkpt>
      <trkpt lat="47.08628" lon="-1.27437">
        <ele>34</ele>
        <time>2020-07-27T11:08:06Z</time>
      </trkpt>
      <trkpt lat="47.08627" lon="-1.27428">
        <ele>34</ele>
        <time>2020-07-27T11:08:08Z</time>
      </trkpt>
      <trkpt lat="47.08624" lon="-1.27384">
        <ele>34.2</ele>
        <time>2020-07-27T11:08:16Z</time>
      </trkpt>
      <trkpt lat="47.08618" lon="-1.27324">
        <ele>34.8</ele>
        <time>2020-07-27T11:08:26Z</time>
      </trkpt>
      <trkpt lat="47.08611" lon="-1.2725">
        <ele>34</ele>
        <time>2020-07-27T11:08:37Z</time>
      </trkpt>
      <trkpt lat="47.08606" lon="-1.27184">
        <ele>33.4</ele>
        <time>2020-07-27T11:08:47Z</time>
      </trkpt>
      <trkpt lat="47.08605" lon="-1.27163">
        <ele>32.8</ele>
        <time>2020-07-27T11:08:52Z</time>
      </trkpt>
      <trkpt lat="47.08604" lon="-1.27159">
        <ele>32</ele>
        <time>2020-07-27T11:09:05Z</time>
      </trkpt>
      <trkpt lat="47.08603" lon="-1.27178">
        <ele>32.4</ele>
        <time>2020-07-27T11:09:10Z</time>
      </trkpt>
      <trkpt lat="47.08605" lon="-1.27222">
        <ele>32.6</ele>
        <time>2020-07-27T11:09:18Z</time>
      </trkpt>
      <trkpt lat="47.08611" lon="-1.27281">
        <ele>32.8</ele>
        <time>2020-07-27T11:09:28Z</time>
      </trkpt>
      <trkpt lat="47.08615" lon="-1.27325">
        <ele>33.2</ele>
        <time>2020-07-27T11:09:37Z</time>
      </trkpt>
      <trkpt lat="47.08611" lon="-1.27343">
        <ele>33.2</ele>
        <time>2020-07-27T11:09:42Z</time>
      </trkpt>
      <trkpt lat="47.08559" lon="-1.27451">
        <ele>27.8</ele>
        <time>2020-07-27T11:13:33Z</time>
      </trkpt>
      <trkpt lat="47.08555" lon="-1.27447">
        <ele>28.8</ele>
        <time>2020-07-27T11:13:35Z</time>
      </trkpt>
      <trkpt lat="47.08554" lon="-1.2743">
        <ele>29</ele>
        <time>2020-07-27T11:13:39Z</time>
      </trkpt>
      <trkpt lat="47.08561" lon="-1.27417">
        <ele>29.8</ele>
        <time>2020-07-27T11:13:42Z</time>
      </trkpt>
      <trkpt lat="47.08565" lon="-1.27408">
        <ele>29.8</ele>
        <time>2020-07-27T11:13:44Z</time>
      </trkpt>
      <trkpt lat="47.08567" lon="-1.27403">
        <ele>29.6</ele>
        <time>2020-07-27T11:13:45Z</time>
      </trkpt>
      <trkpt lat="47.08586" lon="-1.27367">
        <ele>31</ele>
        <time>2020-07-27T11:13:53Z</time>
      </trkpt>
      <trkpt lat="47.08598" lon="-1.27357">
        <ele>31.8</ele>
        <time>2020-07-27T11:13:57Z</time>
      </trkpt>
      <trkpt lat="47.08604" lon="-1.27351">
        <ele>32</ele>
        <time>2020-07-27T11:14:00Z</time>
      </trkpt>
      <trkpt lat="47.08606" lon="-1.27345">
        <ele>32.2</ele>
        <time>2020-07-27T11:14:02Z</time>
      </trkpt>
      <trkpt lat="47.08611" lon="-1.27337">
        <ele>32.4</ele>
        <time>2020-07-27T11:14:05Z</time>
      </trkpt>
      <trkpt lat="47.08613" lon="-1.27336">
        <ele>32.6</ele>
        <time>2020-07-27T11:14:06Z</time>
      </trkpt>
      <trkpt lat="47.08618" lon="-1.27329">
        <ele>33</ele>
        <time>2020-07-27T11:14:09Z</time>
      </trkpt>
      <trkpt lat="47.08618" lon="-1.27325">
        <ele>33.2</ele>
        <time>2020-07-27T11:14:10Z</time>
      </trkpt>
      <trkpt lat="47.08617" lon="-1.2732">
        <ele>33.2</ele>
        <time>2020-07-27T11:14:11Z</time>
      </trkpt>
      <trkpt lat="47.08616" lon="-1.27309">
        <ele>33.6</ele>
        <time>2020-07-27T11:14:13Z</time>
      </trkpt>
      <trkpt lat="47.08612" lon="-1.27279">
        <ele>33.8</ele>
        <time>2020-07-27T11:14:18Z</time>
      </trkpt>
      <trkpt lat="47.08605" lon="-1.27218">
        <ele>34</ele>
        <time>2020-07-27T11:14:28Z</time>
      </trkpt>
      <trkpt lat="47.08604" lon="-1.27173">
        <ele>33.6</ele>
        <time>2020-07-27T11:14:35Z</time>
      </trkpt>
      <trkpt lat="47.08606" lon="-1.27153">
        <ele>33</ele>
        <time>2020-07-27T11:14:38Z</time>
      </trkpt>
      <trkpt lat="47.08609" lon="-1.27132">
        <ele>33</ele>
        <time>2020-07-27T11:14:41Z</time>
      </trkpt>
      <trkpt lat="47.08623" lon="-1.27051">
        <ele>33.4</ele>
        <time>2020-07-27T11:14:52Z</time>
      </trkpt>
      <trkpt lat="47.08633" lon="-1.26973">
        <ele>34.2</ele>
        <time>2020-07-27T11:15:02Z</time>
      </trkpt>
      <trkpt lat="47.08634" lon="-1.26965">
        <ele>34.2</ele>
        <time>2020-07-27T11:15:03Z</time>
      </trkpt>
      <trkpt lat="47.0864" lon="-1.26889">
        <ele>34.2</ele>
        <time>2020-07-27T11:15:13Z</time>
      </trkpt>
      <trkpt lat="47.08643" lon="-1.26838">
        <ele>35.2</ele>
        <time>2020-07-27T11:15:20Z</time>
      </trkpt>
      <trkpt lat="47.08642" lon="-1.26832">
        <ele>35.4</ele>
        <time>2020-07-27T11:15:21Z</time>
      </trkpt>
      <trkpt lat="47.0864" lon="-1.26808">
        <ele>36.2</ele>
        <time>2020-07-27T11:15:26Z</time>
      </trkpt>
      <trkpt lat="47.08639" lon="-1.26805">
        <ele>36.2</ele>
        <time>2020-07-27T11:15:27Z</time>
      </trkpt>
      <trkpt lat="47.08635" lon="-1.26795">
        <ele>36.6</ele>
        <time>2020-07-27T11:15:31Z</time>
      </trkpt>
      <trkpt lat="47.08634" lon="-1.26786">
        <ele>37.4</ele>
        <time>2020-07-27T11:16:03Z</time>
      </trkpt>
      <trkpt lat="47.08633" lon="-1.26783">
        <ele>37.4</ele>
        <time>2020-07-27T11:16:04Z</time>
      </trkpt>
      <trkpt lat="47.08631" lon="-1.26766">
        <ele>38</ele>
        <time>2020-07-27T11:16:08Z</time>
      </trkpt>
      <trkpt lat="47.08628" lon="-1.26755">
        <ele>38.4</ele>
        <time>2020-07-27T11:16:10Z</time>
      </trkpt>
      <trkpt lat="47.08625" lon="-1.26744">
        <ele>38.8</ele>
        <time>2020-07-27T11:16:12Z</time>
      </trkpt>
      <trkpt lat="47.08621" lon="-1.26732">
        <ele>39.4</ele>
        <time>2020-07-27T11:16:14Z</time>
      </trkpt>
      <trkpt lat="47.08611" lon="-1.26701">
        <ele>40.6</ele>
        <time>2020-07-27T11:16:19Z</time>
      </trkpt>
      <trkpt lat="47.08604" lon="-1.26683">
        <ele>41.2</ele>
        <time>2020-07-27T11:16:22Z</time>
      </trkpt>
      <trkpt lat="47.08601" lon="-1.26669">
        <ele>41.6</ele>
        <time>2020-07-27T11:16:24Z</time>
      </trkpt>
      <trkpt lat="47.08589" lon="-1.26628">
        <ele>42.6</ele>
        <time>2020-07-27T11:16:30Z</time>
      </trkpt>
      <trkpt lat="47.08587" lon="-1.26621">
        <ele>42.6</ele>
        <time>2020-07-27T11:16:31Z</time>
      </trkpt>
      <trkpt lat="47.08571" lon="-1.2657">
        <ele>43.2</ele>
        <time>2020-07-27T11:16:39Z</time>
      </trkpt>
      <trkpt lat="47.08556" lon="-1.26524">
        <ele>43.6</ele>
        <time>2020-07-27T11:16:46Z</time>
      </trkpt>
      <trkpt lat="47.08554" lon="-1.26517">
        <ele>43.8</ele>
        <time>2020-07-27T11:16:47Z</time>
      </trkpt>
      <trkpt lat="47.08538" lon="-1.26465">
        <ele>43.4</ele>
        <time>2020-07-27T11:16:54Z</time>
      </trkpt>
      <trkpt lat="47.08525" lon="-1.2642">
        <ele>42.8</ele>
        <time>2020-07-27T11:17:00Z</time>
      </trkpt>
      <trkpt lat="47.08517" lon="-1.26398">
        <ele>42.6</ele>
        <time>2020-07-27T11:17:03Z</time>
      </trkpt>
      <trkpt lat="47.08498" lon="-1.26336">
        <ele>41.8</ele>
        <time>2020-07-27T11:17:11Z</time>
      </trkpt>
      <trkpt lat="47.08495" lon="-1.26327">
        <ele>41.6</ele>
        <time>2020-07-27T11:17:12Z</time>
      </trkpt>
      <trkpt lat="47.08487" lon="-1.26301">
        <ele>40.2</ele>
        <time>2020-07-27T11:17:15Z</time>
      </trkpt>
      <trkpt lat="47.08481" lon="-1.26284">
        <ele>39.2</ele>
        <time>2020-07-27T11:17:17Z</time>
      </trkpt>
      <trkpt lat="47.08477" lon="-1.26277">
        <ele>38.8</ele>
        <time>2020-07-27T11:17:18Z</time>
      </trkpt>
      <trkpt lat="47.08475" lon="-1.26269">
        <ele>38.6</ele>
        <time>2020-07-27T11:17:19Z</time>
      </trkpt>
      <trkpt lat="47.08471" lon="-1.26253">
        <ele>38</ele>
        <time>2020-07-27T11:17:21Z</time>
      </trkpt>
      <trkpt lat="47.08466" lon="-1.26238">
        <ele>37.8</ele>
        <time>2020-07-27T11:17:23Z</time>
      </trkpt>
      <trkpt lat="47.08464" lon="-1.26231">
        <ele>37.6</ele>
        <time>2020-07-27T11:17:24Z</time>
      </trkpt>
      <trkpt lat="47.08448" lon="-1.26178">
        <ele>37</ele>
        <time>2020-07-27T11:17:32Z</time>
      </trkpt>
      <trkpt lat="47.08435" lon="-1.26131">
        <ele>38.6</ele>
        <time>2020-07-27T11:17:40Z</time>
      </trkpt>
      <trkpt lat="47.08433" lon="-1.26124">
        <ele>38.8</ele>
        <time>2020-07-27T11:17:41Z</time>
      </trkpt>
      <trkpt lat="47.0842" lon="-1.26085">
        <ele>39.8</ele>
        <time>2020-07-27T11:17:47Z</time>
      </trkpt>
      <trkpt lat="47.08418" lon="-1.26078">
        <ele>40</ele>
        <time>2020-07-27T11:17:48Z</time>
      </trkpt>
      <trkpt lat="47.08406" lon="-1.26039">
        <ele>41</ele>
        <time>2020-07-27T11:17:54Z</time>
      </trkpt>
      <trkpt lat="47.08398" lon="-1.26012">
        <ele>41.6</ele>
        <time>2020-07-27T11:17:58Z</time>
      </trkpt>
      <trkpt lat="47.08388" lon="-1.25986">
        <ele>42.2</ele>
        <time>2020-07-27T11:18:02Z</time>
      </trkpt>
      <trkpt lat="47.08377" lon="-1.25952">
        <ele>42.2</ele>
        <time>2020-07-27T11:18:07Z</time>
      </trkpt>
      <trkpt lat="47.0836" lon="-1.25895">
        <ele>42.4</ele>
        <time>2020-07-27T11:18:15Z</time>
      </trkpt>
      <trkpt lat="47.08347" lon="-1.25846">
        <ele>42.8</ele>
        <time>2020-07-27T11:18:22Z</time>
      </trkpt>
      <trkpt lat="47.08345" lon="-1.25827">
        <ele>43.2</ele>
        <time>2020-07-27T11:18:25Z</time>
      </trkpt>
      <trkpt lat="47.08339" lon="-1.25815">
        <ele>43.4</ele>
        <time>2020-07-27T11:18:27Z</time>
      </trkpt>
      <trkpt lat="47.08331" lon="-1.25803">
        <ele>43.6</ele>
        <time>2020-07-27T11:18:29Z</time>
      </trkpt>
      <trkpt lat="47.08328" lon="-1.25797">
        <ele>43.6</ele>
        <time>2020-07-27T11:18:30Z</time>
      </trkpt>
      <trkpt lat="47.08324" lon="-1.25782">
        <ele>43.6</ele>
        <time>2020-07-27T11:18:32Z</time>
      </trkpt>
      <trkpt lat="47.08326" lon="-1.25754">
        <ele>43.6</ele>
        <time>2020-07-27T11:18:36Z</time>
      </trkpt>
      <trkpt lat="47.08328" lon="-1.25747">
        <ele>43.6</ele>
        <time>2020-07-27T11:18:37Z</time>
      </trkpt>
      <trkpt lat="47.08329" lon="-1.25741">
        <ele>43.6</ele>
        <time>2020-07-27T11:18:38Z</time>
      </trkpt>
      <trkpt lat="47.08326" lon="-1.25727">
        <ele>43.6</ele>
        <time>2020-07-27T11:18:41Z</time>
      </trkpt>
      <trkpt lat="47.08321" lon="-1.25719">
        <ele>44</ele>
        <time>2020-07-27T11:18:45Z</time>
      </trkpt>
      <trkpt lat="47.08323" lon="-1.25725">
        <ele>44.2</ele>
        <time>2020-07-27T11:19:11Z</time>
      </trkpt>
      <trkpt lat="47.08323" lon="-1.25727">
        <ele>44.2</ele>
        <time>2020-07-27T11:19:12Z</time>
      </trkpt>
      <trkpt lat="47.08333" lon="-1.25728">
        <ele>45.2</ele>
        <time>2020-07-27T11:19:18Z</time>
      </trkpt>
      <trkpt lat="47.08336" lon="-1.25723">
        <ele>46.6</ele>
        <time>2020-07-27T11:19:20Z</time>
      </trkpt>
      <trkpt lat="47.08343" lon="-1.25719">
        <ele>47.4</ele>
        <time>2020-07-27T11:19:23Z</time>
      </trkpt>
      <trkpt lat="47.08349" lon="-1.25723">
        <ele>47.6</ele>
        <time>2020-07-27T11:19:25Z</time>
      </trkpt>
      <trkpt lat="47.08352" lon="-1.25724">
        <ele>47.6</ele>
        <time>2020-07-27T11:19:26Z</time>
      </trkpt>
      <trkpt lat="47.08357" lon="-1.25724">
        <ele>47.8</ele>
        <time>2020-07-27T11:19:28Z</time>
      </trkpt>
      <trkpt lat="47.08374" lon="-1.2573">
        <ele>47.8</ele>
        <time>2020-07-27T11:19:33Z</time>
      </trkpt>
      <trkpt lat="47.08386" lon="-1.2574">
        <ele>47.4</ele>
        <time>2020-07-27T11:19:39Z</time>
      </trkpt>
      <trkpt lat="47.08398" lon="-1.25741">
        <ele>47.6</ele>
        <time>2020-07-27T11:19:44Z</time>
      </trkpt>
      <trkpt lat="47.08405" lon="-1.25732">
        <ele>48.8</ele>
        <time>2020-07-27T11:19:49Z</time>
      </trkpt>
      <trkpt lat="47.08407" lon="-1.25732">
        <ele>49</ele>
        <time>2020-07-27T11:19:51Z</time>
      </trkpt>
      <trkpt lat="47.08407" lon="-1.25734">
        <ele>49.4</ele>
        <time>2020-07-27T11:19:53Z</time>
      </trkpt>
      <trkpt lat="47.08406" lon="-1.25735">
        <ele>49.4</ele>
        <time>2020-07-27T11:19:54Z</time>
      </trkpt>
      <trkpt lat="47.08399" lon="-1.25739">
        <ele>49.4</ele>
        <time>2020-07-27T11:19:58Z</time>
      </trkpt>
      <trkpt lat="47.08384" lon="-1.2574">
        <ele>49</ele>
        <time>2020-07-27T11:20:03Z</time>
      </trkpt>
      <trkpt lat="47.0838" lon="-1.25737">
        <ele>49</ele>
        <time>2020-07-27T11:20:04Z</time>
      </trkpt>
      <trkpt lat="47.08365" lon="-1.25727">
        <ele>48.8</ele>
        <time>2020-07-27T11:20:09Z</time>
      </trkpt>
      <trkpt lat="47.08362" lon="-1.25726">
        <ele>48.8</ele>
        <time>2020-07-27T11:20:10Z</time>
      </trkpt>
      <trkpt lat="47.08343" lon="-1.25722">
        <ele>48.6</ele>
        <time>2020-07-27T11:20:15Z</time>
      </trkpt>
      <trkpt lat="47.08335" lon="-1.25721">
        <ele>48.4</ele>
        <time>2020-07-27T11:20:18Z</time>
      </trkpt>
      <trkpt lat="47.08334" lon="-1.25725">
        <ele>48.4</ele>
        <time>2020-07-27T11:20:19Z</time>
      </trkpt>
      <trkpt lat="47.08323" lon="-1.25727">
        <ele>48</ele>
        <time>2020-07-27T11:20:23Z</time>
      </trkpt>
      <trkpt lat="47.08319" lon="-1.25718">
        <ele>47.8</ele>
        <time>2020-07-27T11:20:25Z</time>
      </trkpt>
      <trkpt lat="47.08317" lon="-1.25712">
        <ele>47.8</ele>
        <time>2020-07-27T11:20:26Z</time>
      </trkpt>
      <trkpt lat="47.08314" lon="-1.25707">
        <ele>47.8</ele>
        <time>2020-07-27T11:20:27Z</time>
      </trkpt>
      <trkpt lat="47.08302" lon="-1.25681">
        <ele>48</ele>
        <time>2020-07-27T11:20:32Z</time>
      </trkpt>
      <trkpt lat="47.08298" lon="-1.25668">
        <ele>47.8</ele>
        <time>2020-07-27T11:20:34Z</time>
      </trkpt>
      <trkpt lat="47.08296" lon="-1.25662">
        <ele>47.8</ele>
        <time>2020-07-27T11:20:35Z</time>
      </trkpt>
      <trkpt lat="47.08282" lon="-1.25627">
        <ele>47.2</ele>
        <time>2020-07-27T11:20:41Z</time>
      </trkpt>
      <trkpt lat="47.08276" lon="-1.25615">
        <ele>47</ele>
        <time>2020-07-27T11:20:43Z</time>
      </trkpt>
      <trkpt lat="47.08268" lon="-1.25597">
        <ele>46.8</ele>
        <time>2020-07-27T11:20:46Z</time>
      </trkpt>
      <trkpt lat="47.08265" lon="-1.2559">
        <ele>46.8</ele>
        <time>2020-07-27T11:20:47Z</time>
      </trkpt>
      <trkpt lat="47.08246" lon="-1.25528">
        <ele>46</ele>
        <time>2020-07-27T11:20:56Z</time>
      </trkpt>
      <trkpt lat="47.08239" lon="-1.25507">
        <ele>45.6</ele>
        <time>2020-07-27T11:20:59Z</time>
      </trkpt>
      <trkpt lat="47.08228" lon="-1.25472">
        <ele>45.2</ele>
        <time>2020-07-27T11:21:04Z</time>
      </trkpt>
      <trkpt lat="47.08211" lon="-1.2541">
        <ele>45</ele>
        <time>2020-07-27T11:21:13Z</time>
      </trkpt>
      <trkpt lat="47.08209" lon="-1.25398">
        <ele>44.6</ele>
        <time>2020-07-27T11:21:16Z</time>
      </trkpt>
      <trkpt lat="47.08207" lon="-1.25388">
        <ele>44.8</ele>
        <time>2020-07-27T11:21:18Z</time>
      </trkpt>
      <trkpt lat="47.08197" lon="-1.25354">
        <ele>44</ele>
        <time>2020-07-27T11:21:23Z</time>
      </trkpt>
      <trkpt lat="47.08189" lon="-1.25329">
        <ele>43.4</ele>
        <time>2020-07-27T11:21:26Z</time>
      </trkpt>
      <trkpt lat="47.08175" lon="-1.25286">
        <ele>42.4</ele>
        <time>2020-07-27T11:21:31Z</time>
      </trkpt>
      <trkpt lat="47.08164" lon="-1.2525">
        <ele>41.4</ele>
        <time>2020-07-27T11:21:35Z</time>
      </trkpt>
      <trkpt lat="47.08149" lon="-1.25205">
        <ele>40.4</ele>
        <time>2020-07-27T11:21:40Z</time>
      </trkpt>
      <trkpt lat="47.08146" lon="-1.25197">
        <ele>40.2</ele>
        <time>2020-07-27T11:21:41Z</time>
      </trkpt>
      <trkpt lat="47.08135" lon="-1.25165">
        <ele>39.2</ele>
        <time>2020-07-27T11:21:45Z</time>
      </trkpt>
      <trkpt lat="47.08124" lon="-1.25132">
        <ele>38</ele>
        <time>2020-07-27T11:21:49Z</time>
      </trkpt>
      <trkpt lat="47.08101" lon="-1.25064">
        <ele>37.2</ele>
        <time>2020-07-27T11:21:58Z</time>
      </trkpt>
      <trkpt lat="47.08078" lon="-1.24995">
        <ele>37.6</ele>
        <time>2020-07-27T11:22:08Z</time>
      </trkpt>
      <trkpt lat="47.08075" lon="-1.24989">
        <ele>37.6</ele>
        <time>2020-07-27T11:22:09Z</time>
      </trkpt>
      <trkpt lat="47.08063" lon="-1.24956">
        <ele>38.4</ele>
        <time>2020-07-27T11:22:14Z</time>
      </trkpt>
      <trkpt lat="47.08054" lon="-1.24921">
        <ele>39</ele>
        <time>2020-07-27T11:22:19Z</time>
      </trkpt>
      <trkpt lat="47.08045" lon="-1.2489">
        <ele>39.8</ele>
        <time>2020-07-27T11:22:24Z</time>
      </trkpt>
      <trkpt lat="47.08034" lon="-1.24853">
        <ele>39.8</ele>
        <time>2020-07-27T11:22:31Z</time>
      </trkpt>
      <trkpt lat="47.08032" lon="-1.24848">
        <ele>40</ele>
        <time>2020-07-27T11:22:32Z</time>
      </trkpt>
      <trkpt lat="47.08023" lon="-1.24833">
        <ele>40</ele>
        <time>2020-07-27T11:22:35Z</time>
      </trkpt>
      <trkpt lat="47.08023" lon="-1.24813">
        <ele>40</ele>
        <time>2020-07-27T11:22:38Z</time>
      </trkpt>
      <trkpt lat="47.08023" lon="-1.24806">
        <ele>40.2</ele>
        <time>2020-07-27T11:22:39Z</time>
      </trkpt>
      <trkpt lat="47.08018" lon="-1.24786">
        <ele>40.4</ele>
        <time>2020-07-27T11:22:42Z</time>
      </trkpt>
      <trkpt lat="47.08002" lon="-1.24728">
        <ele>40.4</ele>
        <time>2020-07-27T11:22:50Z</time>
      </trkpt>
      <trkpt lat="47.07985" lon="-1.24672">
        <ele>40.6</ele>
        <time>2020-07-27T11:22:58Z</time>
      </trkpt>
      <trkpt lat="47.07981" lon="-1.24664">
        <ele>40.6</ele>
        <time>2020-07-27T11:23:01Z</time>
      </trkpt>
    </trkseg>
  </trk>
</gpx>